<?xml version="1.0" encoding="UTF-8" standalone="no" ?>
<gpx xmlns="http://www.topografix.com/GPX/1/1" xmlns:xsi="http://www.w3.org/2001/XMLSchema-instance" xsi:schemaLocation="http://www.topografix.com/GPX/1/1 http://www.topografix.com/GPX/1/1/gpx.xsd" version="1.1" creator="VisuGPX - https://www.visugpx.com">
  <metadata>
    <name>Boucle Carciara - Paliri</name>
    <desc><![CDATA[Boucle brèche et ravin du Carciara jusqu'au refuge de Paliri et redescente par le chemin de Paliri via Bocca di Monte Bracciutu et Punta Russa.
Départ et retour au parking de la piste de Lora au ruisseau effondré avant l'embranchement du pont de la Figa Bona (Mela)]]></desc>
  </metadata>
  <trk>
    <name><![CDATA[2021-05-07 15:41:14]]></name>
    <extensions>
      <line xmlns="http://www.topografix.com/GPX/gpx_style/0/2">
        <color>0000FF</color>
        <width>4</width>
      </line>
    </extensions>
    <trkseg>
      <trkpt lat="41.75325" lon="9.28074">
        <ele>275.21</ele>
        <time>2021-05-07T06:58:58Z</time>
      </trkpt>
      <trkpt lat="41.75325" lon="9.28074">
        <ele>275.21</ele>
        <time>2021-05-07T06:58:59Z</time>
      </trkpt>
      <trkpt lat="41.75328" lon="9.28072">
        <ele>275.24</ele>
        <time>2021-05-07T06:59:16Z</time>
      </trkpt>
      <trkpt lat="41.75333" lon="9.28077">
        <ele>275.23</ele>
        <time>2021-05-07T06:59:41Z</time>
      </trkpt>
      <trkpt lat="41.75332" lon="9.28079">
        <ele>274.45</ele>
        <time>2021-05-07T06:59:57Z</time>
      </trkpt>
      <trkpt lat="41.75325" lon="9.2809">
        <ele>273.73</ele>
        <time>2021-05-07T07:00:14Z</time>
      </trkpt>
      <trkpt lat="41.75332" lon="9.28085">
        <ele>273.82</ele>
        <time>2021-05-07T07:00:34Z</time>
      </trkpt>
      <trkpt lat="41.75344" lon="9.28078">
        <ele>273.81</ele>
        <time>2021-05-07T07:00:50Z</time>
      </trkpt>
      <trkpt lat="41.75348" lon="9.2807">
        <ele>272.34</ele>
        <time>2021-05-07T07:01:10Z</time>
      </trkpt>
      <trkpt lat="41.7535" lon="9.28076">
        <ele>271.56</ele>
        <time>2021-05-07T07:01:30Z</time>
      </trkpt>
      <trkpt lat="41.7535" lon="9.28077">
        <ele>270.7</ele>
        <time>2021-05-07T07:01:53Z</time>
      </trkpt>
      <trkpt lat="41.75349" lon="9.28067">
        <ele>273.1</ele>
        <time>2021-05-07T07:02:02Z</time>
      </trkpt>
      <trkpt lat="41.75344" lon="9.28054">
        <ele>273.18</ele>
        <time>2021-05-07T07:02:17Z</time>
      </trkpt>
      <trkpt lat="41.75337" lon="9.28028">
        <ele>273.26</ele>
        <time>2021-05-07T07:02:32Z</time>
      </trkpt>
      <trkpt lat="41.75337" lon="9.27998">
        <ele>275.08</ele>
        <time>2021-05-07T07:02:48Z</time>
      </trkpt>
      <trkpt lat="41.75338" lon="9.27969">
        <ele>275.12</ele>
        <time>2021-05-07T07:03:04Z</time>
      </trkpt>
      <trkpt lat="41.75337" lon="9.27963">
        <ele>275.09</ele>
        <time>2021-05-07T07:03:08Z</time>
      </trkpt>
      <trkpt lat="41.75334" lon="9.27947">
        <ele>275.22</ele>
        <time>2021-05-07T07:03:17Z</time>
      </trkpt>
      <trkpt lat="41.75331" lon="9.27926">
        <ele>275.31</ele>
        <time>2021-05-07T07:03:29Z</time>
      </trkpt>
      <trkpt lat="41.7533" lon="9.27919">
        <ele>275.33</ele>
        <time>2021-05-07T07:03:33Z</time>
      </trkpt>
      <trkpt lat="41.75326" lon="9.27904">
        <ele>275.43</ele>
        <time>2021-05-07T07:03:42Z</time>
      </trkpt>
      <trkpt lat="41.75324" lon="9.2788">
        <ele>275.57</ele>
        <time>2021-05-07T07:03:56Z</time>
      </trkpt>
      <trkpt lat="41.75323" lon="9.2786">
        <ele>275.67</ele>
        <time>2021-05-07T07:04:11Z</time>
      </trkpt>
      <trkpt lat="41.75316" lon="9.27837">
        <ele>278.44</ele>
        <time>2021-05-07T07:04:26Z</time>
      </trkpt>
      <trkpt lat="41.75308" lon="9.27815">
        <ele>280.18</ele>
        <time>2021-05-07T07:04:42Z</time>
      </trkpt>
      <trkpt lat="41.75308" lon="9.27791">
        <ele>280.23</ele>
        <time>2021-05-07T07:04:58Z</time>
      </trkpt>
      <trkpt lat="41.75315" lon="9.27766">
        <ele>280.31</ele>
        <time>2021-05-07T07:05:12Z</time>
      </trkpt>
      <trkpt lat="41.75331" lon="9.2775">
        <ele>282.33</ele>
        <time>2021-05-07T07:05:28Z</time>
      </trkpt>
      <trkpt lat="41.75338" lon="9.27735">
        <ele>283.14</ele>
        <time>2021-05-07T07:05:39Z</time>
      </trkpt>
      <trkpt lat="41.75331" lon="9.27734">
        <ele>283.23</ele>
        <time>2021-05-07T07:05:54Z</time>
      </trkpt>
      <trkpt lat="41.75324" lon="9.27732">
        <ele>285.05</ele>
        <time>2021-05-07T07:06:02Z</time>
      </trkpt>
      <trkpt lat="41.75319" lon="9.27732">
        <ele>285.81</ele>
        <time>2021-05-07T07:06:06Z</time>
      </trkpt>
      <trkpt lat="41.75306" lon="9.27719">
        <ele>288.36</ele>
        <time>2021-05-07T07:06:20Z</time>
      </trkpt>
      <trkpt lat="41.75294" lon="9.27703">
        <ele>289.23</ele>
        <time>2021-05-07T07:06:34Z</time>
      </trkpt>
      <trkpt lat="41.75291" lon="9.27699">
        <ele>289.23</ele>
        <time>2021-05-07T07:06:38Z</time>
      </trkpt>
      <trkpt lat="41.75288" lon="9.27698">
        <ele>289.24</ele>
        <time>2021-05-07T07:06:41Z</time>
      </trkpt>
      <trkpt lat="41.75277" lon="9.27682">
        <ele>291.33</ele>
        <time>2021-05-07T07:06:55Z</time>
      </trkpt>
      <trkpt lat="41.75267" lon="9.2766">
        <ele>293.32</ele>
        <time>2021-05-07T07:07:11Z</time>
      </trkpt>
      <trkpt lat="41.75257" lon="9.27641">
        <ele>293.36</ele>
        <time>2021-05-07T07:07:25Z</time>
      </trkpt>
      <trkpt lat="41.75249" lon="9.27623">
        <ele>293.54</ele>
        <time>2021-05-07T07:07:39Z</time>
      </trkpt>
      <trkpt lat="41.75249" lon="9.27604">
        <ele>293.71</ele>
        <time>2021-05-07T07:07:47Z</time>
      </trkpt>
      <trkpt lat="41.75258" lon="9.2757">
        <ele>295.14</ele>
        <time>2021-05-07T07:08:04Z</time>
      </trkpt>
      <trkpt lat="41.7526" lon="9.27567">
        <ele>297.77</ele>
        <time>2021-05-07T07:08:07Z</time>
      </trkpt>
      <trkpt lat="41.75262" lon="9.27568">
        <ele>299.03</ele>
        <time>2021-05-07T07:08:09Z</time>
      </trkpt>
      <trkpt lat="41.75276" lon="9.27584">
        <ele>300</ele>
        <time>2021-05-07T07:08:29Z</time>
      </trkpt>
      <trkpt lat="41.75289" lon="9.27601">
        <ele>300.29</ele>
        <time>2021-05-07T07:08:49Z</time>
      </trkpt>
      <trkpt lat="41.75308" lon="9.27607">
        <ele>301.41</ele>
        <time>2021-05-07T07:09:09Z</time>
      </trkpt>
      <trkpt lat="41.75312" lon="9.27609">
        <ele>301.45</ele>
        <time>2021-05-07T07:09:12Z</time>
      </trkpt>
      <trkpt lat="41.75328" lon="9.27619">
        <ele>304.51</ele>
        <time>2021-05-07T07:09:29Z</time>
      </trkpt>
      <trkpt lat="41.75338" lon="9.27621">
        <ele>305.54</ele>
        <time>2021-05-07T07:09:39Z</time>
      </trkpt>
      <trkpt lat="41.75354" lon="9.27624">
        <ele>308.36</ele>
        <time>2021-05-07T07:09:53Z</time>
      </trkpt>
      <trkpt lat="41.75364" lon="9.27622">
        <ele>308.42</ele>
        <time>2021-05-07T07:09:58Z</time>
      </trkpt>
      <trkpt lat="41.75376" lon="9.27619">
        <ele>308.43</ele>
        <time>2021-05-07T07:10:05Z</time>
      </trkpt>
      <trkpt lat="41.75388" lon="9.27619">
        <ele>308.51</ele>
        <time>2021-05-07T07:10:16Z</time>
      </trkpt>
      <trkpt lat="41.75395" lon="9.27628">
        <ele>308.57</ele>
        <time>2021-05-07T07:10:23Z</time>
      </trkpt>
      <trkpt lat="41.75409" lon="9.27643">
        <ele>308.77</ele>
        <time>2021-05-07T07:10:39Z</time>
      </trkpt>
      <trkpt lat="41.75419" lon="9.27639">
        <ele>311.72</ele>
        <time>2021-05-07T07:10:58Z</time>
      </trkpt>
      <trkpt lat="41.75423" lon="9.27618">
        <ele>313.56</ele>
        <time>2021-05-07T07:11:20Z</time>
      </trkpt>
      <trkpt lat="41.75424" lon="9.27612">
        <ele>313.63</ele>
        <time>2021-05-07T07:11:25Z</time>
      </trkpt>
      <trkpt lat="41.75424" lon="9.27611">
        <ele>313.66</ele>
        <time>2021-05-07T07:11:27Z</time>
      </trkpt>
      <trkpt lat="41.75425" lon="9.276">
        <ele>313.8</ele>
        <time>2021-05-07T07:11:42Z</time>
      </trkpt>
      <trkpt lat="41.75429" lon="9.27594">
        <ele>314.07</ele>
        <time>2021-05-07T07:12:05Z</time>
      </trkpt>
      <trkpt lat="41.75429" lon="9.27586">
        <ele>314.2</ele>
        <time>2021-05-07T07:12:22Z</time>
      </trkpt>
      <trkpt lat="41.75428" lon="9.27574">
        <ele>314.28</ele>
        <time>2021-05-07T07:12:32Z</time>
      </trkpt>
      <trkpt lat="41.75428" lon="9.27568">
        <ele>314.33</ele>
        <time>2021-05-07T07:12:36Z</time>
      </trkpt>
      <trkpt lat="41.75428" lon="9.27562">
        <ele>316.79</ele>
        <time>2021-05-07T07:12:41Z</time>
      </trkpt>
      <trkpt lat="41.75431" lon="9.27551">
        <ele>316.81</ele>
        <time>2021-05-07T07:12:51Z</time>
      </trkpt>
      <trkpt lat="41.75435" lon="9.27547">
        <ele>316.83</ele>
        <time>2021-05-07T07:12:55Z</time>
      </trkpt>
      <trkpt lat="41.75442" lon="9.27545">
        <ele>316.76</ele>
        <time>2021-05-07T07:13:00Z</time>
      </trkpt>
      <trkpt lat="41.75451" lon="9.27544">
        <ele>317.79</ele>
        <time>2021-05-07T07:13:09Z</time>
      </trkpt>
      <trkpt lat="41.75464" lon="9.27538">
        <ele>319.05</ele>
        <time>2021-05-07T07:13:22Z</time>
      </trkpt>
      <trkpt lat="41.75483" lon="9.27525">
        <ele>320.81</ele>
        <time>2021-05-07T07:13:43Z</time>
      </trkpt>
      <trkpt lat="41.75495" lon="9.27522">
        <ele>321.68</ele>
        <time>2021-05-07T07:13:53Z</time>
      </trkpt>
      <trkpt lat="41.75504" lon="9.27513">
        <ele>321.74</ele>
        <time>2021-05-07T07:14:03Z</time>
      </trkpt>
      <trkpt lat="41.75515" lon="9.27499">
        <ele>323.76</ele>
        <time>2021-05-07T07:14:17Z</time>
      </trkpt>
      <trkpt lat="41.75522" lon="9.27492">
        <ele>325.46</ele>
        <time>2021-05-07T07:14:24Z</time>
      </trkpt>
      <trkpt lat="41.75527" lon="9.27487">
        <ele>326.39</ele>
        <time>2021-05-07T07:14:29Z</time>
      </trkpt>
      <trkpt lat="41.75531" lon="9.27482">
        <ele>326.98</ele>
        <time>2021-05-07T07:14:34Z</time>
      </trkpt>
      <trkpt lat="41.75545" lon="9.27465">
        <ele>327.91</ele>
        <time>2021-05-07T07:14:49Z</time>
      </trkpt>
      <trkpt lat="41.75558" lon="9.27445">
        <ele>329.65</ele>
        <time>2021-05-07T07:15:06Z</time>
      </trkpt>
      <trkpt lat="41.75567" lon="9.27427">
        <ele>329.66</ele>
        <time>2021-05-07T07:15:21Z</time>
      </trkpt>
      <trkpt lat="41.75578" lon="9.27407">
        <ele>332.58</ele>
        <time>2021-05-07T07:15:39Z</time>
      </trkpt>
      <trkpt lat="41.75595" lon="9.27392">
        <ele>334.23</ele>
        <time>2021-05-07T07:15:54Z</time>
      </trkpt>
      <trkpt lat="41.75598" lon="9.27391">
        <ele>334.26</ele>
        <time>2021-05-07T07:16:14Z</time>
      </trkpt>
      <trkpt lat="41.75601" lon="9.27388">
        <ele>334.31</ele>
        <time>2021-05-07T07:16:27Z</time>
      </trkpt>
      <trkpt lat="41.75619" lon="9.27373">
        <ele>335.14</ele>
        <time>2021-05-07T07:16:44Z</time>
      </trkpt>
      <trkpt lat="41.75633" lon="9.27356">
        <ele>335.14</ele>
        <time>2021-05-07T07:17:00Z</time>
      </trkpt>
      <trkpt lat="41.75646" lon="9.27349">
        <ele>335.96</ele>
        <time>2021-05-07T07:17:12Z</time>
      </trkpt>
      <trkpt lat="41.75662" lon="9.27346">
        <ele>337</ele>
        <time>2021-05-07T07:17:25Z</time>
      </trkpt>
      <trkpt lat="41.75678" lon="9.27331">
        <ele>339.02</ele>
        <time>2021-05-07T07:17:40Z</time>
      </trkpt>
      <trkpt lat="41.75691" lon="9.27319">
        <ele>339.01</ele>
        <time>2021-05-07T07:17:54Z</time>
      </trkpt>
      <trkpt lat="41.75694" lon="9.27325">
        <ele>340.89</ele>
        <time>2021-05-07T07:18:02Z</time>
      </trkpt>
      <trkpt lat="41.75706" lon="9.27337">
        <ele>341.83</ele>
        <time>2021-05-07T07:18:17Z</time>
      </trkpt>
      <trkpt lat="41.75711" lon="9.27344">
        <ele>342.61</ele>
        <time>2021-05-07T07:18:25Z</time>
      </trkpt>
      <trkpt lat="41.75713" lon="9.2736">
        <ele>342.48</ele>
        <time>2021-05-07T07:18:36Z</time>
      </trkpt>
      <trkpt lat="41.75722" lon="9.27367">
        <ele>340.07</ele>
        <time>2021-05-07T07:18:48Z</time>
      </trkpt>
      <trkpt lat="41.7573" lon="9.27373">
        <ele>338.33</ele>
        <time>2021-05-07T07:19:05Z</time>
      </trkpt>
      <trkpt lat="41.75732" lon="9.27371">
        <ele>341.09</ele>
        <time>2021-05-07T07:19:16Z</time>
      </trkpt>
      <trkpt lat="41.75738" lon="9.27364">
        <ele>342.03</ele>
        <time>2021-05-07T07:19:32Z</time>
      </trkpt>
      <trkpt lat="41.75742" lon="9.27362">
        <ele>342.85</ele>
        <time>2021-05-07T07:19:37Z</time>
      </trkpt>
      <trkpt lat="41.75756" lon="9.27349">
        <ele>343.7</ele>
        <time>2021-05-07T07:19:53Z</time>
      </trkpt>
      <trkpt lat="41.75767" lon="9.27338">
        <ele>344.84</ele>
        <time>2021-05-07T07:20:08Z</time>
      </trkpt>
      <trkpt lat="41.7577" lon="9.27333">
        <ele>346.46</ele>
        <time>2021-05-07T07:20:13Z</time>
      </trkpt>
      <trkpt lat="41.75783" lon="9.27327">
        <ele>347.26</ele>
        <time>2021-05-07T07:20:31Z</time>
      </trkpt>
      <trkpt lat="41.75786" lon="9.27327">
        <ele>344.97</ele>
        <time>2021-05-07T07:20:33Z</time>
      </trkpt>
      <trkpt lat="41.75806" lon="9.27335">
        <ele>345.13</ele>
        <time>2021-05-07T07:20:51Z</time>
      </trkpt>
      <trkpt lat="41.75812" lon="9.27335">
        <ele>347.5</ele>
        <time>2021-05-07T07:20:56Z</time>
      </trkpt>
      <trkpt lat="41.75821" lon="9.27335">
        <ele>347.48</ele>
        <time>2021-05-07T07:21:04Z</time>
      </trkpt>
      <trkpt lat="41.75833" lon="9.27331">
        <ele>348.33</ele>
        <time>2021-05-07T07:21:16Z</time>
      </trkpt>
      <trkpt lat="41.75846" lon="9.27328">
        <ele>348.34</ele>
        <time>2021-05-07T07:21:29Z</time>
      </trkpt>
      <trkpt lat="41.75861" lon="9.2732">
        <ele>349.26</ele>
        <time>2021-05-07T07:21:43Z</time>
      </trkpt>
      <trkpt lat="41.75864" lon="9.27318">
        <ele>350.1</ele>
        <time>2021-05-07T07:21:46Z</time>
      </trkpt>
      <trkpt lat="41.75869" lon="9.27318">
        <ele>350.12</ele>
        <time>2021-05-07T07:21:50Z</time>
      </trkpt>
      <trkpt lat="41.75873" lon="9.27318">
        <ele>350.14</ele>
        <time>2021-05-07T07:21:53Z</time>
      </trkpt>
      <trkpt lat="41.75889" lon="9.27311">
        <ele>352.01</ele>
        <time>2021-05-07T07:22:09Z</time>
      </trkpt>
      <trkpt lat="41.75896" lon="9.27308">
        <ele>352.82</ele>
        <time>2021-05-07T07:22:17Z</time>
      </trkpt>
      <trkpt lat="41.75905" lon="9.27306">
        <ele>352.84</ele>
        <time>2021-05-07T07:22:25Z</time>
      </trkpt>
      <trkpt lat="41.75915" lon="9.27301">
        <ele>353.62</ele>
        <time>2021-05-07T07:22:39Z</time>
      </trkpt>
      <trkpt lat="41.75918" lon="9.27299">
        <ele>353.65</ele>
        <time>2021-05-07T07:22:42Z</time>
      </trkpt>
      <trkpt lat="41.75922" lon="9.27293">
        <ele>353.64</ele>
        <time>2021-05-07T07:22:48Z</time>
      </trkpt>
      <trkpt lat="41.75932" lon="9.27285">
        <ele>355.59</ele>
        <time>2021-05-07T07:22:59Z</time>
      </trkpt>
      <trkpt lat="41.75936" lon="9.27282">
        <ele>355.56</ele>
        <time>2021-05-07T07:23:03Z</time>
      </trkpt>
      <trkpt lat="41.75948" lon="9.27273">
        <ele>357.24</ele>
        <time>2021-05-07T07:23:17Z</time>
      </trkpt>
      <trkpt lat="41.75949" lon="9.27272">
        <ele>357.24</ele>
        <time>2021-05-07T07:23:18Z</time>
      </trkpt>
      <trkpt lat="41.75962" lon="9.27258">
        <ele>358.01</ele>
        <time>2021-05-07T07:23:32Z</time>
      </trkpt>
      <trkpt lat="41.75973" lon="9.27244">
        <ele>359.91</ele>
        <time>2021-05-07T07:23:46Z</time>
      </trkpt>
      <trkpt lat="41.75978" lon="9.2724">
        <ele>362.97</ele>
        <time>2021-05-07T07:23:52Z</time>
      </trkpt>
      <trkpt lat="41.7598" lon="9.27237">
        <ele>363.89</ele>
        <time>2021-05-07T07:23:55Z</time>
      </trkpt>
      <trkpt lat="41.75993" lon="9.27227">
        <ele>364.66</ele>
        <time>2021-05-07T07:24:10Z</time>
      </trkpt>
      <trkpt lat="41.75995" lon="9.27225">
        <ele>364.66</ele>
        <time>2021-05-07T07:24:12Z</time>
      </trkpt>
      <trkpt lat="41.75999" lon="9.27221">
        <ele>364.66</ele>
        <time>2021-05-07T07:24:16Z</time>
      </trkpt>
      <trkpt lat="41.76013" lon="9.2721">
        <ele>365.52</ele>
        <time>2021-05-07T07:24:30Z</time>
      </trkpt>
      <trkpt lat="41.76018" lon="9.27202">
        <ele>365.6</ele>
        <time>2021-05-07T07:24:40Z</time>
      </trkpt>
      <trkpt lat="41.76022" lon="9.27192">
        <ele>367.22</ele>
        <time>2021-05-07T07:24:50Z</time>
      </trkpt>
      <trkpt lat="41.76035" lon="9.27178">
        <ele>368.18</ele>
        <time>2021-05-07T07:25:04Z</time>
      </trkpt>
      <trkpt lat="41.76037" lon="9.27176">
        <ele>368.17</ele>
        <time>2021-05-07T07:25:06Z</time>
      </trkpt>
      <trkpt lat="41.76047" lon="9.27164">
        <ele>368.9</ele>
        <time>2021-05-07T07:25:20Z</time>
      </trkpt>
      <trkpt lat="41.76061" lon="9.2716">
        <ele>370.07</ele>
        <time>2021-05-07T07:25:37Z</time>
      </trkpt>
      <trkpt lat="41.76076" lon="9.27158">
        <ele>370</ele>
        <time>2021-05-07T07:25:54Z</time>
      </trkpt>
      <trkpt lat="41.76078" lon="9.27158">
        <ele>367.39</ele>
        <time>2021-05-07T07:25:56Z</time>
      </trkpt>
      <trkpt lat="41.76084" lon="9.27156">
        <ele>364.64</ele>
        <time>2021-05-07T07:26:12Z</time>
      </trkpt>
      <trkpt lat="41.76086" lon="9.27144">
        <ele>363.96</ele>
        <time>2021-05-07T07:26:28Z</time>
      </trkpt>
      <trkpt lat="41.76086" lon="9.27136">
        <ele>364.08</ele>
        <time>2021-05-07T07:26:44Z</time>
      </trkpt>
      <trkpt lat="41.76091" lon="9.27132">
        <ele>366.4</ele>
        <time>2021-05-07T07:26:55Z</time>
      </trkpt>
      <trkpt lat="41.76099" lon="9.27128">
        <ele>368.12</ele>
        <time>2021-05-07T07:27:19Z</time>
      </trkpt>
      <trkpt lat="41.76105" lon="9.27125">
        <ele>368.85</ele>
        <time>2021-05-07T07:27:32Z</time>
      </trkpt>
      <trkpt lat="41.76108" lon="9.27124">
        <ele>369.75</ele>
        <time>2021-05-07T07:27:35Z</time>
      </trkpt>
      <trkpt lat="41.76112" lon="9.27118">
        <ele>370.66</ele>
        <time>2021-05-07T07:27:42Z</time>
      </trkpt>
      <trkpt lat="41.76119" lon="9.27113">
        <ele>370.5</ele>
        <time>2021-05-07T07:27:57Z</time>
      </trkpt>
      <trkpt lat="41.76121" lon="9.27113">
        <ele>370.51</ele>
        <time>2021-05-07T07:28:01Z</time>
      </trkpt>
      <trkpt lat="41.76134" lon="9.2711">
        <ele>368.15</ele>
        <time>2021-05-07T07:28:11Z</time>
      </trkpt>
      <trkpt lat="41.76152" lon="9.27107">
        <ele>367.28</ele>
        <time>2021-05-07T07:28:25Z</time>
      </trkpt>
      <trkpt lat="41.76154" lon="9.27105">
        <ele>366.32</ele>
        <time>2021-05-07T07:28:31Z</time>
      </trkpt>
      <trkpt lat="41.76169" lon="9.27096">
        <ele>364.38</ele>
        <time>2021-05-07T07:28:45Z</time>
      </trkpt>
      <trkpt lat="41.76184" lon="9.27085">
        <ele>363.59</ele>
        <time>2021-05-07T07:28:59Z</time>
      </trkpt>
      <trkpt lat="41.76185" lon="9.27085">
        <ele>363.59</ele>
        <time>2021-05-07T07:29:00Z</time>
      </trkpt>
      <trkpt lat="41.76203" lon="9.27081">
        <ele>363.56</ele>
        <time>2021-05-07T07:29:14Z</time>
      </trkpt>
      <trkpt lat="41.76223" lon="9.27074">
        <ele>363.49</ele>
        <time>2021-05-07T07:29:30Z</time>
      </trkpt>
      <trkpt lat="41.76236" lon="9.27078">
        <ele>360.53</ele>
        <time>2021-05-07T07:29:41Z</time>
      </trkpt>
      <trkpt lat="41.76247" lon="9.27073">
        <ele>358.84</ele>
        <time>2021-05-07T07:29:53Z</time>
      </trkpt>
      <trkpt lat="41.76257" lon="9.2707">
        <ele>358.13</ele>
        <time>2021-05-07T07:30:03Z</time>
      </trkpt>
      <trkpt lat="41.76262" lon="9.27073">
        <ele>358.1</ele>
        <time>2021-05-07T07:30:07Z</time>
      </trkpt>
      <trkpt lat="41.7627" lon="9.27077">
        <ele>358.15</ele>
        <time>2021-05-07T07:30:17Z</time>
      </trkpt>
      <trkpt lat="41.76284" lon="9.27071">
        <ele>357.98</ele>
        <time>2021-05-07T07:30:31Z</time>
      </trkpt>
      <trkpt lat="41.76289" lon="9.27068">
        <ele>357.96</ele>
        <time>2021-05-07T07:30:37Z</time>
      </trkpt>
      <trkpt lat="41.76299" lon="9.27067">
        <ele>357.12</ele>
        <time>2021-05-07T07:30:47Z</time>
      </trkpt>
      <trkpt lat="41.76306" lon="9.27069">
        <ele>357.06</ele>
        <time>2021-05-07T07:30:53Z</time>
      </trkpt>
      <trkpt lat="41.76311" lon="9.27066">
        <ele>356.01</ele>
        <time>2021-05-07T07:31:03Z</time>
      </trkpt>
      <trkpt lat="41.76312" lon="9.27051">
        <ele>354.22</ele>
        <time>2021-05-07T07:31:18Z</time>
      </trkpt>
      <trkpt lat="41.76307" lon="9.2705">
        <ele>352.76</ele>
        <time>2021-05-07T07:31:37Z</time>
      </trkpt>
      <trkpt lat="41.76304" lon="9.27045">
        <ele>351.23</ele>
        <time>2021-05-07T07:31:54Z</time>
      </trkpt>
      <trkpt lat="41.76304" lon="9.27045">
        <ele>351.15</ele>
        <time>2021-05-07T07:31:58Z</time>
      </trkpt>
      <trkpt lat="41.76309" lon="9.27039">
        <ele>350.47</ele>
        <time>2021-05-07T07:32:16Z</time>
      </trkpt>
      <trkpt lat="41.7631" lon="9.27035">
        <ele>350.51</ele>
        <time>2021-05-07T07:32:25Z</time>
      </trkpt>
      <trkpt lat="41.76317" lon="9.27032">
        <ele>352.85</ele>
        <time>2021-05-07T07:32:36Z</time>
      </trkpt>
      <trkpt lat="41.76316" lon="9.27031">
        <ele>356.56</ele>
        <time>2021-05-07T07:32:45Z</time>
      </trkpt>
      <trkpt lat="41.76314" lon="9.2703">
        <ele>357.39</ele>
        <time>2021-05-07T07:33:03Z</time>
      </trkpt>
      <trkpt lat="41.76318" lon="9.27022">
        <ele>358.35</ele>
        <time>2021-05-07T07:33:10Z</time>
      </trkpt>
      <trkpt lat="41.7633" lon="9.27012">
        <ele>359.35</ele>
        <time>2021-05-07T07:33:23Z</time>
      </trkpt>
      <trkpt lat="41.76338" lon="9.27001">
        <ele>359.39</ele>
        <time>2021-05-07T07:33:38Z</time>
      </trkpt>
      <trkpt lat="41.76345" lon="9.26987">
        <ele>361.47</ele>
        <time>2021-05-07T07:33:53Z</time>
      </trkpt>
      <trkpt lat="41.76358" lon="9.2697">
        <ele>364.22</ele>
        <time>2021-05-07T07:34:12Z</time>
      </trkpt>
      <trkpt lat="41.76371" lon="9.26958">
        <ele>364.21</ele>
        <time>2021-05-07T07:34:26Z</time>
      </trkpt>
      <trkpt lat="41.76374" lon="9.2695">
        <ele>364.21</ele>
        <time>2021-05-07T07:34:34Z</time>
      </trkpt>
      <trkpt lat="41.76379" lon="9.26947">
        <ele>364.22</ele>
        <time>2021-05-07T07:34:39Z</time>
      </trkpt>
      <trkpt lat="41.76393" lon="9.26936">
        <ele>365.15</ele>
        <time>2021-05-07T07:34:55Z</time>
      </trkpt>
      <trkpt lat="41.76408" lon="9.26921">
        <ele>367.7</ele>
        <time>2021-05-07T07:35:10Z</time>
      </trkpt>
      <trkpt lat="41.76417" lon="9.26906">
        <ele>368.53</ele>
        <time>2021-05-07T07:35:27Z</time>
      </trkpt>
      <trkpt lat="41.76426" lon="9.26891">
        <ele>370.93</ele>
        <time>2021-05-07T07:35:43Z</time>
      </trkpt>
      <trkpt lat="41.7644" lon="9.26877">
        <ele>371.83</ele>
        <time>2021-05-07T07:35:59Z</time>
      </trkpt>
      <trkpt lat="41.76455" lon="9.26869">
        <ele>373.4</ele>
        <time>2021-05-07T07:36:16Z</time>
      </trkpt>
      <trkpt lat="41.76467" lon="9.26862">
        <ele>375.15</ele>
        <time>2021-05-07T07:36:31Z</time>
      </trkpt>
      <trkpt lat="41.76477" lon="9.26855">
        <ele>376.01</ele>
        <time>2021-05-07T07:36:46Z</time>
      </trkpt>
      <trkpt lat="41.76485" lon="9.2685">
        <ele>376.81</ele>
        <time>2021-05-07T07:36:57Z</time>
      </trkpt>
      <trkpt lat="41.76489" lon="9.26848">
        <ele>376.82</ele>
        <time>2021-05-07T07:37:01Z</time>
      </trkpt>
      <trkpt lat="41.76504" lon="9.26842">
        <ele>377.58</ele>
        <time>2021-05-07T07:37:16Z</time>
      </trkpt>
      <trkpt lat="41.76517" lon="9.26832">
        <ele>378.48</ele>
        <time>2021-05-07T07:37:32Z</time>
      </trkpt>
      <trkpt lat="41.76525" lon="9.26825">
        <ele>381.18</ele>
        <time>2021-05-07T07:37:43Z</time>
      </trkpt>
      <trkpt lat="41.76533" lon="9.26818">
        <ele>382.11</ele>
        <time>2021-05-07T07:37:58Z</time>
      </trkpt>
      <trkpt lat="41.76539" lon="9.26814">
        <ele>384.01</ele>
        <time>2021-05-07T07:38:16Z</time>
      </trkpt>
      <trkpt lat="41.76541" lon="9.26808">
        <ele>384.01</ele>
        <time>2021-05-07T07:38:27Z</time>
      </trkpt>
      <trkpt lat="41.76547" lon="9.26806">
        <ele>384.93</ele>
        <time>2021-05-07T07:38:43Z</time>
      </trkpt>
      <trkpt lat="41.76556" lon="9.26799">
        <ele>387.46</ele>
        <time>2021-05-07T07:38:58Z</time>
      </trkpt>
      <trkpt lat="41.76571" lon="9.26784">
        <ele>388.3</ele>
        <time>2021-05-07T07:39:18Z</time>
      </trkpt>
      <trkpt lat="41.76582" lon="9.26768">
        <ele>389.98</ele>
        <time>2021-05-07T07:39:36Z</time>
      </trkpt>
      <trkpt lat="41.76595" lon="9.26756">
        <ele>393.88</ele>
        <time>2021-05-07T07:39:57Z</time>
      </trkpt>
      <trkpt lat="41.76595" lon="9.26755">
        <ele>393.88</ele>
        <time>2021-05-07T07:39:58Z</time>
      </trkpt>
      <trkpt lat="41.76605" lon="9.26743">
        <ele>394.68</ele>
        <time>2021-05-07T07:40:15Z</time>
      </trkpt>
      <trkpt lat="41.76619" lon="9.26728">
        <ele>395.62</ele>
        <time>2021-05-07T07:40:32Z</time>
      </trkpt>
      <trkpt lat="41.76635" lon="9.26706">
        <ele>397.5</ele>
        <time>2021-05-07T07:40:54Z</time>
      </trkpt>
      <trkpt lat="41.76655" lon="9.26704">
        <ele>399.47</ele>
        <time>2021-05-07T07:41:14Z</time>
      </trkpt>
      <trkpt lat="41.76668" lon="9.26703">
        <ele>400.38</ele>
        <time>2021-05-07T07:41:30Z</time>
      </trkpt>
      <trkpt lat="41.76681" lon="9.26704">
        <ele>402.11</ele>
        <time>2021-05-07T07:41:48Z</time>
      </trkpt>
      <trkpt lat="41.76683" lon="9.26704">
        <ele>403.01</ele>
        <time>2021-05-07T07:41:50Z</time>
      </trkpt>
      <trkpt lat="41.76694" lon="9.26703">
        <ele>405.59</ele>
        <time>2021-05-07T07:42:05Z</time>
      </trkpt>
      <trkpt lat="41.76706" lon="9.26702">
        <ele>407.25</ele>
        <time>2021-05-07T07:42:22Z</time>
      </trkpt>
      <trkpt lat="41.76718" lon="9.26703">
        <ele>409.65</ele>
        <time>2021-05-07T07:42:39Z</time>
      </trkpt>
      <trkpt lat="41.76729" lon="9.26702">
        <ele>411.27</ele>
        <time>2021-05-07T07:42:53Z</time>
      </trkpt>
      <trkpt lat="41.76743" lon="9.26696">
        <ele>413.05</ele>
        <time>2021-05-07T07:43:09Z</time>
      </trkpt>
      <trkpt lat="41.76746" lon="9.26694">
        <ele>414</ele>
        <time>2021-05-07T07:43:12Z</time>
      </trkpt>
      <trkpt lat="41.76759" lon="9.2669">
        <ele>413.97</ele>
        <time>2021-05-07T07:43:22Z</time>
      </trkpt>
      <trkpt lat="41.76769" lon="9.26681">
        <ele>413.99</ele>
        <time>2021-05-07T07:43:31Z</time>
      </trkpt>
      <trkpt lat="41.76773" lon="9.2668">
        <ele>414</ele>
        <time>2021-05-07T07:43:34Z</time>
      </trkpt>
      <trkpt lat="41.76776" lon="9.26678">
        <ele>414.81</ele>
        <time>2021-05-07T07:43:37Z</time>
      </trkpt>
      <trkpt lat="41.76782" lon="9.26673">
        <ele>414.82</ele>
        <time>2021-05-07T07:43:42Z</time>
      </trkpt>
      <trkpt lat="41.76801" lon="9.26659">
        <ele>416.41</ele>
        <time>2021-05-07T07:44:00Z</time>
      </trkpt>
      <trkpt lat="41.76813" lon="9.26647">
        <ele>417.29</ele>
        <time>2021-05-07T07:44:12Z</time>
      </trkpt>
      <trkpt lat="41.76819" lon="9.26641">
        <ele>417.29</ele>
        <time>2021-05-07T07:44:20Z</time>
      </trkpt>
      <trkpt lat="41.76827" lon="9.26629">
        <ele>417.31</ele>
        <time>2021-05-07T07:44:30Z</time>
      </trkpt>
      <trkpt lat="41.76833" lon="9.26628">
        <ele>417.32</ele>
        <time>2021-05-07T07:44:34Z</time>
      </trkpt>
      <trkpt lat="41.76845" lon="9.26619">
        <ele>417.4</ele>
        <time>2021-05-07T07:44:49Z</time>
      </trkpt>
      <trkpt lat="41.76861" lon="9.26603">
        <ele>418.45</ele>
        <time>2021-05-07T07:45:08Z</time>
      </trkpt>
      <trkpt lat="41.76879" lon="9.26597">
        <ele>419.31</ele>
        <time>2021-05-07T07:45:25Z</time>
      </trkpt>
      <trkpt lat="41.769" lon="9.26593">
        <ele>420.37</ele>
        <time>2021-05-07T07:45:44Z</time>
      </trkpt>
      <trkpt lat="41.76919" lon="9.26587">
        <ele>421.46</ele>
        <time>2021-05-07T07:45:59Z</time>
      </trkpt>
      <trkpt lat="41.76937" lon="9.26582">
        <ele>421.6</ele>
        <time>2021-05-07T07:46:13Z</time>
      </trkpt>
      <trkpt lat="41.76949" lon="9.26579">
        <ele>421.71</ele>
        <time>2021-05-07T07:46:24Z</time>
      </trkpt>
      <trkpt lat="41.76966" lon="9.26576">
        <ele>421.87</ele>
        <time>2021-05-07T07:46:38Z</time>
      </trkpt>
      <trkpt lat="41.76983" lon="9.26575">
        <ele>422.05</ele>
        <time>2021-05-07T07:46:53Z</time>
      </trkpt>
      <trkpt lat="41.77" lon="9.26565">
        <ele>423.75</ele>
        <time>2021-05-07T07:47:10Z</time>
      </trkpt>
      <trkpt lat="41.77016" lon="9.26558">
        <ele>425.53</ele>
        <time>2021-05-07T07:47:26Z</time>
      </trkpt>
      <trkpt lat="41.77032" lon="9.26542">
        <ele>428.14</ele>
        <time>2021-05-07T07:47:46Z</time>
      </trkpt>
      <trkpt lat="41.77043" lon="9.2653">
        <ele>430.14</ele>
        <time>2021-05-07T07:47:59Z</time>
      </trkpt>
      <trkpt lat="41.77046" lon="9.26527">
        <ele>431.5</ele>
        <time>2021-05-07T07:48:03Z</time>
      </trkpt>
      <trkpt lat="41.77053" lon="9.26512">
        <ele>434.17</ele>
        <time>2021-05-07T07:48:20Z</time>
      </trkpt>
      <trkpt lat="41.77064" lon="9.26494">
        <ele>435.83</ele>
        <time>2021-05-07T07:48:38Z</time>
      </trkpt>
      <trkpt lat="41.77078" lon="9.26476">
        <ele>436.83</ele>
        <time>2021-05-07T07:48:58Z</time>
      </trkpt>
      <trkpt lat="41.7709" lon="9.26456">
        <ele>437.01</ele>
        <time>2021-05-07T07:49:17Z</time>
      </trkpt>
      <trkpt lat="41.77101" lon="9.26448">
        <ele>437.14</ele>
        <time>2021-05-07T07:49:29Z</time>
      </trkpt>
      <trkpt lat="41.771" lon="9.26451">
        <ele>437.36</ele>
        <time>2021-05-07T07:49:51Z</time>
      </trkpt>
      <trkpt lat="41.77099" lon="9.2644">
        <ele>437.54</ele>
        <time>2021-05-07T07:50:09Z</time>
      </trkpt>
      <trkpt lat="41.77096" lon="9.26425">
        <ele>437.66</ele>
        <time>2021-05-07T07:50:26Z</time>
      </trkpt>
      <trkpt lat="41.77102" lon="9.2642">
        <ele>437.77</ele>
        <time>2021-05-07T07:50:41Z</time>
      </trkpt>
      <trkpt lat="41.77108" lon="9.26426">
        <ele>438.67</ele>
        <time>2021-05-07T07:50:56Z</time>
      </trkpt>
      <trkpt lat="41.77112" lon="9.26432">
        <ele>439.57</ele>
        <time>2021-05-07T07:51:15Z</time>
      </trkpt>
      <trkpt lat="41.7712" lon="9.26428">
        <ele>440.64</ele>
        <time>2021-05-07T07:51:32Z</time>
      </trkpt>
      <trkpt lat="41.77121" lon="9.26427">
        <ele>440.65</ele>
        <time>2021-05-07T07:51:34Z</time>
      </trkpt>
      <trkpt lat="41.77127" lon="9.2642">
        <ele>441.55</ele>
        <time>2021-05-07T07:51:42Z</time>
      </trkpt>
      <trkpt lat="41.77128" lon="9.2642">
        <ele>441.55</ele>
        <time>2021-05-07T07:51:44Z</time>
      </trkpt>
      <trkpt lat="41.7713" lon="9.26418">
        <ele>441.57</ele>
        <time>2021-05-07T07:51:47Z</time>
      </trkpt>
      <trkpt lat="41.77134" lon="9.26405">
        <ele>442.51</ele>
        <time>2021-05-07T07:52:01Z</time>
      </trkpt>
      <trkpt lat="41.77139" lon="9.26387">
        <ele>443.52</ele>
        <time>2021-05-07T07:52:16Z</time>
      </trkpt>
      <trkpt lat="41.7715" lon="9.2637">
        <ele>445.24</ele>
        <time>2021-05-07T07:52:31Z</time>
      </trkpt>
      <trkpt lat="41.77161" lon="9.26359">
        <ele>447.03</ele>
        <time>2021-05-07T07:52:45Z</time>
      </trkpt>
      <trkpt lat="41.77161" lon="9.26358">
        <ele>447.06</ele>
        <time>2021-05-07T07:52:47Z</time>
      </trkpt>
      <trkpt lat="41.77165" lon="9.26354">
        <ele>447.91</ele>
        <time>2021-05-07T07:52:52Z</time>
      </trkpt>
      <trkpt lat="41.77167" lon="9.26352">
        <ele>447.93</ele>
        <time>2021-05-07T07:52:54Z</time>
      </trkpt>
      <trkpt lat="41.77176" lon="9.26341">
        <ele>450.68</ele>
        <time>2021-05-07T07:53:09Z</time>
      </trkpt>
      <trkpt lat="41.77189" lon="9.26327">
        <ele>453.3</ele>
        <time>2021-05-07T07:53:25Z</time>
      </trkpt>
      <trkpt lat="41.77201" lon="9.26311">
        <ele>454.43</ele>
        <time>2021-05-07T07:53:43Z</time>
      </trkpt>
      <trkpt lat="41.77213" lon="9.26299">
        <ele>457</ele>
        <time>2021-05-07T07:54:01Z</time>
      </trkpt>
      <trkpt lat="41.77223" lon="9.26287">
        <ele>457.92</ele>
        <time>2021-05-07T07:54:14Z</time>
      </trkpt>
      <trkpt lat="41.77231" lon="9.26281">
        <ele>457.98</ele>
        <time>2021-05-07T07:54:22Z</time>
      </trkpt>
      <trkpt lat="41.77239" lon="9.26277">
        <ele>455.7</ele>
        <time>2021-05-07T07:54:30Z</time>
      </trkpt>
      <trkpt lat="41.77244" lon="9.26275">
        <ele>454.86</ele>
        <time>2021-05-07T07:54:35Z</time>
      </trkpt>
      <trkpt lat="41.77248" lon="9.26269">
        <ele>454.05</ele>
        <time>2021-05-07T07:54:44Z</time>
      </trkpt>
      <trkpt lat="41.77251" lon="9.2626">
        <ele>454.27</ele>
        <time>2021-05-07T07:55:02Z</time>
      </trkpt>
      <trkpt lat="41.77253" lon="9.26258">
        <ele>456.8</ele>
        <time>2021-05-07T07:55:28Z</time>
      </trkpt>
      <trkpt lat="41.77257" lon="9.26252">
        <ele>459.39</ele>
        <time>2021-05-07T07:55:47Z</time>
      </trkpt>
      <trkpt lat="41.77262" lon="9.26238">
        <ele>459.49</ele>
        <time>2021-05-07T07:56:04Z</time>
      </trkpt>
      <trkpt lat="41.77263" lon="9.26236">
        <ele>459.5</ele>
        <time>2021-05-07T07:56:06Z</time>
      </trkpt>
      <trkpt lat="41.77269" lon="9.2623">
        <ele>462.3</ele>
        <time>2021-05-07T07:56:27Z</time>
      </trkpt>
      <trkpt lat="41.7727" lon="9.26219">
        <ele>463.36</ele>
        <time>2021-05-07T07:56:38Z</time>
      </trkpt>
      <trkpt lat="41.77274" lon="9.26207">
        <ele>466.41</ele>
        <time>2021-05-07T07:56:53Z</time>
      </trkpt>
      <trkpt lat="41.77281" lon="9.26199">
        <ele>468.33</ele>
        <time>2021-05-07T07:57:08Z</time>
      </trkpt>
      <trkpt lat="41.77294" lon="9.26189">
        <ele>470.67</ele>
        <time>2021-05-07T07:57:27Z</time>
      </trkpt>
      <trkpt lat="41.77295" lon="9.26188">
        <ele>470.67</ele>
        <time>2021-05-07T07:57:28Z</time>
      </trkpt>
      <trkpt lat="41.77307" lon="9.26181">
        <ele>471.38</ele>
        <time>2021-05-07T07:57:42Z</time>
      </trkpt>
      <trkpt lat="41.77312" lon="9.26172">
        <ele>471.26</ele>
        <time>2021-05-07T07:57:51Z</time>
      </trkpt>
      <trkpt lat="41.77317" lon="9.26157">
        <ele>471.13</ele>
        <time>2021-05-07T07:58:10Z</time>
      </trkpt>
      <trkpt lat="41.77323" lon="9.26156">
        <ele>472.15</ele>
        <time>2021-05-07T07:58:15Z</time>
      </trkpt>
      <trkpt lat="41.77324" lon="9.26145">
        <ele>473.07</ele>
        <time>2021-05-07T07:58:27Z</time>
      </trkpt>
      <trkpt lat="41.77329" lon="9.26143">
        <ele>474.51</ele>
        <time>2021-05-07T07:58:45Z</time>
      </trkpt>
      <trkpt lat="41.7734" lon="9.26138">
        <ele>475.13</ele>
        <time>2021-05-07T07:58:58Z</time>
      </trkpt>
      <trkpt lat="41.77342" lon="9.26133">
        <ele>475</ele>
        <time>2021-05-07T07:59:05Z</time>
      </trkpt>
      <trkpt lat="41.77348" lon="9.26132">
        <ele>474.82</ele>
        <time>2021-05-07T07:59:15Z</time>
      </trkpt>
      <trkpt lat="41.77351" lon="9.2613">
        <ele>474.82</ele>
        <time>2021-05-07T07:59:22Z</time>
      </trkpt>
      <trkpt lat="41.77353" lon="9.26127">
        <ele>474.72</ele>
        <time>2021-05-07T07:59:34Z</time>
      </trkpt>
      <trkpt lat="41.77354" lon="9.26131">
        <ele>474.57</ele>
        <time>2021-05-07T07:59:49Z</time>
      </trkpt>
      <trkpt lat="41.7736" lon="9.26137">
        <ele>475.08</ele>
        <time>2021-05-07T08:00:12Z</time>
      </trkpt>
      <trkpt lat="41.77365" lon="9.26142">
        <ele>474.97</ele>
        <time>2021-05-07T08:00:21Z</time>
      </trkpt>
      <trkpt lat="41.77369" lon="9.26144">
        <ele>478.66</ele>
        <time>2021-05-07T08:00:35Z</time>
      </trkpt>
      <trkpt lat="41.77376" lon="9.26143">
        <ele>481.1</ele>
        <time>2021-05-07T08:00:50Z</time>
      </trkpt>
      <trkpt lat="41.77373" lon="9.26138">
        <ele>481.64</ele>
        <time>2021-05-07T08:00:59Z</time>
      </trkpt>
      <trkpt lat="41.77377" lon="9.26139">
        <ele>482.1</ele>
        <time>2021-05-07T08:01:13Z</time>
      </trkpt>
      <trkpt lat="41.7738" lon="9.26141">
        <ele>479.4</ele>
        <time>2021-05-07T08:01:22Z</time>
      </trkpt>
      <trkpt lat="41.77381" lon="9.26141">
        <ele>478.34</ele>
        <time>2021-05-07T08:01:29Z</time>
      </trkpt>
      <trkpt lat="41.77379" lon="9.26139">
        <ele>477.28</ele>
        <time>2021-05-07T08:01:38Z</time>
      </trkpt>
      <trkpt lat="41.77383" lon="9.26134">
        <ele>474.37</ele>
        <time>2021-05-07T08:02:04Z</time>
      </trkpt>
      <trkpt lat="41.77382" lon="9.26133">
        <ele>477.38</ele>
        <time>2021-05-07T08:02:11Z</time>
      </trkpt>
      <trkpt lat="41.77383" lon="9.26134">
        <ele>473.58</ele>
        <time>2021-05-07T08:02:13Z</time>
      </trkpt>
      <trkpt lat="41.77383" lon="9.26133">
        <ele>481.39</ele>
        <time>2021-05-07T08:02:15Z</time>
      </trkpt>
      <trkpt lat="41.77383" lon="9.26133">
        <ele>478.94</ele>
        <time>2021-05-07T08:02:16Z</time>
      </trkpt>
      <trkpt lat="41.77384" lon="9.26132">
        <ele>472.55</ele>
        <time>2021-05-07T08:02:18Z</time>
      </trkpt>
      <trkpt lat="41.77384" lon="9.26132">
        <ele>461.9</ele>
        <time>2021-05-07T08:02:19Z</time>
      </trkpt>
      <trkpt lat="41.77381" lon="9.26122">
        <ele>487.09</ele>
        <time>2021-05-07T08:02:20Z</time>
      </trkpt>
      <trkpt lat="41.77379" lon="9.26118">
        <ele>483.25</ele>
        <time>2021-05-07T08:02:21Z</time>
      </trkpt>
      <trkpt lat="41.77376" lon="9.26116">
        <ele>478.8</ele>
        <time>2021-05-07T08:02:22Z</time>
      </trkpt>
      <trkpt lat="41.77374" lon="9.26111">
        <ele>476</ele>
        <time>2021-05-07T08:02:26Z</time>
      </trkpt>
      <trkpt lat="41.77381" lon="9.26126">
        <ele>477.23</ele>
        <time>2021-05-07T08:02:35Z</time>
      </trkpt>
      <trkpt lat="41.77387" lon="9.26142">
        <ele>477.18</ele>
        <time>2021-05-07T08:02:40Z</time>
      </trkpt>
      <trkpt lat="41.77389" lon="9.26144">
        <ele>477.19</ele>
        <time>2021-05-07T08:02:43Z</time>
      </trkpt>
      <trkpt lat="41.77396" lon="9.26151">
        <ele>477.14</ele>
        <time>2021-05-07T08:02:53Z</time>
      </trkpt>
      <trkpt lat="41.77399" lon="9.26153">
        <ele>477.12</ele>
        <time>2021-05-07T08:02:56Z</time>
      </trkpt>
      <trkpt lat="41.77408" lon="9.26164">
        <ele>476.98</ele>
        <time>2021-05-07T08:03:18Z</time>
      </trkpt>
      <trkpt lat="41.77417" lon="9.26171">
        <ele>479.36</ele>
        <time>2021-05-07T08:03:28Z</time>
      </trkpt>
      <trkpt lat="41.77425" lon="9.26177">
        <ele>480.22</ele>
        <time>2021-05-07T08:03:45Z</time>
      </trkpt>
      <trkpt lat="41.77428" lon="9.26177">
        <ele>480.18</ele>
        <time>2021-05-07T08:04:02Z</time>
      </trkpt>
      <trkpt lat="41.77436" lon="9.2618">
        <ele>480.24</ele>
        <time>2021-05-07T08:04:12Z</time>
      </trkpt>
      <trkpt lat="41.77438" lon="9.26182">
        <ele>480.3</ele>
        <time>2021-05-07T08:04:19Z</time>
      </trkpt>
      <trkpt lat="41.77435" lon="9.26182">
        <ele>481.22</ele>
        <time>2021-05-07T08:04:35Z</time>
      </trkpt>
      <trkpt lat="41.77436" lon="9.26185">
        <ele>482.18</ele>
        <time>2021-05-07T08:04:39Z</time>
      </trkpt>
      <trkpt lat="41.77437" lon="9.26189">
        <ele>482.15</ele>
        <time>2021-05-07T08:04:47Z</time>
      </trkpt>
      <trkpt lat="41.77441" lon="9.26188">
        <ele>482.2</ele>
        <time>2021-05-07T08:04:54Z</time>
      </trkpt>
      <trkpt lat="41.77442" lon="9.26191">
        <ele>482.21</ele>
        <time>2021-05-07T08:04:57Z</time>
      </trkpt>
      <trkpt lat="41.77441" lon="9.26189">
        <ele>482.17</ele>
        <time>2021-05-07T08:04:59Z</time>
      </trkpt>
      <trkpt lat="41.7744" lon="9.26191">
        <ele>482.2</ele>
        <time>2021-05-07T08:05:02Z</time>
      </trkpt>
      <trkpt lat="41.77442" lon="9.26175">
        <ele>482.39</ele>
        <time>2021-05-07T08:05:26Z</time>
      </trkpt>
      <trkpt lat="41.7745" lon="9.26176">
        <ele>486.16</ele>
        <time>2021-05-07T08:06:03Z</time>
      </trkpt>
      <trkpt lat="41.77455" lon="9.26182">
        <ele>488.03</ele>
        <time>2021-05-07T08:06:17Z</time>
      </trkpt>
      <trkpt lat="41.77469" lon="9.26196">
        <ele>490.02</ele>
        <time>2021-05-07T08:06:36Z</time>
      </trkpt>
      <trkpt lat="41.77471" lon="9.26198">
        <ele>489.9</ele>
        <time>2021-05-07T08:06:37Z</time>
      </trkpt>
      <trkpt lat="41.77478" lon="9.262">
        <ele>491.45</ele>
        <time>2021-05-07T08:06:52Z</time>
      </trkpt>
      <trkpt lat="41.7749" lon="9.26207">
        <ele>494.18</ele>
        <time>2021-05-07T08:07:06Z</time>
      </trkpt>
      <trkpt lat="41.77493" lon="9.26206">
        <ele>496.81</ele>
        <time>2021-05-07T08:07:21Z</time>
      </trkpt>
      <trkpt lat="41.77493" lon="9.26206">
        <ele>496.81</ele>
        <time>2021-05-07T08:07:22Z</time>
      </trkpt>
      <trkpt lat="41.77488" lon="9.26175">
        <ele>499.35</ele>
        <time>2021-05-07T08:07:36Z</time>
      </trkpt>
      <trkpt lat="41.7749" lon="9.26155">
        <ele>501.87</ele>
        <time>2021-05-07T08:07:51Z</time>
      </trkpt>
      <trkpt lat="41.77486" lon="9.26152">
        <ele>501.78</ele>
        <time>2021-05-07T08:07:57Z</time>
      </trkpt>
      <trkpt lat="41.77486" lon="9.26152">
        <ele>501.65</ele>
        <time>2021-05-07T08:08:13Z</time>
      </trkpt>
      <trkpt lat="41.7748" lon="9.2615">
        <ele>502.48</ele>
        <time>2021-05-07T08:08:20Z</time>
      </trkpt>
      <trkpt lat="41.77479" lon="9.26148">
        <ele>502.42</ele>
        <time>2021-05-07T08:08:31Z</time>
      </trkpt>
      <trkpt lat="41.77489" lon="9.26147">
        <ele>502.27</ele>
        <time>2021-05-07T08:08:43Z</time>
      </trkpt>
      <trkpt lat="41.7749" lon="9.26144">
        <ele>499.38</ele>
        <time>2021-05-07T08:08:45Z</time>
      </trkpt>
      <trkpt lat="41.77494" lon="9.26131">
        <ele>497.61</ele>
        <time>2021-05-07T08:09:01Z</time>
      </trkpt>
      <trkpt lat="41.77493" lon="9.2612">
        <ele>500.18</ele>
        <time>2021-05-07T08:09:12Z</time>
      </trkpt>
      <trkpt lat="41.77494" lon="9.2612">
        <ele>500.19</ele>
        <time>2021-05-07T08:09:14Z</time>
      </trkpt>
      <trkpt lat="41.77497" lon="9.2612">
        <ele>501.01</ele>
        <time>2021-05-07T08:09:18Z</time>
      </trkpt>
      <trkpt lat="41.77527" lon="9.2614">
        <ele>504.13</ele>
        <time>2021-05-07T08:09:34Z</time>
      </trkpt>
      <trkpt lat="41.77532" lon="9.26143">
        <ele>503.96</ele>
        <time>2021-05-07T08:09:38Z</time>
      </trkpt>
      <trkpt lat="41.77538" lon="9.26148">
        <ele>505.05</ele>
        <time>2021-05-07T08:09:42Z</time>
      </trkpt>
      <trkpt lat="41.77545" lon="9.26149">
        <ele>505.82</ele>
        <time>2021-05-07T08:09:52Z</time>
      </trkpt>
      <trkpt lat="41.77547" lon="9.26147">
        <ele>506.45</ele>
        <time>2021-05-07T08:10:00Z</time>
      </trkpt>
      <trkpt lat="41.77541" lon="9.2613">
        <ele>509.9</ele>
        <time>2021-05-07T08:10:16Z</time>
      </trkpt>
      <trkpt lat="41.77536" lon="9.26119">
        <ele>511.35</ele>
        <time>2021-05-07T08:10:32Z</time>
      </trkpt>
      <trkpt lat="41.77538" lon="9.26122">
        <ele>511.28</ele>
        <time>2021-05-07T08:10:36Z</time>
      </trkpt>
      <trkpt lat="41.77524" lon="9.26087">
        <ele>511.1</ele>
        <time>2021-05-07T08:10:52Z</time>
      </trkpt>
      <trkpt lat="41.77516" lon="9.26074">
        <ele>511.9</ele>
        <time>2021-05-07T08:11:09Z</time>
      </trkpt>
      <trkpt lat="41.77517" lon="9.26063">
        <ele>511.84</ele>
        <time>2021-05-07T08:11:24Z</time>
      </trkpt>
      <trkpt lat="41.77517" lon="9.26062">
        <ele>509.48</ele>
        <time>2021-05-07T08:11:26Z</time>
      </trkpt>
      <trkpt lat="41.77519" lon="9.26047">
        <ele>509.63</ele>
        <time>2021-05-07T08:11:42Z</time>
      </trkpt>
      <trkpt lat="41.77529" lon="9.2604">
        <ele>509.71</ele>
        <time>2021-05-07T08:11:59Z</time>
      </trkpt>
      <trkpt lat="41.77531" lon="9.26033">
        <ele>512.14</ele>
        <time>2021-05-07T08:12:16Z</time>
      </trkpt>
      <trkpt lat="41.77539" lon="9.26025">
        <ele>513.73</ele>
        <time>2021-05-07T08:12:31Z</time>
      </trkpt>
      <trkpt lat="41.77545" lon="9.26018">
        <ele>514.52</ele>
        <time>2021-05-07T08:12:46Z</time>
      </trkpt>
      <trkpt lat="41.77546" lon="9.26009">
        <ele>515.37</ele>
        <time>2021-05-07T08:13:02Z</time>
      </trkpt>
      <trkpt lat="41.77544" lon="9.2599">
        <ele>516.17</ele>
        <time>2021-05-07T08:13:20Z</time>
      </trkpt>
      <trkpt lat="41.77549" lon="9.25988">
        <ele>516.17</ele>
        <time>2021-05-07T08:13:35Z</time>
      </trkpt>
      <trkpt lat="41.77546" lon="9.25974">
        <ele>516.21</ele>
        <time>2021-05-07T08:13:54Z</time>
      </trkpt>
      <trkpt lat="41.77548" lon="9.25972">
        <ele>516.21</ele>
        <time>2021-05-07T08:14:00Z</time>
      </trkpt>
      <trkpt lat="41.7755" lon="9.25965">
        <ele>516.3</ele>
        <time>2021-05-07T08:14:20Z</time>
      </trkpt>
      <trkpt lat="41.77548" lon="9.25962">
        <ele>516.28</ele>
        <time>2021-05-07T08:14:23Z</time>
      </trkpt>
      <trkpt lat="41.77542" lon="9.25959">
        <ele>516.32</ele>
        <time>2021-05-07T08:14:32Z</time>
      </trkpt>
      <trkpt lat="41.77546" lon="9.25963">
        <ele>517.08</ele>
        <time>2021-05-07T08:14:36Z</time>
      </trkpt>
      <trkpt lat="41.77548" lon="9.25965">
        <ele>517.07</ele>
        <time>2021-05-07T08:14:38Z</time>
      </trkpt>
      <trkpt lat="41.77557" lon="9.25963">
        <ele>518.79</ele>
        <time>2021-05-07T08:14:58Z</time>
      </trkpt>
      <trkpt lat="41.77557" lon="9.25962">
        <ele>518.8</ele>
        <time>2021-05-07T08:14:59Z</time>
      </trkpt>
      <trkpt lat="41.77559" lon="9.2596">
        <ele>518.72</ele>
        <time>2021-05-07T08:15:28Z</time>
      </trkpt>
      <trkpt lat="41.77568" lon="9.25967">
        <ele>518.7</ele>
        <time>2021-05-07T08:15:49Z</time>
      </trkpt>
      <trkpt lat="41.77567" lon="9.25965">
        <ele>518.67</ele>
        <time>2021-05-07T08:16:01Z</time>
      </trkpt>
      <trkpt lat="41.77566" lon="9.25959">
        <ele>518.66</ele>
        <time>2021-05-07T08:16:11Z</time>
      </trkpt>
      <trkpt lat="41.77568" lon="9.25959">
        <ele>518.66</ele>
        <time>2021-05-07T08:16:13Z</time>
      </trkpt>
      <trkpt lat="41.7757" lon="9.25961">
        <ele>518.72</ele>
        <time>2021-05-07T08:16:39Z</time>
      </trkpt>
      <trkpt lat="41.77567" lon="9.2596">
        <ele>519.54</ele>
        <time>2021-05-07T08:16:56Z</time>
      </trkpt>
      <trkpt lat="41.77572" lon="9.25973">
        <ele>523.08</ele>
        <time>2021-05-07T08:17:11Z</time>
      </trkpt>
      <trkpt lat="41.77575" lon="9.25969">
        <ele>525.53</ele>
        <time>2021-05-07T08:17:29Z</time>
      </trkpt>
      <trkpt lat="41.77576" lon="9.25963">
        <ele>526.3</ele>
        <time>2021-05-07T08:17:35Z</time>
      </trkpt>
      <trkpt lat="41.77568" lon="9.25938">
        <ele>527.79</ele>
        <time>2021-05-07T08:17:53Z</time>
      </trkpt>
      <trkpt lat="41.77569" lon="9.25935">
        <ele>527.71</ele>
        <time>2021-05-07T08:17:58Z</time>
      </trkpt>
      <trkpt lat="41.77568" lon="9.25915">
        <ele>528.41</ele>
        <time>2021-05-07T08:18:16Z</time>
      </trkpt>
      <trkpt lat="41.7757" lon="9.25913">
        <ele>528.4</ele>
        <time>2021-05-07T08:18:18Z</time>
      </trkpt>
      <trkpt lat="41.77573" lon="9.25908">
        <ele>528.33</ele>
        <time>2021-05-07T08:18:29Z</time>
      </trkpt>
      <trkpt lat="41.77573" lon="9.25905">
        <ele>526.02</ele>
        <time>2021-05-07T08:18:35Z</time>
      </trkpt>
      <trkpt lat="41.77576" lon="9.25896">
        <ele>526.01</ele>
        <time>2021-05-07T08:18:49Z</time>
      </trkpt>
      <trkpt lat="41.77576" lon="9.25889">
        <ele>525.97</ele>
        <time>2021-05-07T08:19:09Z</time>
      </trkpt>
      <trkpt lat="41.77575" lon="9.25886">
        <ele>528.34</ele>
        <time>2021-05-07T08:19:25Z</time>
      </trkpt>
      <trkpt lat="41.77579" lon="9.25879">
        <ele>529.04</ele>
        <time>2021-05-07T08:19:43Z</time>
      </trkpt>
      <trkpt lat="41.77582" lon="9.25872">
        <ele>528.94</ele>
        <time>2021-05-07T08:20:03Z</time>
      </trkpt>
      <trkpt lat="41.7758" lon="9.25861">
        <ele>528.87</ele>
        <time>2021-05-07T08:20:22Z</time>
      </trkpt>
      <trkpt lat="41.77579" lon="9.25849">
        <ele>529.58</ele>
        <time>2021-05-07T08:20:41Z</time>
      </trkpt>
      <trkpt lat="41.77579" lon="9.25848">
        <ele>529.58</ele>
        <time>2021-05-07T08:20:43Z</time>
      </trkpt>
      <trkpt lat="41.77578" lon="9.25846">
        <ele>530.52</ele>
        <time>2021-05-07T08:20:48Z</time>
      </trkpt>
      <trkpt lat="41.77575" lon="9.25844">
        <ele>530.52</ele>
        <time>2021-05-07T08:20:55Z</time>
      </trkpt>
      <trkpt lat="41.77574" lon="9.25836">
        <ele>530.46</ele>
        <time>2021-05-07T08:21:05Z</time>
      </trkpt>
      <trkpt lat="41.77578" lon="9.25836">
        <ele>530.4</ele>
        <time>2021-05-07T08:21:13Z</time>
      </trkpt>
      <trkpt lat="41.77577" lon="9.25833">
        <ele>530.34</ele>
        <time>2021-05-07T08:21:28Z</time>
      </trkpt>
      <trkpt lat="41.77579" lon="9.25822">
        <ele>531.1</ele>
        <time>2021-05-07T08:21:48Z</time>
      </trkpt>
      <trkpt lat="41.77579" lon="9.25813">
        <ele>531.02</ele>
        <time>2021-05-07T08:22:06Z</time>
      </trkpt>
      <trkpt lat="41.77578" lon="9.25801">
        <ele>530.94</ele>
        <time>2021-05-07T08:22:21Z</time>
      </trkpt>
      <trkpt lat="41.77577" lon="9.25796">
        <ele>530.9</ele>
        <time>2021-05-07T08:22:28Z</time>
      </trkpt>
      <trkpt lat="41.77572" lon="9.25781">
        <ele>530.85</ele>
        <time>2021-05-07T08:22:45Z</time>
      </trkpt>
      <trkpt lat="41.77572" lon="9.25779">
        <ele>532.37</ele>
        <time>2021-05-07T08:23:02Z</time>
      </trkpt>
      <trkpt lat="41.7758" lon="9.25767">
        <ele>534.07</ele>
        <time>2021-05-07T08:23:23Z</time>
      </trkpt>
      <trkpt lat="41.77586" lon="9.25753">
        <ele>534.89</ele>
        <time>2021-05-07T08:23:39Z</time>
      </trkpt>
      <trkpt lat="41.77597" lon="9.25751">
        <ele>534.77</ele>
        <time>2021-05-07T08:23:59Z</time>
      </trkpt>
      <trkpt lat="41.77604" lon="9.25758">
        <ele>534.72</ele>
        <time>2021-05-07T08:24:20Z</time>
      </trkpt>
      <trkpt lat="41.77607" lon="9.25759">
        <ele>534.67</ele>
        <time>2021-05-07T08:24:40Z</time>
      </trkpt>
      <trkpt lat="41.77606" lon="9.25757">
        <ele>534.65</ele>
        <time>2021-05-07T08:24:45Z</time>
      </trkpt>
      <trkpt lat="41.7761" lon="9.25754">
        <ele>537.15</ele>
        <time>2021-05-07T08:25:04Z</time>
      </trkpt>
      <trkpt lat="41.77613" lon="9.2575">
        <ele>538.8</ele>
        <time>2021-05-07T08:25:23Z</time>
      </trkpt>
      <trkpt lat="41.77616" lon="9.25744">
        <ele>540.38</ele>
        <time>2021-05-07T08:25:39Z</time>
      </trkpt>
      <trkpt lat="41.77625" lon="9.25743">
        <ele>541.18</ele>
        <time>2021-05-07T08:25:58Z</time>
      </trkpt>
      <trkpt lat="41.77629" lon="9.25739">
        <ele>541.17</ele>
        <time>2021-05-07T08:26:09Z</time>
      </trkpt>
      <trkpt lat="41.77632" lon="9.25729">
        <ele>542.23</ele>
        <time>2021-05-07T08:26:18Z</time>
      </trkpt>
      <trkpt lat="41.77627" lon="9.25731">
        <ele>544.99</ele>
        <time>2021-05-07T08:26:41Z</time>
      </trkpt>
      <trkpt lat="41.77629" lon="9.25718">
        <ele>547.58</ele>
        <time>2021-05-07T08:26:56Z</time>
      </trkpt>
      <trkpt lat="41.77629" lon="9.25705">
        <ele>549.24</ele>
        <time>2021-05-07T08:27:15Z</time>
      </trkpt>
      <trkpt lat="41.77633" lon="9.25694">
        <ele>550.76</ele>
        <time>2021-05-07T08:27:34Z</time>
      </trkpt>
      <trkpt lat="41.77634" lon="9.25675">
        <ele>553.1</ele>
        <time>2021-05-07T08:27:50Z</time>
      </trkpt>
      <trkpt lat="41.7764" lon="9.25662">
        <ele>555.54</ele>
        <time>2021-05-07T08:28:09Z</time>
      </trkpt>
      <trkpt lat="41.7765" lon="9.25667">
        <ele>557.92</ele>
        <time>2021-05-07T08:28:30Z</time>
      </trkpt>
      <trkpt lat="41.77651" lon="9.25668">
        <ele>558.78</ele>
        <time>2021-05-07T08:28:35Z</time>
      </trkpt>
      <trkpt lat="41.7766" lon="9.25676">
        <ele>560.43</ele>
        <time>2021-05-07T08:28:54Z</time>
      </trkpt>
      <trkpt lat="41.77663" lon="9.2568">
        <ele>562.85</ele>
        <time>2021-05-07T08:29:13Z</time>
      </trkpt>
      <trkpt lat="41.77663" lon="9.25679">
        <ele>562.85</ele>
        <time>2021-05-07T08:29:14Z</time>
      </trkpt>
      <trkpt lat="41.77665" lon="9.25677">
        <ele>564.63</ele>
        <time>2021-05-07T08:29:33Z</time>
      </trkpt>
      <trkpt lat="41.77667" lon="9.25672">
        <ele>567.05</ele>
        <time>2021-05-07T08:29:52Z</time>
      </trkpt>
      <trkpt lat="41.77669" lon="9.25659">
        <ele>570.42</ele>
        <time>2021-05-07T08:30:12Z</time>
      </trkpt>
      <trkpt lat="41.77669" lon="9.25659">
        <ele>570.42</ele>
        <time>2021-05-07T08:30:13Z</time>
      </trkpt>
      <trkpt lat="41.77669" lon="9.25642">
        <ele>573.98</ele>
        <time>2021-05-07T08:30:32Z</time>
      </trkpt>
      <trkpt lat="41.77671" lon="9.25637">
        <ele>574.73</ele>
        <time>2021-05-07T08:30:37Z</time>
      </trkpt>
      <trkpt lat="41.77688" lon="9.25631">
        <ele>577.19</ele>
        <time>2021-05-07T08:31:01Z</time>
      </trkpt>
      <trkpt lat="41.77704" lon="9.25644">
        <ele>578.65</ele>
        <time>2021-05-07T08:31:24Z</time>
      </trkpt>
      <trkpt lat="41.77704" lon="9.25643">
        <ele>580.15</ele>
        <time>2021-05-07T08:31:41Z</time>
      </trkpt>
      <trkpt lat="41.77706" lon="9.2564">
        <ele>582.57</ele>
        <time>2021-05-07T08:31:59Z</time>
      </trkpt>
      <trkpt lat="41.77711" lon="9.2564">
        <ele>585.95</ele>
        <time>2021-05-07T08:32:17Z</time>
      </trkpt>
      <trkpt lat="41.77718" lon="9.25641">
        <ele>588.6</ele>
        <time>2021-05-07T08:32:38Z</time>
      </trkpt>
      <trkpt lat="41.77727" lon="9.25642">
        <ele>590.3</ele>
        <time>2021-05-07T08:32:59Z</time>
      </trkpt>
      <trkpt lat="41.7774" lon="9.25643">
        <ele>592.66</ele>
        <time>2021-05-07T08:33:18Z</time>
      </trkpt>
      <trkpt lat="41.77744" lon="9.25643">
        <ele>594.16</ele>
        <time>2021-05-07T08:33:37Z</time>
      </trkpt>
      <trkpt lat="41.77743" lon="9.25637">
        <ele>596.56</ele>
        <time>2021-05-07T08:33:54Z</time>
      </trkpt>
      <trkpt lat="41.77742" lon="9.25631">
        <ele>599.92</ele>
        <time>2021-05-07T08:34:14Z</time>
      </trkpt>
      <trkpt lat="41.77744" lon="9.25622">
        <ele>602.25</ele>
        <time>2021-05-07T08:34:31Z</time>
      </trkpt>
      <trkpt lat="41.7775" lon="9.25607">
        <ele>604.58</ele>
        <time>2021-05-07T08:34:51Z</time>
      </trkpt>
      <trkpt lat="41.77757" lon="9.25601">
        <ele>604.44</ele>
        <time>2021-05-07T08:35:11Z</time>
      </trkpt>
      <trkpt lat="41.77762" lon="9.25597">
        <ele>604.33</ele>
        <time>2021-05-07T08:35:32Z</time>
      </trkpt>
      <trkpt lat="41.77762" lon="9.25594">
        <ele>604.19</ele>
        <time>2021-05-07T08:35:56Z</time>
      </trkpt>
      <trkpt lat="41.77762" lon="9.25594">
        <ele>604</ele>
        <time>2021-05-07T08:36:27Z</time>
      </trkpt>
      <trkpt lat="41.77762" lon="9.25594">
        <ele>601.7</ele>
        <time>2021-05-07T08:36:33Z</time>
      </trkpt>
      <trkpt lat="41.77766" lon="9.25589">
        <ele>601.57</ele>
        <time>2021-05-07T08:36:52Z</time>
      </trkpt>
      <trkpt lat="41.77771" lon="9.25588">
        <ele>601.45</ele>
        <time>2021-05-07T08:37:12Z</time>
      </trkpt>
      <trkpt lat="41.77775" lon="9.25597">
        <ele>601.35</ele>
        <time>2021-05-07T08:37:30Z</time>
      </trkpt>
      <trkpt lat="41.77773" lon="9.25606">
        <ele>601.25</ele>
        <time>2021-05-07T08:37:50Z</time>
      </trkpt>
      <trkpt lat="41.77773" lon="9.25607">
        <ele>603.61</ele>
        <time>2021-05-07T08:37:53Z</time>
      </trkpt>
      <trkpt lat="41.77772" lon="9.25604">
        <ele>603.51</ele>
        <time>2021-05-07T08:38:17Z</time>
      </trkpt>
      <trkpt lat="41.77771" lon="9.25595">
        <ele>603.46</ele>
        <time>2021-05-07T08:38:33Z</time>
      </trkpt>
      <trkpt lat="41.77771" lon="9.25597">
        <ele>601.11</ele>
        <time>2021-05-07T08:39:00Z</time>
      </trkpt>
      <trkpt lat="41.77772" lon="9.25592">
        <ele>600.1</ele>
        <time>2021-05-07T08:39:23Z</time>
      </trkpt>
      <trkpt lat="41.77777" lon="9.25588">
        <ele>598.13</ele>
        <time>2021-05-07T08:39:36Z</time>
      </trkpt>
      <trkpt lat="41.77785" lon="9.25584">
        <ele>598.25</ele>
        <time>2021-05-07T08:39:46Z</time>
      </trkpt>
      <trkpt lat="41.77792" lon="9.25575">
        <ele>597.36</ele>
        <time>2021-05-07T08:39:58Z</time>
      </trkpt>
      <trkpt lat="41.778" lon="9.25561">
        <ele>595.54</ele>
        <time>2021-05-07T08:40:18Z</time>
      </trkpt>
      <trkpt lat="41.77801" lon="9.25556">
        <ele>595.53</ele>
        <time>2021-05-07T08:40:23Z</time>
      </trkpt>
      <trkpt lat="41.77802" lon="9.25547">
        <ele>594.6</ele>
        <time>2021-05-07T08:40:29Z</time>
      </trkpt>
      <trkpt lat="41.77798" lon="9.25535">
        <ele>593.7</ele>
        <time>2021-05-07T08:40:41Z</time>
      </trkpt>
      <trkpt lat="41.77803" lon="9.25519">
        <ele>592.83</ele>
        <time>2021-05-07T08:40:55Z</time>
      </trkpt>
      <trkpt lat="41.77803" lon="9.25504">
        <ele>591.88</ele>
        <time>2021-05-07T08:41:11Z</time>
      </trkpt>
      <trkpt lat="41.77807" lon="9.25489">
        <ele>589.18</ele>
        <time>2021-05-07T08:41:27Z</time>
      </trkpt>
      <trkpt lat="41.77812" lon="9.25474">
        <ele>587.15</ele>
        <time>2021-05-07T08:41:41Z</time>
      </trkpt>
      <trkpt lat="41.77817" lon="9.25458">
        <ele>583.43</ele>
        <time>2021-05-07T08:41:54Z</time>
      </trkpt>
      <trkpt lat="41.77817" lon="9.25444">
        <ele>582.48</ele>
        <time>2021-05-07T08:42:04Z</time>
      </trkpt>
      <trkpt lat="41.77815" lon="9.25432">
        <ele>580.52</ele>
        <time>2021-05-07T08:42:17Z</time>
      </trkpt>
      <trkpt lat="41.7782" lon="9.25424">
        <ele>578.19</ele>
        <time>2021-05-07T08:42:30Z</time>
      </trkpt>
      <trkpt lat="41.77824" lon="9.25421">
        <ele>576.05</ele>
        <time>2021-05-07T08:42:38Z</time>
      </trkpt>
      <trkpt lat="41.7783" lon="9.25414">
        <ele>574.45</ele>
        <time>2021-05-07T08:42:56Z</time>
      </trkpt>
      <trkpt lat="41.77831" lon="9.25407">
        <ele>573.53</ele>
        <time>2021-05-07T08:43:16Z</time>
      </trkpt>
      <trkpt lat="41.77825" lon="9.25391">
        <ele>573.45</ele>
        <time>2021-05-07T08:43:38Z</time>
      </trkpt>
      <trkpt lat="41.77828" lon="9.25394">
        <ele>572.65</ele>
        <time>2021-05-07T08:43:47Z</time>
      </trkpt>
      <trkpt lat="41.77826" lon="9.254">
        <ele>575.18</ele>
        <time>2021-05-07T08:44:02Z</time>
      </trkpt>
      <trkpt lat="41.77826" lon="9.25405">
        <ele>576.14</ele>
        <time>2021-05-07T08:44:24Z</time>
      </trkpt>
      <trkpt lat="41.77826" lon="9.25403">
        <ele>576.21</ele>
        <time>2021-05-07T08:44:41Z</time>
      </trkpt>
      <trkpt lat="41.77826" lon="9.25403">
        <ele>576.21</ele>
        <time>2021-05-07T08:44:42Z</time>
      </trkpt>
      <trkpt lat="41.77827" lon="9.25403">
        <ele>573.96</ele>
        <time>2021-05-07T08:44:56Z</time>
      </trkpt>
      <trkpt lat="41.77819" lon="9.25393">
        <ele>573.23</ele>
        <time>2021-05-07T08:45:13Z</time>
      </trkpt>
      <trkpt lat="41.77819" lon="9.25387">
        <ele>572.7</ele>
        <time>2021-05-07T08:45:29Z</time>
      </trkpt>
      <trkpt lat="41.77817" lon="9.25384">
        <ele>572.91</ele>
        <time>2021-05-07T08:45:56Z</time>
      </trkpt>
      <trkpt lat="41.77814" lon="9.25376">
        <ele>573.07</ele>
        <time>2021-05-07T08:46:15Z</time>
      </trkpt>
      <trkpt lat="41.77814" lon="9.25374">
        <ele>573.1</ele>
        <time>2021-05-07T08:46:18Z</time>
      </trkpt>
      <trkpt lat="41.77816" lon="9.25371">
        <ele>573.23</ele>
        <time>2021-05-07T08:46:33Z</time>
      </trkpt>
      <trkpt lat="41.7783" lon="9.25381">
        <ele>573.36</ele>
        <time>2021-05-07T08:46:49Z</time>
      </trkpt>
      <trkpt lat="41.77831" lon="9.25383">
        <ele>575.77</ele>
        <time>2021-05-07T08:46:51Z</time>
      </trkpt>
      <trkpt lat="41.7783" lon="9.2539">
        <ele>576.75</ele>
        <time>2021-05-07T08:47:14Z</time>
      </trkpt>
      <trkpt lat="41.77829" lon="9.25391">
        <ele>576.78</ele>
        <time>2021-05-07T08:47:17Z</time>
      </trkpt>
      <trkpt lat="41.7783" lon="9.2539">
        <ele>577.82</ele>
        <time>2021-05-07T08:47:41Z</time>
      </trkpt>
      <trkpt lat="41.7783" lon="9.25388">
        <ele>579.54</ele>
        <time>2021-05-07T08:48:00Z</time>
      </trkpt>
      <trkpt lat="41.77834" lon="9.25385">
        <ele>583.34</ele>
        <time>2021-05-07T08:48:16Z</time>
      </trkpt>
      <trkpt lat="41.77831" lon="9.25381">
        <ele>585.07</ele>
        <time>2021-05-07T08:48:31Z</time>
      </trkpt>
      <trkpt lat="41.77837" lon="9.25372">
        <ele>588.11</ele>
        <time>2021-05-07T08:48:46Z</time>
      </trkpt>
      <trkpt lat="41.77841" lon="9.25364">
        <ele>589.78</ele>
        <time>2021-05-07T08:49:00Z</time>
      </trkpt>
      <trkpt lat="41.77843" lon="9.25363">
        <ele>590.68</ele>
        <time>2021-05-07T08:49:04Z</time>
      </trkpt>
      <trkpt lat="41.77844" lon="9.25361">
        <ele>591.87</ele>
        <time>2021-05-07T08:49:09Z</time>
      </trkpt>
      <trkpt lat="41.77849" lon="9.25352">
        <ele>593.55</ele>
        <time>2021-05-07T08:49:26Z</time>
      </trkpt>
      <trkpt lat="41.77851" lon="9.25332">
        <ele>597.11</ele>
        <time>2021-05-07T08:49:46Z</time>
      </trkpt>
      <trkpt lat="41.7786" lon="9.25323">
        <ele>598.71</ele>
        <time>2021-05-07T08:50:05Z</time>
      </trkpt>
      <trkpt lat="41.77866" lon="9.25313">
        <ele>602.4</ele>
        <time>2021-05-07T08:50:22Z</time>
      </trkpt>
      <trkpt lat="41.77875" lon="9.25304">
        <ele>605.8</ele>
        <time>2021-05-07T08:50:41Z</time>
      </trkpt>
      <trkpt lat="41.77879" lon="9.25298">
        <ele>609.34</ele>
        <time>2021-05-07T08:50:59Z</time>
      </trkpt>
      <trkpt lat="41.77887" lon="9.25298">
        <ele>612.78</ele>
        <time>2021-05-07T08:51:15Z</time>
      </trkpt>
      <trkpt lat="41.77896" lon="9.25295">
        <ele>614.17</ele>
        <time>2021-05-07T08:51:36Z</time>
      </trkpt>
      <trkpt lat="41.77904" lon="9.25293">
        <ele>614.77</ele>
        <time>2021-05-07T08:51:59Z</time>
      </trkpt>
      <trkpt lat="41.77915" lon="9.25279">
        <ele>614.74</ele>
        <time>2021-05-07T08:52:20Z</time>
      </trkpt>
      <trkpt lat="41.77927" lon="9.2527">
        <ele>614.57</ele>
        <time>2021-05-07T08:52:40Z</time>
      </trkpt>
      <trkpt lat="41.77932" lon="9.25268">
        <ele>612.25</ele>
        <time>2021-05-07T08:52:45Z</time>
      </trkpt>
      <trkpt lat="41.77943" lon="9.25257">
        <ele>611.3</ele>
        <time>2021-05-07T08:53:02Z</time>
      </trkpt>
      <trkpt lat="41.77955" lon="9.25243">
        <ele>611.36</ele>
        <time>2021-05-07T08:53:20Z</time>
      </trkpt>
      <trkpt lat="41.77963" lon="9.25237">
        <ele>613.74</ele>
        <time>2021-05-07T08:53:32Z</time>
      </trkpt>
      <trkpt lat="41.77973" lon="9.25223">
        <ele>615.44</ele>
        <time>2021-05-07T08:53:49Z</time>
      </trkpt>
      <trkpt lat="41.77977" lon="9.25213">
        <ele>618.77</ele>
        <time>2021-05-07T08:54:04Z</time>
      </trkpt>
      <trkpt lat="41.77985" lon="9.252">
        <ele>621.26</ele>
        <time>2021-05-07T08:54:24Z</time>
      </trkpt>
      <trkpt lat="41.77992" lon="9.25196">
        <ele>621.93</ele>
        <time>2021-05-07T08:54:40Z</time>
      </trkpt>
      <trkpt lat="41.77993" lon="9.25195">
        <ele>622.95</ele>
        <time>2021-05-07T08:54:43Z</time>
      </trkpt>
      <trkpt lat="41.77997" lon="9.25182">
        <ele>624.79</ele>
        <time>2021-05-07T08:54:59Z</time>
      </trkpt>
      <trkpt lat="41.77998" lon="9.25174">
        <ele>626.3</ele>
        <time>2021-05-07T08:55:07Z</time>
      </trkpt>
      <trkpt lat="41.78004" lon="9.2516">
        <ele>626.84</ele>
        <time>2021-05-07T08:55:24Z</time>
      </trkpt>
      <trkpt lat="41.78006" lon="9.25155">
        <ele>624.35</ele>
        <time>2021-05-07T08:55:33Z</time>
      </trkpt>
      <trkpt lat="41.78011" lon="9.25152">
        <ele>622.35</ele>
        <time>2021-05-07T08:55:48Z</time>
      </trkpt>
      <trkpt lat="41.78004" lon="9.2515">
        <ele>621.59</ele>
        <time>2021-05-07T08:56:09Z</time>
      </trkpt>
      <trkpt lat="41.78008" lon="9.25145">
        <ele>621.49</ele>
        <time>2021-05-07T08:56:26Z</time>
      </trkpt>
      <trkpt lat="41.78016" lon="9.25143">
        <ele>621.42</ele>
        <time>2021-05-07T08:56:44Z</time>
      </trkpt>
      <trkpt lat="41.78014" lon="9.25147">
        <ele>621.32</ele>
        <time>2021-05-07T08:57:03Z</time>
      </trkpt>
      <trkpt lat="41.78015" lon="9.25147">
        <ele>621.24</ele>
        <time>2021-05-07T08:57:28Z</time>
      </trkpt>
      <trkpt lat="41.78016" lon="9.25146">
        <ele>623.48</ele>
        <time>2021-05-07T08:57:33Z</time>
      </trkpt>
      <trkpt lat="41.7802" lon="9.25142">
        <ele>627.08</ele>
        <time>2021-05-07T08:57:53Z</time>
      </trkpt>
      <trkpt lat="41.78031" lon="9.25138">
        <ele>630.54</ele>
        <time>2021-05-07T08:58:09Z</time>
      </trkpt>
      <trkpt lat="41.78037" lon="9.25134">
        <ele>630.27</ele>
        <time>2021-05-07T08:58:30Z</time>
      </trkpt>
      <trkpt lat="41.78053" lon="9.25138">
        <ele>630.14</ele>
        <time>2021-05-07T08:58:49Z</time>
      </trkpt>
      <trkpt lat="41.78052" lon="9.25134">
        <ele>630.15</ele>
        <time>2021-05-07T08:59:04Z</time>
      </trkpt>
      <trkpt lat="41.78063" lon="9.25136">
        <ele>630.13</ele>
        <time>2021-05-07T08:59:15Z</time>
      </trkpt>
      <trkpt lat="41.78079" lon="9.25145">
        <ele>630.12</ele>
        <time>2021-05-07T08:59:35Z</time>
      </trkpt>
      <trkpt lat="41.78085" lon="9.25153">
        <ele>630.19</ele>
        <time>2021-05-07T08:59:54Z</time>
      </trkpt>
      <trkpt lat="41.78084" lon="9.25154">
        <ele>630.2</ele>
        <time>2021-05-07T08:59:55Z</time>
      </trkpt>
      <trkpt lat="41.7808" lon="9.25152">
        <ele>630.22</ele>
        <time>2021-05-07T09:00:03Z</time>
      </trkpt>
      <trkpt lat="41.78082" lon="9.25154">
        <ele>631.95</ele>
        <time>2021-05-07T09:00:22Z</time>
      </trkpt>
      <trkpt lat="41.7808" lon="9.25159">
        <ele>632.79</ele>
        <time>2021-05-07T09:00:41Z</time>
      </trkpt>
      <trkpt lat="41.78084" lon="9.25163">
        <ele>632.93</ele>
        <time>2021-05-07T09:01:02Z</time>
      </trkpt>
      <trkpt lat="41.78085" lon="9.25161">
        <ele>633.06</ele>
        <time>2021-05-07T09:01:15Z</time>
      </trkpt>
      <trkpt lat="41.78085" lon="9.25166">
        <ele>633.14</ele>
        <time>2021-05-07T09:01:26Z</time>
      </trkpt>
      <trkpt lat="41.78088" lon="9.25171">
        <ele>633.2</ele>
        <time>2021-05-07T09:01:34Z</time>
      </trkpt>
      <trkpt lat="41.78085" lon="9.25172">
        <ele>631.14</ele>
        <time>2021-05-07T09:01:52Z</time>
      </trkpt>
      <trkpt lat="41.78087" lon="9.25169">
        <ele>631.37</ele>
        <time>2021-05-07T09:02:09Z</time>
      </trkpt>
      <trkpt lat="41.78087" lon="9.25166">
        <ele>631.45</ele>
        <time>2021-05-07T09:02:14Z</time>
      </trkpt>
      <trkpt lat="41.7808" lon="9.25171">
        <ele>631.71</ele>
        <time>2021-05-07T09:02:34Z</time>
      </trkpt>
      <trkpt lat="41.7808" lon="9.25173">
        <ele>631.98</ele>
        <time>2021-05-07T09:02:52Z</time>
      </trkpt>
      <trkpt lat="41.78071" lon="9.25164">
        <ele>632.23</ele>
        <time>2021-05-07T09:03:10Z</time>
      </trkpt>
      <trkpt lat="41.78066" lon="9.2516">
        <ele>632.58</ele>
        <time>2021-05-07T09:03:29Z</time>
      </trkpt>
      <trkpt lat="41.78052" lon="9.25161">
        <ele>631.04</ele>
        <time>2021-05-07T09:03:45Z</time>
      </trkpt>
      <trkpt lat="41.78042" lon="9.25164">
        <ele>633.71</ele>
        <time>2021-05-07T09:03:59Z</time>
      </trkpt>
      <trkpt lat="41.78024" lon="9.25141">
        <ele>636.67</ele>
        <time>2021-05-07T09:04:17Z</time>
      </trkpt>
      <trkpt lat="41.78026" lon="9.25139">
        <ele>637.75</ele>
        <time>2021-05-07T09:04:40Z</time>
      </trkpt>
      <trkpt lat="41.78028" lon="9.25129">
        <ele>638.71</ele>
        <time>2021-05-07T09:04:54Z</time>
      </trkpt>
      <trkpt lat="41.78033" lon="9.25119">
        <ele>642.3</ele>
        <time>2021-05-07T09:05:13Z</time>
      </trkpt>
      <trkpt lat="41.78039" lon="9.25123">
        <ele>644.11</ele>
        <time>2021-05-07T09:05:38Z</time>
      </trkpt>
      <trkpt lat="41.7804" lon="9.25124">
        <ele>644.34</ele>
        <time>2021-05-07T09:06:12Z</time>
      </trkpt>
      <trkpt lat="41.78041" lon="9.25122">
        <ele>644.37</ele>
        <time>2021-05-07T09:06:21Z</time>
      </trkpt>
      <trkpt lat="41.78044" lon="9.25113">
        <ele>645.31</ele>
        <time>2021-05-07T09:06:39Z</time>
      </trkpt>
      <trkpt lat="41.78056" lon="9.25104">
        <ele>647.91</ele>
        <time>2021-05-07T09:06:59Z</time>
      </trkpt>
      <trkpt lat="41.7807" lon="9.25102">
        <ele>649.65</ele>
        <time>2021-05-07T09:07:21Z</time>
      </trkpt>
      <trkpt lat="41.78085" lon="9.25106">
        <ele>651.26</ele>
        <time>2021-05-07T09:07:40Z</time>
      </trkpt>
      <trkpt lat="41.78097" lon="9.25109">
        <ele>653.24</ele>
        <time>2021-05-07T09:07:57Z</time>
      </trkpt>
      <trkpt lat="41.781" lon="9.25109">
        <ele>654.03</ele>
        <time>2021-05-07T09:08:02Z</time>
      </trkpt>
      <trkpt lat="41.78105" lon="9.2511">
        <ele>655.05</ele>
        <time>2021-05-07T09:08:06Z</time>
      </trkpt>
      <trkpt lat="41.78118" lon="9.25107">
        <ele>658.08</ele>
        <time>2021-05-07T09:08:25Z</time>
      </trkpt>
      <trkpt lat="41.78131" lon="9.25101">
        <ele>660.73</ele>
        <time>2021-05-07T09:08:46Z</time>
      </trkpt>
      <trkpt lat="41.78144" lon="9.25097">
        <ele>663.31</ele>
        <time>2021-05-07T09:09:08Z</time>
      </trkpt>
      <trkpt lat="41.78159" lon="9.25093">
        <ele>664.78</ele>
        <time>2021-05-07T09:09:28Z</time>
      </trkpt>
      <trkpt lat="41.78171" lon="9.25087">
        <ele>665.51</ele>
        <time>2021-05-07T09:09:47Z</time>
      </trkpt>
      <trkpt lat="41.78184" lon="9.25093">
        <ele>665.46</ele>
        <time>2021-05-07T09:10:06Z</time>
      </trkpt>
      <trkpt lat="41.78194" lon="9.251">
        <ele>666.39</ele>
        <time>2021-05-07T09:10:24Z</time>
      </trkpt>
      <trkpt lat="41.78206" lon="9.25102">
        <ele>668.11</ele>
        <time>2021-05-07T09:10:43Z</time>
      </trkpt>
      <trkpt lat="41.78219" lon="9.25104">
        <ele>670.74</ele>
        <time>2021-05-07T09:11:03Z</time>
      </trkpt>
      <trkpt lat="41.7824" lon="9.25117">
        <ele>672.4</ele>
        <time>2021-05-07T09:11:26Z</time>
      </trkpt>
      <trkpt lat="41.78256" lon="9.25128">
        <ele>670.08</ele>
        <time>2021-05-07T09:11:43Z</time>
      </trkpt>
      <trkpt lat="41.78266" lon="9.25141">
        <ele>672.8</ele>
        <time>2021-05-07T09:12:02Z</time>
      </trkpt>
      <trkpt lat="41.78273" lon="9.25151">
        <ele>675.66</ele>
        <time>2021-05-07T09:12:23Z</time>
      </trkpt>
      <trkpt lat="41.78281" lon="9.25158">
        <ele>676.67</ele>
        <time>2021-05-07T09:12:40Z</time>
      </trkpt>
      <trkpt lat="41.7829" lon="9.25163">
        <ele>676.78</ele>
        <time>2021-05-07T09:12:56Z</time>
      </trkpt>
      <trkpt lat="41.78298" lon="9.25178">
        <ele>676.91</ele>
        <time>2021-05-07T09:13:17Z</time>
      </trkpt>
      <trkpt lat="41.78296" lon="9.25181">
        <ele>676.97</ele>
        <time>2021-05-07T09:13:36Z</time>
      </trkpt>
      <trkpt lat="41.78289" lon="9.25185">
        <ele>677.88</ele>
        <time>2021-05-07T09:13:56Z</time>
      </trkpt>
      <trkpt lat="41.78284" lon="9.2517">
        <ele>677.92</ele>
        <time>2021-05-07T09:14:12Z</time>
      </trkpt>
      <trkpt lat="41.7829" lon="9.25153">
        <ele>680.49</ele>
        <time>2021-05-07T09:14:31Z</time>
      </trkpt>
      <trkpt lat="41.78297" lon="9.25148">
        <ele>683.99</ele>
        <time>2021-05-07T09:14:48Z</time>
      </trkpt>
      <trkpt lat="41.78308" lon="9.25137">
        <ele>687.76</ele>
        <time>2021-05-07T09:15:08Z</time>
      </trkpt>
      <trkpt lat="41.78316" lon="9.25137">
        <ele>690.16</ele>
        <time>2021-05-07T09:15:25Z</time>
      </trkpt>
      <trkpt lat="41.78329" lon="9.25134">
        <ele>692.69</ele>
        <time>2021-05-07T09:15:47Z</time>
      </trkpt>
      <trkpt lat="41.78343" lon="9.25129">
        <ele>695.31</ele>
        <time>2021-05-07T09:16:07Z</time>
      </trkpt>
      <trkpt lat="41.78359" lon="9.25128">
        <ele>698.54</ele>
        <time>2021-05-07T09:16:27Z</time>
      </trkpt>
      <trkpt lat="41.7837" lon="9.25126">
        <ele>699.45</ele>
        <time>2021-05-07T09:16:48Z</time>
      </trkpt>
      <trkpt lat="41.78388" lon="9.25122">
        <ele>702.75</ele>
        <time>2021-05-07T09:17:08Z</time>
      </trkpt>
      <trkpt lat="41.78399" lon="9.25128">
        <ele>705.32</ele>
        <time>2021-05-07T09:17:25Z</time>
      </trkpt>
      <trkpt lat="41.78414" lon="9.25139">
        <ele>708.76</ele>
        <time>2021-05-07T09:17:46Z</time>
      </trkpt>
      <trkpt lat="41.78428" lon="9.25145">
        <ele>710.47</ele>
        <time>2021-05-07T09:18:05Z</time>
      </trkpt>
      <trkpt lat="41.78437" lon="9.25149">
        <ele>713.99</ele>
        <time>2021-05-07T09:18:22Z</time>
      </trkpt>
      <trkpt lat="41.78451" lon="9.25161">
        <ele>716.83</ele>
        <time>2021-05-07T09:18:42Z</time>
      </trkpt>
      <trkpt lat="41.78452" lon="9.25161">
        <ele>716.81</ele>
        <time>2021-05-07T09:18:43Z</time>
      </trkpt>
      <trkpt lat="41.78453" lon="9.25166">
        <ele>716.6</ele>
        <time>2021-05-07T09:18:51Z</time>
      </trkpt>
      <trkpt lat="41.78461" lon="9.25179">
        <ele>717.14</ele>
        <time>2021-05-07T09:19:11Z</time>
      </trkpt>
      <trkpt lat="41.78471" lon="9.25176">
        <ele>719.37</ele>
        <time>2021-05-07T09:19:26Z</time>
      </trkpt>
      <trkpt lat="41.7848" lon="9.25177">
        <ele>721.01</ele>
        <time>2021-05-07T09:19:39Z</time>
      </trkpt>
      <trkpt lat="41.78491" lon="9.25188">
        <ele>722.37</ele>
        <time>2021-05-07T09:19:57Z</time>
      </trkpt>
      <trkpt lat="41.785" lon="9.25199">
        <ele>723.14</ele>
        <time>2021-05-07T09:20:16Z</time>
      </trkpt>
      <trkpt lat="41.78502" lon="9.25211">
        <ele>720.73</ele>
        <time>2021-05-07T09:20:28Z</time>
      </trkpt>
      <trkpt lat="41.78509" lon="9.25213">
        <ele>723.16</ele>
        <time>2021-05-07T09:20:48Z</time>
      </trkpt>
      <trkpt lat="41.78512" lon="9.25222">
        <ele>724.59</ele>
        <time>2021-05-07T09:21:07Z</time>
      </trkpt>
      <trkpt lat="41.78513" lon="9.25228">
        <ele>725.23</ele>
        <time>2021-05-07T09:21:26Z</time>
      </trkpt>
      <trkpt lat="41.78522" lon="9.25234">
        <ele>727.8</ele>
        <time>2021-05-07T09:21:46Z</time>
      </trkpt>
      <trkpt lat="41.78535" lon="9.25247">
        <ele>731.29</ele>
        <time>2021-05-07T09:22:02Z</time>
      </trkpt>
      <trkpt lat="41.7854" lon="9.25254">
        <ele>733.61</ele>
        <time>2021-05-07T09:22:20Z</time>
      </trkpt>
      <trkpt lat="41.78544" lon="9.25256">
        <ele>737.28</ele>
        <time>2021-05-07T09:22:32Z</time>
      </trkpt>
      <trkpt lat="41.78552" lon="9.25261">
        <ele>740.57</ele>
        <time>2021-05-07T09:22:46Z</time>
      </trkpt>
      <trkpt lat="41.78561" lon="9.2527">
        <ele>743.04</ele>
        <time>2021-05-07T09:23:07Z</time>
      </trkpt>
      <trkpt lat="41.78564" lon="9.25271">
        <ele>746.59</ele>
        <time>2021-05-07T09:23:27Z</time>
      </trkpt>
      <trkpt lat="41.78578" lon="9.25276">
        <ele>749</ele>
        <time>2021-05-07T09:23:48Z</time>
      </trkpt>
      <trkpt lat="41.78579" lon="9.25282">
        <ele>748.91</ele>
        <time>2021-05-07T09:24:11Z</time>
      </trkpt>
      <trkpt lat="41.78584" lon="9.25276">
        <ele>749.81</ele>
        <time>2021-05-07T09:24:35Z</time>
      </trkpt>
      <trkpt lat="41.78593" lon="9.25281">
        <ele>750.71</ele>
        <time>2021-05-07T09:24:56Z</time>
      </trkpt>
      <trkpt lat="41.78596" lon="9.25288">
        <ele>751.51</ele>
        <time>2021-05-07T09:25:17Z</time>
      </trkpt>
      <trkpt lat="41.78606" lon="9.25296">
        <ele>754.4</ele>
        <time>2021-05-07T09:25:35Z</time>
      </trkpt>
      <trkpt lat="41.78615" lon="9.25302">
        <ele>754.39</ele>
        <time>2021-05-07T09:25:52Z</time>
      </trkpt>
      <trkpt lat="41.78625" lon="9.25304">
        <ele>756.2</ele>
        <time>2021-05-07T09:26:12Z</time>
      </trkpt>
      <trkpt lat="41.78636" lon="9.25311">
        <ele>757.37</ele>
        <time>2021-05-07T09:26:31Z</time>
      </trkpt>
      <trkpt lat="41.78642" lon="9.25313">
        <ele>760.88</ele>
        <time>2021-05-07T09:26:49Z</time>
      </trkpt>
      <trkpt lat="41.78647" lon="9.25316">
        <ele>763.72</ele>
        <time>2021-05-07T09:27:10Z</time>
      </trkpt>
      <trkpt lat="41.78652" lon="9.25315">
        <ele>767.05</ele>
        <time>2021-05-07T09:27:28Z</time>
      </trkpt>
      <trkpt lat="41.78655" lon="9.25319">
        <ele>767.05</ele>
        <time>2021-05-07T09:27:33Z</time>
      </trkpt>
      <trkpt lat="41.78663" lon="9.25325">
        <ele>766.93</ele>
        <time>2021-05-07T09:27:54Z</time>
      </trkpt>
      <trkpt lat="41.78663" lon="9.25326">
        <ele>766.93</ele>
        <time>2021-05-07T09:27:56Z</time>
      </trkpt>
      <trkpt lat="41.78666" lon="9.25331">
        <ele>766.98</ele>
        <time>2021-05-07T09:28:21Z</time>
      </trkpt>
      <trkpt lat="41.78668" lon="9.25333">
        <ele>767.79</ele>
        <time>2021-05-07T09:28:47Z</time>
      </trkpt>
      <trkpt lat="41.78666" lon="9.25337">
        <ele>769.43</ele>
        <time>2021-05-07T09:29:15Z</time>
      </trkpt>
      <trkpt lat="41.78673" lon="9.2533">
        <ele>771.89</ele>
        <time>2021-05-07T09:29:35Z</time>
      </trkpt>
      <trkpt lat="41.78678" lon="9.25322">
        <ele>774.66</ele>
        <time>2021-05-07T09:29:53Z</time>
      </trkpt>
      <trkpt lat="41.78686" lon="9.25316">
        <ele>777.19</ele>
        <time>2021-05-07T09:30:10Z</time>
      </trkpt>
      <trkpt lat="41.7869" lon="9.25313">
        <ele>778.13</ele>
        <time>2021-05-07T09:30:16Z</time>
      </trkpt>
      <trkpt lat="41.78699" lon="9.25306">
        <ele>779.88</ele>
        <time>2021-05-07T09:30:35Z</time>
      </trkpt>
      <trkpt lat="41.78713" lon="9.2531">
        <ele>780.56</ele>
        <time>2021-05-07T09:30:54Z</time>
      </trkpt>
      <trkpt lat="41.78722" lon="9.25314">
        <ele>781.4</ele>
        <time>2021-05-07T09:31:08Z</time>
      </trkpt>
      <trkpt lat="41.78726" lon="9.2532">
        <ele>781.39</ele>
        <time>2021-05-07T09:31:17Z</time>
      </trkpt>
      <trkpt lat="41.78729" lon="9.25323">
        <ele>781.56</ele>
        <time>2021-05-07T09:31:39Z</time>
      </trkpt>
      <trkpt lat="41.78729" lon="9.25342">
        <ele>781.48</ele>
        <time>2021-05-07T09:32:01Z</time>
      </trkpt>
      <trkpt lat="41.78729" lon="9.25349">
        <ele>781.55</ele>
        <time>2021-05-07T09:32:07Z</time>
      </trkpt>
      <trkpt lat="41.7873" lon="9.2536">
        <ele>783.37</ele>
        <time>2021-05-07T09:32:27Z</time>
      </trkpt>
      <trkpt lat="41.78732" lon="9.2537">
        <ele>783.29</ele>
        <time>2021-05-07T09:32:36Z</time>
      </trkpt>
      <trkpt lat="41.78732" lon="9.25396">
        <ele>783.38</ele>
        <time>2021-05-07T09:32:55Z</time>
      </trkpt>
      <trkpt lat="41.78728" lon="9.25409">
        <ele>783.47</ele>
        <time>2021-05-07T09:33:06Z</time>
      </trkpt>
      <trkpt lat="41.78727" lon="9.25411">
        <ele>783.49</ele>
        <time>2021-05-07T09:33:08Z</time>
      </trkpt>
      <trkpt lat="41.78721" lon="9.25422">
        <ele>784.38</ele>
        <time>2021-05-07T09:33:15Z</time>
      </trkpt>
      <trkpt lat="41.78724" lon="9.2544">
        <ele>786.06</ele>
        <time>2021-05-07T09:33:36Z</time>
      </trkpt>
      <trkpt lat="41.78723" lon="9.25459">
        <ele>787.96</ele>
        <time>2021-05-07T09:33:55Z</time>
      </trkpt>
      <trkpt lat="41.78718" lon="9.25484">
        <ele>788.93</ele>
        <time>2021-05-07T09:34:13Z</time>
      </trkpt>
      <trkpt lat="41.78722" lon="9.25499">
        <ele>791.5</ele>
        <time>2021-05-07T09:34:29Z</time>
      </trkpt>
      <trkpt lat="41.78725" lon="9.255">
        <ele>793.67</ele>
        <time>2021-05-07T09:34:36Z</time>
      </trkpt>
      <trkpt lat="41.78726" lon="9.25509">
        <ele>796.88</ele>
        <time>2021-05-07T09:34:52Z</time>
      </trkpt>
      <trkpt lat="41.78731" lon="9.25517">
        <ele>800.61</ele>
        <time>2021-05-07T09:35:08Z</time>
      </trkpt>
      <trkpt lat="41.7874" lon="9.25518">
        <ele>804.06</ele>
        <time>2021-05-07T09:35:22Z</time>
      </trkpt>
      <trkpt lat="41.78747" lon="9.25528">
        <ele>805.88</ele>
        <time>2021-05-07T09:35:40Z</time>
      </trkpt>
      <trkpt lat="41.78758" lon="9.25539">
        <ele>807.36</ele>
        <time>2021-05-07T09:35:57Z</time>
      </trkpt>
      <trkpt lat="41.78763" lon="9.25556">
        <ele>808.98</ele>
        <time>2021-05-07T09:36:15Z</time>
      </trkpt>
      <trkpt lat="41.78769" lon="9.2557">
        <ele>811.51</ele>
        <time>2021-05-07T09:36:35Z</time>
      </trkpt>
      <trkpt lat="41.78777" lon="9.25577">
        <ele>815.29</ele>
        <time>2021-05-07T09:36:54Z</time>
      </trkpt>
      <trkpt lat="41.78789" lon="9.25584">
        <ele>816.95</ele>
        <time>2021-05-07T09:37:13Z</time>
      </trkpt>
      <trkpt lat="41.7879" lon="9.25585">
        <ele>817.85</ele>
        <time>2021-05-07T09:37:16Z</time>
      </trkpt>
      <trkpt lat="41.78795" lon="9.25592">
        <ele>820.14</ele>
        <time>2021-05-07T09:37:36Z</time>
      </trkpt>
      <trkpt lat="41.78795" lon="9.25592">
        <ele>820.14</ele>
        <time>2021-05-07T09:37:37Z</time>
      </trkpt>
      <trkpt lat="41.78798" lon="9.25597">
        <ele>821.1</ele>
        <time>2021-05-07T09:37:44Z</time>
      </trkpt>
      <trkpt lat="41.78802" lon="9.25593">
        <ele>824.89</ele>
        <time>2021-05-07T09:38:03Z</time>
      </trkpt>
      <trkpt lat="41.78804" lon="9.25584">
        <ele>827.48</ele>
        <time>2021-05-07T09:38:19Z</time>
      </trkpt>
      <trkpt lat="41.78805" lon="9.25579">
        <ele>829.27</ele>
        <time>2021-05-07T09:38:33Z</time>
      </trkpt>
      <trkpt lat="41.78805" lon="9.25582">
        <ele>830.04</ele>
        <time>2021-05-07T09:38:35Z</time>
      </trkpt>
      <trkpt lat="41.78808" lon="9.25579">
        <ele>829.96</ele>
        <time>2021-05-07T09:38:53Z</time>
      </trkpt>
      <trkpt lat="41.7881" lon="9.25577">
        <ele>829.94</ele>
        <time>2021-05-07T09:39:18Z</time>
      </trkpt>
      <trkpt lat="41.78807" lon="9.25582">
        <ele>829.89</ele>
        <time>2021-05-07T09:39:34Z</time>
      </trkpt>
      <trkpt lat="41.78806" lon="9.25587">
        <ele>829.9</ele>
        <time>2021-05-07T09:39:54Z</time>
      </trkpt>
      <trkpt lat="41.78804" lon="9.25591">
        <ele>829.9</ele>
        <time>2021-05-07T09:39:59Z</time>
      </trkpt>
      <trkpt lat="41.78803" lon="9.25593">
        <ele>829.92</ele>
        <time>2021-05-07T09:40:04Z</time>
      </trkpt>
      <trkpt lat="41.78811" lon="9.25588">
        <ele>829.91</ele>
        <time>2021-05-07T09:40:34Z</time>
      </trkpt>
      <trkpt lat="41.78808" lon="9.25589">
        <ele>829.91</ele>
        <time>2021-05-07T09:40:35Z</time>
      </trkpt>
      <trkpt lat="41.78806" lon="9.25587">
        <ele>829.89</ele>
        <time>2021-05-07T09:40:39Z</time>
      </trkpt>
      <trkpt lat="41.78808" lon="9.25579">
        <ele>832.91</ele>
        <time>2021-05-07T09:40:57Z</time>
      </trkpt>
      <trkpt lat="41.78812" lon="9.25577">
        <ele>836.44</ele>
        <time>2021-05-07T09:41:07Z</time>
      </trkpt>
      <trkpt lat="41.78825" lon="9.25571">
        <ele>839.88</ele>
        <time>2021-05-07T09:41:25Z</time>
      </trkpt>
      <trkpt lat="41.78841" lon="9.25567">
        <ele>841.55</ele>
        <time>2021-05-07T09:41:40Z</time>
      </trkpt>
      <trkpt lat="41.78842" lon="9.25566">
        <ele>841.56</ele>
        <time>2021-05-07T09:41:42Z</time>
      </trkpt>
      <trkpt lat="41.78845" lon="9.25565">
        <ele>842.47</ele>
        <time>2021-05-07T09:41:45Z</time>
      </trkpt>
      <trkpt lat="41.78859" lon="9.25565">
        <ele>846.61</ele>
        <time>2021-05-07T09:42:05Z</time>
      </trkpt>
      <trkpt lat="41.78866" lon="9.2556">
        <ele>849.91</ele>
        <time>2021-05-07T09:42:24Z</time>
      </trkpt>
      <trkpt lat="41.78873" lon="9.25557">
        <ele>853.22</ele>
        <time>2021-05-07T09:42:40Z</time>
      </trkpt>
      <trkpt lat="41.78874" lon="9.25558">
        <ele>856.48</ele>
        <time>2021-05-07T09:42:58Z</time>
      </trkpt>
      <trkpt lat="41.78878" lon="9.25549">
        <ele>859.11</ele>
        <time>2021-05-07T09:43:16Z</time>
      </trkpt>
      <trkpt lat="41.78882" lon="9.25546">
        <ele>861.72</ele>
        <time>2021-05-07T09:43:31Z</time>
      </trkpt>
      <trkpt lat="41.78899" lon="9.25543">
        <ele>861.67</ele>
        <time>2021-05-07T09:43:49Z</time>
      </trkpt>
      <trkpt lat="41.78916" lon="9.2555">
        <ele>863.51</ele>
        <time>2021-05-07T09:44:13Z</time>
      </trkpt>
      <trkpt lat="41.78919" lon="9.25552">
        <ele>867.06</ele>
        <time>2021-05-07T09:44:27Z</time>
      </trkpt>
      <trkpt lat="41.78918" lon="9.2555">
        <ele>870.72</ele>
        <time>2021-05-07T09:44:45Z</time>
      </trkpt>
      <trkpt lat="41.78925" lon="9.25548">
        <ele>874.42</ele>
        <time>2021-05-07T09:44:59Z</time>
      </trkpt>
      <trkpt lat="41.78932" lon="9.25545">
        <ele>875.32</ele>
        <time>2021-05-07T09:45:19Z</time>
      </trkpt>
      <trkpt lat="41.78936" lon="9.25536">
        <ele>878.91</ele>
        <time>2021-05-07T09:45:36Z</time>
      </trkpt>
      <trkpt lat="41.78939" lon="9.25531">
        <ele>882.64</ele>
        <time>2021-05-07T09:45:53Z</time>
      </trkpt>
      <trkpt lat="41.78948" lon="9.25535">
        <ele>884.33</ele>
        <time>2021-05-07T09:46:12Z</time>
      </trkpt>
      <trkpt lat="41.78948" lon="9.25534">
        <ele>884.36</ele>
        <time>2021-05-07T09:46:31Z</time>
      </trkpt>
      <trkpt lat="41.78949" lon="9.25536">
        <ele>881.23</ele>
        <time>2021-05-07T09:46:52Z</time>
      </trkpt>
      <trkpt lat="41.78951" lon="9.25545">
        <ele>885.31</ele>
        <time>2021-05-07T09:47:09Z</time>
      </trkpt>
      <trkpt lat="41.78951" lon="9.25545">
        <ele>885.32</ele>
        <time>2021-05-07T09:47:10Z</time>
      </trkpt>
      <trkpt lat="41.7895" lon="9.25542">
        <ele>886.24</ele>
        <time>2021-05-07T09:47:29Z</time>
      </trkpt>
      <trkpt lat="41.78948" lon="9.2554">
        <ele>886.36</ele>
        <time>2021-05-07T09:47:55Z</time>
      </trkpt>
      <trkpt lat="41.78945" lon="9.25539">
        <ele>886.54</ele>
        <time>2021-05-07T09:48:28Z</time>
      </trkpt>
      <trkpt lat="41.78947" lon="9.25536">
        <ele>887.46</ele>
        <time>2021-05-07T09:48:45Z</time>
      </trkpt>
      <trkpt lat="41.78948" lon="9.25531">
        <ele>888.59</ele>
        <time>2021-05-07T09:49:07Z</time>
      </trkpt>
      <trkpt lat="41.78951" lon="9.25526">
        <ele>891.77</ele>
        <time>2021-05-07T09:49:14Z</time>
      </trkpt>
      <trkpt lat="41.78955" lon="9.25518">
        <ele>895.34</ele>
        <time>2021-05-07T09:49:31Z</time>
      </trkpt>
      <trkpt lat="41.78958" lon="9.25513">
        <ele>898.83</ele>
        <time>2021-05-07T09:49:44Z</time>
      </trkpt>
      <trkpt lat="41.78953" lon="9.25506">
        <ele>900.45</ele>
        <time>2021-05-07T09:50:03Z</time>
      </trkpt>
      <trkpt lat="41.78957" lon="9.25497">
        <ele>904.26</ele>
        <time>2021-05-07T09:50:19Z</time>
      </trkpt>
      <trkpt lat="41.7897" lon="9.255">
        <ele>906.18</ele>
        <time>2021-05-07T09:50:40Z</time>
      </trkpt>
      <trkpt lat="41.78977" lon="9.25494">
        <ele>909.59</ele>
        <time>2021-05-07T09:51:00Z</time>
      </trkpt>
      <trkpt lat="41.78988" lon="9.25498">
        <ele>912.17</ele>
        <time>2021-05-07T09:51:21Z</time>
      </trkpt>
      <trkpt lat="41.78991" lon="9.25495">
        <ele>915.5</ele>
        <time>2021-05-07T09:51:33Z</time>
      </trkpt>
      <trkpt lat="41.78993" lon="9.25489">
        <ele>919.08</ele>
        <time>2021-05-07T09:51:49Z</time>
      </trkpt>
      <trkpt lat="41.78997" lon="9.25486">
        <ele>922.41</ele>
        <time>2021-05-07T09:52:11Z</time>
      </trkpt>
      <trkpt lat="41.79002" lon="9.25483">
        <ele>925.46</ele>
        <time>2021-05-07T09:52:22Z</time>
      </trkpt>
      <trkpt lat="41.79008" lon="9.25479">
        <ele>929.11</ele>
        <time>2021-05-07T09:52:40Z</time>
      </trkpt>
      <trkpt lat="41.79017" lon="9.25475">
        <ele>931.84</ele>
        <time>2021-05-07T09:53:02Z</time>
      </trkpt>
      <trkpt lat="41.79022" lon="9.25481">
        <ele>934.5</ele>
        <time>2021-05-07T09:53:21Z</time>
      </trkpt>
      <trkpt lat="41.79023" lon="9.25482">
        <ele>935.39</ele>
        <time>2021-05-07T09:53:24Z</time>
      </trkpt>
      <trkpt lat="41.79031" lon="9.25493">
        <ele>938.11</ele>
        <time>2021-05-07T09:53:44Z</time>
      </trkpt>
      <trkpt lat="41.79032" lon="9.25503">
        <ele>939.7</ele>
        <time>2021-05-07T09:54:02Z</time>
      </trkpt>
      <trkpt lat="41.79036" lon="9.25508">
        <ele>942.39</ele>
        <time>2021-05-07T09:54:17Z</time>
      </trkpt>
      <trkpt lat="41.79037" lon="9.2551">
        <ele>943.55</ele>
        <time>2021-05-07T09:54:44Z</time>
      </trkpt>
      <trkpt lat="41.79043" lon="9.25518">
        <ele>946.43</ele>
        <time>2021-05-07T09:55:09Z</time>
      </trkpt>
      <trkpt lat="41.79046" lon="9.25511">
        <ele>949.39</ele>
        <time>2021-05-07T09:55:22Z</time>
      </trkpt>
      <trkpt lat="41.79048" lon="9.25509">
        <ele>951.95</ele>
        <time>2021-05-07T09:55:34Z</time>
      </trkpt>
      <trkpt lat="41.79051" lon="9.2551">
        <ele>953.63</ele>
        <time>2021-05-07T09:55:49Z</time>
      </trkpt>
      <trkpt lat="41.79055" lon="9.25513">
        <ele>953.55</ele>
        <time>2021-05-07T09:56:15Z</time>
      </trkpt>
      <trkpt lat="41.7906" lon="9.25512">
        <ele>956.2</ele>
        <time>2021-05-07T09:56:35Z</time>
      </trkpt>
      <trkpt lat="41.79063" lon="9.25513">
        <ele>956.99</ele>
        <time>2021-05-07T09:56:54Z</time>
      </trkpt>
      <trkpt lat="41.79061" lon="9.25514">
        <ele>957.78</ele>
        <time>2021-05-07T09:57:16Z</time>
      </trkpt>
      <trkpt lat="41.7906" lon="9.25516">
        <ele>955.52</ele>
        <time>2021-05-07T09:57:41Z</time>
      </trkpt>
      <trkpt lat="41.79061" lon="9.25518">
        <ele>955.54</ele>
        <time>2021-05-07T09:58:19Z</time>
      </trkpt>
      <trkpt lat="41.79065" lon="9.25521">
        <ele>955.57</ele>
        <time>2021-05-07T09:58:35Z</time>
      </trkpt>
      <trkpt lat="41.79065" lon="9.25521">
        <ele>958.15</ele>
        <time>2021-05-07T09:58:38Z</time>
      </trkpt>
      <trkpt lat="41.79067" lon="9.25514">
        <ele>960.03</ele>
        <time>2021-05-07T09:58:56Z</time>
      </trkpt>
      <trkpt lat="41.79065" lon="9.25516">
        <ele>960.05</ele>
        <time>2021-05-07T09:59:17Z</time>
      </trkpt>
      <trkpt lat="41.79065" lon="9.25516">
        <ele>956.98</ele>
        <time>2021-05-07T09:59:30Z</time>
      </trkpt>
      <trkpt lat="41.79065" lon="9.25516">
        <ele>956.98</ele>
        <time>2021-05-07T09:59:31Z</time>
      </trkpt>
      <trkpt lat="41.79067" lon="9.25518">
        <ele>957.02</ele>
        <time>2021-05-07T09:59:53Z</time>
      </trkpt>
      <trkpt lat="41.79068" lon="9.25516">
        <ele>959.3</ele>
        <time>2021-05-07T09:59:55Z</time>
      </trkpt>
      <trkpt lat="41.79071" lon="9.25515">
        <ele>963.04</ele>
        <time>2021-05-07T10:00:08Z</time>
      </trkpt>
      <trkpt lat="41.79077" lon="9.25516">
        <ele>966.73</ele>
        <time>2021-05-07T10:00:23Z</time>
      </trkpt>
      <trkpt lat="41.79081" lon="9.25519">
        <ele>969.27</ele>
        <time>2021-05-07T10:00:36Z</time>
      </trkpt>
      <trkpt lat="41.79085" lon="9.25521">
        <ele>970.08</ele>
        <time>2021-05-07T10:00:52Z</time>
      </trkpt>
      <trkpt lat="41.79088" lon="9.2552">
        <ele>971.75</ele>
        <time>2021-05-07T10:01:14Z</time>
      </trkpt>
      <trkpt lat="41.79096" lon="9.25526">
        <ele>973.55</ele>
        <time>2021-05-07T10:01:28Z</time>
      </trkpt>
      <trkpt lat="41.79105" lon="9.25532">
        <ele>973.62</ele>
        <time>2021-05-07T10:01:45Z</time>
      </trkpt>
      <trkpt lat="41.79111" lon="9.25533">
        <ele>971.06</ele>
        <time>2021-05-07T10:01:56Z</time>
      </trkpt>
      <trkpt lat="41.79113" lon="9.25533">
        <ele>967.86</ele>
        <time>2021-05-07T10:01:59Z</time>
      </trkpt>
      <trkpt lat="41.79115" lon="9.25533">
        <ele>972.07</ele>
        <time>2021-05-07T10:02:01Z</time>
      </trkpt>
      <trkpt lat="41.79116" lon="9.25533">
        <ele>972.08</ele>
        <time>2021-05-07T10:02:02Z</time>
      </trkpt>
      <trkpt lat="41.79126" lon="9.25531">
        <ele>973.06</ele>
        <time>2021-05-07T10:02:17Z</time>
      </trkpt>
      <trkpt lat="41.79135" lon="9.25533">
        <ele>976.95</ele>
        <time>2021-05-07T10:02:32Z</time>
      </trkpt>
      <trkpt lat="41.79141" lon="9.25539">
        <ele>980.37</ele>
        <time>2021-05-07T10:02:47Z</time>
      </trkpt>
      <trkpt lat="41.79147" lon="9.25545">
        <ele>984.03</ele>
        <time>2021-05-07T10:03:03Z</time>
      </trkpt>
      <trkpt lat="41.79148" lon="9.25547">
        <ele>984.04</ele>
        <time>2021-05-07T10:03:16Z</time>
      </trkpt>
      <trkpt lat="41.79147" lon="9.25554">
        <ele>984.05</ele>
        <time>2021-05-07T10:03:21Z</time>
      </trkpt>
      <trkpt lat="41.79144" lon="9.25559">
        <ele>984.13</ele>
        <time>2021-05-07T10:03:46Z</time>
      </trkpt>
      <trkpt lat="41.79146" lon="9.2556">
        <ele>984.27</ele>
        <time>2021-05-07T10:04:15Z</time>
      </trkpt>
      <trkpt lat="41.79152" lon="9.25552">
        <ele>985.2</ele>
        <time>2021-05-07T10:04:32Z</time>
      </trkpt>
      <trkpt lat="41.79158" lon="9.25541">
        <ele>987.97</ele>
        <time>2021-05-07T10:04:47Z</time>
      </trkpt>
      <trkpt lat="41.79163" lon="9.25535">
        <ele>991.43</ele>
        <time>2021-05-07T10:05:03Z</time>
      </trkpt>
      <trkpt lat="41.79172" lon="9.25528">
        <ele>994.79</ele>
        <time>2021-05-07T10:05:21Z</time>
      </trkpt>
      <trkpt lat="41.79181" lon="9.25528">
        <ele>997.46</ele>
        <time>2021-05-07T10:05:34Z</time>
      </trkpt>
      <trkpt lat="41.79195" lon="9.25523">
        <ele>999.96</ele>
        <time>2021-05-07T10:05:53Z</time>
      </trkpt>
      <trkpt lat="41.79196" lon="9.25533">
        <ele>1001.79</ele>
        <time>2021-05-07T10:06:11Z</time>
      </trkpt>
      <trkpt lat="41.79195" lon="9.25536">
        <ele>998.21</ele>
        <time>2021-05-07T10:06:13Z</time>
      </trkpt>
      <trkpt lat="41.79195" lon="9.25537">
        <ele>1002.74</ele>
        <time>2021-05-07T10:06:14Z</time>
      </trkpt>
      <trkpt lat="41.79198" lon="9.25561">
        <ele>1003.73</ele>
        <time>2021-05-07T10:06:33Z</time>
      </trkpt>
      <trkpt lat="41.79201" lon="9.25575">
        <ele>1006.51</ele>
        <time>2021-05-07T10:06:52Z</time>
      </trkpt>
      <trkpt lat="41.79203" lon="9.25583">
        <ele>1008.15</ele>
        <time>2021-05-07T10:07:06Z</time>
      </trkpt>
      <trkpt lat="41.79206" lon="9.25599">
        <ele>1010.56</ele>
        <time>2021-05-07T10:07:23Z</time>
      </trkpt>
      <trkpt lat="41.79209" lon="9.25614">
        <ele>1010.49</ele>
        <time>2021-05-07T10:07:37Z</time>
      </trkpt>
      <trkpt lat="41.79209" lon="9.25621">
        <ele>1010.5</ele>
        <time>2021-05-07T10:07:43Z</time>
      </trkpt>
      <trkpt lat="41.79208" lon="9.25627">
        <ele>1010.47</ele>
        <time>2021-05-07T10:07:47Z</time>
      </trkpt>
      <trkpt lat="41.79212" lon="9.25643">
        <ele>1010.65</ele>
        <time>2021-05-07T10:08:02Z</time>
      </trkpt>
      <trkpt lat="41.79216" lon="9.25668">
        <ele>1011.85</ele>
        <time>2021-05-07T10:08:21Z</time>
      </trkpt>
      <trkpt lat="41.79216" lon="9.25686">
        <ele>1012.68</ele>
        <time>2021-05-07T10:08:34Z</time>
      </trkpt>
      <trkpt lat="41.79219" lon="9.25711">
        <ele>1012.77</ele>
        <time>2021-05-07T10:08:53Z</time>
      </trkpt>
      <trkpt lat="41.79229" lon="9.25737">
        <ele>1015.41</ele>
        <time>2021-05-07T10:09:10Z</time>
      </trkpt>
      <trkpt lat="41.79231" lon="9.25746">
        <ele>1017.32</ele>
        <time>2021-05-07T10:09:15Z</time>
      </trkpt>
      <trkpt lat="41.79236" lon="9.2576">
        <ele>1019.31</ele>
        <time>2021-05-07T10:09:27Z</time>
      </trkpt>
      <trkpt lat="41.79237" lon="9.25771">
        <ele>1019.91</ele>
        <time>2021-05-07T10:09:45Z</time>
      </trkpt>
      <trkpt lat="41.79241" lon="9.25781">
        <ele>1021.73</ele>
        <time>2021-05-07T10:10:00Z</time>
      </trkpt>
      <trkpt lat="41.79247" lon="9.25783">
        <ele>1023.43</ele>
        <time>2021-05-07T10:10:10Z</time>
      </trkpt>
      <trkpt lat="41.79255" lon="9.25788">
        <ele>1025.22</ele>
        <time>2021-05-07T10:10:25Z</time>
      </trkpt>
      <trkpt lat="41.79262" lon="9.25792">
        <ele>1026.86</ele>
        <time>2021-05-07T10:10:38Z</time>
      </trkpt>
      <trkpt lat="41.79267" lon="9.25796">
        <ele>1028.49</ele>
        <time>2021-05-07T10:10:49Z</time>
      </trkpt>
      <trkpt lat="41.79278" lon="9.25802">
        <ele>1030.37</ele>
        <time>2021-05-07T10:11:04Z</time>
      </trkpt>
      <trkpt lat="41.79288" lon="9.25807">
        <ele>1033.94</ele>
        <time>2021-05-07T10:11:19Z</time>
      </trkpt>
      <trkpt lat="41.79299" lon="9.25805">
        <ele>1036.64</ele>
        <time>2021-05-07T10:11:39Z</time>
      </trkpt>
      <trkpt lat="41.79309" lon="9.25799">
        <ele>1036.73</ele>
        <time>2021-05-07T10:11:48Z</time>
      </trkpt>
      <trkpt lat="41.79314" lon="9.25797">
        <ele>1036.74</ele>
        <time>2021-05-07T10:11:54Z</time>
      </trkpt>
      <trkpt lat="41.79322" lon="9.25796">
        <ele>1036.82</ele>
        <time>2021-05-07T10:12:09Z</time>
      </trkpt>
      <trkpt lat="41.79328" lon="9.25796">
        <ele>1037.69</ele>
        <time>2021-05-07T10:12:30Z</time>
      </trkpt>
      <trkpt lat="41.79342" lon="9.25786">
        <ele>1038.61</ele>
        <time>2021-05-07T10:12:47Z</time>
      </trkpt>
      <trkpt lat="41.79353" lon="9.25786">
        <ele>1039.4</ele>
        <time>2021-05-07T10:13:03Z</time>
      </trkpt>
      <trkpt lat="41.79358" lon="9.25788">
        <ele>1039.44</ele>
        <time>2021-05-07T10:13:09Z</time>
      </trkpt>
      <trkpt lat="41.79362" lon="9.25791">
        <ele>1039.46</ele>
        <time>2021-05-07T10:13:13Z</time>
      </trkpt>
      <trkpt lat="41.79375" lon="9.25792">
        <ele>1039.52</ele>
        <time>2021-05-07T10:13:25Z</time>
      </trkpt>
      <trkpt lat="41.7938" lon="9.25801">
        <ele>1039.59</ele>
        <time>2021-05-07T10:13:37Z</time>
      </trkpt>
      <trkpt lat="41.79382" lon="9.25812">
        <ele>1039.74</ele>
        <time>2021-05-07T10:14:17Z</time>
      </trkpt>
      <trkpt lat="41.79384" lon="9.25811">
        <ele>1040.61</ele>
        <time>2021-05-07T10:15:05Z</time>
      </trkpt>
      <trkpt lat="41.79384" lon="9.25808">
        <ele>1040.63</ele>
        <time>2021-05-07T10:15:22Z</time>
      </trkpt>
      <trkpt lat="41.79387" lon="9.25815">
        <ele>1040.74</ele>
        <time>2021-05-07T10:15:38Z</time>
      </trkpt>
      <trkpt lat="41.79388" lon="9.25818">
        <ele>1040.75</ele>
        <time>2021-05-07T10:15:40Z</time>
      </trkpt>
      <trkpt lat="41.79395" lon="9.25835">
        <ele>1042.26</ele>
        <time>2021-05-07T10:15:53Z</time>
      </trkpt>
      <trkpt lat="41.79407" lon="9.25848">
        <ele>1042.22</ele>
        <time>2021-05-07T10:16:05Z</time>
      </trkpt>
      <trkpt lat="41.79414" lon="9.25857">
        <ele>1039.88</ele>
        <time>2021-05-07T10:16:15Z</time>
      </trkpt>
      <trkpt lat="41.7942" lon="9.25872">
        <ele>1038.08</ele>
        <time>2021-05-07T10:16:29Z</time>
      </trkpt>
      <trkpt lat="41.79424" lon="9.25891">
        <ele>1038.33</ele>
        <time>2021-05-07T10:16:48Z</time>
      </trkpt>
      <trkpt lat="41.79427" lon="9.25899">
        <ele>1040.77</ele>
        <time>2021-05-07T10:16:53Z</time>
      </trkpt>
      <trkpt lat="41.79431" lon="9.25918">
        <ele>1042.44</ele>
        <time>2021-05-07T10:17:14Z</time>
      </trkpt>
      <trkpt lat="41.7943" lon="9.25935">
        <ele>1045.12</ele>
        <time>2021-05-07T10:17:29Z</time>
      </trkpt>
      <trkpt lat="41.79426" lon="9.25948">
        <ele>1046.58</ele>
        <time>2021-05-07T10:17:43Z</time>
      </trkpt>
      <trkpt lat="41.79421" lon="9.25949">
        <ele>1047.38</ele>
        <time>2021-05-07T10:17:57Z</time>
      </trkpt>
      <trkpt lat="41.79419" lon="9.25949">
        <ele>1047.37</ele>
        <time>2021-05-07T10:18:17Z</time>
      </trkpt>
      <trkpt lat="41.79419" lon="9.2595">
        <ele>1049.11</ele>
        <time>2021-05-07T10:19:52Z</time>
      </trkpt>
      <trkpt lat="41.7942" lon="9.2595">
        <ele>1046.84</ele>
        <time>2021-05-07T10:20:05Z</time>
      </trkpt>
      <trkpt lat="41.7942" lon="9.25949">
        <ele>1046.8</ele>
        <time>2021-05-07T10:21:38Z</time>
      </trkpt>
      <trkpt lat="41.7942" lon="9.25949">
        <ele>1049.04</ele>
        <time>2021-05-07T10:22:24Z</time>
      </trkpt>
      <trkpt lat="41.79418" lon="9.25949">
        <ele>1047.3</ele>
        <time>2021-05-07T10:23:39Z</time>
      </trkpt>
      <trkpt lat="41.79422" lon="9.25953">
        <ele>1047.36</ele>
        <time>2021-05-07T10:23:56Z</time>
      </trkpt>
      <trkpt lat="41.79436" lon="9.25951">
        <ele>1049.77</ele>
        <time>2021-05-07T10:24:10Z</time>
      </trkpt>
      <trkpt lat="41.79436" lon="9.25952">
        <ele>1050.62</ele>
        <time>2021-05-07T10:24:11Z</time>
      </trkpt>
      <trkpt lat="41.79446" lon="9.25952">
        <ele>1052.22</ele>
        <time>2021-05-07T10:24:21Z</time>
      </trkpt>
      <trkpt lat="41.79458" lon="9.2595">
        <ele>1052.03</ele>
        <time>2021-05-07T10:24:36Z</time>
      </trkpt>
      <trkpt lat="41.79461" lon="9.25946">
        <ele>1051.95</ele>
        <time>2021-05-07T10:24:52Z</time>
      </trkpt>
      <trkpt lat="41.7946" lon="9.25946">
        <ele>1051.89</ele>
        <time>2021-05-07T10:25:38Z</time>
      </trkpt>
      <trkpt lat="41.79457" lon="9.25947">
        <ele>1051.89</ele>
        <time>2021-05-07T10:26:20Z</time>
      </trkpt>
      <trkpt lat="41.79453" lon="9.25953">
        <ele>1051.88</ele>
        <time>2021-05-07T10:26:39Z</time>
      </trkpt>
      <trkpt lat="41.79451" lon="9.25959">
        <ele>1052.71</ele>
        <time>2021-05-07T10:26:54Z</time>
      </trkpt>
      <trkpt lat="41.79451" lon="9.2596">
        <ele>1054.31</ele>
        <time>2021-05-07T10:27:10Z</time>
      </trkpt>
      <trkpt lat="41.79448" lon="9.25972">
        <ele>1056.11</ele>
        <time>2021-05-07T10:27:23Z</time>
      </trkpt>
      <trkpt lat="41.79444" lon="9.25985">
        <ele>1056.92</ele>
        <time>2021-05-07T10:27:35Z</time>
      </trkpt>
      <trkpt lat="41.7944" lon="9.25994">
        <ele>1054.59</ele>
        <time>2021-05-07T10:27:44Z</time>
      </trkpt>
      <trkpt lat="41.7944" lon="9.25996">
        <ele>1054.57</ele>
        <time>2021-05-07T10:27:46Z</time>
      </trkpt>
      <trkpt lat="41.79445" lon="9.26006">
        <ele>1054.61</ele>
        <time>2021-05-07T10:27:56Z</time>
      </trkpt>
      <trkpt lat="41.79456" lon="9.26014">
        <ele>1054.69</ele>
        <time>2021-05-07T10:28:12Z</time>
      </trkpt>
      <trkpt lat="41.79464" lon="9.26024">
        <ele>1054.67</ele>
        <time>2021-05-07T10:28:28Z</time>
      </trkpt>
      <trkpt lat="41.79468" lon="9.26032">
        <ele>1054.73</ele>
        <time>2021-05-07T10:28:42Z</time>
      </trkpt>
      <trkpt lat="41.79471" lon="9.26037">
        <ele>1054.75</ele>
        <time>2021-05-07T10:28:55Z</time>
      </trkpt>
      <trkpt lat="41.79472" lon="9.2604">
        <ele>1057.16</ele>
        <time>2021-05-07T10:29:06Z</time>
      </trkpt>
      <trkpt lat="41.79472" lon="9.2604">
        <ele>1058.52</ele>
        <time>2021-05-07T10:29:08Z</time>
      </trkpt>
      <trkpt lat="41.79472" lon="9.26039">
        <ele>1055.86</ele>
        <time>2021-05-07T10:29:17Z</time>
      </trkpt>
      <trkpt lat="41.79471" lon="9.26045">
        <ele>1055.78</ele>
        <time>2021-05-07T10:29:46Z</time>
      </trkpt>
      <trkpt lat="41.79471" lon="9.26052">
        <ele>1053.37</ele>
        <time>2021-05-07T10:29:59Z</time>
      </trkpt>
      <trkpt lat="41.79468" lon="9.26046">
        <ele>1052.56</ele>
        <time>2021-05-07T10:30:17Z</time>
      </trkpt>
      <trkpt lat="41.79467" lon="9.26048">
        <ele>1052.61</ele>
        <time>2021-05-07T10:30:35Z</time>
      </trkpt>
      <trkpt lat="41.79467" lon="9.26051">
        <ele>1052.66</ele>
        <time>2021-05-07T10:31:02Z</time>
      </trkpt>
      <trkpt lat="41.79468" lon="9.26049">
        <ele>1051.88</ele>
        <time>2021-05-07T10:31:30Z</time>
      </trkpt>
      <trkpt lat="41.79469" lon="9.26048">
        <ele>1054.45</ele>
        <time>2021-05-07T10:31:59Z</time>
      </trkpt>
      <trkpt lat="41.79466" lon="9.26051">
        <ele>1054.43</ele>
        <time>2021-05-07T10:32:37Z</time>
      </trkpt>
      <trkpt lat="41.79468" lon="9.26052">
        <ele>1052.18</ele>
        <time>2021-05-07T10:33:07Z</time>
      </trkpt>
      <trkpt lat="41.7947" lon="9.26049">
        <ele>1052.29</ele>
        <time>2021-05-07T10:33:45Z</time>
      </trkpt>
      <trkpt lat="41.79466" lon="9.26056">
        <ele>1054.66</ele>
        <time>2021-05-07T10:34:18Z</time>
      </trkpt>
      <trkpt lat="41.79468" lon="9.26052">
        <ele>1054.65</ele>
        <time>2021-05-07T10:34:47Z</time>
      </trkpt>
      <trkpt lat="41.7947" lon="9.26046">
        <ele>1054.66</ele>
        <time>2021-05-07T10:35:18Z</time>
      </trkpt>
      <trkpt lat="41.79472" lon="9.26044">
        <ele>1055.44</ele>
        <time>2021-05-07T10:35:48Z</time>
      </trkpt>
      <trkpt lat="41.79475" lon="9.26042">
        <ele>1056.17</ele>
        <time>2021-05-07T10:36:19Z</time>
      </trkpt>
      <trkpt lat="41.79473" lon="9.26042">
        <ele>1056.42</ele>
        <time>2021-05-07T10:36:48Z</time>
      </trkpt>
      <trkpt lat="41.79473" lon="9.26042">
        <ele>1056.42</ele>
        <time>2021-05-07T10:36:49Z</time>
      </trkpt>
      <trkpt lat="41.79473" lon="9.26042">
        <ele>1054.53</ele>
        <time>2021-05-07T10:37:21Z</time>
      </trkpt>
      <trkpt lat="41.79472" lon="9.26045">
        <ele>1054.46</ele>
        <time>2021-05-07T10:37:50Z</time>
      </trkpt>
      <trkpt lat="41.79466" lon="9.26053">
        <ele>1054.36</ele>
        <time>2021-05-07T10:38:23Z</time>
      </trkpt>
      <trkpt lat="41.79467" lon="9.2605">
        <ele>1056.76</ele>
        <time>2021-05-07T10:38:46Z</time>
      </trkpt>
      <trkpt lat="41.7947" lon="9.26047">
        <ele>1057.51</ele>
        <time>2021-05-07T10:39:33Z</time>
      </trkpt>
      <trkpt lat="41.7947" lon="9.26048">
        <ele>1055.14</ele>
        <time>2021-05-07T10:40:05Z</time>
      </trkpt>
      <trkpt lat="41.79471" lon="9.26049">
        <ele>1055.14</ele>
        <time>2021-05-07T10:40:45Z</time>
      </trkpt>
      <trkpt lat="41.79471" lon="9.26049">
        <ele>1054.39</ele>
        <time>2021-05-07T10:41:20Z</time>
      </trkpt>
      <trkpt lat="41.79468" lon="9.26051">
        <ele>1054.39</ele>
        <time>2021-05-07T10:41:57Z</time>
      </trkpt>
      <trkpt lat="41.79469" lon="9.26047">
        <ele>1054.39</ele>
        <time>2021-05-07T10:42:29Z</time>
      </trkpt>
      <trkpt lat="41.7947" lon="9.26046">
        <ele>1056.84</ele>
        <time>2021-05-07T10:42:46Z</time>
      </trkpt>
      <trkpt lat="41.79465" lon="9.26055">
        <ele>1054.25</ele>
        <time>2021-05-07T10:43:28Z</time>
      </trkpt>
      <trkpt lat="41.79466" lon="9.26055">
        <ele>1056.61</ele>
        <time>2021-05-07T10:44:14Z</time>
      </trkpt>
      <trkpt lat="41.79469" lon="9.26047">
        <ele>1058.34</ele>
        <time>2021-05-07T10:44:48Z</time>
      </trkpt>
      <trkpt lat="41.79468" lon="9.26049">
        <ele>1055.91</ele>
        <time>2021-05-07T10:45:04Z</time>
      </trkpt>
      <trkpt lat="41.79466" lon="9.26053">
        <ele>1054.94</ele>
        <time>2021-05-07T10:45:38Z</time>
      </trkpt>
      <trkpt lat="41.79465" lon="9.26049">
        <ele>1055.01</ele>
        <time>2021-05-07T10:46:15Z</time>
      </trkpt>
      <trkpt lat="41.79467" lon="9.26044">
        <ele>1053.32</ele>
        <time>2021-05-07T10:46:43Z</time>
      </trkpt>
      <trkpt lat="41.79467" lon="9.26046">
        <ele>1055.69</ele>
        <time>2021-05-07T10:46:59Z</time>
      </trkpt>
      <trkpt lat="41.79465" lon="9.2605">
        <ele>1056.55</ele>
        <time>2021-05-07T10:47:28Z</time>
      </trkpt>
      <trkpt lat="41.79464" lon="9.26052">
        <ele>1060.22</ele>
        <time>2021-05-07T10:47:45Z</time>
      </trkpt>
      <trkpt lat="41.79464" lon="9.26052">
        <ele>1057.72</ele>
        <time>2021-05-07T10:47:58Z</time>
      </trkpt>
      <trkpt lat="41.79465" lon="9.26052">
        <ele>1059.11</ele>
        <time>2021-05-07T10:48:11Z</time>
      </trkpt>
      <trkpt lat="41.79465" lon="9.2605">
        <ele>1058.99</ele>
        <time>2021-05-07T10:48:41Z</time>
      </trkpt>
      <trkpt lat="41.79467" lon="9.26048">
        <ele>1056.75</ele>
        <time>2021-05-07T10:48:56Z</time>
      </trkpt>
      <trkpt lat="41.79465" lon="9.26052">
        <ele>1054.94</ele>
        <time>2021-05-07T10:49:30Z</time>
      </trkpt>
      <trkpt lat="41.79465" lon="9.26048">
        <ele>1054.91</ele>
        <time>2021-05-07T10:50:06Z</time>
      </trkpt>
      <trkpt lat="41.79466" lon="9.26047">
        <ele>1054.87</ele>
        <time>2021-05-07T10:50:34Z</time>
      </trkpt>
      <trkpt lat="41.79466" lon="9.26046">
        <ele>1057.39</ele>
        <time>2021-05-07T10:50:37Z</time>
      </trkpt>
      <trkpt lat="41.79468" lon="9.26045">
        <ele>1057.19</ele>
        <time>2021-05-07T10:51:05Z</time>
      </trkpt>
      <trkpt lat="41.79467" lon="9.2605">
        <ele>1057.18</ele>
        <time>2021-05-07T10:51:36Z</time>
      </trkpt>
      <trkpt lat="41.79466" lon="9.26049">
        <ele>1058.05</ele>
        <time>2021-05-07T10:52:05Z</time>
      </trkpt>
      <trkpt lat="41.79466" lon="9.26051">
        <ele>1059.56</ele>
        <time>2021-05-07T10:52:31Z</time>
      </trkpt>
      <trkpt lat="41.79467" lon="9.2605">
        <ele>1059.47</ele>
        <time>2021-05-07T10:52:58Z</time>
      </trkpt>
      <trkpt lat="41.79467" lon="9.26046">
        <ele>1056.9</ele>
        <time>2021-05-07T10:53:17Z</time>
      </trkpt>
      <trkpt lat="41.79467" lon="9.26044">
        <ele>1056.83</ele>
        <time>2021-05-07T10:53:44Z</time>
      </trkpt>
      <trkpt lat="41.79466" lon="9.2605">
        <ele>1055.91</ele>
        <time>2021-05-07T10:54:09Z</time>
      </trkpt>
      <trkpt lat="41.79466" lon="9.2605">
        <ele>1054</ele>
        <time>2021-05-07T10:54:39Z</time>
      </trkpt>
      <trkpt lat="41.79466" lon="9.2605">
        <ele>1056.36</ele>
        <time>2021-05-07T10:54:41Z</time>
      </trkpt>
      <trkpt lat="41.79466" lon="9.2605">
        <ele>1059.43</ele>
        <time>2021-05-07T10:54:47Z</time>
      </trkpt>
      <trkpt lat="41.79466" lon="9.26052">
        <ele>1059.36</ele>
        <time>2021-05-07T10:55:12Z</time>
      </trkpt>
      <trkpt lat="41.79466" lon="9.26049">
        <ele>1059.28</ele>
        <time>2021-05-07T10:55:43Z</time>
      </trkpt>
      <trkpt lat="41.79464" lon="9.26052">
        <ele>1059.18</ele>
        <time>2021-05-07T10:56:10Z</time>
      </trkpt>
      <trkpt lat="41.79464" lon="9.26052">
        <ele>1056.58</ele>
        <time>2021-05-07T10:56:38Z</time>
      </trkpt>
      <trkpt lat="41.79464" lon="9.26052">
        <ele>1056.58</ele>
        <time>2021-05-07T10:56:39Z</time>
      </trkpt>
      <trkpt lat="41.79465" lon="9.26049">
        <ele>1055.65</ele>
        <time>2021-05-07T10:57:11Z</time>
      </trkpt>
      <trkpt lat="41.79464" lon="9.26057">
        <ele>1055.57</ele>
        <time>2021-05-07T10:57:41Z</time>
      </trkpt>
      <trkpt lat="41.79466" lon="9.2605">
        <ele>1055.4</ele>
        <time>2021-05-07T10:58:11Z</time>
      </trkpt>
      <trkpt lat="41.79467" lon="9.26042">
        <ele>1055.41</ele>
        <time>2021-05-07T10:58:36Z</time>
      </trkpt>
      <trkpt lat="41.79467" lon="9.2604">
        <ele>1055.26</ele>
        <time>2021-05-07T10:59:04Z</time>
      </trkpt>
      <trkpt lat="41.79467" lon="9.26041">
        <ele>1055.28</ele>
        <time>2021-05-07T10:59:29Z</time>
      </trkpt>
      <trkpt lat="41.79467" lon="9.26044">
        <ele>1057.63</ele>
        <time>2021-05-07T10:59:49Z</time>
      </trkpt>
      <trkpt lat="41.79466" lon="9.26047">
        <ele>1059.12</ele>
        <time>2021-05-07T11:00:16Z</time>
      </trkpt>
      <trkpt lat="41.79466" lon="9.26048">
        <ele>1056.84</ele>
        <time>2021-05-07T11:00:20Z</time>
      </trkpt>
      <trkpt lat="41.79468" lon="9.2605">
        <ele>1055.97</ele>
        <time>2021-05-07T11:00:46Z</time>
      </trkpt>
      <trkpt lat="41.79468" lon="9.26049">
        <ele>1055.88</ele>
        <time>2021-05-07T11:01:09Z</time>
      </trkpt>
      <trkpt lat="41.79468" lon="9.26047">
        <ele>1058.24</ele>
        <time>2021-05-07T11:01:22Z</time>
      </trkpt>
      <trkpt lat="41.79467" lon="9.26048">
        <ele>1055.83</ele>
        <time>2021-05-07T11:01:37Z</time>
      </trkpt>
      <trkpt lat="41.79467" lon="9.26048">
        <ele>1054.29</ele>
        <time>2021-05-07T11:02:02Z</time>
      </trkpt>
      <trkpt lat="41.79467" lon="9.26047">
        <ele>1056.65</ele>
        <time>2021-05-07T11:02:09Z</time>
      </trkpt>
      <trkpt lat="41.79466" lon="9.26047">
        <ele>1056.58</ele>
        <time>2021-05-07T11:02:51Z</time>
      </trkpt>
      <trkpt lat="41.79465" lon="9.26045">
        <ele>1057.39</ele>
        <time>2021-05-07T11:03:19Z</time>
      </trkpt>
      <trkpt lat="41.79465" lon="9.26045">
        <ele>1057.33</ele>
        <time>2021-05-07T11:03:45Z</time>
      </trkpt>
      <trkpt lat="41.79465" lon="9.26046">
        <ele>1055.08</ele>
        <time>2021-05-07T11:03:54Z</time>
      </trkpt>
      <trkpt lat="41.79465" lon="9.26048">
        <ele>1057.28</ele>
        <time>2021-05-07T11:04:22Z</time>
      </trkpt>
      <trkpt lat="41.79464" lon="9.26049">
        <ele>1058.88</ele>
        <time>2021-05-07T11:04:48Z</time>
      </trkpt>
      <trkpt lat="41.79463" lon="9.26049">
        <ele>1056.43</ele>
        <time>2021-05-07T11:04:53Z</time>
      </trkpt>
      <trkpt lat="41.79463" lon="9.26051">
        <ele>1058.13</ele>
        <time>2021-05-07T11:05:07Z</time>
      </trkpt>
      <trkpt lat="41.79464" lon="9.26052">
        <ele>1058</ele>
        <time>2021-05-07T11:05:32Z</time>
      </trkpt>
      <trkpt lat="41.79464" lon="9.26052">
        <ele>1055.68</ele>
        <time>2021-05-07T11:05:38Z</time>
      </trkpt>
      <trkpt lat="41.79464" lon="9.26049">
        <ele>1055.55</ele>
        <time>2021-05-07T11:06:03Z</time>
      </trkpt>
      <trkpt lat="41.79467" lon="9.26044">
        <ele>1055.39</ele>
        <time>2021-05-07T11:06:29Z</time>
      </trkpt>
      <trkpt lat="41.79467" lon="9.26043">
        <ele>1053.56</ele>
        <time>2021-05-07T11:06:56Z</time>
      </trkpt>
      <trkpt lat="41.79466" lon="9.26046">
        <ele>1053.4</ele>
        <time>2021-05-07T11:07:23Z</time>
      </trkpt>
      <trkpt lat="41.79463" lon="9.26053">
        <ele>1053.32</ele>
        <time>2021-05-07T11:07:51Z</time>
      </trkpt>
      <trkpt lat="41.79464" lon="9.26054">
        <ele>1055.74</ele>
        <time>2021-05-07T11:08:12Z</time>
      </trkpt>
      <trkpt lat="41.79465" lon="9.26057">
        <ele>1056.36</ele>
        <time>2021-05-07T11:08:36Z</time>
      </trkpt>
      <trkpt lat="41.79466" lon="9.26057">
        <ele>1053.89</ele>
        <time>2021-05-07T11:08:47Z</time>
      </trkpt>
      <trkpt lat="41.79464" lon="9.26056">
        <ele>1053.86</ele>
        <time>2021-05-07T11:09:13Z</time>
      </trkpt>
      <trkpt lat="41.79467" lon="9.26054">
        <ele>1052.82</ele>
        <time>2021-05-07T11:09:40Z</time>
      </trkpt>
      <trkpt lat="41.79466" lon="9.26052">
        <ele>1052.77</ele>
        <time>2021-05-07T11:10:10Z</time>
      </trkpt>
      <trkpt lat="41.79468" lon="9.2605">
        <ele>1052.69</ele>
        <time>2021-05-07T11:10:38Z</time>
      </trkpt>
      <trkpt lat="41.79469" lon="9.26047">
        <ele>1052.68</ele>
        <time>2021-05-07T11:11:05Z</time>
      </trkpt>
      <trkpt lat="41.79469" lon="9.26046">
        <ele>1054.88</ele>
        <time>2021-05-07T11:11:08Z</time>
      </trkpt>
      <trkpt lat="41.79468" lon="9.26045">
        <ele>1052.45</ele>
        <time>2021-05-07T11:11:27Z</time>
      </trkpt>
      <trkpt lat="41.79467" lon="9.26051">
        <ele>1052.43</ele>
        <time>2021-05-07T11:11:54Z</time>
      </trkpt>
      <trkpt lat="41.79465" lon="9.26051">
        <ele>1052.37</ele>
        <time>2021-05-07T11:12:21Z</time>
      </trkpt>
      <trkpt lat="41.79466" lon="9.2605">
        <ele>1054.62</ele>
        <time>2021-05-07T11:12:30Z</time>
      </trkpt>
      <trkpt lat="41.79465" lon="9.26049">
        <ele>1055.29</ele>
        <time>2021-05-07T11:12:55Z</time>
      </trkpt>
      <trkpt lat="41.79463" lon="9.2605">
        <ele>1055.15</ele>
        <time>2021-05-07T11:13:22Z</time>
      </trkpt>
      <trkpt lat="41.79463" lon="9.26051">
        <ele>1052.81</ele>
        <time>2021-05-07T11:13:26Z</time>
      </trkpt>
      <trkpt lat="41.79463" lon="9.26053">
        <ele>1055.52</ele>
        <time>2021-05-07T11:13:41Z</time>
      </trkpt>
      <trkpt lat="41.79463" lon="9.26054">
        <ele>1056.35</ele>
        <time>2021-05-07T11:14:08Z</time>
      </trkpt>
      <trkpt lat="41.79464" lon="9.26052">
        <ele>1053.98</ele>
        <time>2021-05-07T11:14:17Z</time>
      </trkpt>
      <trkpt lat="41.79466" lon="9.26045">
        <ele>1051.61</ele>
        <time>2021-05-07T11:14:48Z</time>
      </trkpt>
      <trkpt lat="41.79467" lon="9.26048">
        <ele>1054.11</ele>
        <time>2021-05-07T11:15:14Z</time>
      </trkpt>
      <trkpt lat="41.79466" lon="9.26045">
        <ele>1056.6</ele>
        <time>2021-05-07T11:15:36Z</time>
      </trkpt>
      <trkpt lat="41.79466" lon="9.26048">
        <ele>1056.52</ele>
        <time>2021-05-07T11:16:04Z</time>
      </trkpt>
      <trkpt lat="41.79467" lon="9.26049">
        <ele>1056.46</ele>
        <time>2021-05-07T11:16:26Z</time>
      </trkpt>
      <trkpt lat="41.79467" lon="9.26049">
        <ele>1054.13</ele>
        <time>2021-05-07T11:16:28Z</time>
      </trkpt>
      <trkpt lat="41.79466" lon="9.26049">
        <ele>1053.18</ele>
        <time>2021-05-07T11:16:46Z</time>
      </trkpt>
      <trkpt lat="41.79466" lon="9.26048">
        <ele>1053.16</ele>
        <time>2021-05-07T11:17:05Z</time>
      </trkpt>
      <trkpt lat="41.79466" lon="9.26046">
        <ele>1055.59</ele>
        <time>2021-05-07T11:17:25Z</time>
      </trkpt>
      <trkpt lat="41.79466" lon="9.26046">
        <ele>1055.59</ele>
        <time>2021-05-07T11:17:26Z</time>
      </trkpt>
      <trkpt lat="41.79463" lon="9.26046">
        <ele>1055.56</ele>
        <time>2021-05-07T11:17:40Z</time>
      </trkpt>
      <trkpt lat="41.79453" lon="9.26047">
        <ele>1052.95</ele>
        <time>2021-05-07T11:17:55Z</time>
      </trkpt>
      <trkpt lat="41.79449" lon="9.26051">
        <ele>1052.93</ele>
        <time>2021-05-07T11:18:08Z</time>
      </trkpt>
      <trkpt lat="41.79441" lon="9.26051">
        <ele>1052.11</ele>
        <time>2021-05-07T11:18:22Z</time>
      </trkpt>
      <trkpt lat="41.79439" lon="9.26049">
        <ele>1050.47</ele>
        <time>2021-05-07T11:18:29Z</time>
      </trkpt>
      <trkpt lat="41.79426" lon="9.26044">
        <ele>1049.71</ele>
        <time>2021-05-07T11:18:43Z</time>
      </trkpt>
      <trkpt lat="41.79409" lon="9.26041">
        <ele>1047.92</ele>
        <time>2021-05-07T11:18:57Z</time>
      </trkpt>
      <trkpt lat="41.79405" lon="9.2604">
        <ele>1047.94</ele>
        <time>2021-05-07T11:19:02Z</time>
      </trkpt>
      <trkpt lat="41.79393" lon="9.26044">
        <ele>1047.95</ele>
        <time>2021-05-07T11:19:15Z</time>
      </trkpt>
      <trkpt lat="41.79393" lon="9.26046">
        <ele>1047.94</ele>
        <time>2021-05-07T11:19:17Z</time>
      </trkpt>
      <trkpt lat="41.79392" lon="9.26048">
        <ele>1047.02</ele>
        <time>2021-05-07T11:19:19Z</time>
      </trkpt>
      <trkpt lat="41.79379" lon="9.26049">
        <ele>1046.26</ele>
        <time>2021-05-07T11:19:33Z</time>
      </trkpt>
      <trkpt lat="41.79369" lon="9.26049">
        <ele>1043.3</ele>
        <time>2021-05-07T11:19:46Z</time>
      </trkpt>
      <trkpt lat="41.79367" lon="9.2605">
        <ele>1041.86</ele>
        <time>2021-05-07T11:19:48Z</time>
      </trkpt>
      <trkpt lat="41.79366" lon="9.2605">
        <ele>1040.15</ele>
        <time>2021-05-07T11:19:50Z</time>
      </trkpt>
      <trkpt lat="41.79363" lon="9.26049">
        <ele>1038.13</ele>
        <time>2021-05-07T11:19:53Z</time>
      </trkpt>
      <trkpt lat="41.7936" lon="9.26046">
        <ele>1036.99</ele>
        <time>2021-05-07T11:19:57Z</time>
      </trkpt>
      <trkpt lat="41.79354" lon="9.26041">
        <ele>1037.08</ele>
        <time>2021-05-07T11:20:05Z</time>
      </trkpt>
      <trkpt lat="41.79352" lon="9.26032">
        <ele>1037.18</ele>
        <time>2021-05-07T11:20:14Z</time>
      </trkpt>
      <trkpt lat="41.79348" lon="9.26021">
        <ele>1035.03</ele>
        <time>2021-05-07T11:20:25Z</time>
      </trkpt>
      <trkpt lat="41.79343" lon="9.26016">
        <ele>1031.22</ele>
        <time>2021-05-07T11:20:33Z</time>
      </trkpt>
      <trkpt lat="41.79341" lon="9.26018">
        <ele>1030.94</ele>
        <time>2021-05-07T11:20:36Z</time>
      </trkpt>
      <trkpt lat="41.79332" lon="9.26017">
        <ele>1027.25</ele>
        <time>2021-05-07T11:20:47Z</time>
      </trkpt>
      <trkpt lat="41.79328" lon="9.26017">
        <ele>1027.3</ele>
        <time>2021-05-07T11:20:56Z</time>
      </trkpt>
      <trkpt lat="41.79323" lon="9.26018">
        <ele>1026.26</ele>
        <time>2021-05-07T11:21:11Z</time>
      </trkpt>
      <trkpt lat="41.79319" lon="9.26024">
        <ele>1025.38</ele>
        <time>2021-05-07T11:21:27Z</time>
      </trkpt>
      <trkpt lat="41.79314" lon="9.2602">
        <ele>1024.54</ele>
        <time>2021-05-07T11:21:48Z</time>
      </trkpt>
      <trkpt lat="41.79312" lon="9.26023">
        <ele>1020.97</ele>
        <time>2021-05-07T11:21:53Z</time>
      </trkpt>
      <trkpt lat="41.79311" lon="9.26022">
        <ele>1020.96</ele>
        <time>2021-05-07T11:21:54Z</time>
      </trkpt>
      <trkpt lat="41.79308" lon="9.26022">
        <ele>1020.04</ele>
        <time>2021-05-07T11:21:59Z</time>
      </trkpt>
      <trkpt lat="41.79308" lon="9.26025">
        <ele>1020.03</ele>
        <time>2021-05-07T11:22:01Z</time>
      </trkpt>
      <trkpt lat="41.79304" lon="9.26029">
        <ele>1017.4</ele>
        <time>2021-05-07T11:22:07Z</time>
      </trkpt>
      <trkpt lat="41.79304" lon="9.26034">
        <ele>1017.41</ele>
        <time>2021-05-07T11:22:11Z</time>
      </trkpt>
      <trkpt lat="41.79298" lon="9.26043">
        <ele>1014.84</ele>
        <time>2021-05-07T11:22:28Z</time>
      </trkpt>
      <trkpt lat="41.79294" lon="9.26048">
        <ele>1011.74</ele>
        <time>2021-05-07T11:22:39Z</time>
      </trkpt>
      <trkpt lat="41.79292" lon="9.26048">
        <ele>1010.14</ele>
        <time>2021-05-07T11:22:42Z</time>
      </trkpt>
      <trkpt lat="41.79282" lon="9.26057">
        <ele>1006.58</ele>
        <time>2021-05-07T11:22:57Z</time>
      </trkpt>
      <trkpt lat="41.79272" lon="9.26067">
        <ele>1002.73</ele>
        <time>2021-05-07T11:23:12Z</time>
      </trkpt>
      <trkpt lat="41.79264" lon="9.26073">
        <ele>999.19</ele>
        <time>2021-05-07T11:23:24Z</time>
      </trkpt>
      <trkpt lat="41.79263" lon="9.26073">
        <ele>998.92</ele>
        <time>2021-05-07T11:23:25Z</time>
      </trkpt>
      <trkpt lat="41.79254" lon="9.26073">
        <ele>997.55</ele>
        <time>2021-05-07T11:23:37Z</time>
      </trkpt>
      <trkpt lat="41.79248" lon="9.26073">
        <ele>996.67</ele>
        <time>2021-05-07T11:23:45Z</time>
      </trkpt>
      <trkpt lat="41.79242" lon="9.2608">
        <ele>995.84</ele>
        <time>2021-05-07T11:23:54Z</time>
      </trkpt>
      <trkpt lat="41.79231" lon="9.26086">
        <ele>992.87</ele>
        <time>2021-05-07T11:24:09Z</time>
      </trkpt>
      <trkpt lat="41.7923" lon="9.26086">
        <ele>992.87</ele>
        <time>2021-05-07T11:24:10Z</time>
      </trkpt>
      <trkpt lat="41.7922" lon="9.26093">
        <ele>990.09</ele>
        <time>2021-05-07T11:24:28Z</time>
      </trkpt>
      <trkpt lat="41.79214" lon="9.261">
        <ele>986.39</ele>
        <time>2021-05-07T11:24:39Z</time>
      </trkpt>
      <trkpt lat="41.79205" lon="9.26101">
        <ele>984.25</ele>
        <time>2021-05-07T11:24:56Z</time>
      </trkpt>
      <trkpt lat="41.79201" lon="9.26111">
        <ele>982.99</ele>
        <time>2021-05-07T11:25:12Z</time>
      </trkpt>
      <trkpt lat="41.79193" lon="9.2612">
        <ele>981.13</ele>
        <time>2021-05-07T11:25:28Z</time>
      </trkpt>
      <trkpt lat="41.79182" lon="9.26124">
        <ele>979.65</ele>
        <time>2021-05-07T11:25:46Z</time>
      </trkpt>
      <trkpt lat="41.79173" lon="9.2613">
        <ele>977.02</ele>
        <time>2021-05-07T11:26:05Z</time>
      </trkpt>
      <trkpt lat="41.79167" lon="9.26137">
        <ele>973.92</ele>
        <time>2021-05-07T11:26:15Z</time>
      </trkpt>
      <trkpt lat="41.79153" lon="9.26135">
        <ele>972.6</ele>
        <time>2021-05-07T11:26:33Z</time>
      </trkpt>
      <trkpt lat="41.7914" lon="9.26141">
        <ele>970.9</ele>
        <time>2021-05-07T11:26:49Z</time>
      </trkpt>
      <trkpt lat="41.79138" lon="9.26138">
        <ele>970.08</ele>
        <time>2021-05-07T11:27:10Z</time>
      </trkpt>
      <trkpt lat="41.79133" lon="9.26141">
        <ele>968.82</ele>
        <time>2021-05-07T11:27:24Z</time>
      </trkpt>
      <trkpt lat="41.7913" lon="9.26151">
        <ele>965.68</ele>
        <time>2021-05-07T11:27:41Z</time>
      </trkpt>
      <trkpt lat="41.79123" lon="9.2616">
        <ele>965.65</ele>
        <time>2021-05-07T11:27:49Z</time>
      </trkpt>
      <trkpt lat="41.79117" lon="9.26172">
        <ele>965.71</ele>
        <time>2021-05-07T11:28:03Z</time>
      </trkpt>
      <trkpt lat="41.79097" lon="9.26184">
        <ele>964.85</ele>
        <time>2021-05-07T11:28:22Z</time>
      </trkpt>
      <trkpt lat="41.79086" lon="9.26191">
        <ele>964.94</ele>
        <time>2021-05-07T11:28:34Z</time>
      </trkpt>
      <trkpt lat="41.79067" lon="9.26186">
        <ele>964.15</ele>
        <time>2021-05-07T11:28:50Z</time>
      </trkpt>
      <trkpt lat="41.79052" lon="9.26186">
        <ele>964.26</ele>
        <time>2021-05-07T11:29:04Z</time>
      </trkpt>
      <trkpt lat="41.79038" lon="9.26186">
        <ele>962.56</ele>
        <time>2021-05-07T11:29:20Z</time>
      </trkpt>
      <trkpt lat="41.79036" lon="9.26187">
        <ele>962.55</ele>
        <time>2021-05-07T11:29:21Z</time>
      </trkpt>
      <trkpt lat="41.79014" lon="9.26189">
        <ele>960.91</ele>
        <time>2021-05-07T11:29:32Z</time>
      </trkpt>
      <trkpt lat="41.79003" lon="9.26191">
        <ele>961.24</ele>
        <time>2021-05-07T11:29:55Z</time>
      </trkpt>
      <trkpt lat="41.78998" lon="9.26195">
        <ele>961.33</ele>
        <time>2021-05-07T11:30:01Z</time>
      </trkpt>
      <trkpt lat="41.78997" lon="9.26212">
        <ele>961.5</ele>
        <time>2021-05-07T11:30:18Z</time>
      </trkpt>
      <trkpt lat="41.78998" lon="9.26228">
        <ele>961.51</ele>
        <time>2021-05-07T11:30:34Z</time>
      </trkpt>
      <trkpt lat="41.78997" lon="9.26248">
        <ele>961.63</ele>
        <time>2021-05-07T11:30:49Z</time>
      </trkpt>
      <trkpt lat="41.78993" lon="9.26277">
        <ele>960.84</ele>
        <time>2021-05-07T11:31:08Z</time>
      </trkpt>
      <trkpt lat="41.78993" lon="9.26289">
        <ele>960.08</ele>
        <time>2021-05-07T11:31:15Z</time>
      </trkpt>
      <trkpt lat="41.78985" lon="9.26317">
        <ele>959.33</ele>
        <time>2021-05-07T11:31:34Z</time>
      </trkpt>
      <trkpt lat="41.78983" lon="9.26334">
        <ele>959.4</ele>
        <time>2021-05-07T11:31:50Z</time>
      </trkpt>
      <trkpt lat="41.78983" lon="9.26349">
        <ele>957.4</ele>
        <time>2021-05-07T11:32:04Z</time>
      </trkpt>
      <trkpt lat="41.7898" lon="9.26357">
        <ele>957.47</ele>
        <time>2021-05-07T11:32:12Z</time>
      </trkpt>
      <trkpt lat="41.78971" lon="9.26364">
        <ele>960.27</ele>
        <time>2021-05-07T11:32:25Z</time>
      </trkpt>
      <trkpt lat="41.78967" lon="9.26369">
        <ele>960.35</ele>
        <time>2021-05-07T11:32:34Z</time>
      </trkpt>
      <trkpt lat="41.78965" lon="9.26379">
        <ele>961.11</ele>
        <time>2021-05-07T11:32:56Z</time>
      </trkpt>
      <trkpt lat="41.78961" lon="9.26392">
        <ele>958.77</ele>
        <time>2021-05-07T11:33:10Z</time>
      </trkpt>
      <trkpt lat="41.78963" lon="9.26407">
        <ele>958.86</ele>
        <time>2021-05-07T11:33:27Z</time>
      </trkpt>
      <trkpt lat="41.78959" lon="9.26426">
        <ele>958.8</ele>
        <time>2021-05-07T11:33:40Z</time>
      </trkpt>
      <trkpt lat="41.78954" lon="9.2645">
        <ele>958.91</ele>
        <time>2021-05-07T11:33:57Z</time>
      </trkpt>
      <trkpt lat="41.78954" lon="9.26454">
        <ele>961.23</ele>
        <time>2021-05-07T11:34:01Z</time>
      </trkpt>
      <trkpt lat="41.78949" lon="9.26471">
        <ele>963.93</ele>
        <time>2021-05-07T11:34:15Z</time>
      </trkpt>
      <trkpt lat="41.78944" lon="9.26484">
        <ele>963.84</ele>
        <time>2021-05-07T11:34:23Z</time>
      </trkpt>
      <trkpt lat="41.78942" lon="9.26492">
        <ele>963.74</ele>
        <time>2021-05-07T11:34:27Z</time>
      </trkpt>
      <trkpt lat="41.78934" lon="9.26506">
        <ele>961.3</ele>
        <time>2021-05-07T11:34:37Z</time>
      </trkpt>
      <trkpt lat="41.78933" lon="9.2651">
        <ele>961.35</ele>
        <time>2021-05-07T11:34:40Z</time>
      </trkpt>
      <trkpt lat="41.78931" lon="9.26514">
        <ele>961.33</ele>
        <time>2021-05-07T11:34:43Z</time>
      </trkpt>
      <trkpt lat="41.7892" lon="9.2652">
        <ele>961.26</ele>
        <time>2021-05-07T11:34:57Z</time>
      </trkpt>
      <trkpt lat="41.78916" lon="9.26517">
        <ele>960.26</ele>
        <time>2021-05-07T11:35:22Z</time>
      </trkpt>
      <trkpt lat="41.7891" lon="9.26523">
        <ele>960.12</ele>
        <time>2021-05-07T11:35:33Z</time>
      </trkpt>
      <trkpt lat="41.78902" lon="9.26537">
        <ele>959.17</ele>
        <time>2021-05-07T11:35:44Z</time>
      </trkpt>
      <trkpt lat="41.78897" lon="9.26549">
        <ele>959.2</ele>
        <time>2021-05-07T11:35:55Z</time>
      </trkpt>
      <trkpt lat="41.78893" lon="9.26555">
        <ele>961.75</ele>
        <time>2021-05-07T11:36:02Z</time>
      </trkpt>
      <trkpt lat="41.78892" lon="9.26557">
        <ele>963.09</ele>
        <time>2021-05-07T11:36:04Z</time>
      </trkpt>
      <trkpt lat="41.7889" lon="9.2656">
        <ele>966.24</ele>
        <time>2021-05-07T11:36:07Z</time>
      </trkpt>
      <trkpt lat="41.78888" lon="9.26562">
        <ele>969.89</ele>
        <time>2021-05-07T11:36:10Z</time>
      </trkpt>
      <trkpt lat="41.78887" lon="9.26563">
        <ele>969.96</ele>
        <time>2021-05-07T11:36:11Z</time>
      </trkpt>
      <trkpt lat="41.78883" lon="9.26569">
        <ele>966.91</ele>
        <time>2021-05-07T11:36:17Z</time>
      </trkpt>
      <trkpt lat="41.78882" lon="9.26571">
        <ele>966.8</ele>
        <time>2021-05-07T11:36:18Z</time>
      </trkpt>
      <trkpt lat="41.78879" lon="9.26575">
        <ele>964.43</ele>
        <time>2021-05-07T11:36:23Z</time>
      </trkpt>
      <trkpt lat="41.78877" lon="9.26579">
        <ele>963.2</ele>
        <time>2021-05-07T11:36:27Z</time>
      </trkpt>
      <trkpt lat="41.78875" lon="9.26581">
        <ele>962.25</ele>
        <time>2021-05-07T11:36:29Z</time>
      </trkpt>
      <trkpt lat="41.78869" lon="9.26593">
        <ele>962.59</ele>
        <time>2021-05-07T11:36:42Z</time>
      </trkpt>
      <trkpt lat="41.78862" lon="9.26611">
        <ele>962.77</ele>
        <time>2021-05-07T11:36:57Z</time>
      </trkpt>
      <trkpt lat="41.7886" lon="9.26615">
        <ele>965.06</ele>
        <time>2021-05-07T11:37:00Z</time>
      </trkpt>
      <trkpt lat="41.7886" lon="9.26618">
        <ele>965.94</ele>
        <time>2021-05-07T11:37:03Z</time>
      </trkpt>
      <trkpt lat="41.78858" lon="9.26631">
        <ele>968.14</ele>
        <time>2021-05-07T11:37:17Z</time>
      </trkpt>
      <trkpt lat="41.78859" lon="9.26635">
        <ele>971.03</ele>
        <time>2021-05-07T11:37:24Z</time>
      </trkpt>
      <trkpt lat="41.7886" lon="9.26636">
        <ele>970.95</ele>
        <time>2021-05-07T11:37:28Z</time>
      </trkpt>
      <trkpt lat="41.78864" lon="9.26639">
        <ele>974.08</ele>
        <time>2021-05-07T11:37:34Z</time>
      </trkpt>
      <trkpt lat="41.78865" lon="9.2664">
        <ele>975.41</ele>
        <time>2021-05-07T11:37:36Z</time>
      </trkpt>
      <trkpt lat="41.78867" lon="9.26642">
        <ele>978.79</ele>
        <time>2021-05-07T11:37:40Z</time>
      </trkpt>
      <trkpt lat="41.78869" lon="9.26646">
        <ele>980.93</ele>
        <time>2021-05-07T11:37:43Z</time>
      </trkpt>
      <trkpt lat="41.7887" lon="9.26648">
        <ele>982.82</ele>
        <time>2021-05-07T11:37:46Z</time>
      </trkpt>
      <trkpt lat="41.78872" lon="9.26647">
        <ele>985.93</ele>
        <time>2021-05-07T11:37:52Z</time>
      </trkpt>
      <trkpt lat="41.78873" lon="9.26647">
        <ele>990.07</ele>
        <time>2021-05-07T11:37:54Z</time>
      </trkpt>
      <trkpt lat="41.78874" lon="9.26649">
        <ele>988.45</ele>
        <time>2021-05-07T11:37:57Z</time>
      </trkpt>
      <trkpt lat="41.78874" lon="9.2665">
        <ele>985.03</ele>
        <time>2021-05-07T11:38:01Z</time>
      </trkpt>
      <trkpt lat="41.78874" lon="9.2665">
        <ele>985.03</ele>
        <time>2021-05-07T11:38:02Z</time>
      </trkpt>
      <trkpt lat="41.78873" lon="9.26651">
        <ele>982.48</ele>
        <time>2021-05-07T11:38:05Z</time>
      </trkpt>
      <trkpt lat="41.78873" lon="9.26652">
        <ele>983.58</ele>
        <time>2021-05-07T11:38:11Z</time>
      </trkpt>
      <trkpt lat="41.78873" lon="9.26652">
        <ele>988.25</ele>
        <time>2021-05-07T11:38:15Z</time>
      </trkpt>
      <trkpt lat="41.78873" lon="9.26652">
        <ele>988.09</ele>
        <time>2021-05-07T11:38:16Z</time>
      </trkpt>
      <trkpt lat="41.78873" lon="9.26653">
        <ele>982.55</ele>
        <time>2021-05-07T11:38:19Z</time>
      </trkpt>
      <trkpt lat="41.78873" lon="9.26653">
        <ele>980.78</ele>
        <time>2021-05-07T11:38:21Z</time>
      </trkpt>
      <trkpt lat="41.78872" lon="9.26654">
        <ele>977.07</ele>
        <time>2021-05-07T11:38:24Z</time>
      </trkpt>
      <trkpt lat="41.7887" lon="9.26654">
        <ele>974.02</ele>
        <time>2021-05-07T11:38:27Z</time>
      </trkpt>
      <trkpt lat="41.7887" lon="9.26655">
        <ele>972.53</ele>
        <time>2021-05-07T11:38:29Z</time>
      </trkpt>
      <trkpt lat="41.7887" lon="9.26655">
        <ele>975.81</ele>
        <time>2021-05-07T11:38:30Z</time>
      </trkpt>
      <trkpt lat="41.7887" lon="9.26655">
        <ele>975.86</ele>
        <time>2021-05-07T11:38:31Z</time>
      </trkpt>
      <trkpt lat="41.78871" lon="9.26655">
        <ele>979.29</ele>
        <time>2021-05-07T11:38:42Z</time>
      </trkpt>
      <trkpt lat="41.78871" lon="9.26655">
        <ele>979.29</ele>
        <time>2021-05-07T11:38:43Z</time>
      </trkpt>
      <trkpt lat="41.78871" lon="9.26656">
        <ele>976.94</ele>
        <time>2021-05-07T11:38:50Z</time>
      </trkpt>
      <trkpt lat="41.78871" lon="9.26656">
        <ele>978.37</ele>
        <time>2021-05-07T11:38:57Z</time>
      </trkpt>
      <trkpt lat="41.78871" lon="9.26656">
        <ele>975.53</ele>
        <time>2021-05-07T11:39:00Z</time>
      </trkpt>
      <trkpt lat="41.78872" lon="9.26657">
        <ele>972.88</ele>
        <time>2021-05-07T11:39:23Z</time>
      </trkpt>
      <trkpt lat="41.78869" lon="9.26659">
        <ele>969.6</ele>
        <time>2021-05-07T11:39:41Z</time>
      </trkpt>
      <trkpt lat="41.78868" lon="9.2666">
        <ele>969.6</ele>
        <time>2021-05-07T11:39:42Z</time>
      </trkpt>
      <trkpt lat="41.78864" lon="9.26661">
        <ele>969.69</ele>
        <time>2021-05-07T11:39:46Z</time>
      </trkpt>
      <trkpt lat="41.78853" lon="9.26663">
        <ele>972.71</ele>
        <time>2021-05-07T11:39:58Z</time>
      </trkpt>
      <trkpt lat="41.78848" lon="9.26663">
        <ele>975.92</ele>
        <time>2021-05-07T11:40:03Z</time>
      </trkpt>
      <trkpt lat="41.78833" lon="9.2666">
        <ele>975.92</ele>
        <time>2021-05-07T11:40:18Z</time>
      </trkpt>
      <trkpt lat="41.78829" lon="9.26658">
        <ele>977.84</ele>
        <time>2021-05-07T11:40:25Z</time>
      </trkpt>
      <trkpt lat="41.7882" lon="9.26664">
        <ele>979.66</ele>
        <time>2021-05-07T11:40:39Z</time>
      </trkpt>
      <trkpt lat="41.78819" lon="9.26666">
        <ele>981.7</ele>
        <time>2021-05-07T11:40:45Z</time>
      </trkpt>
      <trkpt lat="41.78818" lon="9.26671">
        <ele>982.7</ele>
        <time>2021-05-07T11:40:59Z</time>
      </trkpt>
      <trkpt lat="41.78816" lon="9.2667">
        <ele>984.39</ele>
        <time>2021-05-07T11:41:10Z</time>
      </trkpt>
      <trkpt lat="41.78817" lon="9.26669">
        <ele>980.58</ele>
        <time>2021-05-07T11:41:16Z</time>
      </trkpt>
      <trkpt lat="41.78817" lon="9.26669">
        <ele>980.58</ele>
        <time>2021-05-07T11:41:17Z</time>
      </trkpt>
      <trkpt lat="41.78815" lon="9.26667">
        <ele>977.91</ele>
        <time>2021-05-07T11:41:34Z</time>
      </trkpt>
      <trkpt lat="41.78818" lon="9.26663">
        <ele>976.37</ele>
        <time>2021-05-07T11:41:48Z</time>
      </trkpt>
      <trkpt lat="41.78817" lon="9.26662">
        <ele>978.65</ele>
        <time>2021-05-07T11:42:12Z</time>
      </trkpt>
      <trkpt lat="41.78817" lon="9.26661">
        <ele>978.65</ele>
        <time>2021-05-07T11:42:13Z</time>
      </trkpt>
      <trkpt lat="41.78816" lon="9.26659">
        <ele>981.17</ele>
        <time>2021-05-07T11:42:38Z</time>
      </trkpt>
      <trkpt lat="41.78813" lon="9.2666">
        <ele>981.15</ele>
        <time>2021-05-07T11:43:00Z</time>
      </trkpt>
      <trkpt lat="41.78814" lon="9.26672">
        <ele>978.64</ele>
        <time>2021-05-07T11:43:09Z</time>
      </trkpt>
      <trkpt lat="41.78813" lon="9.26672">
        <ele>981.02</ele>
        <time>2021-05-07T11:43:20Z</time>
      </trkpt>
      <trkpt lat="41.78811" lon="9.26671">
        <ele>976.86</ele>
        <time>2021-05-07T11:43:35Z</time>
      </trkpt>
      <trkpt lat="41.7881" lon="9.26671">
        <ele>974.94</ele>
        <time>2021-05-07T11:43:37Z</time>
      </trkpt>
      <trkpt lat="41.78809" lon="9.26673">
        <ele>978.64</ele>
        <time>2021-05-07T11:43:46Z</time>
      </trkpt>
      <trkpt lat="41.78809" lon="9.26674">
        <ele>978.64</ele>
        <time>2021-05-07T11:43:47Z</time>
      </trkpt>
      <trkpt lat="41.78808" lon="9.26679">
        <ele>981.87</ele>
        <time>2021-05-07T11:43:51Z</time>
      </trkpt>
      <trkpt lat="41.78808" lon="9.26681">
        <ele>981.9</ele>
        <time>2021-05-07T11:43:52Z</time>
      </trkpt>
      <trkpt lat="41.78807" lon="9.26691">
        <ele>983.71</ele>
        <time>2021-05-07T11:44:05Z</time>
      </trkpt>
      <trkpt lat="41.78805" lon="9.26694">
        <ele>985</ele>
        <time>2021-05-07T11:44:08Z</time>
      </trkpt>
      <trkpt lat="41.78806" lon="9.26698">
        <ele>985.85</ele>
        <time>2021-05-07T11:44:12Z</time>
      </trkpt>
      <trkpt lat="41.78805" lon="9.26703">
        <ele>985.85</ele>
        <time>2021-05-07T11:44:16Z</time>
      </trkpt>
      <trkpt lat="41.78804" lon="9.26711">
        <ele>985.76</ele>
        <time>2021-05-07T11:44:25Z</time>
      </trkpt>
      <trkpt lat="41.78803" lon="9.26724">
        <ele>983.32</ele>
        <time>2021-05-07T11:44:36Z</time>
      </trkpt>
      <trkpt lat="41.78801" lon="9.26736">
        <ele>982.54</ele>
        <time>2021-05-07T11:44:46Z</time>
      </trkpt>
      <trkpt lat="41.78799" lon="9.2674">
        <ele>981.37</ele>
        <time>2021-05-07T11:44:51Z</time>
      </trkpt>
      <trkpt lat="41.78798" lon="9.26742">
        <ele>980.1</ele>
        <time>2021-05-07T11:44:53Z</time>
      </trkpt>
      <trkpt lat="41.78797" lon="9.26744">
        <ele>978.55</ele>
        <time>2021-05-07T11:44:55Z</time>
      </trkpt>
      <trkpt lat="41.78795" lon="9.26746">
        <ele>978.56</ele>
        <time>2021-05-07T11:44:57Z</time>
      </trkpt>
      <trkpt lat="41.78791" lon="9.26749">
        <ele>976.18</ele>
        <time>2021-05-07T11:45:04Z</time>
      </trkpt>
      <trkpt lat="41.7879" lon="9.2675">
        <ele>974.53</ele>
        <time>2021-05-07T11:45:06Z</time>
      </trkpt>
      <trkpt lat="41.78777" lon="9.26757">
        <ele>973.68</ele>
        <time>2021-05-07T11:45:20Z</time>
      </trkpt>
      <trkpt lat="41.78777" lon="9.26758">
        <ele>973.69</ele>
        <time>2021-05-07T11:45:21Z</time>
      </trkpt>
      <trkpt lat="41.78772" lon="9.26765">
        <ele>973.72</ele>
        <time>2021-05-07T11:45:28Z</time>
      </trkpt>
      <trkpt lat="41.78771" lon="9.26771">
        <ele>973.67</ele>
        <time>2021-05-07T11:45:32Z</time>
      </trkpt>
      <trkpt lat="41.78772" lon="9.26774">
        <ele>973.66</ele>
        <time>2021-05-07T11:45:35Z</time>
      </trkpt>
      <trkpt lat="41.78766" lon="9.26783">
        <ele>972</ele>
        <time>2021-05-07T11:45:42Z</time>
      </trkpt>
      <trkpt lat="41.78765" lon="9.26788">
        <ele>971.97</ele>
        <time>2021-05-07T11:45:46Z</time>
      </trkpt>
      <trkpt lat="41.78763" lon="9.26791">
        <ele>971.96</ele>
        <time>2021-05-07T11:45:48Z</time>
      </trkpt>
      <trkpt lat="41.78752" lon="9.26812">
        <ele>970.9</ele>
        <time>2021-05-07T11:46:02Z</time>
      </trkpt>
      <trkpt lat="41.78743" lon="9.26826">
        <ele>970.99</ele>
        <time>2021-05-07T11:46:17Z</time>
      </trkpt>
      <trkpt lat="41.78739" lon="9.26822">
        <ele>970.08</ele>
        <time>2021-05-07T11:46:39Z</time>
      </trkpt>
      <trkpt lat="41.78737" lon="9.26821">
        <ele>972.45</ele>
        <time>2021-05-07T11:46:53Z</time>
      </trkpt>
      <trkpt lat="41.78737" lon="9.26824">
        <ele>972.44</ele>
        <time>2021-05-07T11:47:08Z</time>
      </trkpt>
      <trkpt lat="41.78735" lon="9.26827">
        <ele>972.44</ele>
        <time>2021-05-07T11:47:13Z</time>
      </trkpt>
      <trkpt lat="41.78729" lon="9.26838">
        <ele>972.43</ele>
        <time>2021-05-07T11:47:25Z</time>
      </trkpt>
      <trkpt lat="41.78728" lon="9.26842">
        <ele>972.41</ele>
        <time>2021-05-07T11:47:29Z</time>
      </trkpt>
      <trkpt lat="41.78729" lon="9.26858">
        <ele>974.01</ele>
        <time>2021-05-07T11:47:43Z</time>
      </trkpt>
      <trkpt lat="41.78732" lon="9.26869">
        <ele>977.68</ele>
        <time>2021-05-07T11:47:55Z</time>
      </trkpt>
      <trkpt lat="41.78736" lon="9.26881">
        <ele>979.84</ele>
        <time>2021-05-07T11:48:05Z</time>
      </trkpt>
      <trkpt lat="41.78736" lon="9.26889">
        <ele>981.6</ele>
        <time>2021-05-07T11:48:13Z</time>
      </trkpt>
      <trkpt lat="41.78737" lon="9.26893">
        <ele>982.76</ele>
        <time>2021-05-07T11:48:17Z</time>
      </trkpt>
      <trkpt lat="41.78742" lon="9.26912">
        <ele>982.56</ele>
        <time>2021-05-07T11:48:31Z</time>
      </trkpt>
      <trkpt lat="41.78744" lon="9.26911">
        <ele>980.04</ele>
        <time>2021-05-07T11:48:36Z</time>
      </trkpt>
      <trkpt lat="41.78747" lon="9.2691">
        <ele>981.34</ele>
        <time>2021-05-07T11:48:47Z</time>
      </trkpt>
      <trkpt lat="41.78746" lon="9.2691">
        <ele>977.5</ele>
        <time>2021-05-07T11:48:53Z</time>
      </trkpt>
      <trkpt lat="41.78746" lon="9.2691">
        <ele>977.5</ele>
        <time>2021-05-07T11:48:54Z</time>
      </trkpt>
      <trkpt lat="41.78746" lon="9.2691">
        <ele>980.31</ele>
        <time>2021-05-07T11:48:56Z</time>
      </trkpt>
      <trkpt lat="41.78745" lon="9.26908">
        <ele>977.89</ele>
        <time>2021-05-07T11:49:05Z</time>
      </trkpt>
      <trkpt lat="41.78744" lon="9.26907">
        <ele>977.83</ele>
        <time>2021-05-07T11:49:24Z</time>
      </trkpt>
      <trkpt lat="41.78743" lon="9.26908">
        <ele>977.85</ele>
        <time>2021-05-07T11:49:35Z</time>
      </trkpt>
      <trkpt lat="41.7874" lon="9.26916">
        <ele>980.41</ele>
        <time>2021-05-07T11:49:42Z</time>
      </trkpt>
      <trkpt lat="41.78741" lon="9.26916">
        <ele>977.77</ele>
        <time>2021-05-07T11:49:57Z</time>
      </trkpt>
      <trkpt lat="41.78741" lon="9.26926">
        <ele>975.68</ele>
        <time>2021-05-07T11:50:13Z</time>
      </trkpt>
      <trkpt lat="41.7874" lon="9.26929">
        <ele>975.71</ele>
        <time>2021-05-07T11:50:32Z</time>
      </trkpt>
      <trkpt lat="41.7874" lon="9.26929">
        <ele>977.98</ele>
        <time>2021-05-07T11:50:38Z</time>
      </trkpt>
      <trkpt lat="41.7874" lon="9.26929">
        <ele>978.8</ele>
        <time>2021-05-07T11:50:53Z</time>
      </trkpt>
      <trkpt lat="41.78741" lon="9.26938">
        <ele>976.2</ele>
        <time>2021-05-07T11:50:59Z</time>
      </trkpt>
      <trkpt lat="41.78738" lon="9.26953">
        <ele>975.13</ele>
        <time>2021-05-07T11:51:12Z</time>
      </trkpt>
      <trkpt lat="41.7873" lon="9.26969">
        <ele>974.31</ele>
        <time>2021-05-07T11:51:25Z</time>
      </trkpt>
      <trkpt lat="41.7872" lon="9.2698">
        <ele>972.26</ele>
        <time>2021-05-07T11:51:36Z</time>
      </trkpt>
      <trkpt lat="41.78706" lon="9.27">
        <ele>972.29</ele>
        <time>2021-05-07T11:51:53Z</time>
      </trkpt>
      <trkpt lat="41.787" lon="9.27008">
        <ele>970.24</ele>
        <time>2021-05-07T11:52:01Z</time>
      </trkpt>
      <trkpt lat="41.78697" lon="9.27013">
        <ele>970.21</ele>
        <time>2021-05-07T11:52:05Z</time>
      </trkpt>
      <trkpt lat="41.78687" lon="9.27028">
        <ele>969.3</ele>
        <time>2021-05-07T11:52:20Z</time>
      </trkpt>
      <trkpt lat="41.78679" lon="9.27034">
        <ele>969.28</ele>
        <time>2021-05-07T11:52:37Z</time>
      </trkpt>
      <trkpt lat="41.78673" lon="9.27036">
        <ele>967.67</ele>
        <time>2021-05-07T11:52:43Z</time>
      </trkpt>
      <trkpt lat="41.78664" lon="9.27039">
        <ele>965.04</ele>
        <time>2021-05-07T11:52:57Z</time>
      </trkpt>
      <trkpt lat="41.7866" lon="9.27035">
        <ele>964.2</ele>
        <time>2021-05-07T11:53:04Z</time>
      </trkpt>
      <trkpt lat="41.78651" lon="9.27027">
        <ele>960</ele>
        <time>2021-05-07T11:53:16Z</time>
      </trkpt>
      <trkpt lat="41.78649" lon="9.27025">
        <ele>957.4</ele>
        <time>2021-05-07T11:53:19Z</time>
      </trkpt>
      <trkpt lat="41.78648" lon="9.27024">
        <ele>955.45</ele>
        <time>2021-05-07T11:53:24Z</time>
      </trkpt>
      <trkpt lat="41.78647" lon="9.27023">
        <ele>958.55</ele>
        <time>2021-05-07T11:53:38Z</time>
      </trkpt>
      <trkpt lat="41.78647" lon="9.27023">
        <ele>958.55</ele>
        <time>2021-05-07T11:53:39Z</time>
      </trkpt>
      <trkpt lat="41.78641" lon="9.2702">
        <ele>955.84</ele>
        <time>2021-05-07T11:53:55Z</time>
      </trkpt>
      <trkpt lat="41.78639" lon="9.27026">
        <ele>953.4</ele>
        <time>2021-05-07T11:54:07Z</time>
      </trkpt>
      <trkpt lat="41.78637" lon="9.27039">
        <ele>953.43</ele>
        <time>2021-05-07T11:54:22Z</time>
      </trkpt>
      <trkpt lat="41.78631" lon="9.27037">
        <ele>949.9</ele>
        <time>2021-05-07T11:54:33Z</time>
      </trkpt>
      <trkpt lat="41.78628" lon="9.27034">
        <ele>947.66</ele>
        <time>2021-05-07T11:54:41Z</time>
      </trkpt>
      <trkpt lat="41.78626" lon="9.27029">
        <ele>944.58</ele>
        <time>2021-05-07T11:54:47Z</time>
      </trkpt>
      <trkpt lat="41.78625" lon="9.27028">
        <ele>943.2</ele>
        <time>2021-05-07T11:54:50Z</time>
      </trkpt>
      <trkpt lat="41.78618" lon="9.27023">
        <ele>939.72</ele>
        <time>2021-05-07T11:55:02Z</time>
      </trkpt>
      <trkpt lat="41.78609" lon="9.2702">
        <ele>936.35</ele>
        <time>2021-05-07T11:55:16Z</time>
      </trkpt>
      <trkpt lat="41.78608" lon="9.2702">
        <ele>936.36</ele>
        <time>2021-05-07T11:55:17Z</time>
      </trkpt>
      <trkpt lat="41.78606" lon="9.27021">
        <ele>934.97</ele>
        <time>2021-05-07T11:55:20Z</time>
      </trkpt>
      <trkpt lat="41.78604" lon="9.27019">
        <ele>931.51</ele>
        <time>2021-05-07T11:55:25Z</time>
      </trkpt>
      <trkpt lat="41.78604" lon="9.27019">
        <ele>931.51</ele>
        <time>2021-05-07T11:55:26Z</time>
      </trkpt>
      <trkpt lat="41.78598" lon="9.2702">
        <ele>930.8</ele>
        <time>2021-05-07T11:55:40Z</time>
      </trkpt>
      <trkpt lat="41.78592" lon="9.27022">
        <ele>928.17</ele>
        <time>2021-05-07T11:55:53Z</time>
      </trkpt>
      <trkpt lat="41.78584" lon="9.2703">
        <ele>924.31</ele>
        <time>2021-05-07T11:56:08Z</time>
      </trkpt>
      <trkpt lat="41.78582" lon="9.27032">
        <ele>921.91</ele>
        <time>2021-05-07T11:56:24Z</time>
      </trkpt>
      <trkpt lat="41.78579" lon="9.27029">
        <ele>921.87</ele>
        <time>2021-05-07T11:56:30Z</time>
      </trkpt>
      <trkpt lat="41.78575" lon="9.27019">
        <ele>918.14</ele>
        <time>2021-05-07T11:56:40Z</time>
      </trkpt>
      <trkpt lat="41.78573" lon="9.27013">
        <ele>918.15</ele>
        <time>2021-05-07T11:56:45Z</time>
      </trkpt>
      <trkpt lat="41.78565" lon="9.27011">
        <ele>915.33</ele>
        <time>2021-05-07T11:57:00Z</time>
      </trkpt>
      <trkpt lat="41.78563" lon="9.27023">
        <ele>911.9</ele>
        <time>2021-05-07T11:57:13Z</time>
      </trkpt>
      <trkpt lat="41.78558" lon="9.27017">
        <ele>908.19</ele>
        <time>2021-05-07T11:57:26Z</time>
      </trkpt>
      <trkpt lat="41.78553" lon="9.2701">
        <ele>905.84</ele>
        <time>2021-05-07T11:57:39Z</time>
      </trkpt>
      <trkpt lat="41.78544" lon="9.27011">
        <ele>905.16</ele>
        <time>2021-05-07T11:57:52Z</time>
      </trkpt>
      <trkpt lat="41.78537" lon="9.27008">
        <ele>902.66</ele>
        <time>2021-05-07T11:58:05Z</time>
      </trkpt>
      <trkpt lat="41.78531" lon="9.27005">
        <ele>901.02</ele>
        <time>2021-05-07T11:58:18Z</time>
      </trkpt>
      <trkpt lat="41.78525" lon="9.27003">
        <ele>900.31</ele>
        <time>2021-05-07T11:58:34Z</time>
      </trkpt>
      <trkpt lat="41.78514" lon="9.26995">
        <ele>896.06</ele>
        <time>2021-05-07T11:58:48Z</time>
      </trkpt>
      <trkpt lat="41.78511" lon="9.26993">
        <ele>895.01</ele>
        <time>2021-05-07T11:58:52Z</time>
      </trkpt>
      <trkpt lat="41.78499" lon="9.26988">
        <ele>893.39</ele>
        <time>2021-05-07T11:59:04Z</time>
      </trkpt>
      <trkpt lat="41.7849" lon="9.26979">
        <ele>891.62</ele>
        <time>2021-05-07T11:59:16Z</time>
      </trkpt>
      <trkpt lat="41.78485" lon="9.26973">
        <ele>887.93</ele>
        <time>2021-05-07T11:59:25Z</time>
      </trkpt>
      <trkpt lat="41.78484" lon="9.26971">
        <ele>887.92</ele>
        <time>2021-05-07T11:59:26Z</time>
      </trkpt>
      <trkpt lat="41.7848" lon="9.26968">
        <ele>884.49</ele>
        <time>2021-05-07T11:59:33Z</time>
      </trkpt>
      <trkpt lat="41.78472" lon="9.26966">
        <ele>882.94</ele>
        <time>2021-05-07T11:59:51Z</time>
      </trkpt>
      <trkpt lat="41.7846" lon="9.26965">
        <ele>883.06</ele>
        <time>2021-05-07T12:00:06Z</time>
      </trkpt>
      <trkpt lat="41.78454" lon="9.26961">
        <ele>882.15</ele>
        <time>2021-05-07T12:00:20Z</time>
      </trkpt>
      <trkpt lat="41.78453" lon="9.26955">
        <ele>881.51</ele>
        <time>2021-05-07T12:00:46Z</time>
      </trkpt>
      <trkpt lat="41.78451" lon="9.26954">
        <ele>882.33</ele>
        <time>2021-05-07T12:01:19Z</time>
      </trkpt>
      <trkpt lat="41.78451" lon="9.26954">
        <ele>882.33</ele>
        <time>2021-05-07T12:01:20Z</time>
      </trkpt>
      <trkpt lat="41.7845" lon="9.26952">
        <ele>884.01</ele>
        <time>2021-05-07T12:01:38Z</time>
      </trkpt>
      <trkpt lat="41.78434" lon="9.26952">
        <ele>883.96</ele>
        <time>2021-05-07T12:01:53Z</time>
      </trkpt>
      <trkpt lat="41.78432" lon="9.26953">
        <ele>881.7</ele>
        <time>2021-05-07T12:01:55Z</time>
      </trkpt>
      <trkpt lat="41.78426" lon="9.26957">
        <ele>879.95</ele>
        <time>2021-05-07T12:02:02Z</time>
      </trkpt>
      <trkpt lat="41.78418" lon="9.26959">
        <ele>879.14</ele>
        <time>2021-05-07T12:02:10Z</time>
      </trkpt>
      <trkpt lat="41.78406" lon="9.26965">
        <ele>877.52</ele>
        <time>2021-05-07T12:02:25Z</time>
      </trkpt>
      <trkpt lat="41.78394" lon="9.26969">
        <ele>873.85</ele>
        <time>2021-05-07T12:02:36Z</time>
      </trkpt>
      <trkpt lat="41.78388" lon="9.26971">
        <ele>871.79</ele>
        <time>2021-05-07T12:02:44Z</time>
      </trkpt>
      <trkpt lat="41.78381" lon="9.26971">
        <ele>868.9</ele>
        <time>2021-05-07T12:02:53Z</time>
      </trkpt>
      <trkpt lat="41.78379" lon="9.26969">
        <ele>868.91</ele>
        <time>2021-05-07T12:02:55Z</time>
      </trkpt>
      <trkpt lat="41.78371" lon="9.26966">
        <ele>867.2</ele>
        <time>2021-05-07T12:03:01Z</time>
      </trkpt>
      <trkpt lat="41.78355" lon="9.26966">
        <ele>863.31</ele>
        <time>2021-05-07T12:03:18Z</time>
      </trkpt>
      <trkpt lat="41.78342" lon="9.26961">
        <ele>859.92</ele>
        <time>2021-05-07T12:03:31Z</time>
      </trkpt>
      <trkpt lat="41.78333" lon="9.26959">
        <ele>858.06</ele>
        <time>2021-05-07T12:03:41Z</time>
      </trkpt>
      <trkpt lat="41.78331" lon="9.26966">
        <ele>853.8</ele>
        <time>2021-05-07T12:03:52Z</time>
      </trkpt>
      <trkpt lat="41.78329" lon="9.26969">
        <ele>853.05</ele>
        <time>2021-05-07T12:03:58Z</time>
      </trkpt>
      <trkpt lat="41.78324" lon="9.26974">
        <ele>850.54</ele>
        <time>2021-05-07T12:04:04Z</time>
      </trkpt>
      <trkpt lat="41.78316" lon="9.26975">
        <ele>849.39</ele>
        <time>2021-05-07T12:04:20Z</time>
      </trkpt>
      <trkpt lat="41.78306" lon="9.26973">
        <ele>847.7</ele>
        <time>2021-05-07T12:04:29Z</time>
      </trkpt>
      <trkpt lat="41.78299" lon="9.2697">
        <ele>845.19</ele>
        <time>2021-05-07T12:04:35Z</time>
      </trkpt>
      <trkpt lat="41.78294" lon="9.26968">
        <ele>843.78</ele>
        <time>2021-05-07T12:04:39Z</time>
      </trkpt>
      <trkpt lat="41.78292" lon="9.26966">
        <ele>842.36</ele>
        <time>2021-05-07T12:04:41Z</time>
      </trkpt>
      <trkpt lat="41.78281" lon="9.26963">
        <ele>838.78</ele>
        <time>2021-05-07T12:04:52Z</time>
      </trkpt>
      <trkpt lat="41.78269" lon="9.26962">
        <ele>836.63</ele>
        <time>2021-05-07T12:05:06Z</time>
      </trkpt>
      <trkpt lat="41.78268" lon="9.26962">
        <ele>835.8</ele>
        <time>2021-05-07T12:05:28Z</time>
      </trkpt>
      <trkpt lat="41.78268" lon="9.26961">
        <ele>834.53</ele>
        <time>2021-05-07T12:05:40Z</time>
      </trkpt>
      <trkpt lat="41.78268" lon="9.26961">
        <ele>833.09</ele>
        <time>2021-05-07T12:05:42Z</time>
      </trkpt>
      <trkpt lat="41.78268" lon="9.26958">
        <ele>830.49</ele>
        <time>2021-05-07T12:05:59Z</time>
      </trkpt>
      <trkpt lat="41.78267" lon="9.26958">
        <ele>834.08</ele>
        <time>2021-05-07T12:06:01Z</time>
      </trkpt>
      <trkpt lat="41.78267" lon="9.26957">
        <ele>834.95</ele>
        <time>2021-05-07T12:06:03Z</time>
      </trkpt>
      <trkpt lat="41.78267" lon="9.26957">
        <ele>836.44</ele>
        <time>2021-05-07T12:06:08Z</time>
      </trkpt>
      <trkpt lat="41.78264" lon="9.26955">
        <ele>834.99</ele>
        <time>2021-05-07T12:06:25Z</time>
      </trkpt>
      <trkpt lat="41.78259" lon="9.26956">
        <ele>832.9</ele>
        <time>2021-05-07T12:06:39Z</time>
      </trkpt>
      <trkpt lat="41.78257" lon="9.26958">
        <ele>831.79</ele>
        <time>2021-05-07T12:06:43Z</time>
      </trkpt>
      <trkpt lat="41.78253" lon="9.26965">
        <ele>828.81</ele>
        <time>2021-05-07T12:06:52Z</time>
      </trkpt>
      <trkpt lat="41.78247" lon="9.26964">
        <ele>826.95</ele>
        <time>2021-05-07T12:06:57Z</time>
      </trkpt>
      <trkpt lat="41.78237" lon="9.26961">
        <ele>822.84</ele>
        <time>2021-05-07T12:07:09Z</time>
      </trkpt>
      <trkpt lat="41.78237" lon="9.26961">
        <ele>822.84</ele>
        <time>2021-05-07T12:07:10Z</time>
      </trkpt>
      <trkpt lat="41.78229" lon="9.26957">
        <ele>823.75</ele>
        <time>2021-05-07T12:07:21Z</time>
      </trkpt>
      <trkpt lat="41.78227" lon="9.26958">
        <ele>821.23</ele>
        <time>2021-05-07T12:07:24Z</time>
      </trkpt>
      <trkpt lat="41.78227" lon="9.26957">
        <ele>819.97</ele>
        <time>2021-05-07T12:07:26Z</time>
      </trkpt>
      <trkpt lat="41.7822" lon="9.26961">
        <ele>819.03</ele>
        <time>2021-05-07T12:07:33Z</time>
      </trkpt>
      <trkpt lat="41.78211" lon="9.26959">
        <ele>815.9</ele>
        <time>2021-05-07T12:07:46Z</time>
      </trkpt>
      <trkpt lat="41.78209" lon="9.26959">
        <ele>815.24</ele>
        <time>2021-05-07T12:08:08Z</time>
      </trkpt>
      <trkpt lat="41.78198" lon="9.26964">
        <ele>813.59</ele>
        <time>2021-05-07T12:08:21Z</time>
      </trkpt>
      <trkpt lat="41.78197" lon="9.26962">
        <ele>813.58</ele>
        <time>2021-05-07T12:08:23Z</time>
      </trkpt>
      <trkpt lat="41.78195" lon="9.26963">
        <ele>812.74</ele>
        <time>2021-05-07T12:08:25Z</time>
      </trkpt>
      <trkpt lat="41.7819" lon="9.26966">
        <ele>811.65</ele>
        <time>2021-05-07T12:08:31Z</time>
      </trkpt>
      <trkpt lat="41.78186" lon="9.26963">
        <ele>808.12</ele>
        <time>2021-05-07T12:08:37Z</time>
      </trkpt>
      <trkpt lat="41.78185" lon="9.26961">
        <ele>808.12</ele>
        <time>2021-05-07T12:08:38Z</time>
      </trkpt>
      <trkpt lat="41.78183" lon="9.26959">
        <ele>804.55</ele>
        <time>2021-05-07T12:08:41Z</time>
      </trkpt>
      <trkpt lat="41.78179" lon="9.26954">
        <ele>801.15</ele>
        <time>2021-05-07T12:08:46Z</time>
      </trkpt>
      <trkpt lat="41.78178" lon="9.26951">
        <ele>801.45</ele>
        <time>2021-05-07T12:08:57Z</time>
      </trkpt>
      <trkpt lat="41.78171" lon="9.26959">
        <ele>801.73</ele>
        <time>2021-05-07T12:09:07Z</time>
      </trkpt>
      <trkpt lat="41.78169" lon="9.26961">
        <ele>801.73</ele>
        <time>2021-05-07T12:09:09Z</time>
      </trkpt>
      <trkpt lat="41.78157" lon="9.26967">
        <ele>801.77</ele>
        <time>2021-05-07T12:09:22Z</time>
      </trkpt>
      <trkpt lat="41.78151" lon="9.26965">
        <ele>799.13</ele>
        <time>2021-05-07T12:09:30Z</time>
      </trkpt>
      <trkpt lat="41.78148" lon="9.26965">
        <ele>798.34</ele>
        <time>2021-05-07T12:09:33Z</time>
      </trkpt>
      <trkpt lat="41.78138" lon="9.26964">
        <ele>795.03</ele>
        <time>2021-05-07T12:09:44Z</time>
      </trkpt>
      <trkpt lat="41.78131" lon="9.26964">
        <ele>791.57</ele>
        <time>2021-05-07T12:09:52Z</time>
      </trkpt>
      <trkpt lat="41.78128" lon="9.26965">
        <ele>790.56</ele>
        <time>2021-05-07T12:09:56Z</time>
      </trkpt>
      <trkpt lat="41.78116" lon="9.26962">
        <ele>788.17</ele>
        <time>2021-05-07T12:10:07Z</time>
      </trkpt>
      <trkpt lat="41.78115" lon="9.26961">
        <ele>787.39</ele>
        <time>2021-05-07T12:10:08Z</time>
      </trkpt>
      <trkpt lat="41.78111" lon="9.2696">
        <ele>783.68</ele>
        <time>2021-05-07T12:10:13Z</time>
      </trkpt>
      <trkpt lat="41.7811" lon="9.2696">
        <ele>783.66</ele>
        <time>2021-05-07T12:10:14Z</time>
      </trkpt>
      <trkpt lat="41.78108" lon="9.26959">
        <ele>782.18</ele>
        <time>2021-05-07T12:10:16Z</time>
      </trkpt>
      <trkpt lat="41.78103" lon="9.26958">
        <ele>780.86</ele>
        <time>2021-05-07T12:10:21Z</time>
      </trkpt>
      <trkpt lat="41.78095" lon="9.26953">
        <ele>780.46</ele>
        <time>2021-05-07T12:10:33Z</time>
      </trkpt>
      <trkpt lat="41.78093" lon="9.26953">
        <ele>780.46</ele>
        <time>2021-05-07T12:10:34Z</time>
      </trkpt>
      <trkpt lat="41.7809" lon="9.26953">
        <ele>779.07</ele>
        <time>2021-05-07T12:10:37Z</time>
      </trkpt>
      <trkpt lat="41.78084" lon="9.26951">
        <ele>776.91</ele>
        <time>2021-05-07T12:10:52Z</time>
      </trkpt>
      <trkpt lat="41.78075" lon="9.26957">
        <ele>774.73</ele>
        <time>2021-05-07T12:11:06Z</time>
      </trkpt>
      <trkpt lat="41.78071" lon="9.26963">
        <ele>773.98</ele>
        <time>2021-05-07T12:11:20Z</time>
      </trkpt>
      <trkpt lat="41.78064" lon="9.26958">
        <ele>772.07</ele>
        <time>2021-05-07T12:11:31Z</time>
      </trkpt>
      <trkpt lat="41.78062" lon="9.26958">
        <ele>770.78</ele>
        <time>2021-05-07T12:11:34Z</time>
      </trkpt>
      <trkpt lat="41.78057" lon="9.26957">
        <ele>767.96</ele>
        <time>2021-05-07T12:11:40Z</time>
      </trkpt>
      <trkpt lat="41.78053" lon="9.26956">
        <ele>764.78</ele>
        <time>2021-05-07T12:11:45Z</time>
      </trkpt>
      <trkpt lat="41.78051" lon="9.26952">
        <ele>761.3</ele>
        <time>2021-05-07T12:11:51Z</time>
      </trkpt>
      <trkpt lat="41.78051" lon="9.26951">
        <ele>761.32</ele>
        <time>2021-05-07T12:11:52Z</time>
      </trkpt>
      <trkpt lat="41.78051" lon="9.26949">
        <ele>758.95</ele>
        <time>2021-05-07T12:11:56Z</time>
      </trkpt>
      <trkpt lat="41.78052" lon="9.26946">
        <ele>762.56</ele>
        <time>2021-05-07T12:12:00Z</time>
      </trkpt>
      <trkpt lat="41.78052" lon="9.26945">
        <ele>762.55</ele>
        <time>2021-05-07T12:12:01Z</time>
      </trkpt>
      <trkpt lat="41.78052" lon="9.26946">
        <ele>762.97</ele>
        <time>2021-05-07T12:12:02Z</time>
      </trkpt>
      <trkpt lat="41.78051" lon="9.26947">
        <ele>760.06</ele>
        <time>2021-05-07T12:12:04Z</time>
      </trkpt>
      <trkpt lat="41.78038" lon="9.26942">
        <ele>757.67</ele>
        <time>2021-05-07T12:12:20Z</time>
      </trkpt>
      <trkpt lat="41.78035" lon="9.26941">
        <ele>754.38</ele>
        <time>2021-05-07T12:12:24Z</time>
      </trkpt>
      <trkpt lat="41.78033" lon="9.26941">
        <ele>752.58</ele>
        <time>2021-05-07T12:12:26Z</time>
      </trkpt>
      <trkpt lat="41.78022" lon="9.26941">
        <ele>749.93</ele>
        <time>2021-05-07T12:12:41Z</time>
      </trkpt>
      <trkpt lat="41.7802" lon="9.26942">
        <ele>749.04</ele>
        <time>2021-05-07T12:12:44Z</time>
      </trkpt>
      <trkpt lat="41.78003" lon="9.26939">
        <ele>746.3</ele>
        <time>2021-05-07T12:12:59Z</time>
      </trkpt>
      <trkpt lat="41.77989" lon="9.26936">
        <ele>745.4</ele>
        <time>2021-05-07T12:13:13Z</time>
      </trkpt>
      <trkpt lat="41.77979" lon="9.26935">
        <ele>744.66</ele>
        <time>2021-05-07T12:13:26Z</time>
      </trkpt>
      <trkpt lat="41.77976" lon="9.2693">
        <ele>742.08</ele>
        <time>2021-05-07T12:13:43Z</time>
      </trkpt>
      <trkpt lat="41.77975" lon="9.2693">
        <ele>741.1</ele>
        <time>2021-05-07T12:14:05Z</time>
      </trkpt>
      <trkpt lat="41.77974" lon="9.2693">
        <ele>741.11</ele>
        <time>2021-05-07T12:14:33Z</time>
      </trkpt>
      <trkpt lat="41.77975" lon="9.2693">
        <ele>743.66</ele>
        <time>2021-05-07T12:14:40Z</time>
      </trkpt>
      <trkpt lat="41.77975" lon="9.26932">
        <ele>746.46</ele>
        <time>2021-05-07T12:14:43Z</time>
      </trkpt>
      <trkpt lat="41.77975" lon="9.2693">
        <ele>743.92</ele>
        <time>2021-05-07T12:15:07Z</time>
      </trkpt>
      <trkpt lat="41.77975" lon="9.26931">
        <ele>734.97</ele>
        <time>2021-05-07T12:15:24Z</time>
      </trkpt>
      <trkpt lat="41.77975" lon="9.26931">
        <ele>725.8</ele>
        <time>2021-05-07T12:15:25Z</time>
      </trkpt>
      <trkpt lat="41.77975" lon="9.26931">
        <ele>744.36</ele>
        <time>2021-05-07T12:15:26Z</time>
      </trkpt>
      <trkpt lat="41.77975" lon="9.26931">
        <ele>761.27</ele>
        <time>2021-05-07T12:15:27Z</time>
      </trkpt>
      <trkpt lat="41.77975" lon="9.26931">
        <ele>755.53</ele>
        <time>2021-05-07T12:15:28Z</time>
      </trkpt>
      <trkpt lat="41.77976" lon="9.26931">
        <ele>747.08</ele>
        <time>2021-05-07T12:15:29Z</time>
      </trkpt>
      <trkpt lat="41.77976" lon="9.26931">
        <ele>747.08</ele>
        <time>2021-05-07T12:15:30Z</time>
      </trkpt>
      <trkpt lat="41.77976" lon="9.26931">
        <ele>741.4</ele>
        <time>2021-05-07T12:15:32Z</time>
      </trkpt>
      <trkpt lat="41.77976" lon="9.26931">
        <ele>744.23</ele>
        <time>2021-05-07T12:15:33Z</time>
      </trkpt>
      <trkpt lat="41.77976" lon="9.26931">
        <ele>739.41</ele>
        <time>2021-05-07T12:15:35Z</time>
      </trkpt>
      <trkpt lat="41.77976" lon="9.26932">
        <ele>746.79</ele>
        <time>2021-05-07T12:15:36Z</time>
      </trkpt>
      <trkpt lat="41.77976" lon="9.26931">
        <ele>749.84</ele>
        <time>2021-05-07T12:15:37Z</time>
      </trkpt>
      <trkpt lat="41.77975" lon="9.26931">
        <ele>749.84</ele>
        <time>2021-05-07T12:15:38Z</time>
      </trkpt>
      <trkpt lat="41.77975" lon="9.26931">
        <ele>745.47</ele>
        <time>2021-05-07T12:15:39Z</time>
      </trkpt>
      <trkpt lat="41.77975" lon="9.2693">
        <ele>739.49</ele>
        <time>2021-05-07T12:15:40Z</time>
      </trkpt>
      <trkpt lat="41.77975" lon="9.2693">
        <ele>743.17</ele>
        <time>2021-05-07T12:15:41Z</time>
      </trkpt>
      <trkpt lat="41.77972" lon="9.26928">
        <ele>740.72</ele>
        <time>2021-05-07T12:15:44Z</time>
      </trkpt>
      <trkpt lat="41.77971" lon="9.26925">
        <ele>746.55</ele>
        <time>2021-05-07T12:15:46Z</time>
      </trkpt>
      <trkpt lat="41.77967" lon="9.26924">
        <ele>749.62</ele>
        <time>2021-05-07T12:15:49Z</time>
      </trkpt>
      <trkpt lat="41.77967" lon="9.26923">
        <ele>746.88</ele>
        <time>2021-05-07T12:15:50Z</time>
      </trkpt>
      <trkpt lat="41.77966" lon="9.26922">
        <ele>741.76</ele>
        <time>2021-05-07T12:15:52Z</time>
      </trkpt>
      <trkpt lat="41.77965" lon="9.26922">
        <ele>746.18</ele>
        <time>2021-05-07T12:15:53Z</time>
      </trkpt>
      <trkpt lat="41.77962" lon="9.2692">
        <ele>752.64</ele>
        <time>2021-05-07T12:15:57Z</time>
      </trkpt>
      <trkpt lat="41.77962" lon="9.26919">
        <ele>743.56</ele>
        <time>2021-05-07T12:15:58Z</time>
      </trkpt>
      <trkpt lat="41.77961" lon="9.26918">
        <ele>748.8</ele>
        <time>2021-05-07T12:15:59Z</time>
      </trkpt>
      <trkpt lat="41.77959" lon="9.26917">
        <ele>742.35</ele>
        <time>2021-05-07T12:16:01Z</time>
      </trkpt>
      <trkpt lat="41.77959" lon="9.26917">
        <ele>736.26</ele>
        <time>2021-05-07T12:16:02Z</time>
      </trkpt>
      <trkpt lat="41.77958" lon="9.26917">
        <ele>747.93</ele>
        <time>2021-05-07T12:16:03Z</time>
      </trkpt>
      <trkpt lat="41.77958" lon="9.26916">
        <ele>740.22</ele>
        <time>2021-05-07T12:16:04Z</time>
      </trkpt>
      <trkpt lat="41.77958" lon="9.26917">
        <ele>746.56</ele>
        <time>2021-05-07T12:16:05Z</time>
      </trkpt>
      <trkpt lat="41.77957" lon="9.26917">
        <ele>688.27</ele>
        <time>2021-05-07T12:16:06Z</time>
      </trkpt>
      <trkpt lat="41.77957" lon="9.26917">
        <ele>750.01</ele>
        <time>2021-05-07T12:16:07Z</time>
      </trkpt>
      <trkpt lat="41.77956" lon="9.26917">
        <ele>758.46</ele>
        <time>2021-05-07T12:16:08Z</time>
      </trkpt>
      <trkpt lat="41.77956" lon="9.26918">
        <ele>758.64</ele>
        <time>2021-05-07T12:16:09Z</time>
      </trkpt>
      <trkpt lat="41.77956" lon="9.26918">
        <ele>746.99</ele>
        <time>2021-05-07T12:16:10Z</time>
      </trkpt>
      <trkpt lat="41.77956" lon="9.26918">
        <ele>731.42</ele>
        <time>2021-05-07T12:16:11Z</time>
      </trkpt>
      <trkpt lat="41.77955" lon="9.26918">
        <ele>750.77</ele>
        <time>2021-05-07T12:16:12Z</time>
      </trkpt>
      <trkpt lat="41.77955" lon="9.26919">
        <ele>743.36</ele>
        <time>2021-05-07T12:16:13Z</time>
      </trkpt>
      <trkpt lat="41.77955" lon="9.2692">
        <ele>729.18</ele>
        <time>2021-05-07T12:16:14Z</time>
      </trkpt>
      <trkpt lat="41.77955" lon="9.26921">
        <ele>759.3</ele>
        <time>2021-05-07T12:16:15Z</time>
      </trkpt>
      <trkpt lat="41.77955" lon="9.26921">
        <ele>765.28</ele>
        <time>2021-05-07T12:16:16Z</time>
      </trkpt>
      <trkpt lat="41.77954" lon="9.26921">
        <ele>762.63</ele>
        <time>2021-05-07T12:16:17Z</time>
      </trkpt>
      <trkpt lat="41.77953" lon="9.26921">
        <ele>750.67</ele>
        <time>2021-05-07T12:16:18Z</time>
      </trkpt>
      <trkpt lat="41.77953" lon="9.26922">
        <ele>742.15</ele>
        <time>2021-05-07T12:16:19Z</time>
      </trkpt>
      <trkpt lat="41.77953" lon="9.26922">
        <ele>714.99</ele>
        <time>2021-05-07T12:16:20Z</time>
      </trkpt>
      <trkpt lat="41.77953" lon="9.26922">
        <ele>733.1</ele>
        <time>2021-05-07T12:16:21Z</time>
      </trkpt>
      <trkpt lat="41.77952" lon="9.26921">
        <ele>778.62</ele>
        <time>2021-05-07T12:16:22Z</time>
      </trkpt>
      <trkpt lat="41.77952" lon="9.26921">
        <ele>735.21</ele>
        <time>2021-05-07T12:16:23Z</time>
      </trkpt>
      <trkpt lat="41.77951" lon="9.26921">
        <ele>771.06</ele>
        <time>2021-05-07T12:16:24Z</time>
      </trkpt>
      <trkpt lat="41.77951" lon="9.26921">
        <ele>735.76</ele>
        <time>2021-05-07T12:16:25Z</time>
      </trkpt>
      <trkpt lat="41.7795" lon="9.26921">
        <ele>765.16</ele>
        <time>2021-05-07T12:16:26Z</time>
      </trkpt>
      <trkpt lat="41.7795" lon="9.26921">
        <ele>729.15</ele>
        <time>2021-05-07T12:16:27Z</time>
      </trkpt>
      <trkpt lat="41.7795" lon="9.26921">
        <ele>759.39</ele>
        <time>2021-05-07T12:16:28Z</time>
      </trkpt>
      <trkpt lat="41.7795" lon="9.26921">
        <ele>763.58</ele>
        <time>2021-05-07T12:16:29Z</time>
      </trkpt>
      <trkpt lat="41.77949" lon="9.26921">
        <ele>756.04</ele>
        <time>2021-05-07T12:16:30Z</time>
      </trkpt>
      <trkpt lat="41.77949" lon="9.26921">
        <ele>751.6</ele>
        <time>2021-05-07T12:16:33Z</time>
      </trkpt>
      <trkpt lat="41.77948" lon="9.26922">
        <ele>750.56</ele>
        <time>2021-05-07T12:16:35Z</time>
      </trkpt>
      <trkpt lat="41.77948" lon="9.26921">
        <ele>746.86</ele>
        <time>2021-05-07T12:16:36Z</time>
      </trkpt>
      <trkpt lat="41.77948" lon="9.26921">
        <ele>729.76</ele>
        <time>2021-05-07T12:16:37Z</time>
      </trkpt>
      <trkpt lat="41.77947" lon="9.26921">
        <ele>755.53</ele>
        <time>2021-05-07T12:16:38Z</time>
      </trkpt>
      <trkpt lat="41.77945" lon="9.2692">
        <ele>751.44</ele>
        <time>2021-05-07T12:16:41Z</time>
      </trkpt>
      <trkpt lat="41.77945" lon="9.26919">
        <ele>748.15</ele>
        <time>2021-05-07T12:16:43Z</time>
      </trkpt>
      <trkpt lat="41.77944" lon="9.26919">
        <ele>748.54</ele>
        <time>2021-05-07T12:16:44Z</time>
      </trkpt>
      <trkpt lat="41.77944" lon="9.26917">
        <ele>754.13</ele>
        <time>2021-05-07T12:16:46Z</time>
      </trkpt>
      <trkpt lat="41.77943" lon="9.26916">
        <ele>757.94</ele>
        <time>2021-05-07T12:16:47Z</time>
      </trkpt>
      <trkpt lat="41.77943" lon="9.26915">
        <ele>752.11</ele>
        <time>2021-05-07T12:16:48Z</time>
      </trkpt>
      <trkpt lat="41.77943" lon="9.26914">
        <ele>752.46</ele>
        <time>2021-05-07T12:16:49Z</time>
      </trkpt>
      <trkpt lat="41.77942" lon="9.26912">
        <ele>756.08</ele>
        <time>2021-05-07T12:16:51Z</time>
      </trkpt>
      <trkpt lat="41.77942" lon="9.26911">
        <ele>746.19</ele>
        <time>2021-05-07T12:16:52Z</time>
      </trkpt>
      <trkpt lat="41.77942" lon="9.2691">
        <ele>753.98</ele>
        <time>2021-05-07T12:16:53Z</time>
      </trkpt>
      <trkpt lat="41.77943" lon="9.26909">
        <ele>757.52</ele>
        <time>2021-05-07T12:16:54Z</time>
      </trkpt>
      <trkpt lat="41.77943" lon="9.26909">
        <ele>752.2</ele>
        <time>2021-05-07T12:16:55Z</time>
      </trkpt>
      <trkpt lat="41.77943" lon="9.26908">
        <ele>743.17</ele>
        <time>2021-05-07T12:16:56Z</time>
      </trkpt>
      <trkpt lat="41.77943" lon="9.26908">
        <ele>754.88</ele>
        <time>2021-05-07T12:16:57Z</time>
      </trkpt>
      <trkpt lat="41.77942" lon="9.26907">
        <ele>761.32</ele>
        <time>2021-05-07T12:16:59Z</time>
      </trkpt>
      <trkpt lat="41.77942" lon="9.26907">
        <ele>760.98</ele>
        <time>2021-05-07T12:17:00Z</time>
      </trkpt>
      <trkpt lat="41.77941" lon="9.26906">
        <ele>752.2</ele>
        <time>2021-05-07T12:17:01Z</time>
      </trkpt>
      <trkpt lat="41.77941" lon="9.26906">
        <ele>740.96</ele>
        <time>2021-05-07T12:17:02Z</time>
      </trkpt>
      <trkpt lat="41.7794" lon="9.26906">
        <ele>749.85</ele>
        <time>2021-05-07T12:17:03Z</time>
      </trkpt>
      <trkpt lat="41.77938" lon="9.26905">
        <ele>752.11</ele>
        <time>2021-05-07T12:17:05Z</time>
      </trkpt>
      <trkpt lat="41.77938" lon="9.26905">
        <ele>748.01</ele>
        <time>2021-05-07T12:17:06Z</time>
      </trkpt>
      <trkpt lat="41.77937" lon="9.26905">
        <ele>733</ele>
        <time>2021-05-07T12:17:07Z</time>
      </trkpt>
      <trkpt lat="41.77937" lon="9.26905">
        <ele>763.47</ele>
        <time>2021-05-07T12:17:08Z</time>
      </trkpt>
      <trkpt lat="41.77936" lon="9.26906">
        <ele>748.55</ele>
        <time>2021-05-07T12:17:10Z</time>
      </trkpt>
      <trkpt lat="41.77936" lon="9.26906">
        <ele>756.57</ele>
        <time>2021-05-07T12:17:11Z</time>
      </trkpt>
      <trkpt lat="41.77936" lon="9.26906">
        <ele>750.72</ele>
        <time>2021-05-07T12:17:12Z</time>
      </trkpt>
      <trkpt lat="41.77936" lon="9.26906">
        <ele>741.58</ele>
        <time>2021-05-07T12:17:13Z</time>
      </trkpt>
      <trkpt lat="41.77935" lon="9.26907">
        <ele>760.54</ele>
        <time>2021-05-07T12:17:14Z</time>
      </trkpt>
      <trkpt lat="41.77935" lon="9.26907">
        <ele>752.4</ele>
        <time>2021-05-07T12:17:15Z</time>
      </trkpt>
      <trkpt lat="41.77934" lon="9.26909">
        <ele>764.27</ele>
        <time>2021-05-07T12:17:18Z</time>
      </trkpt>
      <trkpt lat="41.77934" lon="9.2691">
        <ele>751.53</ele>
        <time>2021-05-07T12:17:19Z</time>
      </trkpt>
      <trkpt lat="41.77934" lon="9.26911">
        <ele>756.14</ele>
        <time>2021-05-07T12:17:20Z</time>
      </trkpt>
      <trkpt lat="41.77934" lon="9.26911">
        <ele>752.67</ele>
        <time>2021-05-07T12:17:21Z</time>
      </trkpt>
      <trkpt lat="41.77934" lon="9.26913">
        <ele>743.08</ele>
        <time>2021-05-07T12:17:23Z</time>
      </trkpt>
      <trkpt lat="41.77934" lon="9.26912">
        <ele>760.08</ele>
        <time>2021-05-07T12:17:24Z</time>
      </trkpt>
      <trkpt lat="41.77933" lon="9.26913">
        <ele>749.53</ele>
        <time>2021-05-07T12:17:26Z</time>
      </trkpt>
      <trkpt lat="41.77933" lon="9.26912">
        <ele>757.38</ele>
        <time>2021-05-07T12:17:27Z</time>
      </trkpt>
      <trkpt lat="41.77932" lon="9.26912">
        <ele>752.08</ele>
        <time>2021-05-07T12:17:28Z</time>
      </trkpt>
      <trkpt lat="41.77932" lon="9.26912">
        <ele>757.66</ele>
        <time>2021-05-07T12:17:29Z</time>
      </trkpt>
      <trkpt lat="41.77931" lon="9.26912">
        <ele>766.61</ele>
        <time>2021-05-07T12:17:30Z</time>
      </trkpt>
      <trkpt lat="41.77931" lon="9.26912">
        <ele>743.32</ele>
        <time>2021-05-07T12:17:31Z</time>
      </trkpt>
      <trkpt lat="41.77931" lon="9.26912">
        <ele>747.53</ele>
        <time>2021-05-07T12:17:32Z</time>
      </trkpt>
      <trkpt lat="41.7793" lon="9.26912">
        <ele>765.12</ele>
        <time>2021-05-07T12:17:33Z</time>
      </trkpt>
      <trkpt lat="41.7793" lon="9.26911">
        <ele>765.25</ele>
        <time>2021-05-07T12:17:34Z</time>
      </trkpt>
      <trkpt lat="41.7793" lon="9.26911">
        <ele>761.14</ele>
        <time>2021-05-07T12:17:35Z</time>
      </trkpt>
      <trkpt lat="41.77929" lon="9.26912">
        <ele>761.2</ele>
        <time>2021-05-07T12:17:36Z</time>
      </trkpt>
      <trkpt lat="41.77928" lon="9.26911">
        <ele>767.22</ele>
        <time>2021-05-07T12:17:39Z</time>
      </trkpt>
      <trkpt lat="41.77928" lon="9.2691">
        <ele>733.52</ele>
        <time>2021-05-07T12:17:40Z</time>
      </trkpt>
      <trkpt lat="41.77927" lon="9.2691">
        <ele>766.89</ele>
        <time>2021-05-07T12:17:41Z</time>
      </trkpt>
      <trkpt lat="41.77926" lon="9.26909">
        <ele>762.67</ele>
        <time>2021-05-07T12:17:42Z</time>
      </trkpt>
      <trkpt lat="41.77926" lon="9.26909">
        <ele>766.84</ele>
        <time>2021-05-07T12:17:43Z</time>
      </trkpt>
      <trkpt lat="41.77926" lon="9.26909">
        <ele>756.01</ele>
        <time>2021-05-07T12:17:44Z</time>
      </trkpt>
      <trkpt lat="41.77926" lon="9.26908">
        <ele>749.42</ele>
        <time>2021-05-07T12:17:46Z</time>
      </trkpt>
      <trkpt lat="41.77925" lon="9.26908">
        <ele>757.51</ele>
        <time>2021-05-07T12:17:47Z</time>
      </trkpt>
      <trkpt lat="41.77924" lon="9.26908">
        <ele>764.2</ele>
        <time>2021-05-07T12:17:48Z</time>
      </trkpt>
      <trkpt lat="41.77924" lon="9.26908">
        <ele>753</ele>
        <time>2021-05-07T12:17:49Z</time>
      </trkpt>
      <trkpt lat="41.77923" lon="9.26908">
        <ele>756.42</ele>
        <time>2021-05-07T12:17:50Z</time>
      </trkpt>
      <trkpt lat="41.77923" lon="9.26908">
        <ele>761.55</ele>
        <time>2021-05-07T12:17:51Z</time>
      </trkpt>
      <trkpt lat="41.77922" lon="9.26908">
        <ele>752.68</ele>
        <time>2021-05-07T12:17:52Z</time>
      </trkpt>
      <trkpt lat="41.7792" lon="9.26908">
        <ele>752.86</ele>
        <time>2021-05-07T12:17:53Z</time>
      </trkpt>
      <trkpt lat="41.77918" lon="9.26908">
        <ele>761.61</ele>
        <time>2021-05-07T12:17:55Z</time>
      </trkpt>
      <trkpt lat="41.77917" lon="9.26908">
        <ele>754.81</ele>
        <time>2021-05-07T12:17:56Z</time>
      </trkpt>
      <trkpt lat="41.77916" lon="9.26908">
        <ele>752.19</ele>
        <time>2021-05-07T12:17:57Z</time>
      </trkpt>
      <trkpt lat="41.77912" lon="9.26904">
        <ele>760.12</ele>
        <time>2021-05-07T12:18:02Z</time>
      </trkpt>
      <trkpt lat="41.77911" lon="9.26903">
        <ele>760.13</ele>
        <time>2021-05-07T12:18:03Z</time>
      </trkpt>
      <trkpt lat="41.7791" lon="9.26903">
        <ele>752.39</ele>
        <time>2021-05-07T12:18:04Z</time>
      </trkpt>
      <trkpt lat="41.7791" lon="9.26902">
        <ele>753.27</ele>
        <time>2021-05-07T12:18:05Z</time>
      </trkpt>
      <trkpt lat="41.77909" lon="9.26902">
        <ele>758.8</ele>
        <time>2021-05-07T12:18:06Z</time>
      </trkpt>
      <trkpt lat="41.77908" lon="9.26902">
        <ele>748.34</ele>
        <time>2021-05-07T12:18:07Z</time>
      </trkpt>
      <trkpt lat="41.77908" lon="9.26902">
        <ele>754.55</ele>
        <time>2021-05-07T12:18:08Z</time>
      </trkpt>
      <trkpt lat="41.77905" lon="9.26902">
        <ele>758.75</ele>
        <time>2021-05-07T12:18:11Z</time>
      </trkpt>
      <trkpt lat="41.77904" lon="9.26902">
        <ele>752.57</ele>
        <time>2021-05-07T12:18:12Z</time>
      </trkpt>
      <trkpt lat="41.77903" lon="9.26902">
        <ele>758.88</ele>
        <time>2021-05-07T12:18:14Z</time>
      </trkpt>
      <trkpt lat="41.77902" lon="9.26902">
        <ele>754.94</ele>
        <time>2021-05-07T12:18:15Z</time>
      </trkpt>
      <trkpt lat="41.77901" lon="9.26901">
        <ele>759.13</ele>
        <time>2021-05-07T12:18:17Z</time>
      </trkpt>
      <trkpt lat="41.779" lon="9.26901">
        <ele>759.05</ele>
        <time>2021-05-07T12:18:18Z</time>
      </trkpt>
      <trkpt lat="41.77898" lon="9.269">
        <ele>746.97</ele>
        <time>2021-05-07T12:18:20Z</time>
      </trkpt>
      <trkpt lat="41.77897" lon="9.269">
        <ele>762.82</ele>
        <time>2021-05-07T12:18:21Z</time>
      </trkpt>
      <trkpt lat="41.77897" lon="9.26899">
        <ele>769.25</ele>
        <time>2021-05-07T12:18:22Z</time>
      </trkpt>
      <trkpt lat="41.77896" lon="9.26899">
        <ele>763.49</ele>
        <time>2021-05-07T12:18:23Z</time>
      </trkpt>
      <trkpt lat="41.77896" lon="9.26899">
        <ele>759.76</ele>
        <time>2021-05-07T12:18:24Z</time>
      </trkpt>
      <trkpt lat="41.77896" lon="9.26898">
        <ele>710.65</ele>
        <time>2021-05-07T12:18:25Z</time>
      </trkpt>
      <trkpt lat="41.77895" lon="9.26897">
        <ele>753.47</ele>
        <time>2021-05-07T12:18:26Z</time>
      </trkpt>
      <trkpt lat="41.77895" lon="9.26896">
        <ele>758.48</ele>
        <time>2021-05-07T12:18:27Z</time>
      </trkpt>
      <trkpt lat="41.77894" lon="9.26896">
        <ele>763.04</ele>
        <time>2021-05-07T12:18:28Z</time>
      </trkpt>
      <trkpt lat="41.77893" lon="9.26895">
        <ele>751.05</ele>
        <time>2021-05-07T12:18:29Z</time>
      </trkpt>
      <trkpt lat="41.77893" lon="9.26895">
        <ele>763.95</ele>
        <time>2021-05-07T12:18:30Z</time>
      </trkpt>
      <trkpt lat="41.77892" lon="9.26894">
        <ele>760.76</ele>
        <time>2021-05-07T12:18:32Z</time>
      </trkpt>
      <trkpt lat="41.77892" lon="9.26894">
        <ele>755.67</ele>
        <time>2021-05-07T12:18:33Z</time>
      </trkpt>
      <trkpt lat="41.77892" lon="9.26893">
        <ele>731.58</ele>
        <time>2021-05-07T12:18:34Z</time>
      </trkpt>
      <trkpt lat="41.77892" lon="9.26892">
        <ele>742.7</ele>
        <time>2021-05-07T12:18:35Z</time>
      </trkpt>
      <trkpt lat="41.77891" lon="9.26892">
        <ele>768.19</ele>
        <time>2021-05-07T12:18:37Z</time>
      </trkpt>
      <trkpt lat="41.77891" lon="9.26891">
        <ele>743.79</ele>
        <time>2021-05-07T12:18:38Z</time>
      </trkpt>
      <trkpt lat="41.77891" lon="9.26891">
        <ele>768.78</ele>
        <time>2021-05-07T12:18:39Z</time>
      </trkpt>
      <trkpt lat="41.77891" lon="9.2689">
        <ele>753.4</ele>
        <time>2021-05-07T12:18:41Z</time>
      </trkpt>
      <trkpt lat="41.77891" lon="9.26889">
        <ele>754.03</ele>
        <time>2021-05-07T12:18:42Z</time>
      </trkpt>
      <trkpt lat="41.77891" lon="9.26888">
        <ele>767.19</ele>
        <time>2021-05-07T12:18:43Z</time>
      </trkpt>
      <trkpt lat="41.77891" lon="9.26887">
        <ele>742.54</ele>
        <time>2021-05-07T12:18:44Z</time>
      </trkpt>
      <trkpt lat="41.7789" lon="9.26886">
        <ele>755.62</ele>
        <time>2021-05-07T12:18:45Z</time>
      </trkpt>
      <trkpt lat="41.7789" lon="9.26886">
        <ele>723.8</ele>
        <time>2021-05-07T12:18:46Z</time>
      </trkpt>
      <trkpt lat="41.7789" lon="9.26885">
        <ele>760.12</ele>
        <time>2021-05-07T12:18:47Z</time>
      </trkpt>
      <trkpt lat="41.7789" lon="9.26885">
        <ele>747.64</ele>
        <time>2021-05-07T12:18:48Z</time>
      </trkpt>
      <trkpt lat="41.7789" lon="9.26885">
        <ele>788.53</ele>
        <time>2021-05-07T12:18:50Z</time>
      </trkpt>
      <trkpt lat="41.7789" lon="9.26885">
        <ele>761.63</ele>
        <time>2021-05-07T12:18:51Z</time>
      </trkpt>
      <trkpt lat="41.7789" lon="9.26885">
        <ele>767.65</ele>
        <time>2021-05-07T12:18:52Z</time>
      </trkpt>
      <trkpt lat="41.7789" lon="9.26885">
        <ele>761.77</ele>
        <time>2021-05-07T12:18:53Z</time>
      </trkpt>
      <trkpt lat="41.7789" lon="9.26885">
        <ele>760.46</ele>
        <time>2021-05-07T12:18:55Z</time>
      </trkpt>
      <trkpt lat="41.7789" lon="9.26885">
        <ele>755.75</ele>
        <time>2021-05-07T12:18:57Z</time>
      </trkpt>
      <trkpt lat="41.77889" lon="9.26885">
        <ele>762.66</ele>
        <time>2021-05-07T12:18:58Z</time>
      </trkpt>
      <trkpt lat="41.77889" lon="9.26885">
        <ele>749.91</ele>
        <time>2021-05-07T12:18:59Z</time>
      </trkpt>
      <trkpt lat="41.77889" lon="9.26884">
        <ele>759.14</ele>
        <time>2021-05-07T12:19:00Z</time>
      </trkpt>
      <trkpt lat="41.77889" lon="9.26884">
        <ele>767.87</ele>
        <time>2021-05-07T12:19:01Z</time>
      </trkpt>
      <trkpt lat="41.77889" lon="9.26884">
        <ele>758.98</ele>
        <time>2021-05-07T12:19:02Z</time>
      </trkpt>
      <trkpt lat="41.77889" lon="9.26884">
        <ele>754.72</ele>
        <time>2021-05-07T12:19:03Z</time>
      </trkpt>
      <trkpt lat="41.77889" lon="9.26884">
        <ele>760.19</ele>
        <time>2021-05-07T12:19:04Z</time>
      </trkpt>
      <trkpt lat="41.77889" lon="9.26884">
        <ele>764.46</ele>
        <time>2021-05-07T12:19:05Z</time>
      </trkpt>
      <trkpt lat="41.77889" lon="9.26884">
        <ele>763.77</ele>
        <time>2021-05-07T12:19:06Z</time>
      </trkpt>
      <trkpt lat="41.77888" lon="9.26884">
        <ele>760.72</ele>
        <time>2021-05-07T12:19:08Z</time>
      </trkpt>
      <trkpt lat="41.77888" lon="9.26884">
        <ele>760.96</ele>
        <time>2021-05-07T12:19:09Z</time>
      </trkpt>
      <trkpt lat="41.77888" lon="9.26884">
        <ele>755.76</ele>
        <time>2021-05-07T12:19:14Z</time>
      </trkpt>
      <trkpt lat="41.77888" lon="9.26885">
        <ele>759.65</ele>
        <time>2021-05-07T12:19:17Z</time>
      </trkpt>
      <trkpt lat="41.77888" lon="9.26885">
        <ele>759.65</ele>
        <time>2021-05-07T12:19:18Z</time>
      </trkpt>
      <trkpt lat="41.77888" lon="9.26885">
        <ele>755.42</ele>
        <time>2021-05-07T12:19:20Z</time>
      </trkpt>
      <trkpt lat="41.77888" lon="9.26885">
        <ele>758.8</ele>
        <time>2021-05-07T12:19:21Z</time>
      </trkpt>
      <trkpt lat="41.77888" lon="9.26885">
        <ele>760.28</ele>
        <time>2021-05-07T12:19:27Z</time>
      </trkpt>
      <trkpt lat="41.77888" lon="9.26885">
        <ele>754.99</ele>
        <time>2021-05-07T12:19:29Z</time>
      </trkpt>
      <trkpt lat="41.77888" lon="9.26885">
        <ele>759.5</ele>
        <time>2021-05-07T12:19:30Z</time>
      </trkpt>
      <trkpt lat="41.77888" lon="9.26886">
        <ele>762.86</ele>
        <time>2021-05-07T12:19:33Z</time>
      </trkpt>
      <trkpt lat="41.77887" lon="9.26886">
        <ele>756.85</ele>
        <time>2021-05-07T12:19:34Z</time>
      </trkpt>
      <trkpt lat="41.77887" lon="9.26886">
        <ele>760.29</ele>
        <time>2021-05-07T12:19:36Z</time>
      </trkpt>
      <trkpt lat="41.77887" lon="9.26886">
        <ele>760.29</ele>
        <time>2021-05-07T12:19:37Z</time>
      </trkpt>
      <trkpt lat="41.77887" lon="9.26886">
        <ele>756.86</ele>
        <time>2021-05-07T12:19:39Z</time>
      </trkpt>
      <trkpt lat="41.77887" lon="9.26886">
        <ele>762.95</ele>
        <time>2021-05-07T12:19:40Z</time>
      </trkpt>
      <trkpt lat="41.77887" lon="9.26886">
        <ele>768.81</ele>
        <time>2021-05-07T12:19:41Z</time>
      </trkpt>
      <trkpt lat="41.77887" lon="9.26886">
        <ele>763.59</ele>
        <time>2021-05-07T12:19:42Z</time>
      </trkpt>
      <trkpt lat="41.77887" lon="9.26886">
        <ele>760.04</ele>
        <time>2021-05-07T12:19:43Z</time>
      </trkpt>
      <trkpt lat="41.77887" lon="9.26886">
        <ele>758.21</ele>
        <time>2021-05-07T12:19:45Z</time>
      </trkpt>
      <trkpt lat="41.77887" lon="9.26886">
        <ele>727.59</ele>
        <time>2021-05-07T12:19:49Z</time>
      </trkpt>
      <trkpt lat="41.77887" lon="9.26886">
        <ele>752.61</ele>
        <time>2021-05-07T12:19:50Z</time>
      </trkpt>
      <trkpt lat="41.77887" lon="9.26886">
        <ele>763.07</ele>
        <time>2021-05-07T12:19:51Z</time>
      </trkpt>
      <trkpt lat="41.77887" lon="9.26886">
        <ele>757.82</ele>
        <time>2021-05-07T12:19:53Z</time>
      </trkpt>
      <trkpt lat="41.77886" lon="9.26886">
        <ele>742.53</ele>
        <time>2021-05-07T12:19:54Z</time>
      </trkpt>
      <trkpt lat="41.77886" lon="9.26886">
        <ele>764.86</ele>
        <time>2021-05-07T12:19:55Z</time>
      </trkpt>
      <trkpt lat="41.77886" lon="9.26885">
        <ele>768.28</ele>
        <time>2021-05-07T12:19:56Z</time>
      </trkpt>
      <trkpt lat="41.77885" lon="9.26885">
        <ele>762.6</ele>
        <time>2021-05-07T12:19:57Z</time>
      </trkpt>
      <trkpt lat="41.77885" lon="9.26884">
        <ele>755.07</ele>
        <time>2021-05-07T12:19:58Z</time>
      </trkpt>
      <trkpt lat="41.77884" lon="9.26883">
        <ele>759.13</ele>
        <time>2021-05-07T12:20:00Z</time>
      </trkpt>
      <trkpt lat="41.77883" lon="9.26881">
        <ele>752.72</ele>
        <time>2021-05-07T12:20:02Z</time>
      </trkpt>
      <trkpt lat="41.77882" lon="9.26881">
        <ele>760.48</ele>
        <time>2021-05-07T12:20:03Z</time>
      </trkpt>
      <trkpt lat="41.77881" lon="9.2688">
        <ele>755.75</ele>
        <time>2021-05-07T12:20:04Z</time>
      </trkpt>
      <trkpt lat="41.77881" lon="9.2688">
        <ele>760.44</ele>
        <time>2021-05-07T12:20:05Z</time>
      </trkpt>
      <trkpt lat="41.77882" lon="9.26879">
        <ele>760.65</ele>
        <time>2021-05-07T12:20:11Z</time>
      </trkpt>
      <trkpt lat="41.77882" lon="9.26878">
        <ele>757.01</ele>
        <time>2021-05-07T12:20:12Z</time>
      </trkpt>
      <trkpt lat="41.77882" lon="9.26878">
        <ele>751.89</ele>
        <time>2021-05-07T12:20:14Z</time>
      </trkpt>
      <trkpt lat="41.77883" lon="9.26878">
        <ele>759.61</ele>
        <time>2021-05-07T12:20:15Z</time>
      </trkpt>
      <trkpt lat="41.77883" lon="9.26878">
        <ele>755.18</ele>
        <time>2021-05-07T12:20:16Z</time>
      </trkpt>
      <trkpt lat="41.77883" lon="9.26878">
        <ele>751.73</ele>
        <time>2021-05-07T12:20:17Z</time>
      </trkpt>
      <trkpt lat="41.77884" lon="9.26878">
        <ele>751.71</ele>
        <time>2021-05-07T12:20:18Z</time>
      </trkpt>
      <trkpt lat="41.77884" lon="9.26877">
        <ele>756.93</ele>
        <time>2021-05-07T12:20:19Z</time>
      </trkpt>
      <trkpt lat="41.77884" lon="9.26877">
        <ele>744.06</ele>
        <time>2021-05-07T12:20:20Z</time>
      </trkpt>
      <trkpt lat="41.77885" lon="9.26877">
        <ele>749</ele>
        <time>2021-05-07T12:20:21Z</time>
      </trkpt>
      <trkpt lat="41.77885" lon="9.26876">
        <ele>743.84</ele>
        <time>2021-05-07T12:20:22Z</time>
      </trkpt>
      <trkpt lat="41.77885" lon="9.26876">
        <ele>733.4</ele>
        <time>2021-05-07T12:20:23Z</time>
      </trkpt>
      <trkpt lat="41.77885" lon="9.26876">
        <ele>759.59</ele>
        <time>2021-05-07T12:20:24Z</time>
      </trkpt>
      <trkpt lat="41.77885" lon="9.26875">
        <ele>750.64</ele>
        <time>2021-05-07T12:20:25Z</time>
      </trkpt>
      <trkpt lat="41.77885" lon="9.26875">
        <ele>755.43</ele>
        <time>2021-05-07T12:20:26Z</time>
      </trkpt>
      <trkpt lat="41.77885" lon="9.26875">
        <ele>749.59</ele>
        <time>2021-05-07T12:20:27Z</time>
      </trkpt>
      <trkpt lat="41.77885" lon="9.26873">
        <ele>746.33</ele>
        <time>2021-05-07T12:20:30Z</time>
      </trkpt>
      <trkpt lat="41.77885" lon="9.26873">
        <ele>739.83</ele>
        <time>2021-05-07T12:20:31Z</time>
      </trkpt>
      <trkpt lat="41.77885" lon="9.26873">
        <ele>732.92</ele>
        <time>2021-05-07T12:20:32Z</time>
      </trkpt>
      <trkpt lat="41.77885" lon="9.26872">
        <ele>747.72</ele>
        <time>2021-05-07T12:20:33Z</time>
      </trkpt>
      <trkpt lat="41.77885" lon="9.26872">
        <ele>745.84</ele>
        <time>2021-05-07T12:20:34Z</time>
      </trkpt>
      <trkpt lat="41.77886" lon="9.26871">
        <ele>753.07</ele>
        <time>2021-05-07T12:20:36Z</time>
      </trkpt>
      <trkpt lat="41.77886" lon="9.26871">
        <ele>744.6</ele>
        <time>2021-05-07T12:20:37Z</time>
      </trkpt>
      <trkpt lat="41.77886" lon="9.2687">
        <ele>699.95</ele>
        <time>2021-05-07T12:20:38Z</time>
      </trkpt>
      <trkpt lat="41.77886" lon="9.2687">
        <ele>752.49</ele>
        <time>2021-05-07T12:20:39Z</time>
      </trkpt>
      <trkpt lat="41.77886" lon="9.2687">
        <ele>741.15</ele>
        <time>2021-05-07T12:20:40Z</time>
      </trkpt>
      <trkpt lat="41.77885" lon="9.26869">
        <ele>752.02</ele>
        <time>2021-05-07T12:20:41Z</time>
      </trkpt>
      <trkpt lat="41.77885" lon="9.26868">
        <ele>742.31</ele>
        <time>2021-05-07T12:20:42Z</time>
      </trkpt>
      <trkpt lat="41.77885" lon="9.26868">
        <ele>738.2</ele>
        <time>2021-05-07T12:20:43Z</time>
      </trkpt>
      <trkpt lat="41.77885" lon="9.26868">
        <ele>739.08</ele>
        <time>2021-05-07T12:20:44Z</time>
      </trkpt>
      <trkpt lat="41.77886" lon="9.26867">
        <ele>744.42</ele>
        <time>2021-05-07T12:20:45Z</time>
      </trkpt>
      <trkpt lat="41.77886" lon="9.26867">
        <ele>741.93</ele>
        <time>2021-05-07T12:20:46Z</time>
      </trkpt>
      <trkpt lat="41.77885" lon="9.26866">
        <ele>738.86</ele>
        <time>2021-05-07T12:20:48Z</time>
      </trkpt>
      <trkpt lat="41.77885" lon="9.26866">
        <ele>732.38</ele>
        <time>2021-05-07T12:20:49Z</time>
      </trkpt>
      <trkpt lat="41.77885" lon="9.26865">
        <ele>732.68</ele>
        <time>2021-05-07T12:20:50Z</time>
      </trkpt>
      <trkpt lat="41.77885" lon="9.26865">
        <ele>749.78</ele>
        <time>2021-05-07T12:20:51Z</time>
      </trkpt>
      <trkpt lat="41.77885" lon="9.26864">
        <ele>740.07</ele>
        <time>2021-05-07T12:20:52Z</time>
      </trkpt>
      <trkpt lat="41.77885" lon="9.26862">
        <ele>747.66</ele>
        <time>2021-05-07T12:20:54Z</time>
      </trkpt>
      <trkpt lat="41.77885" lon="9.26862">
        <ele>729.54</ele>
        <time>2021-05-07T12:20:55Z</time>
      </trkpt>
      <trkpt lat="41.77884" lon="9.26862">
        <ele>723.61</ele>
        <time>2021-05-07T12:20:56Z</time>
      </trkpt>
      <trkpt lat="41.77883" lon="9.26862">
        <ele>730.85</ele>
        <time>2021-05-07T12:20:57Z</time>
      </trkpt>
      <trkpt lat="41.77883" lon="9.26862">
        <ele>744.07</ele>
        <time>2021-05-07T12:20:58Z</time>
      </trkpt>
      <trkpt lat="41.77883" lon="9.26862">
        <ele>754.4</ele>
        <time>2021-05-07T12:20:59Z</time>
      </trkpt>
      <trkpt lat="41.77882" lon="9.26861">
        <ele>744.66</ele>
        <time>2021-05-07T12:21:00Z</time>
      </trkpt>
      <trkpt lat="41.77882" lon="9.2686">
        <ele>740.86</ele>
        <time>2021-05-07T12:21:01Z</time>
      </trkpt>
      <trkpt lat="41.77881" lon="9.26859">
        <ele>744.42</ele>
        <time>2021-05-07T12:21:02Z</time>
      </trkpt>
      <trkpt lat="41.77881" lon="9.26858">
        <ele>747.6</ele>
        <time>2021-05-07T12:21:03Z</time>
      </trkpt>
      <trkpt lat="41.7788" lon="9.26858">
        <ele>754.47</ele>
        <time>2021-05-07T12:21:04Z</time>
      </trkpt>
      <trkpt lat="41.7788" lon="9.26857">
        <ele>746.62</ele>
        <time>2021-05-07T12:21:05Z</time>
      </trkpt>
      <trkpt lat="41.7788" lon="9.26857">
        <ele>754.26</ele>
        <time>2021-05-07T12:21:06Z</time>
      </trkpt>
      <trkpt lat="41.77879" lon="9.26856">
        <ele>740.3</ele>
        <time>2021-05-07T12:21:08Z</time>
      </trkpt>
      <trkpt lat="41.77879" lon="9.26855">
        <ele>744.66</ele>
        <time>2021-05-07T12:21:09Z</time>
      </trkpt>
      <trkpt lat="41.77878" lon="9.26855">
        <ele>753.59</ele>
        <time>2021-05-07T12:21:10Z</time>
      </trkpt>
      <trkpt lat="41.77878" lon="9.26854">
        <ele>741.21</ele>
        <time>2021-05-07T12:21:11Z</time>
      </trkpt>
      <trkpt lat="41.77878" lon="9.26853">
        <ele>736.55</ele>
        <time>2021-05-07T12:21:12Z</time>
      </trkpt>
      <trkpt lat="41.77878" lon="9.26852">
        <ele>750.54</ele>
        <time>2021-05-07T12:21:13Z</time>
      </trkpt>
      <trkpt lat="41.77878" lon="9.26852">
        <ele>718.65</ele>
        <time>2021-05-07T12:21:14Z</time>
      </trkpt>
      <trkpt lat="41.77877" lon="9.26851">
        <ele>759.13</ele>
        <time>2021-05-07T12:21:15Z</time>
      </trkpt>
      <trkpt lat="41.77877" lon="9.26851">
        <ele>727.87</ele>
        <time>2021-05-07T12:21:16Z</time>
      </trkpt>
      <trkpt lat="41.77877" lon="9.2685">
        <ele>755.64</ele>
        <time>2021-05-07T12:21:17Z</time>
      </trkpt>
      <trkpt lat="41.77876" lon="9.2685">
        <ele>759.55</ele>
        <time>2021-05-07T12:21:18Z</time>
      </trkpt>
      <trkpt lat="41.77876" lon="9.26849">
        <ele>759.64</ele>
        <time>2021-05-07T12:21:19Z</time>
      </trkpt>
      <trkpt lat="41.77876" lon="9.26849">
        <ele>753.33</ele>
        <time>2021-05-07T12:21:20Z</time>
      </trkpt>
      <trkpt lat="41.77876" lon="9.26849">
        <ele>749.58</ele>
        <time>2021-05-07T12:21:21Z</time>
      </trkpt>
      <trkpt lat="41.77876" lon="9.26849">
        <ele>745.09</ele>
        <time>2021-05-07T12:21:22Z</time>
      </trkpt>
      <trkpt lat="41.77876" lon="9.26849">
        <ele>736.44</ele>
        <time>2021-05-07T12:21:24Z</time>
      </trkpt>
      <trkpt lat="41.77876" lon="9.26849">
        <ele>727.58</ele>
        <time>2021-05-07T12:21:25Z</time>
      </trkpt>
      <trkpt lat="41.77876" lon="9.26849">
        <ele>749.75</ele>
        <time>2021-05-07T12:21:26Z</time>
      </trkpt>
      <trkpt lat="41.77878" lon="9.2685">
        <ele>737.39</ele>
        <time>2021-05-07T12:21:29Z</time>
      </trkpt>
      <trkpt lat="41.77878" lon="9.2685">
        <ele>749.52</ele>
        <time>2021-05-07T12:21:30Z</time>
      </trkpt>
      <trkpt lat="41.77878" lon="9.26851">
        <ele>729.52</ele>
        <time>2021-05-07T12:21:31Z</time>
      </trkpt>
      <trkpt lat="41.77878" lon="9.26851">
        <ele>745.15</ele>
        <time>2021-05-07T12:21:32Z</time>
      </trkpt>
      <trkpt lat="41.77878" lon="9.26852">
        <ele>748.18</ele>
        <time>2021-05-07T12:21:33Z</time>
      </trkpt>
      <trkpt lat="41.77878" lon="9.26852">
        <ele>738.86</ele>
        <time>2021-05-07T12:21:34Z</time>
      </trkpt>
      <trkpt lat="41.77878" lon="9.26852">
        <ele>740.52</ele>
        <time>2021-05-07T12:21:35Z</time>
      </trkpt>
      <trkpt lat="41.77879" lon="9.26853">
        <ele>719.91</ele>
        <time>2021-05-07T12:21:37Z</time>
      </trkpt>
      <trkpt lat="41.7788" lon="9.26853">
        <ele>738.23</ele>
        <time>2021-05-07T12:21:38Z</time>
      </trkpt>
      <trkpt lat="41.7788" lon="9.26854">
        <ele>748.2</ele>
        <time>2021-05-07T12:21:40Z</time>
      </trkpt>
      <trkpt lat="41.7788" lon="9.26854">
        <ele>740.25</ele>
        <time>2021-05-07T12:21:41Z</time>
      </trkpt>
      <trkpt lat="41.7788" lon="9.26854">
        <ele>744.21</ele>
        <time>2021-05-07T12:21:42Z</time>
      </trkpt>
      <trkpt lat="41.77881" lon="9.26854">
        <ele>738.22</ele>
        <time>2021-05-07T12:21:45Z</time>
      </trkpt>
      <trkpt lat="41.77882" lon="9.26853">
        <ele>734.49</ele>
        <time>2021-05-07T12:21:46Z</time>
      </trkpt>
      <trkpt lat="41.77882" lon="9.26852">
        <ele>743.49</ele>
        <time>2021-05-07T12:21:47Z</time>
      </trkpt>
      <trkpt lat="41.77883" lon="9.26851">
        <ele>754.15</ele>
        <time>2021-05-07T12:21:49Z</time>
      </trkpt>
      <trkpt lat="41.77883" lon="9.26851">
        <ele>743.01</ele>
        <time>2021-05-07T12:21:50Z</time>
      </trkpt>
      <trkpt lat="41.77884" lon="9.2685">
        <ele>730.03</ele>
        <time>2021-05-07T12:21:51Z</time>
      </trkpt>
      <trkpt lat="41.77884" lon="9.2685">
        <ele>749.69</ele>
        <time>2021-05-07T12:21:52Z</time>
      </trkpt>
      <trkpt lat="41.77884" lon="9.2685">
        <ele>699.15</ele>
        <time>2021-05-07T12:21:54Z</time>
      </trkpt>
      <trkpt lat="41.77884" lon="9.26849">
        <ele>763.54</ele>
        <time>2021-05-07T12:21:55Z</time>
      </trkpt>
      <trkpt lat="41.77885" lon="9.26849">
        <ele>772.11</ele>
        <time>2021-05-07T12:21:56Z</time>
      </trkpt>
      <trkpt lat="41.77884" lon="9.26849">
        <ele>739.5</ele>
        <time>2021-05-07T12:21:57Z</time>
      </trkpt>
      <trkpt lat="41.77884" lon="9.26849">
        <ele>751.66</ele>
        <time>2021-05-07T12:21:58Z</time>
      </trkpt>
      <trkpt lat="41.77884" lon="9.26848">
        <ele>755.62</ele>
        <time>2021-05-07T12:21:59Z</time>
      </trkpt>
      <trkpt lat="41.77884" lon="9.26848">
        <ele>741.94</ele>
        <time>2021-05-07T12:22:00Z</time>
      </trkpt>
      <trkpt lat="41.77883" lon="9.26848">
        <ele>734.87</ele>
        <time>2021-05-07T12:22:01Z</time>
      </trkpt>
      <trkpt lat="41.77883" lon="9.26848">
        <ele>747.73</ele>
        <time>2021-05-07T12:22:02Z</time>
      </trkpt>
      <trkpt lat="41.77883" lon="9.26848">
        <ele>743.24</ele>
        <time>2021-05-07T12:22:08Z</time>
      </trkpt>
      <trkpt lat="41.77883" lon="9.26847">
        <ele>746.47</ele>
        <time>2021-05-07T12:22:10Z</time>
      </trkpt>
      <trkpt lat="41.77883" lon="9.26847">
        <ele>746.11</ele>
        <time>2021-05-07T12:22:11Z</time>
      </trkpt>
      <trkpt lat="41.77883" lon="9.26847">
        <ele>743.41</ele>
        <time>2021-05-07T12:22:15Z</time>
      </trkpt>
      <trkpt lat="41.77883" lon="9.26847">
        <ele>748.49</ele>
        <time>2021-05-07T12:22:16Z</time>
      </trkpt>
      <trkpt lat="41.77883" lon="9.26848">
        <ele>745.16</ele>
        <time>2021-05-07T12:22:17Z</time>
      </trkpt>
      <trkpt lat="41.77883" lon="9.26848">
        <ele>743.86</ele>
        <time>2021-05-07T12:22:19Z</time>
      </trkpt>
      <trkpt lat="41.77883" lon="9.26848">
        <ele>746.89</ele>
        <time>2021-05-07T12:22:20Z</time>
      </trkpt>
      <trkpt lat="41.77883" lon="9.26848">
        <ele>746.88</ele>
        <time>2021-05-07T12:22:21Z</time>
      </trkpt>
      <trkpt lat="41.77884" lon="9.26848">
        <ele>735.73</ele>
        <time>2021-05-07T12:22:24Z</time>
      </trkpt>
      <trkpt lat="41.77884" lon="9.26849">
        <ele>747.06</ele>
        <time>2021-05-07T12:22:25Z</time>
      </trkpt>
      <trkpt lat="41.77884" lon="9.26849">
        <ele>731.77</ele>
        <time>2021-05-07T12:22:26Z</time>
      </trkpt>
      <trkpt lat="41.77885" lon="9.26848">
        <ele>737.85</ele>
        <time>2021-05-07T12:22:27Z</time>
      </trkpt>
      <trkpt lat="41.77885" lon="9.26848">
        <ele>749.81</ele>
        <time>2021-05-07T12:22:28Z</time>
      </trkpt>
      <trkpt lat="41.77884" lon="9.26849">
        <ele>752.98</ele>
        <time>2021-05-07T12:22:29Z</time>
      </trkpt>
      <trkpt lat="41.77884" lon="9.26849">
        <ele>711.23</ele>
        <time>2021-05-07T12:22:30Z</time>
      </trkpt>
      <trkpt lat="41.77884" lon="9.26849">
        <ele>715.2</ele>
        <time>2021-05-07T12:22:31Z</time>
      </trkpt>
      <trkpt lat="41.77884" lon="9.26849">
        <ele>725.87</ele>
        <time>2021-05-07T12:22:32Z</time>
      </trkpt>
      <trkpt lat="41.77884" lon="9.26849">
        <ele>745.84</ele>
        <time>2021-05-07T12:22:33Z</time>
      </trkpt>
      <trkpt lat="41.77884" lon="9.2685">
        <ele>733.32</ele>
        <time>2021-05-07T12:22:34Z</time>
      </trkpt>
      <trkpt lat="41.77884" lon="9.26851">
        <ele>761.92</ele>
        <time>2021-05-07T12:22:36Z</time>
      </trkpt>
      <trkpt lat="41.77885" lon="9.26851">
        <ele>725.09</ele>
        <time>2021-05-07T12:22:37Z</time>
      </trkpt>
      <trkpt lat="41.77884" lon="9.26851">
        <ele>762.58</ele>
        <time>2021-05-07T12:22:38Z</time>
      </trkpt>
      <trkpt lat="41.77884" lon="9.26851">
        <ele>749.47</ele>
        <time>2021-05-07T12:22:39Z</time>
      </trkpt>
      <trkpt lat="41.77884" lon="9.26851">
        <ele>757.64</ele>
        <time>2021-05-07T12:22:40Z</time>
      </trkpt>
      <trkpt lat="41.77884" lon="9.2685">
        <ele>753.69</ele>
        <time>2021-05-07T12:22:41Z</time>
      </trkpt>
      <trkpt lat="41.77883" lon="9.26849">
        <ele>732.6</ele>
        <time>2021-05-07T12:22:42Z</time>
      </trkpt>
      <trkpt lat="41.77883" lon="9.26846">
        <ele>764.52</ele>
        <time>2021-05-07T12:22:44Z</time>
      </trkpt>
      <trkpt lat="41.77883" lon="9.26845">
        <ele>664.97</ele>
        <time>2021-05-07T12:22:45Z</time>
      </trkpt>
      <trkpt lat="41.77883" lon="9.26845">
        <ele>767.24</ele>
        <time>2021-05-07T12:22:46Z</time>
      </trkpt>
      <trkpt lat="41.77882" lon="9.26845">
        <ele>749.21</ele>
        <time>2021-05-07T12:22:47Z</time>
      </trkpt>
      <trkpt lat="41.77882" lon="9.26844">
        <ele>757.88</ele>
        <time>2021-05-07T12:22:49Z</time>
      </trkpt>
      <trkpt lat="41.77882" lon="9.26844">
        <ele>752.48</ele>
        <time>2021-05-07T12:22:50Z</time>
      </trkpt>
      <trkpt lat="41.77881" lon="9.26844">
        <ele>757.55</ele>
        <time>2021-05-07T12:22:51Z</time>
      </trkpt>
      <trkpt lat="41.77881" lon="9.26843">
        <ele>751.43</ele>
        <time>2021-05-07T12:22:52Z</time>
      </trkpt>
      <trkpt lat="41.77881" lon="9.26843">
        <ele>719.67</ele>
        <time>2021-05-07T12:22:53Z</time>
      </trkpt>
      <trkpt lat="41.77881" lon="9.26843">
        <ele>731.01</ele>
        <time>2021-05-07T12:22:54Z</time>
      </trkpt>
      <trkpt lat="41.77881" lon="9.26842">
        <ele>751.48</ele>
        <time>2021-05-07T12:22:55Z</time>
      </trkpt>
      <trkpt lat="41.77881" lon="9.26841">
        <ele>738.4</ele>
        <time>2021-05-07T12:22:56Z</time>
      </trkpt>
      <trkpt lat="41.77881" lon="9.26841">
        <ele>781.54</ele>
        <time>2021-05-07T12:22:57Z</time>
      </trkpt>
      <trkpt lat="41.77881" lon="9.2684">
        <ele>774.06</ele>
        <time>2021-05-07T12:22:58Z</time>
      </trkpt>
      <trkpt lat="41.77881" lon="9.2684">
        <ele>765.83</ele>
        <time>2021-05-07T12:22:59Z</time>
      </trkpt>
      <trkpt lat="41.77881" lon="9.2684">
        <ele>736.96</ele>
        <time>2021-05-07T12:23:01Z</time>
      </trkpt>
      <trkpt lat="41.77881" lon="9.2684">
        <ele>760.53</ele>
        <time>2021-05-07T12:23:02Z</time>
      </trkpt>
      <trkpt lat="41.77881" lon="9.2684">
        <ele>752.76</ele>
        <time>2021-05-07T12:23:04Z</time>
      </trkpt>
      <trkpt lat="41.77881" lon="9.26839">
        <ele>759.03</ele>
        <time>2021-05-07T12:23:05Z</time>
      </trkpt>
      <trkpt lat="41.77882" lon="9.2684">
        <ele>754.56</ele>
        <time>2021-05-07T12:23:08Z</time>
      </trkpt>
      <trkpt lat="41.77883" lon="9.2684">
        <ele>755.07</ele>
        <time>2021-05-07T12:23:09Z</time>
      </trkpt>
      <trkpt lat="41.77883" lon="9.26841">
        <ele>745.44</ele>
        <time>2021-05-07T12:23:12Z</time>
      </trkpt>
      <trkpt lat="41.77883" lon="9.2684">
        <ele>739.94</ele>
        <time>2021-05-07T12:23:13Z</time>
      </trkpt>
      <trkpt lat="41.77883" lon="9.2684">
        <ele>732.68</ele>
        <time>2021-05-07T12:23:14Z</time>
      </trkpt>
      <trkpt lat="41.77883" lon="9.26839">
        <ele>771.18</ele>
        <time>2021-05-07T12:23:15Z</time>
      </trkpt>
      <trkpt lat="41.77883" lon="9.26839">
        <ele>764.42</ele>
        <time>2021-05-07T12:23:16Z</time>
      </trkpt>
      <trkpt lat="41.77883" lon="9.26838">
        <ele>755.51</ele>
        <time>2021-05-07T12:23:17Z</time>
      </trkpt>
      <trkpt lat="41.77882" lon="9.26838">
        <ele>743.14</ele>
        <time>2021-05-07T12:23:18Z</time>
      </trkpt>
      <trkpt lat="41.77882" lon="9.26837">
        <ele>756.5</ele>
        <time>2021-05-07T12:23:19Z</time>
      </trkpt>
      <trkpt lat="41.77882" lon="9.26836">
        <ele>762.67</ele>
        <time>2021-05-07T12:23:21Z</time>
      </trkpt>
      <trkpt lat="41.77881" lon="9.26835">
        <ele>758.91</ele>
        <time>2021-05-07T12:23:22Z</time>
      </trkpt>
      <trkpt lat="41.77881" lon="9.26835">
        <ele>755.63</ele>
        <time>2021-05-07T12:23:24Z</time>
      </trkpt>
      <trkpt lat="41.77882" lon="9.26835">
        <ele>747.1</ele>
        <time>2021-05-07T12:23:27Z</time>
      </trkpt>
      <trkpt lat="41.77882" lon="9.26834">
        <ele>721.75</ele>
        <time>2021-05-07T12:23:28Z</time>
      </trkpt>
      <trkpt lat="41.77882" lon="9.26834">
        <ele>748.24</ele>
        <time>2021-05-07T12:23:29Z</time>
      </trkpt>
      <trkpt lat="41.77882" lon="9.26834">
        <ele>738.56</ele>
        <time>2021-05-07T12:23:30Z</time>
      </trkpt>
      <trkpt lat="41.77882" lon="9.26834">
        <ele>764.57</ele>
        <time>2021-05-07T12:23:31Z</time>
      </trkpt>
      <trkpt lat="41.77882" lon="9.26833">
        <ele>750.64</ele>
        <time>2021-05-07T12:23:33Z</time>
      </trkpt>
      <trkpt lat="41.77882" lon="9.26833">
        <ele>762.7</ele>
        <time>2021-05-07T12:23:34Z</time>
      </trkpt>
      <trkpt lat="41.77882" lon="9.26832">
        <ele>767.23</ele>
        <time>2021-05-07T12:23:35Z</time>
      </trkpt>
      <trkpt lat="41.77882" lon="9.26832">
        <ele>752.71</ele>
        <time>2021-05-07T12:23:36Z</time>
      </trkpt>
      <trkpt lat="41.77882" lon="9.26832">
        <ele>759.58</ele>
        <time>2021-05-07T12:23:37Z</time>
      </trkpt>
      <trkpt lat="41.77882" lon="9.26832">
        <ele>767.12</ele>
        <time>2021-05-07T12:23:38Z</time>
      </trkpt>
      <trkpt lat="41.77882" lon="9.26832">
        <ele>760.9</ele>
        <time>2021-05-07T12:23:39Z</time>
      </trkpt>
      <trkpt lat="41.77882" lon="9.26832">
        <ele>769.27</ele>
        <time>2021-05-07T12:23:40Z</time>
      </trkpt>
      <trkpt lat="41.77882" lon="9.26832">
        <ele>769.26</ele>
        <time>2021-05-07T12:23:41Z</time>
      </trkpt>
      <trkpt lat="41.77882" lon="9.26832">
        <ele>736.95</ele>
        <time>2021-05-07T12:23:42Z</time>
      </trkpt>
      <trkpt lat="41.77882" lon="9.26832">
        <ele>722.93</ele>
        <time>2021-05-07T12:23:43Z</time>
      </trkpt>
      <trkpt lat="41.77882" lon="9.26832">
        <ele>773.01</ele>
        <time>2021-05-07T12:23:44Z</time>
      </trkpt>
      <trkpt lat="41.77883" lon="9.26832">
        <ele>768.66</ele>
        <time>2021-05-07T12:23:45Z</time>
      </trkpt>
      <trkpt lat="41.77883" lon="9.26832">
        <ele>765.24</ele>
        <time>2021-05-07T12:23:46Z</time>
      </trkpt>
      <trkpt lat="41.77883" lon="9.26832">
        <ele>789.93</ele>
        <time>2021-05-07T12:23:47Z</time>
      </trkpt>
      <trkpt lat="41.77883" lon="9.26832">
        <ele>767.65</ele>
        <time>2021-05-07T12:23:48Z</time>
      </trkpt>
      <trkpt lat="41.77883" lon="9.26832">
        <ele>760.35</ele>
        <time>2021-05-07T12:23:49Z</time>
      </trkpt>
      <trkpt lat="41.77883" lon="9.26832">
        <ele>756.62</ele>
        <time>2021-05-07T12:23:50Z</time>
      </trkpt>
      <trkpt lat="41.77883" lon="9.26833">
        <ele>760.95</ele>
        <time>2021-05-07T12:23:51Z</time>
      </trkpt>
      <trkpt lat="41.77883" lon="9.26833">
        <ele>757.55</ele>
        <time>2021-05-07T12:23:52Z</time>
      </trkpt>
      <trkpt lat="41.77883" lon="9.26833">
        <ele>750.45</ele>
        <time>2021-05-07T12:23:53Z</time>
      </trkpt>
      <trkpt lat="41.77883" lon="9.26833">
        <ele>756.98</ele>
        <time>2021-05-07T12:23:54Z</time>
      </trkpt>
      <trkpt lat="41.77883" lon="9.26833">
        <ele>753.91</ele>
        <time>2021-05-07T12:23:55Z</time>
      </trkpt>
      <trkpt lat="41.77882" lon="9.26833">
        <ele>733.35</ele>
        <time>2021-05-07T12:23:56Z</time>
      </trkpt>
      <trkpt lat="41.77882" lon="9.26832">
        <ele>675.3</ele>
        <time>2021-05-07T12:23:57Z</time>
      </trkpt>
      <trkpt lat="41.77882" lon="9.26832">
        <ele>736.54</ele>
        <time>2021-05-07T12:23:58Z</time>
      </trkpt>
      <trkpt lat="41.77882" lon="9.26832">
        <ele>809.57</ele>
        <time>2021-05-07T12:23:59Z</time>
      </trkpt>
      <trkpt lat="41.77881" lon="9.26832">
        <ele>786.49</ele>
        <time>2021-05-07T12:24:00Z</time>
      </trkpt>
      <trkpt lat="41.7788" lon="9.26831">
        <ele>773.74</ele>
        <time>2021-05-07T12:24:01Z</time>
      </trkpt>
      <trkpt lat="41.7788" lon="9.26831">
        <ele>767.11</ele>
        <time>2021-05-07T12:24:02Z</time>
      </trkpt>
      <trkpt lat="41.7788" lon="9.26831">
        <ele>754.51</ele>
        <time>2021-05-07T12:24:03Z</time>
      </trkpt>
      <trkpt lat="41.7788" lon="9.26831">
        <ele>747.54</ele>
        <time>2021-05-07T12:24:04Z</time>
      </trkpt>
      <trkpt lat="41.77879" lon="9.26831">
        <ele>755.57</ele>
        <time>2021-05-07T12:24:05Z</time>
      </trkpt>
      <trkpt lat="41.77879" lon="9.26832">
        <ele>714.32</ele>
        <time>2021-05-07T12:24:06Z</time>
      </trkpt>
      <trkpt lat="41.77879" lon="9.26832">
        <ele>764.82</ele>
        <time>2021-05-07T12:24:07Z</time>
      </trkpt>
      <trkpt lat="41.77878" lon="9.26833">
        <ele>693.62</ele>
        <time>2021-05-07T12:24:08Z</time>
      </trkpt>
      <trkpt lat="41.77878" lon="9.26832">
        <ele>791.79</ele>
        <time>2021-05-07T12:24:09Z</time>
      </trkpt>
      <trkpt lat="41.77877" lon="9.26833">
        <ele>783.47</ele>
        <time>2021-05-07T12:24:10Z</time>
      </trkpt>
      <trkpt lat="41.77877" lon="9.26832">
        <ele>759.82</ele>
        <time>2021-05-07T12:24:11Z</time>
      </trkpt>
      <trkpt lat="41.77877" lon="9.26832">
        <ele>768.81</ele>
        <time>2021-05-07T12:24:12Z</time>
      </trkpt>
      <trkpt lat="41.77876" lon="9.26833">
        <ele>754.36</ele>
        <time>2021-05-07T12:24:13Z</time>
      </trkpt>
      <trkpt lat="41.77877" lon="9.26832">
        <ele>750.85</ele>
        <time>2021-05-07T12:24:14Z</time>
      </trkpt>
      <trkpt lat="41.77876" lon="9.26832">
        <ele>745.65</ele>
        <time>2021-05-07T12:24:15Z</time>
      </trkpt>
      <trkpt lat="41.77876" lon="9.26831">
        <ele>761.12</ele>
        <time>2021-05-07T12:24:16Z</time>
      </trkpt>
      <trkpt lat="41.77876" lon="9.2683">
        <ele>760.82</ele>
        <time>2021-05-07T12:24:17Z</time>
      </trkpt>
      <trkpt lat="41.77876" lon="9.2683">
        <ele>751.93</ele>
        <time>2021-05-07T12:24:18Z</time>
      </trkpt>
      <trkpt lat="41.77876" lon="9.26829">
        <ele>752.71</ele>
        <time>2021-05-07T12:24:19Z</time>
      </trkpt>
      <trkpt lat="41.77876" lon="9.26829">
        <ele>699.23</ele>
        <time>2021-05-07T12:24:21Z</time>
      </trkpt>
      <trkpt lat="41.77876" lon="9.26828">
        <ele>759.55</ele>
        <time>2021-05-07T12:24:22Z</time>
      </trkpt>
      <trkpt lat="41.77876" lon="9.26828">
        <ele>788.97</ele>
        <time>2021-05-07T12:24:23Z</time>
      </trkpt>
      <trkpt lat="41.77875" lon="9.26828">
        <ele>762.32</ele>
        <time>2021-05-07T12:24:24Z</time>
      </trkpt>
      <trkpt lat="41.77875" lon="9.26827">
        <ele>759.31</ele>
        <time>2021-05-07T12:24:26Z</time>
      </trkpt>
      <trkpt lat="41.77875" lon="9.26827">
        <ele>752.67</ele>
        <time>2021-05-07T12:24:27Z</time>
      </trkpt>
      <trkpt lat="41.77875" lon="9.26827">
        <ele>748.29</ele>
        <time>2021-05-07T12:24:28Z</time>
      </trkpt>
      <trkpt lat="41.77875" lon="9.26827">
        <ele>748.49</ele>
        <time>2021-05-07T12:24:29Z</time>
      </trkpt>
      <trkpt lat="41.77875" lon="9.26826">
        <ele>753.57</ele>
        <time>2021-05-07T12:24:30Z</time>
      </trkpt>
      <trkpt lat="41.77875" lon="9.26826">
        <ele>753.57</ele>
        <time>2021-05-07T12:24:31Z</time>
      </trkpt>
      <trkpt lat="41.77875" lon="9.26826">
        <ele>739.68</ele>
        <time>2021-05-07T12:24:32Z</time>
      </trkpt>
      <trkpt lat="41.77875" lon="9.26826">
        <ele>719.75</ele>
        <time>2021-05-07T12:24:33Z</time>
      </trkpt>
      <trkpt lat="41.77875" lon="9.26826">
        <ele>767.95</ele>
        <time>2021-05-07T12:24:34Z</time>
      </trkpt>
      <trkpt lat="41.77875" lon="9.26826">
        <ele>763.29</ele>
        <time>2021-05-07T12:24:36Z</time>
      </trkpt>
      <trkpt lat="41.77875" lon="9.26826">
        <ele>766.1</ele>
        <time>2021-05-07T12:24:37Z</time>
      </trkpt>
      <trkpt lat="41.77875" lon="9.26826">
        <ele>760.24</ele>
        <time>2021-05-07T12:24:38Z</time>
      </trkpt>
      <trkpt lat="41.77875" lon="9.26826">
        <ele>757.16</ele>
        <time>2021-05-07T12:24:39Z</time>
      </trkpt>
      <trkpt lat="41.77875" lon="9.26826">
        <ele>755.96</ele>
        <time>2021-05-07T12:24:41Z</time>
      </trkpt>
      <trkpt lat="41.77875" lon="9.26826">
        <ele>752.91</ele>
        <time>2021-05-07T12:24:42Z</time>
      </trkpt>
      <trkpt lat="41.77875" lon="9.26826">
        <ele>756.18</ele>
        <time>2021-05-07T12:24:44Z</time>
      </trkpt>
      <trkpt lat="41.77875" lon="9.26827">
        <ele>756.18</ele>
        <time>2021-05-07T12:24:45Z</time>
      </trkpt>
      <trkpt lat="41.77875" lon="9.26827">
        <ele>753.79</ele>
        <time>2021-05-07T12:24:48Z</time>
      </trkpt>
      <trkpt lat="41.77875" lon="9.26827">
        <ele>752.47</ele>
        <time>2021-05-07T12:25:01Z</time>
      </trkpt>
      <trkpt lat="41.77875" lon="9.26827">
        <ele>745.33</ele>
        <time>2021-05-07T12:25:02Z</time>
      </trkpt>
      <trkpt lat="41.77875" lon="9.26827">
        <ele>741.39</ele>
        <time>2021-05-07T12:25:03Z</time>
      </trkpt>
      <trkpt lat="41.77875" lon="9.26827">
        <ele>741.27</ele>
        <time>2021-05-07T12:25:04Z</time>
      </trkpt>
      <trkpt lat="41.77875" lon="9.26827">
        <ele>757</ele>
        <time>2021-05-07T12:25:05Z</time>
      </trkpt>
      <trkpt lat="41.77876" lon="9.26827">
        <ele>742.58</ele>
        <time>2021-05-07T12:25:06Z</time>
      </trkpt>
      <trkpt lat="41.77876" lon="9.26827">
        <ele>761.81</ele>
        <time>2021-05-07T12:25:07Z</time>
      </trkpt>
      <trkpt lat="41.77876" lon="9.26827">
        <ele>752.11</ele>
        <time>2021-05-07T12:25:08Z</time>
      </trkpt>
      <trkpt lat="41.77877" lon="9.26828">
        <ele>733.29</ele>
        <time>2021-05-07T12:25:09Z</time>
      </trkpt>
      <trkpt lat="41.77877" lon="9.26828">
        <ele>749.14</ele>
        <time>2021-05-07T12:25:10Z</time>
      </trkpt>
      <trkpt lat="41.77877" lon="9.26829">
        <ele>769.97</ele>
        <time>2021-05-07T12:25:11Z</time>
      </trkpt>
      <trkpt lat="41.77877" lon="9.26829">
        <ele>762</ele>
        <time>2021-05-07T12:25:12Z</time>
      </trkpt>
      <trkpt lat="41.77878" lon="9.26831">
        <ele>753.79</ele>
        <time>2021-05-07T12:25:15Z</time>
      </trkpt>
      <trkpt lat="41.77879" lon="9.26832">
        <ele>757.65</ele>
        <time>2021-05-07T12:25:16Z</time>
      </trkpt>
      <trkpt lat="41.77879" lon="9.26832">
        <ele>743.54</ele>
        <time>2021-05-07T12:25:17Z</time>
      </trkpt>
      <trkpt lat="41.77879" lon="9.26832">
        <ele>751.18</ele>
        <time>2021-05-07T12:25:18Z</time>
      </trkpt>
      <trkpt lat="41.7788" lon="9.26832">
        <ele>754.68</ele>
        <time>2021-05-07T12:25:19Z</time>
      </trkpt>
      <trkpt lat="41.7788" lon="9.26832">
        <ele>754.74</ele>
        <time>2021-05-07T12:25:20Z</time>
      </trkpt>
      <trkpt lat="41.77881" lon="9.26833">
        <ele>750.37</ele>
        <time>2021-05-07T12:25:22Z</time>
      </trkpt>
      <trkpt lat="41.77881" lon="9.26833">
        <ele>742.16</ele>
        <time>2021-05-07T12:25:23Z</time>
      </trkpt>
      <trkpt lat="41.77881" lon="9.26832">
        <ele>750.58</ele>
        <time>2021-05-07T12:25:24Z</time>
      </trkpt>
      <trkpt lat="41.77881" lon="9.26832">
        <ele>733.1</ele>
        <time>2021-05-07T12:25:25Z</time>
      </trkpt>
      <trkpt lat="41.77881" lon="9.26833">
        <ele>714.96</ele>
        <time>2021-05-07T12:25:26Z</time>
      </trkpt>
      <trkpt lat="41.77881" lon="9.26832">
        <ele>725.9</ele>
        <time>2021-05-07T12:25:27Z</time>
      </trkpt>
      <trkpt lat="41.77881" lon="9.26832">
        <ele>782.58</ele>
        <time>2021-05-07T12:25:28Z</time>
      </trkpt>
      <trkpt lat="41.77881" lon="9.26832">
        <ele>777.97</ele>
        <time>2021-05-07T12:25:29Z</time>
      </trkpt>
      <trkpt lat="41.77881" lon="9.26832">
        <ele>761.51</ele>
        <time>2021-05-07T12:25:30Z</time>
      </trkpt>
      <trkpt lat="41.77881" lon="9.26833">
        <ele>739.92</ele>
        <time>2021-05-07T12:25:31Z</time>
      </trkpt>
      <trkpt lat="41.77881" lon="9.26833">
        <ele>732.17</ele>
        <time>2021-05-07T12:25:32Z</time>
      </trkpt>
      <trkpt lat="41.77882" lon="9.26832">
        <ele>728.81</ele>
        <time>2021-05-07T12:25:33Z</time>
      </trkpt>
      <trkpt lat="41.77882" lon="9.26832">
        <ele>658.92</ele>
        <time>2021-05-07T12:25:34Z</time>
      </trkpt>
      <trkpt lat="41.77882" lon="9.26832">
        <ele>808.33</ele>
        <time>2021-05-07T12:25:35Z</time>
      </trkpt>
      <trkpt lat="41.77882" lon="9.26832">
        <ele>797.88</ele>
        <time>2021-05-07T12:25:36Z</time>
      </trkpt>
      <trkpt lat="41.77883" lon="9.26832">
        <ele>759.4</ele>
        <time>2021-05-07T12:25:37Z</time>
      </trkpt>
      <trkpt lat="41.77883" lon="9.26832">
        <ele>762.67</ele>
        <time>2021-05-07T12:25:38Z</time>
      </trkpt>
      <trkpt lat="41.77884" lon="9.26833">
        <ele>758.42</ele>
        <time>2021-05-07T12:25:39Z</time>
      </trkpt>
      <trkpt lat="41.77884" lon="9.26834">
        <ele>753.42</ele>
        <time>2021-05-07T12:25:40Z</time>
      </trkpt>
      <trkpt lat="41.77884" lon="9.26833">
        <ele>745.09</ele>
        <time>2021-05-07T12:25:41Z</time>
      </trkpt>
      <trkpt lat="41.77883" lon="9.26833">
        <ele>712.71</ele>
        <time>2021-05-07T12:25:42Z</time>
      </trkpt>
      <trkpt lat="41.77883" lon="9.26834">
        <ele>767.55</ele>
        <time>2021-05-07T12:25:43Z</time>
      </trkpt>
      <trkpt lat="41.77883" lon="9.26835">
        <ele>766.13</ele>
        <time>2021-05-07T12:25:44Z</time>
      </trkpt>
      <trkpt lat="41.77883" lon="9.26835">
        <ele>747.8</ele>
        <time>2021-05-07T12:25:45Z</time>
      </trkpt>
      <trkpt lat="41.77883" lon="9.26836">
        <ele>747.79</ele>
        <time>2021-05-07T12:25:46Z</time>
      </trkpt>
      <trkpt lat="41.77883" lon="9.26836">
        <ele>741.29</ele>
        <time>2021-05-07T12:25:47Z</time>
      </trkpt>
      <trkpt lat="41.77884" lon="9.26836">
        <ele>742</ele>
        <time>2021-05-07T12:25:48Z</time>
      </trkpt>
      <trkpt lat="41.77884" lon="9.26837">
        <ele>732.48</ele>
        <time>2021-05-07T12:25:49Z</time>
      </trkpt>
      <trkpt lat="41.77884" lon="9.26837">
        <ele>753.65</ele>
        <time>2021-05-07T12:25:50Z</time>
      </trkpt>
      <trkpt lat="41.77884" lon="9.26837">
        <ele>735.22</ele>
        <time>2021-05-07T12:25:51Z</time>
      </trkpt>
      <trkpt lat="41.77884" lon="9.26838">
        <ele>748.85</ele>
        <time>2021-05-07T12:25:52Z</time>
      </trkpt>
      <trkpt lat="41.77884" lon="9.26838">
        <ele>744.97</ele>
        <time>2021-05-07T12:25:53Z</time>
      </trkpt>
      <trkpt lat="41.77884" lon="9.2684">
        <ele>749.2</ele>
        <time>2021-05-07T12:25:56Z</time>
      </trkpt>
      <trkpt lat="41.77884" lon="9.2684">
        <ele>740.74</ele>
        <time>2021-05-07T12:25:57Z</time>
      </trkpt>
      <trkpt lat="41.77884" lon="9.26841">
        <ele>752.45</ele>
        <time>2021-05-07T12:25:58Z</time>
      </trkpt>
      <trkpt lat="41.77883" lon="9.26841">
        <ele>749.15</ele>
        <time>2021-05-07T12:26:00Z</time>
      </trkpt>
      <trkpt lat="41.77883" lon="9.26841">
        <ele>741.36</ele>
        <time>2021-05-07T12:26:01Z</time>
      </trkpt>
      <trkpt lat="41.77883" lon="9.26841">
        <ele>714.59</ele>
        <time>2021-05-07T12:26:02Z</time>
      </trkpt>
      <trkpt lat="41.77882" lon="9.2684">
        <ele>751.24</ele>
        <time>2021-05-07T12:26:03Z</time>
      </trkpt>
      <trkpt lat="41.77882" lon="9.26841">
        <ele>745.43</ele>
        <time>2021-05-07T12:26:05Z</time>
      </trkpt>
      <trkpt lat="41.77882" lon="9.26841">
        <ele>752.88</ele>
        <time>2021-05-07T12:26:06Z</time>
      </trkpt>
      <trkpt lat="41.77882" lon="9.26841">
        <ele>745.04</ele>
        <time>2021-05-07T12:26:07Z</time>
      </trkpt>
      <trkpt lat="41.77882" lon="9.26841">
        <ele>749.68</ele>
        <time>2021-05-07T12:26:08Z</time>
      </trkpt>
      <trkpt lat="41.77882" lon="9.26842">
        <ele>745.5</ele>
        <time>2021-05-07T12:26:09Z</time>
      </trkpt>
      <trkpt lat="41.77883" lon="9.26843">
        <ele>739.96</ele>
        <time>2021-05-07T12:26:14Z</time>
      </trkpt>
      <trkpt lat="41.77883" lon="9.26844">
        <ele>746.95</ele>
        <time>2021-05-07T12:26:15Z</time>
      </trkpt>
      <trkpt lat="41.77883" lon="9.26844">
        <ele>751.38</ele>
        <time>2021-05-07T12:26:16Z</time>
      </trkpt>
      <trkpt lat="41.77883" lon="9.26844">
        <ele>747.81</ele>
        <time>2021-05-07T12:26:17Z</time>
      </trkpt>
      <trkpt lat="41.77883" lon="9.26845">
        <ele>739.22</ele>
        <time>2021-05-07T12:26:18Z</time>
      </trkpt>
      <trkpt lat="41.77883" lon="9.26846">
        <ele>752.92</ele>
        <time>2021-05-07T12:26:19Z</time>
      </trkpt>
      <trkpt lat="41.77882" lon="9.26846">
        <ele>748.92</ele>
        <time>2021-05-07T12:26:21Z</time>
      </trkpt>
      <trkpt lat="41.77882" lon="9.26847">
        <ele>740.01</ele>
        <time>2021-05-07T12:26:22Z</time>
      </trkpt>
      <trkpt lat="41.77882" lon="9.26847">
        <ele>745.47</ele>
        <time>2021-05-07T12:26:23Z</time>
      </trkpt>
      <trkpt lat="41.77883" lon="9.26848">
        <ele>741.89</ele>
        <time>2021-05-07T12:26:24Z</time>
      </trkpt>
      <trkpt lat="41.77883" lon="9.26847">
        <ele>728.78</ele>
        <time>2021-05-07T12:26:26Z</time>
      </trkpt>
      <trkpt lat="41.77882" lon="9.26847">
        <ele>719.53</ele>
        <time>2021-05-07T12:26:27Z</time>
      </trkpt>
      <trkpt lat="41.77882" lon="9.26847">
        <ele>764.92</ele>
        <time>2021-05-07T12:26:28Z</time>
      </trkpt>
      <trkpt lat="41.77882" lon="9.26847">
        <ele>756.93</ele>
        <time>2021-05-07T12:26:30Z</time>
      </trkpt>
      <trkpt lat="41.77882" lon="9.26847">
        <ele>753.1</ele>
        <time>2021-05-07T12:26:31Z</time>
      </trkpt>
      <trkpt lat="41.77882" lon="9.26848">
        <ele>743.32</ele>
        <time>2021-05-07T12:26:32Z</time>
      </trkpt>
      <trkpt lat="41.77883" lon="9.26848">
        <ele>721.8</ele>
        <time>2021-05-07T12:26:33Z</time>
      </trkpt>
      <trkpt lat="41.77883" lon="9.26848">
        <ele>740.36</ele>
        <time>2021-05-07T12:26:34Z</time>
      </trkpt>
      <trkpt lat="41.77883" lon="9.26848">
        <ele>756.71</ele>
        <time>2021-05-07T12:26:35Z</time>
      </trkpt>
      <trkpt lat="41.77883" lon="9.26849">
        <ele>754.85</ele>
        <time>2021-05-07T12:26:36Z</time>
      </trkpt>
      <trkpt lat="41.77884" lon="9.26849">
        <ele>739.91</ele>
        <time>2021-05-07T12:26:37Z</time>
      </trkpt>
      <trkpt lat="41.77884" lon="9.2685">
        <ele>747.97</ele>
        <time>2021-05-07T12:26:38Z</time>
      </trkpt>
      <trkpt lat="41.77884" lon="9.2685">
        <ele>723.87</ele>
        <time>2021-05-07T12:26:40Z</time>
      </trkpt>
      <trkpt lat="41.77884" lon="9.2685">
        <ele>723.87</ele>
        <time>2021-05-07T12:26:41Z</time>
      </trkpt>
      <trkpt lat="41.77884" lon="9.2685">
        <ele>742.45</ele>
        <time>2021-05-07T12:26:42Z</time>
      </trkpt>
      <trkpt lat="41.77883" lon="9.26851">
        <ele>712.27</ele>
        <time>2021-05-07T12:26:43Z</time>
      </trkpt>
      <trkpt lat="41.77883" lon="9.2685">
        <ele>762.32</ele>
        <time>2021-05-07T12:26:44Z</time>
      </trkpt>
      <trkpt lat="41.77883" lon="9.2685">
        <ele>755.7</ele>
        <time>2021-05-07T12:26:45Z</time>
      </trkpt>
      <trkpt lat="41.77883" lon="9.2685">
        <ele>747.19</ele>
        <time>2021-05-07T12:26:46Z</time>
      </trkpt>
      <trkpt lat="41.77884" lon="9.2685">
        <ele>742.15</ele>
        <time>2021-05-07T12:26:47Z</time>
      </trkpt>
      <trkpt lat="41.77884" lon="9.2685">
        <ele>745.6</ele>
        <time>2021-05-07T12:26:48Z</time>
      </trkpt>
      <trkpt lat="41.77884" lon="9.2685">
        <ele>737.97</ele>
        <time>2021-05-07T12:26:49Z</time>
      </trkpt>
      <trkpt lat="41.77884" lon="9.2685">
        <ele>720.88</ele>
        <time>2021-05-07T12:26:50Z</time>
      </trkpt>
      <trkpt lat="41.77885" lon="9.26849">
        <ele>736.52</ele>
        <time>2021-05-07T12:26:51Z</time>
      </trkpt>
      <trkpt lat="41.77885" lon="9.26849">
        <ele>765.75</ele>
        <time>2021-05-07T12:26:52Z</time>
      </trkpt>
      <trkpt lat="41.77885" lon="9.26849">
        <ele>750.69</ele>
        <time>2021-05-07T12:26:53Z</time>
      </trkpt>
      <trkpt lat="41.77885" lon="9.26849">
        <ele>743.34</ele>
        <time>2021-05-07T12:26:55Z</time>
      </trkpt>
      <trkpt lat="41.77885" lon="9.26849">
        <ele>728.49</ele>
        <time>2021-05-07T12:26:56Z</time>
      </trkpt>
      <trkpt lat="41.77885" lon="9.26849">
        <ele>731.29</ele>
        <time>2021-05-07T12:26:57Z</time>
      </trkpt>
      <trkpt lat="41.77885" lon="9.2685">
        <ele>704.24</ele>
        <time>2021-05-07T12:26:58Z</time>
      </trkpt>
      <trkpt lat="41.77885" lon="9.2685">
        <ele>699.22</ele>
        <time>2021-05-07T12:26:59Z</time>
      </trkpt>
      <trkpt lat="41.77885" lon="9.2685">
        <ele>774.74</ele>
        <time>2021-05-07T12:27:00Z</time>
      </trkpt>
      <trkpt lat="41.77886" lon="9.2685">
        <ele>763.49</ele>
        <time>2021-05-07T12:27:01Z</time>
      </trkpt>
      <trkpt lat="41.77886" lon="9.26851">
        <ele>754.74</ele>
        <time>2021-05-07T12:27:02Z</time>
      </trkpt>
      <trkpt lat="41.77886" lon="9.26851">
        <ele>730.38</ele>
        <time>2021-05-07T12:27:03Z</time>
      </trkpt>
      <trkpt lat="41.77886" lon="9.26852">
        <ele>749.16</ele>
        <time>2021-05-07T12:27:04Z</time>
      </trkpt>
      <trkpt lat="41.77886" lon="9.26853">
        <ele>743.76</ele>
        <time>2021-05-07T12:27:05Z</time>
      </trkpt>
      <trkpt lat="41.77884" lon="9.26854">
        <ele>737.66</ele>
        <time>2021-05-07T12:27:07Z</time>
      </trkpt>
      <trkpt lat="41.77884" lon="9.26854">
        <ele>741.87</ele>
        <time>2021-05-07T12:27:09Z</time>
      </trkpt>
      <trkpt lat="41.77884" lon="9.26854">
        <ele>732.32</ele>
        <time>2021-05-07T12:27:10Z</time>
      </trkpt>
      <trkpt lat="41.77884" lon="9.26855">
        <ele>744.5</ele>
        <time>2021-05-07T12:27:11Z</time>
      </trkpt>
      <trkpt lat="41.77886" lon="9.26856">
        <ele>732.24</ele>
        <time>2021-05-07T12:27:13Z</time>
      </trkpt>
      <trkpt lat="41.77886" lon="9.26856">
        <ele>733.01</ele>
        <time>2021-05-07T12:27:14Z</time>
      </trkpt>
      <trkpt lat="41.77887" lon="9.26857">
        <ele>680.4</ele>
        <time>2021-05-07T12:27:16Z</time>
      </trkpt>
      <trkpt lat="41.77887" lon="9.26858">
        <ele>698.72</ele>
        <time>2021-05-07T12:27:17Z</time>
      </trkpt>
      <trkpt lat="41.77888" lon="9.26858">
        <ele>739.61</ele>
        <time>2021-05-07T12:27:18Z</time>
      </trkpt>
      <trkpt lat="41.77888" lon="9.26859">
        <ele>745</ele>
        <time>2021-05-07T12:27:19Z</time>
      </trkpt>
      <trkpt lat="41.77888" lon="9.2686">
        <ele>741.13</ele>
        <time>2021-05-07T12:27:20Z</time>
      </trkpt>
      <trkpt lat="41.77888" lon="9.26861">
        <ele>716.06</ele>
        <time>2021-05-07T12:27:21Z</time>
      </trkpt>
      <trkpt lat="41.77888" lon="9.26862">
        <ele>725.35</ele>
        <time>2021-05-07T12:27:22Z</time>
      </trkpt>
      <trkpt lat="41.77888" lon="9.26862">
        <ele>746.55</ele>
        <time>2021-05-07T12:27:23Z</time>
      </trkpt>
      <trkpt lat="41.77888" lon="9.26863">
        <ele>722.06</ele>
        <time>2021-05-07T12:27:24Z</time>
      </trkpt>
      <trkpt lat="41.77888" lon="9.26863">
        <ele>734.68</ele>
        <time>2021-05-07T12:27:25Z</time>
      </trkpt>
      <trkpt lat="41.77888" lon="9.26863">
        <ele>757.66</ele>
        <time>2021-05-07T12:27:26Z</time>
      </trkpt>
      <trkpt lat="41.77888" lon="9.26863">
        <ele>729.49</ele>
        <time>2021-05-07T12:27:27Z</time>
      </trkpt>
      <trkpt lat="41.77888" lon="9.26863">
        <ele>752.96</ele>
        <time>2021-05-07T12:27:28Z</time>
      </trkpt>
      <trkpt lat="41.77888" lon="9.26864">
        <ele>763.64</ele>
        <time>2021-05-07T12:27:29Z</time>
      </trkpt>
      <trkpt lat="41.77888" lon="9.26865">
        <ele>761.91</ele>
        <time>2021-05-07T12:27:30Z</time>
      </trkpt>
      <trkpt lat="41.77888" lon="9.26865">
        <ele>742.55</ele>
        <time>2021-05-07T12:27:31Z</time>
      </trkpt>
      <trkpt lat="41.77888" lon="9.26865">
        <ele>752.75</ele>
        <time>2021-05-07T12:27:32Z</time>
      </trkpt>
      <trkpt lat="41.77888" lon="9.26866">
        <ele>722.45</ele>
        <time>2021-05-07T12:27:33Z</time>
      </trkpt>
      <trkpt lat="41.77889" lon="9.26866">
        <ele>725.27</ele>
        <time>2021-05-07T12:27:34Z</time>
      </trkpt>
      <trkpt lat="41.77889" lon="9.26867">
        <ele>754.83</ele>
        <time>2021-05-07T12:27:35Z</time>
      </trkpt>
      <trkpt lat="41.77889" lon="9.26867">
        <ele>734.04</ele>
        <time>2021-05-07T12:27:36Z</time>
      </trkpt>
      <trkpt lat="41.77888" lon="9.26867">
        <ele>747.69</ele>
        <time>2021-05-07T12:27:37Z</time>
      </trkpt>
      <trkpt lat="41.77888" lon="9.26868">
        <ele>758.48</ele>
        <time>2021-05-07T12:27:38Z</time>
      </trkpt>
      <trkpt lat="41.77888" lon="9.26868">
        <ele>754.91</ele>
        <time>2021-05-07T12:27:39Z</time>
      </trkpt>
      <trkpt lat="41.77887" lon="9.26869">
        <ele>767.89</ele>
        <time>2021-05-07T12:27:40Z</time>
      </trkpt>
      <trkpt lat="41.77887" lon="9.26869">
        <ele>734.11</ele>
        <time>2021-05-07T12:27:41Z</time>
      </trkpt>
      <trkpt lat="41.77886" lon="9.2687">
        <ele>769.81</ele>
        <time>2021-05-07T12:27:42Z</time>
      </trkpt>
      <trkpt lat="41.77886" lon="9.2687">
        <ele>760.7</ele>
        <time>2021-05-07T12:27:43Z</time>
      </trkpt>
      <trkpt lat="41.77886" lon="9.2687">
        <ele>763.81</ele>
        <time>2021-05-07T12:27:44Z</time>
      </trkpt>
      <trkpt lat="41.77885" lon="9.26871">
        <ele>754.43</ele>
        <time>2021-05-07T12:27:45Z</time>
      </trkpt>
      <trkpt lat="41.77885" lon="9.26871">
        <ele>749.61</ele>
        <time>2021-05-07T12:27:46Z</time>
      </trkpt>
      <trkpt lat="41.77885" lon="9.26871">
        <ele>744</ele>
        <time>2021-05-07T12:27:47Z</time>
      </trkpt>
      <trkpt lat="41.77885" lon="9.26872">
        <ele>746.24</ele>
        <time>2021-05-07T12:27:48Z</time>
      </trkpt>
      <trkpt lat="41.77885" lon="9.26873">
        <ele>753.65</ele>
        <time>2021-05-07T12:27:49Z</time>
      </trkpt>
      <trkpt lat="41.77885" lon="9.26873">
        <ele>730.99</ele>
        <time>2021-05-07T12:27:50Z</time>
      </trkpt>
      <trkpt lat="41.77885" lon="9.26874">
        <ele>759.33</ele>
        <time>2021-05-07T12:27:51Z</time>
      </trkpt>
      <trkpt lat="41.77885" lon="9.26874">
        <ele>721.46</ele>
        <time>2021-05-07T12:27:52Z</time>
      </trkpt>
      <trkpt lat="41.77885" lon="9.26875">
        <ele>749.65</ele>
        <time>2021-05-07T12:27:53Z</time>
      </trkpt>
      <trkpt lat="41.77885" lon="9.26876">
        <ele>754.99</ele>
        <time>2021-05-07T12:27:54Z</time>
      </trkpt>
      <trkpt lat="41.77885" lon="9.26876">
        <ele>759.58</ele>
        <time>2021-05-07T12:27:55Z</time>
      </trkpt>
      <trkpt lat="41.77885" lon="9.26877">
        <ele>747.35</ele>
        <time>2021-05-07T12:27:56Z</time>
      </trkpt>
      <trkpt lat="41.77885" lon="9.26877">
        <ele>750.22</ele>
        <time>2021-05-07T12:27:57Z</time>
      </trkpt>
      <trkpt lat="41.77885" lon="9.26877">
        <ele>746.69</ele>
        <time>2021-05-07T12:27:58Z</time>
      </trkpt>
      <trkpt lat="41.77885" lon="9.26878">
        <ele>737.67</ele>
        <time>2021-05-07T12:27:59Z</time>
      </trkpt>
      <trkpt lat="41.77885" lon="9.26878">
        <ele>754.48</ele>
        <time>2021-05-07T12:28:00Z</time>
      </trkpt>
      <trkpt lat="41.77885" lon="9.26879">
        <ele>714.76</ele>
        <time>2021-05-07T12:28:01Z</time>
      </trkpt>
      <trkpt lat="41.77885" lon="9.26879">
        <ele>757.15</ele>
        <time>2021-05-07T12:28:02Z</time>
      </trkpt>
      <trkpt lat="41.77885" lon="9.2688">
        <ele>763.8</ele>
        <time>2021-05-07T12:28:03Z</time>
      </trkpt>
      <trkpt lat="41.77885" lon="9.2688">
        <ele>749.86</ele>
        <time>2021-05-07T12:28:04Z</time>
      </trkpt>
      <trkpt lat="41.77885" lon="9.2688">
        <ele>760.5</ele>
        <time>2021-05-07T12:28:05Z</time>
      </trkpt>
      <trkpt lat="41.77885" lon="9.26881">
        <ele>749.61</ele>
        <time>2021-05-07T12:28:07Z</time>
      </trkpt>
      <trkpt lat="41.77886" lon="9.26881">
        <ele>743.85</ele>
        <time>2021-05-07T12:28:08Z</time>
      </trkpt>
      <trkpt lat="41.77886" lon="9.26882">
        <ele>771.54</ele>
        <time>2021-05-07T12:28:09Z</time>
      </trkpt>
      <trkpt lat="41.77886" lon="9.26882">
        <ele>760.16</ele>
        <time>2021-05-07T12:28:10Z</time>
      </trkpt>
      <trkpt lat="41.77886" lon="9.26882">
        <ele>750.75</ele>
        <time>2021-05-07T12:28:11Z</time>
      </trkpt>
      <trkpt lat="41.77886" lon="9.26883">
        <ele>756.91</ele>
        <time>2021-05-07T12:28:12Z</time>
      </trkpt>
      <trkpt lat="41.77886" lon="9.26883">
        <ele>749.95</ele>
        <time>2021-05-07T12:28:13Z</time>
      </trkpt>
      <trkpt lat="41.77886" lon="9.26883">
        <ele>753.74</ele>
        <time>2021-05-07T12:28:14Z</time>
      </trkpt>
      <trkpt lat="41.77886" lon="9.26884">
        <ele>740.47</ele>
        <time>2021-05-07T12:28:15Z</time>
      </trkpt>
      <trkpt lat="41.77887" lon="9.26884">
        <ele>749.36</ele>
        <time>2021-05-07T12:28:16Z</time>
      </trkpt>
      <trkpt lat="41.77887" lon="9.26884">
        <ele>756.63</ele>
        <time>2021-05-07T12:28:18Z</time>
      </trkpt>
      <trkpt lat="41.77886" lon="9.26884">
        <ele>756.63</ele>
        <time>2021-05-07T12:28:19Z</time>
      </trkpt>
      <trkpt lat="41.77887" lon="9.26885">
        <ele>739.84</ele>
        <time>2021-05-07T12:28:20Z</time>
      </trkpt>
      <trkpt lat="41.77887" lon="9.26885">
        <ele>757.96</ele>
        <time>2021-05-07T12:28:21Z</time>
      </trkpt>
      <trkpt lat="41.77887" lon="9.26885">
        <ele>739.91</ele>
        <time>2021-05-07T12:28:22Z</time>
      </trkpt>
      <trkpt lat="41.77888" lon="9.26886">
        <ele>749.96</ele>
        <time>2021-05-07T12:28:23Z</time>
      </trkpt>
      <trkpt lat="41.77888" lon="9.26886">
        <ele>771.07</ele>
        <time>2021-05-07T12:28:24Z</time>
      </trkpt>
      <trkpt lat="41.77889" lon="9.26886">
        <ele>762.93</ele>
        <time>2021-05-07T12:28:25Z</time>
      </trkpt>
      <trkpt lat="41.77889" lon="9.26886">
        <ele>750.92</ele>
        <time>2021-05-07T12:28:26Z</time>
      </trkpt>
      <trkpt lat="41.77889" lon="9.26886">
        <ele>755.72</ele>
        <time>2021-05-07T12:28:27Z</time>
      </trkpt>
      <trkpt lat="41.7789" lon="9.26886">
        <ele>772.1</ele>
        <time>2021-05-07T12:28:28Z</time>
      </trkpt>
      <trkpt lat="41.77889" lon="9.26886">
        <ele>767.16</ele>
        <time>2021-05-07T12:28:29Z</time>
      </trkpt>
      <trkpt lat="41.7789" lon="9.26886">
        <ele>725.11</ele>
        <time>2021-05-07T12:28:30Z</time>
      </trkpt>
      <trkpt lat="41.7789" lon="9.26886">
        <ele>761.42</ele>
        <time>2021-05-07T12:28:31Z</time>
      </trkpt>
      <trkpt lat="41.7789" lon="9.26887">
        <ele>774.79</ele>
        <time>2021-05-07T12:28:32Z</time>
      </trkpt>
      <trkpt lat="41.7789" lon="9.26887">
        <ele>761.47</ele>
        <time>2021-05-07T12:28:33Z</time>
      </trkpt>
      <trkpt lat="41.77891" lon="9.26887">
        <ele>737.75</ele>
        <time>2021-05-07T12:28:34Z</time>
      </trkpt>
      <trkpt lat="41.77891" lon="9.26887">
        <ele>760.56</ele>
        <time>2021-05-07T12:28:35Z</time>
      </trkpt>
      <trkpt lat="41.77891" lon="9.26887">
        <ele>745.12</ele>
        <time>2021-05-07T12:28:36Z</time>
      </trkpt>
      <trkpt lat="41.77892" lon="9.26887">
        <ele>766.95</ele>
        <time>2021-05-07T12:28:38Z</time>
      </trkpt>
      <trkpt lat="41.77892" lon="9.26887">
        <ele>758.16</ele>
        <time>2021-05-07T12:28:39Z</time>
      </trkpt>
      <trkpt lat="41.77891" lon="9.26889">
        <ele>752.32</ele>
        <time>2021-05-07T12:28:41Z</time>
      </trkpt>
      <trkpt lat="41.77891" lon="9.26889">
        <ele>755.11</ele>
        <time>2021-05-07T12:28:42Z</time>
      </trkpt>
      <trkpt lat="41.77891" lon="9.26889">
        <ele>758.86</ele>
        <time>2021-05-07T12:28:43Z</time>
      </trkpt>
      <trkpt lat="41.7789" lon="9.26889">
        <ele>753.86</ele>
        <time>2021-05-07T12:28:44Z</time>
      </trkpt>
      <trkpt lat="41.7789" lon="9.26889">
        <ele>723.25</ele>
        <time>2021-05-07T12:28:45Z</time>
      </trkpt>
      <trkpt lat="41.77891" lon="9.2689">
        <ele>740.79</ele>
        <time>2021-05-07T12:28:46Z</time>
      </trkpt>
      <trkpt lat="41.77891" lon="9.2689">
        <ele>756.61</ele>
        <time>2021-05-07T12:28:47Z</time>
      </trkpt>
      <trkpt lat="41.77892" lon="9.2689">
        <ele>759.5</ele>
        <time>2021-05-07T12:28:49Z</time>
      </trkpt>
      <trkpt lat="41.77892" lon="9.2689">
        <ele>751.51</ele>
        <time>2021-05-07T12:28:50Z</time>
      </trkpt>
      <trkpt lat="41.77893" lon="9.26889">
        <ele>751.38</ele>
        <time>2021-05-07T12:28:51Z</time>
      </trkpt>
      <trkpt lat="41.77893" lon="9.26889">
        <ele>762.37</ele>
        <time>2021-05-07T12:28:52Z</time>
      </trkpt>
      <trkpt lat="41.77893" lon="9.26889">
        <ele>762.44</ele>
        <time>2021-05-07T12:28:53Z</time>
      </trkpt>
      <trkpt lat="41.77893" lon="9.26889">
        <ele>744.06</ele>
        <time>2021-05-07T12:28:54Z</time>
      </trkpt>
      <trkpt lat="41.77893" lon="9.26889">
        <ele>734.53</ele>
        <time>2021-05-07T12:28:55Z</time>
      </trkpt>
      <trkpt lat="41.77894" lon="9.26889">
        <ele>747.35</ele>
        <time>2021-05-07T12:28:56Z</time>
      </trkpt>
      <trkpt lat="41.77894" lon="9.26889">
        <ele>756.3</ele>
        <time>2021-05-07T12:28:57Z</time>
      </trkpt>
      <trkpt lat="41.77896" lon="9.26888">
        <ele>759.64</ele>
        <time>2021-05-07T12:28:58Z</time>
      </trkpt>
      <trkpt lat="41.77896" lon="9.26888">
        <ele>776.42</ele>
        <time>2021-05-07T12:28:59Z</time>
      </trkpt>
      <trkpt lat="41.77896" lon="9.26889">
        <ele>759.45</ele>
        <time>2021-05-07T12:29:00Z</time>
      </trkpt>
      <trkpt lat="41.77896" lon="9.2689">
        <ele>764.31</ele>
        <time>2021-05-07T12:29:01Z</time>
      </trkpt>
      <trkpt lat="41.77897" lon="9.26891">
        <ele>760.25</ele>
        <time>2021-05-07T12:29:02Z</time>
      </trkpt>
      <trkpt lat="41.77898" lon="9.26892">
        <ele>759.41</ele>
        <time>2021-05-07T12:29:04Z</time>
      </trkpt>
      <trkpt lat="41.77899" lon="9.26893">
        <ele>745.28</ele>
        <time>2021-05-07T12:29:05Z</time>
      </trkpt>
      <trkpt lat="41.779" lon="9.26893">
        <ele>762.13</ele>
        <time>2021-05-07T12:29:06Z</time>
      </trkpt>
      <trkpt lat="41.779" lon="9.26893">
        <ele>749.23</ele>
        <time>2021-05-07T12:29:07Z</time>
      </trkpt>
      <trkpt lat="41.779" lon="9.26893">
        <ele>704.64</ele>
        <time>2021-05-07T12:29:08Z</time>
      </trkpt>
      <trkpt lat="41.779" lon="9.26894">
        <ele>770.07</ele>
        <time>2021-05-07T12:29:09Z</time>
      </trkpt>
      <trkpt lat="41.779" lon="9.26894">
        <ele>779.85</ele>
        <time>2021-05-07T12:29:10Z</time>
      </trkpt>
      <trkpt lat="41.77901" lon="9.26894">
        <ele>754.48</ele>
        <time>2021-05-07T12:29:11Z</time>
      </trkpt>
      <trkpt lat="41.77901" lon="9.26894">
        <ele>762.06</ele>
        <time>2021-05-07T12:29:12Z</time>
      </trkpt>
      <trkpt lat="41.77901" lon="9.26894">
        <ele>740.73</ele>
        <time>2021-05-07T12:29:14Z</time>
      </trkpt>
      <trkpt lat="41.77901" lon="9.26894">
        <ele>730.5</ele>
        <time>2021-05-07T12:29:15Z</time>
      </trkpt>
      <trkpt lat="41.77902" lon="9.26895">
        <ele>767.73</ele>
        <time>2021-05-07T12:29:16Z</time>
      </trkpt>
      <trkpt lat="41.77902" lon="9.26895">
        <ele>754</ele>
        <time>2021-05-07T12:29:17Z</time>
      </trkpt>
      <trkpt lat="41.77906" lon="9.26895">
        <ele>749.99</ele>
        <time>2021-05-07T12:29:21Z</time>
      </trkpt>
      <trkpt lat="41.77907" lon="9.26895">
        <ele>753.02</ele>
        <time>2021-05-07T12:29:22Z</time>
      </trkpt>
      <trkpt lat="41.77907" lon="9.26896">
        <ele>748.67</ele>
        <time>2021-05-07T12:29:23Z</time>
      </trkpt>
      <trkpt lat="41.77909" lon="9.26897">
        <ele>734.81</ele>
        <time>2021-05-07T12:29:25Z</time>
      </trkpt>
      <trkpt lat="41.77909" lon="9.26897">
        <ele>752.13</ele>
        <time>2021-05-07T12:29:26Z</time>
      </trkpt>
      <trkpt lat="41.7791" lon="9.26897">
        <ele>746.33</ele>
        <time>2021-05-07T12:29:27Z</time>
      </trkpt>
      <trkpt lat="41.7791" lon="9.26898">
        <ele>754.14</ele>
        <time>2021-05-07T12:29:28Z</time>
      </trkpt>
      <trkpt lat="41.7791" lon="9.26898">
        <ele>760.48</ele>
        <time>2021-05-07T12:29:29Z</time>
      </trkpt>
      <trkpt lat="41.7791" lon="9.26898">
        <ele>728.33</ele>
        <time>2021-05-07T12:29:30Z</time>
      </trkpt>
      <trkpt lat="41.77911" lon="9.26899">
        <ele>776.65</ele>
        <time>2021-05-07T12:29:31Z</time>
      </trkpt>
      <trkpt lat="41.77911" lon="9.269">
        <ele>767.99</ele>
        <time>2021-05-07T12:29:32Z</time>
      </trkpt>
      <trkpt lat="41.77912" lon="9.26902">
        <ele>756.78</ele>
        <time>2021-05-07T12:29:34Z</time>
      </trkpt>
      <trkpt lat="41.77913" lon="9.26904">
        <ele>756.58</ele>
        <time>2021-05-07T12:29:35Z</time>
      </trkpt>
      <trkpt lat="41.77915" lon="9.26907">
        <ele>749.55</ele>
        <time>2021-05-07T12:29:38Z</time>
      </trkpt>
      <trkpt lat="41.77917" lon="9.26908">
        <ele>745.82</ele>
        <time>2021-05-07T12:29:40Z</time>
      </trkpt>
      <trkpt lat="41.77918" lon="9.26908">
        <ele>741.99</ele>
        <time>2021-05-07T12:29:41Z</time>
      </trkpt>
      <trkpt lat="41.77919" lon="9.26909">
        <ele>758.07</ele>
        <time>2021-05-07T12:29:42Z</time>
      </trkpt>
      <trkpt lat="41.7792" lon="9.26909">
        <ele>747.64</ele>
        <time>2021-05-07T12:29:43Z</time>
      </trkpt>
      <trkpt lat="41.77923" lon="9.26909">
        <ele>751.85</ele>
        <time>2021-05-07T12:29:45Z</time>
      </trkpt>
      <trkpt lat="41.77926" lon="9.26909">
        <ele>761.38</ele>
        <time>2021-05-07T12:29:50Z</time>
      </trkpt>
      <trkpt lat="41.77926" lon="9.26909">
        <ele>754.84</ele>
        <time>2021-05-07T12:29:51Z</time>
      </trkpt>
      <trkpt lat="41.77927" lon="9.2691">
        <ele>773.19</ele>
        <time>2021-05-07T12:29:52Z</time>
      </trkpt>
      <trkpt lat="41.77928" lon="9.26912">
        <ele>756.18</ele>
        <time>2021-05-07T12:29:54Z</time>
      </trkpt>
      <trkpt lat="41.77928" lon="9.26912">
        <ele>761.69</ele>
        <time>2021-05-07T12:29:55Z</time>
      </trkpt>
      <trkpt lat="41.77929" lon="9.26913">
        <ele>755.23</ele>
        <time>2021-05-07T12:29:56Z</time>
      </trkpt>
      <trkpt lat="41.7793" lon="9.26914">
        <ele>748.54</ele>
        <time>2021-05-07T12:29:57Z</time>
      </trkpt>
      <trkpt lat="41.77931" lon="9.26914">
        <ele>759.14</ele>
        <time>2021-05-07T12:29:58Z</time>
      </trkpt>
      <trkpt lat="41.77931" lon="9.26914">
        <ele>762.58</ele>
        <time>2021-05-07T12:29:59Z</time>
      </trkpt>
      <trkpt lat="41.77932" lon="9.26914">
        <ele>752.64</ele>
        <time>2021-05-07T12:30:00Z</time>
      </trkpt>
      <trkpt lat="41.77933" lon="9.26914">
        <ele>756.91</ele>
        <time>2021-05-07T12:30:01Z</time>
      </trkpt>
      <trkpt lat="41.77935" lon="9.26915">
        <ele>752.74</ele>
        <time>2021-05-07T12:30:04Z</time>
      </trkpt>
      <trkpt lat="41.77935" lon="9.26915">
        <ele>752.7</ele>
        <time>2021-05-07T12:30:05Z</time>
      </trkpt>
      <trkpt lat="41.77936" lon="9.26914">
        <ele>743.25</ele>
        <time>2021-05-07T12:30:08Z</time>
      </trkpt>
      <trkpt lat="41.77936" lon="9.26913">
        <ele>749.54</ele>
        <time>2021-05-07T12:30:09Z</time>
      </trkpt>
      <trkpt lat="41.77935" lon="9.26913">
        <ele>746.28</ele>
        <time>2021-05-07T12:30:10Z</time>
      </trkpt>
      <trkpt lat="41.77936" lon="9.26912">
        <ele>752.78</ele>
        <time>2021-05-07T12:30:11Z</time>
      </trkpt>
      <trkpt lat="41.77936" lon="9.26911">
        <ele>761.89</ele>
        <time>2021-05-07T12:30:12Z</time>
      </trkpt>
      <trkpt lat="41.77936" lon="9.26911">
        <ele>749.16</ele>
        <time>2021-05-07T12:30:13Z</time>
      </trkpt>
      <trkpt lat="41.77937" lon="9.26911">
        <ele>755.04</ele>
        <time>2021-05-07T12:30:14Z</time>
      </trkpt>
      <trkpt lat="41.77937" lon="9.2691">
        <ele>734.3</ele>
        <time>2021-05-07T12:30:16Z</time>
      </trkpt>
      <trkpt lat="41.77937" lon="9.26909">
        <ele>755.11</ele>
        <time>2021-05-07T12:30:17Z</time>
      </trkpt>
      <trkpt lat="41.77937" lon="9.26909">
        <ele>743.23</ele>
        <time>2021-05-07T12:30:18Z</time>
      </trkpt>
      <trkpt lat="41.77937" lon="9.26908">
        <ele>757.27</ele>
        <time>2021-05-07T12:30:19Z</time>
      </trkpt>
      <trkpt lat="41.77938" lon="9.26907">
        <ele>750.9</ele>
        <time>2021-05-07T12:30:20Z</time>
      </trkpt>
      <trkpt lat="41.77939" lon="9.26907">
        <ele>756.17</ele>
        <time>2021-05-07T12:30:22Z</time>
      </trkpt>
      <trkpt lat="41.7794" lon="9.26907">
        <ele>752.7</ele>
        <time>2021-05-07T12:30:23Z</time>
      </trkpt>
      <trkpt lat="41.7794" lon="9.26907">
        <ele>747.21</ele>
        <time>2021-05-07T12:30:24Z</time>
      </trkpt>
      <trkpt lat="41.77941" lon="9.26906">
        <ele>747.18</ele>
        <time>2021-05-07T12:30:25Z</time>
      </trkpt>
      <trkpt lat="41.77942" lon="9.26906">
        <ele>753.56</ele>
        <time>2021-05-07T12:30:26Z</time>
      </trkpt>
      <trkpt lat="41.77943" lon="9.26906">
        <ele>748.53</ele>
        <time>2021-05-07T12:30:27Z</time>
      </trkpt>
      <trkpt lat="41.77944" lon="9.26905">
        <ele>744.56</ele>
        <time>2021-05-07T12:30:29Z</time>
      </trkpt>
      <trkpt lat="41.77944" lon="9.26905">
        <ele>750.69</ele>
        <time>2021-05-07T12:30:30Z</time>
      </trkpt>
      <trkpt lat="41.77945" lon="9.26905">
        <ele>746.08</ele>
        <time>2021-05-07T12:30:31Z</time>
      </trkpt>
      <trkpt lat="41.77947" lon="9.26906">
        <ele>754.08</ele>
        <time>2021-05-07T12:30:33Z</time>
      </trkpt>
      <trkpt lat="41.77947" lon="9.26906">
        <ele>749.32</ele>
        <time>2021-05-07T12:30:34Z</time>
      </trkpt>
      <trkpt lat="41.77948" lon="9.26906">
        <ele>752.94</ele>
        <time>2021-05-07T12:30:35Z</time>
      </trkpt>
      <trkpt lat="41.77949" lon="9.26907">
        <ele>743.95</ele>
        <time>2021-05-07T12:30:37Z</time>
      </trkpt>
      <trkpt lat="41.77949" lon="9.26907">
        <ele>748.92</ele>
        <time>2021-05-07T12:30:38Z</time>
      </trkpt>
      <trkpt lat="41.7795" lon="9.26908">
        <ele>714.92</ele>
        <time>2021-05-07T12:30:40Z</time>
      </trkpt>
      <trkpt lat="41.7795" lon="9.26907">
        <ele>750.86</ele>
        <time>2021-05-07T12:30:41Z</time>
      </trkpt>
      <trkpt lat="41.77951" lon="9.26907">
        <ele>754.84</ele>
        <time>2021-05-07T12:30:42Z</time>
      </trkpt>
      <trkpt lat="41.77951" lon="9.26907">
        <ele>746.64</ele>
        <time>2021-05-07T12:30:43Z</time>
      </trkpt>
      <trkpt lat="41.77951" lon="9.26908">
        <ele>749.92</ele>
        <time>2021-05-07T12:30:44Z</time>
      </trkpt>
      <trkpt lat="41.77952" lon="9.26908">
        <ele>744.06</ele>
        <time>2021-05-07T12:30:46Z</time>
      </trkpt>
      <trkpt lat="41.77953" lon="9.26908">
        <ele>744</ele>
        <time>2021-05-07T12:30:47Z</time>
      </trkpt>
      <trkpt lat="41.77953" lon="9.26908">
        <ele>748.65</ele>
        <time>2021-05-07T12:30:48Z</time>
      </trkpt>
      <trkpt lat="41.77953" lon="9.26908">
        <ele>748.39</ele>
        <time>2021-05-07T12:30:49Z</time>
      </trkpt>
      <trkpt lat="41.77954" lon="9.26908">
        <ele>744.38</ele>
        <time>2021-05-07T12:30:50Z</time>
      </trkpt>
      <trkpt lat="41.77954" lon="9.26909">
        <ele>732.93</ele>
        <time>2021-05-07T12:30:51Z</time>
      </trkpt>
      <trkpt lat="41.77955" lon="9.26909">
        <ele>739.63</ele>
        <time>2021-05-07T12:30:52Z</time>
      </trkpt>
      <trkpt lat="41.77955" lon="9.2691">
        <ele>744.99</ele>
        <time>2021-05-07T12:30:53Z</time>
      </trkpt>
      <trkpt lat="41.77956" lon="9.26911">
        <ele>746.15</ele>
        <time>2021-05-07T12:30:55Z</time>
      </trkpt>
      <trkpt lat="41.77957" lon="9.26911">
        <ele>730.94</ele>
        <time>2021-05-07T12:30:56Z</time>
      </trkpt>
      <trkpt lat="41.77957" lon="9.26911">
        <ele>741.81</ele>
        <time>2021-05-07T12:30:57Z</time>
      </trkpt>
      <trkpt lat="41.77958" lon="9.26912">
        <ele>736.21</ele>
        <time>2021-05-07T12:30:58Z</time>
      </trkpt>
      <trkpt lat="41.77958" lon="9.26913">
        <ele>738.9</ele>
        <time>2021-05-07T12:30:59Z</time>
      </trkpt>
      <trkpt lat="41.77959" lon="9.26915">
        <ele>736.86</ele>
        <time>2021-05-07T12:31:01Z</time>
      </trkpt>
      <trkpt lat="41.7796" lon="9.26916">
        <ele>736.95</ele>
        <time>2021-05-07T12:31:02Z</time>
      </trkpt>
      <trkpt lat="41.77961" lon="9.26917">
        <ele>741.1</ele>
        <time>2021-05-07T12:31:03Z</time>
      </trkpt>
      <trkpt lat="41.77962" lon="9.26918">
        <ele>735.16</ele>
        <time>2021-05-07T12:31:04Z</time>
      </trkpt>
      <trkpt lat="41.77963" lon="9.26918">
        <ele>735.26</ele>
        <time>2021-05-07T12:31:05Z</time>
      </trkpt>
      <trkpt lat="41.77963" lon="9.26919">
        <ele>741.65</ele>
        <time>2021-05-07T12:31:06Z</time>
      </trkpt>
      <trkpt lat="41.77964" lon="9.26919">
        <ele>744.84</ele>
        <time>2021-05-07T12:31:07Z</time>
      </trkpt>
      <trkpt lat="41.77965" lon="9.2692">
        <ele>744.59</ele>
        <time>2021-05-07T12:31:08Z</time>
      </trkpt>
      <trkpt lat="41.77968" lon="9.26923">
        <ele>740.6</ele>
        <time>2021-05-07T12:31:13Z</time>
      </trkpt>
      <trkpt lat="41.77969" lon="9.26924">
        <ele>746.44</ele>
        <time>2021-05-07T12:31:14Z</time>
      </trkpt>
      <trkpt lat="41.77971" lon="9.26926">
        <ele>742.33</ele>
        <time>2021-05-07T12:31:16Z</time>
      </trkpt>
      <trkpt lat="41.77972" lon="9.26927">
        <ele>742.53</ele>
        <time>2021-05-07T12:31:17Z</time>
      </trkpt>
      <trkpt lat="41.77975" lon="9.26929">
        <ele>745.64</ele>
        <time>2021-05-07T12:31:20Z</time>
      </trkpt>
      <trkpt lat="41.77975" lon="9.2693">
        <ele>745.75</ele>
        <time>2021-05-07T12:31:21Z</time>
      </trkpt>
      <trkpt lat="41.77976" lon="9.2693">
        <ele>733.78</ele>
        <time>2021-05-07T12:31:22Z</time>
      </trkpt>
      <trkpt lat="41.77976" lon="9.26931">
        <ele>747.29</ele>
        <time>2021-05-07T12:31:23Z</time>
      </trkpt>
      <trkpt lat="41.77976" lon="9.26931">
        <ele>721.86</ele>
        <time>2021-05-07T12:31:25Z</time>
      </trkpt>
      <trkpt lat="41.77976" lon="9.26931">
        <ele>735.99</ele>
        <time>2021-05-07T12:31:26Z</time>
      </trkpt>
      <trkpt lat="41.77976" lon="9.26931">
        <ele>760.91</ele>
        <time>2021-05-07T12:31:27Z</time>
      </trkpt>
      <trkpt lat="41.77976" lon="9.26931">
        <ele>757.28</ele>
        <time>2021-05-07T12:31:28Z</time>
      </trkpt>
      <trkpt lat="41.77976" lon="9.26931">
        <ele>753.41</ele>
        <time>2021-05-07T12:31:29Z</time>
      </trkpt>
      <trkpt lat="41.77976" lon="9.26931">
        <ele>747.89</ele>
        <time>2021-05-07T12:31:30Z</time>
      </trkpt>
      <trkpt lat="41.77976" lon="9.26931">
        <ele>743.13</ele>
        <time>2021-05-07T12:31:31Z</time>
      </trkpt>
      <trkpt lat="41.77976" lon="9.26931">
        <ele>736.96</ele>
        <time>2021-05-07T12:31:32Z</time>
      </trkpt>
      <trkpt lat="41.77977" lon="9.26931">
        <ele>745.88</ele>
        <time>2021-05-07T12:31:33Z</time>
      </trkpt>
      <trkpt lat="41.77977" lon="9.26931">
        <ele>740.19</ele>
        <time>2021-05-07T12:31:35Z</time>
      </trkpt>
      <trkpt lat="41.77977" lon="9.26931">
        <ele>745.51</ele>
        <time>2021-05-07T12:31:36Z</time>
      </trkpt>
      <trkpt lat="41.77977" lon="9.26931">
        <ele>752.09</ele>
        <time>2021-05-07T12:31:38Z</time>
      </trkpt>
      <trkpt lat="41.77977" lon="9.26932">
        <ele>752.08</ele>
        <time>2021-05-07T12:31:39Z</time>
      </trkpt>
      <trkpt lat="41.77977" lon="9.26932">
        <ele>747.12</ele>
        <time>2021-05-07T12:31:40Z</time>
      </trkpt>
      <trkpt lat="41.77977" lon="9.26932">
        <ele>749.54</ele>
        <time>2021-05-07T12:31:41Z</time>
      </trkpt>
      <trkpt lat="41.77977" lon="9.26932">
        <ele>743.55</ele>
        <time>2021-05-07T12:31:43Z</time>
      </trkpt>
      <trkpt lat="41.77977" lon="9.26932">
        <ele>724.29</ele>
        <time>2021-05-07T12:31:44Z</time>
      </trkpt>
      <trkpt lat="41.77977" lon="9.26932">
        <ele>734.68</ele>
        <time>2021-05-07T12:31:45Z</time>
      </trkpt>
      <trkpt lat="41.77977" lon="9.26932">
        <ele>739.47</ele>
        <time>2021-05-07T12:31:46Z</time>
      </trkpt>
      <trkpt lat="41.77977" lon="9.26932">
        <ele>752.24</ele>
        <time>2021-05-07T12:31:47Z</time>
      </trkpt>
      <trkpt lat="41.77977" lon="9.26932">
        <ele>752.24</ele>
        <time>2021-05-07T12:31:48Z</time>
      </trkpt>
      <trkpt lat="41.77977" lon="9.26932">
        <ele>739.9</ele>
        <time>2021-05-07T12:31:49Z</time>
      </trkpt>
      <trkpt lat="41.77977" lon="9.26932">
        <ele>765.35</ele>
        <time>2021-05-07T12:31:50Z</time>
      </trkpt>
      <trkpt lat="41.77977" lon="9.26932">
        <ele>761.49</ele>
        <time>2021-05-07T12:31:51Z</time>
      </trkpt>
      <trkpt lat="41.77978" lon="9.26932">
        <ele>753.88</ele>
        <time>2021-05-07T12:31:52Z</time>
      </trkpt>
      <trkpt lat="41.77978" lon="9.26932">
        <ele>750.58</ele>
        <time>2021-05-07T12:31:54Z</time>
      </trkpt>
      <trkpt lat="41.77978" lon="9.26932">
        <ele>746.27</ele>
        <time>2021-05-07T12:31:56Z</time>
      </trkpt>
      <trkpt lat="41.77978" lon="9.26932">
        <ele>746.26</ele>
        <time>2021-05-07T12:31:57Z</time>
      </trkpt>
      <trkpt lat="41.77977" lon="9.26933">
        <ele>744.09</ele>
        <time>2021-05-07T12:32:23Z</time>
      </trkpt>
      <trkpt lat="41.77976" lon="9.26933">
        <ele>744.03</ele>
        <time>2021-05-07T12:32:38Z</time>
      </trkpt>
      <trkpt lat="41.77976" lon="9.26929">
        <ele>742.78</ele>
        <time>2021-05-07T12:33:06Z</time>
      </trkpt>
      <trkpt lat="41.77977" lon="9.2692">
        <ele>740.95</ele>
        <time>2021-05-07T12:33:15Z</time>
      </trkpt>
      <trkpt lat="41.77976" lon="9.26914">
        <ele>739.62</ele>
        <time>2021-05-07T12:33:18Z</time>
      </trkpt>
      <trkpt lat="41.77975" lon="9.2691">
        <ele>737.28</ele>
        <time>2021-05-07T12:33:20Z</time>
      </trkpt>
      <trkpt lat="41.77976" lon="9.26907">
        <ele>735.94</ele>
        <time>2021-05-07T12:33:23Z</time>
      </trkpt>
      <trkpt lat="41.7798" lon="9.26907">
        <ele>734.72</ele>
        <time>2021-05-07T12:33:25Z</time>
      </trkpt>
      <trkpt lat="41.77981" lon="9.26906">
        <ele>733.78</ele>
        <time>2021-05-07T12:33:27Z</time>
      </trkpt>
      <trkpt lat="41.77978" lon="9.26902">
        <ele>731.74</ele>
        <time>2021-05-07T12:33:31Z</time>
      </trkpt>
      <trkpt lat="41.77978" lon="9.269">
        <ele>730.45</ele>
        <time>2021-05-07T12:33:32Z</time>
      </trkpt>
      <trkpt lat="41.77974" lon="9.26894">
        <ele>728.59</ele>
        <time>2021-05-07T12:33:38Z</time>
      </trkpt>
      <trkpt lat="41.77974" lon="9.2689">
        <ele>727.79</ele>
        <time>2021-05-07T12:33:42Z</time>
      </trkpt>
      <trkpt lat="41.77976" lon="9.26889">
        <ele>727.05</ele>
        <time>2021-05-07T12:33:44Z</time>
      </trkpt>
      <trkpt lat="41.77981" lon="9.26888">
        <ele>720.44</ele>
        <time>2021-05-07T12:33:48Z</time>
      </trkpt>
      <trkpt lat="41.7799" lon="9.26883">
        <ele>719.56</ele>
        <time>2021-05-07T12:33:58Z</time>
      </trkpt>
      <trkpt lat="41.77987" lon="9.26881">
        <ele>719.6</ele>
        <time>2021-05-07T12:34:02Z</time>
      </trkpt>
      <trkpt lat="41.77982" lon="9.26876">
        <ele>716.22</ele>
        <time>2021-05-07T12:34:08Z</time>
      </trkpt>
      <trkpt lat="41.77982" lon="9.26875">
        <ele>716.18</ele>
        <time>2021-05-07T12:34:09Z</time>
      </trkpt>
      <trkpt lat="41.77978" lon="9.26872">
        <ele>714.25</ele>
        <time>2021-05-07T12:34:13Z</time>
      </trkpt>
      <trkpt lat="41.77976" lon="9.26868">
        <ele>713.21</ele>
        <time>2021-05-07T12:34:17Z</time>
      </trkpt>
      <trkpt lat="41.77974" lon="9.26863">
        <ele>711.98</ele>
        <time>2021-05-07T12:34:20Z</time>
      </trkpt>
      <trkpt lat="41.7797" lon="9.2686">
        <ele>709.72</ele>
        <time>2021-05-07T12:34:23Z</time>
      </trkpt>
      <trkpt lat="41.77966" lon="9.26856">
        <ele>708.14</ele>
        <time>2021-05-07T12:34:27Z</time>
      </trkpt>
      <trkpt lat="41.77959" lon="9.26848">
        <ele>705.3</ele>
        <time>2021-05-07T12:34:34Z</time>
      </trkpt>
      <trkpt lat="41.77957" lon="9.26847">
        <ele>704.05</ele>
        <time>2021-05-07T12:34:36Z</time>
      </trkpt>
      <trkpt lat="41.77953" lon="9.26845">
        <ele>702.33</ele>
        <time>2021-05-07T12:34:39Z</time>
      </trkpt>
      <trkpt lat="41.77947" lon="9.26837">
        <ele>698.82</ele>
        <time>2021-05-07T12:34:49Z</time>
      </trkpt>
      <trkpt lat="41.77941" lon="9.26831">
        <ele>695.11</ele>
        <time>2021-05-07T12:35:00Z</time>
      </trkpt>
      <trkpt lat="41.77936" lon="9.26828">
        <ele>691.47</ele>
        <time>2021-05-07T12:35:08Z</time>
      </trkpt>
      <trkpt lat="41.77935" lon="9.26829">
        <ele>691.47</ele>
        <time>2021-05-07T12:35:09Z</time>
      </trkpt>
      <trkpt lat="41.77933" lon="9.26829">
        <ele>689.14</ele>
        <time>2021-05-07T12:35:12Z</time>
      </trkpt>
      <trkpt lat="41.77928" lon="9.26829">
        <ele>686.7</ele>
        <time>2021-05-07T12:35:16Z</time>
      </trkpt>
      <trkpt lat="41.77926" lon="9.26828">
        <ele>685.43</ele>
        <time>2021-05-07T12:35:18Z</time>
      </trkpt>
      <trkpt lat="41.77922" lon="9.26826">
        <ele>682.34</ele>
        <time>2021-05-07T12:35:23Z</time>
      </trkpt>
      <trkpt lat="41.77917" lon="9.26824">
        <ele>680.03</ele>
        <time>2021-05-07T12:35:28Z</time>
      </trkpt>
      <trkpt lat="41.77919" lon="9.26821">
        <ele>678.13</ele>
        <time>2021-05-07T12:35:32Z</time>
      </trkpt>
      <trkpt lat="41.7792" lon="9.2681">
        <ele>676.3</ele>
        <time>2021-05-07T12:35:40Z</time>
      </trkpt>
      <trkpt lat="41.77922" lon="9.26802">
        <ele>675.53</ele>
        <time>2021-05-07T12:35:43Z</time>
      </trkpt>
      <trkpt lat="41.77924" lon="9.26799">
        <ele>675.59</ele>
        <time>2021-05-07T12:35:46Z</time>
      </trkpt>
      <trkpt lat="41.77926" lon="9.26796">
        <ele>675.65</ele>
        <time>2021-05-07T12:35:51Z</time>
      </trkpt>
      <trkpt lat="41.77932" lon="9.2679">
        <ele>674.6</ele>
        <time>2021-05-07T12:36:04Z</time>
      </trkpt>
      <trkpt lat="41.77937" lon="9.26785">
        <ele>671.6</ele>
        <time>2021-05-07T12:36:11Z</time>
      </trkpt>
      <trkpt lat="41.77943" lon="9.26777">
        <ele>670.7</ele>
        <time>2021-05-07T12:36:20Z</time>
      </trkpt>
      <trkpt lat="41.77944" lon="9.26772">
        <ele>665.42</ele>
        <time>2021-05-07T12:36:24Z</time>
      </trkpt>
      <trkpt lat="41.77944" lon="9.26771">
        <ele>665.41</ele>
        <time>2021-05-07T12:36:25Z</time>
      </trkpt>
      <trkpt lat="41.7794" lon="9.26773">
        <ele>664.64</ele>
        <time>2021-05-07T12:36:30Z</time>
      </trkpt>
      <trkpt lat="41.77937" lon="9.26774">
        <ele>667.16</ele>
        <time>2021-05-07T12:36:33Z</time>
      </trkpt>
      <trkpt lat="41.77936" lon="9.26774">
        <ele>668.51</ele>
        <time>2021-05-07T12:36:36Z</time>
      </trkpt>
      <trkpt lat="41.77929" lon="9.26775">
        <ele>668.46</ele>
        <time>2021-05-07T12:36:46Z</time>
      </trkpt>
      <trkpt lat="41.77925" lon="9.26774">
        <ele>666.11</ele>
        <time>2021-05-07T12:36:49Z</time>
      </trkpt>
      <trkpt lat="41.77913" lon="9.26771">
        <ele>662.66</ele>
        <time>2021-05-07T12:37:01Z</time>
      </trkpt>
      <trkpt lat="41.77903" lon="9.26768">
        <ele>659.86</ele>
        <time>2021-05-07T12:37:10Z</time>
      </trkpt>
      <trkpt lat="41.77888" lon="9.26765">
        <ele>658.07</ele>
        <time>2021-05-07T12:37:25Z</time>
      </trkpt>
      <trkpt lat="41.77874" lon="9.26763">
        <ele>654.53</ele>
        <time>2021-05-07T12:37:38Z</time>
      </trkpt>
      <trkpt lat="41.77872" lon="9.26761">
        <ele>653.36</ele>
        <time>2021-05-07T12:37:40Z</time>
      </trkpt>
      <trkpt lat="41.77869" lon="9.26759">
        <ele>652.13</ele>
        <time>2021-05-07T12:37:43Z</time>
      </trkpt>
      <trkpt lat="41.77867" lon="9.26758">
        <ele>650.91</ele>
        <time>2021-05-07T12:37:46Z</time>
      </trkpt>
      <trkpt lat="41.77855" lon="9.26752">
        <ele>647.01</ele>
        <time>2021-05-07T12:37:56Z</time>
      </trkpt>
      <trkpt lat="41.77852" lon="9.2675">
        <ele>645.18</ele>
        <time>2021-05-07T12:37:59Z</time>
      </trkpt>
      <trkpt lat="41.77844" lon="9.26744">
        <ele>641.81</ele>
        <time>2021-05-07T12:38:07Z</time>
      </trkpt>
      <trkpt lat="41.7783" lon="9.26737">
        <ele>639.16</ele>
        <time>2021-05-07T12:38:22Z</time>
      </trkpt>
      <trkpt lat="41.7783" lon="9.26737">
        <ele>638.03</ele>
        <time>2021-05-07T12:38:23Z</time>
      </trkpt>
      <trkpt lat="41.77815" lon="9.26731">
        <ele>634.69</ele>
        <time>2021-05-07T12:38:33Z</time>
      </trkpt>
      <trkpt lat="41.7781" lon="9.26731">
        <ele>634.65</ele>
        <time>2021-05-07T12:38:38Z</time>
      </trkpt>
      <trkpt lat="41.778" lon="9.2673">
        <ele>630.45</ele>
        <time>2021-05-07T12:38:48Z</time>
      </trkpt>
      <trkpt lat="41.77799" lon="9.26729">
        <ele>630.44</ele>
        <time>2021-05-07T12:38:49Z</time>
      </trkpt>
      <trkpt lat="41.77797" lon="9.26727">
        <ele>629.59</ele>
        <time>2021-05-07T12:38:51Z</time>
      </trkpt>
      <trkpt lat="41.7778" lon="9.26725">
        <ele>627.72</ele>
        <time>2021-05-07T12:39:03Z</time>
      </trkpt>
      <trkpt lat="41.77774" lon="9.26727">
        <ele>626.85</ele>
        <time>2021-05-07T12:39:07Z</time>
      </trkpt>
      <trkpt lat="41.7777" lon="9.26729">
        <ele>625.87</ele>
        <time>2021-05-07T12:39:10Z</time>
      </trkpt>
      <trkpt lat="41.77767" lon="9.26729">
        <ele>625.86</ele>
        <time>2021-05-07T12:39:12Z</time>
      </trkpt>
      <trkpt lat="41.77754" lon="9.26729">
        <ele>623.07</ele>
        <time>2021-05-07T12:39:23Z</time>
      </trkpt>
      <trkpt lat="41.77752" lon="9.26729">
        <ele>623.06</ele>
        <time>2021-05-07T12:39:25Z</time>
      </trkpt>
      <trkpt lat="41.77746" lon="9.26726">
        <ele>623.06</ele>
        <time>2021-05-07T12:39:29Z</time>
      </trkpt>
      <trkpt lat="41.77741" lon="9.26725">
        <ele>621.97</ele>
        <time>2021-05-07T12:39:33Z</time>
      </trkpt>
      <trkpt lat="41.77723" lon="9.26721">
        <ele>621.14</ele>
        <time>2021-05-07T12:39:45Z</time>
      </trkpt>
      <trkpt lat="41.7772" lon="9.2672">
        <ele>621.14</ele>
        <time>2021-05-07T12:39:47Z</time>
      </trkpt>
      <trkpt lat="41.77705" lon="9.26721">
        <ele>620.13</ele>
        <time>2021-05-07T12:39:59Z</time>
      </trkpt>
      <trkpt lat="41.777" lon="9.26721">
        <ele>618.31</ele>
        <time>2021-05-07T12:40:03Z</time>
      </trkpt>
      <trkpt lat="41.77691" lon="9.26719">
        <ele>618.3</ele>
        <time>2021-05-07T12:40:10Z</time>
      </trkpt>
      <trkpt lat="41.7768" lon="9.26718">
        <ele>617.44</ele>
        <time>2021-05-07T12:40:17Z</time>
      </trkpt>
      <trkpt lat="41.77676" lon="9.26719">
        <ele>617.48</ele>
        <time>2021-05-07T12:40:21Z</time>
      </trkpt>
      <trkpt lat="41.77672" lon="9.2672">
        <ele>617.49</ele>
        <time>2021-05-07T12:40:24Z</time>
      </trkpt>
      <trkpt lat="41.77668" lon="9.2672">
        <ele>619.79</ele>
        <time>2021-05-07T12:40:27Z</time>
      </trkpt>
      <trkpt lat="41.77648" lon="9.26715">
        <ele>620.49</ele>
        <time>2021-05-07T12:40:40Z</time>
      </trkpt>
      <trkpt lat="41.77642" lon="9.26718">
        <ele>621.4</ele>
        <time>2021-05-07T12:40:45Z</time>
      </trkpt>
      <trkpt lat="41.77633" lon="9.26718">
        <ele>621.38</ele>
        <time>2021-05-07T12:40:51Z</time>
      </trkpt>
      <trkpt lat="41.77617" lon="9.26723">
        <ele>621.32</ele>
        <time>2021-05-07T12:41:03Z</time>
      </trkpt>
      <trkpt lat="41.77614" lon="9.26725">
        <ele>621.31</ele>
        <time>2021-05-07T12:41:05Z</time>
      </trkpt>
      <trkpt lat="41.77603" lon="9.2673">
        <ele>618.8</ele>
        <time>2021-05-07T12:41:13Z</time>
      </trkpt>
      <trkpt lat="41.77601" lon="9.26731">
        <ele>617.95</ele>
        <time>2021-05-07T12:41:15Z</time>
      </trkpt>
      <trkpt lat="41.7759" lon="9.26722">
        <ele>616.05</ele>
        <time>2021-05-07T12:41:24Z</time>
      </trkpt>
      <trkpt lat="41.77584" lon="9.26716">
        <ele>615.2</ele>
        <time>2021-05-07T12:41:29Z</time>
      </trkpt>
      <trkpt lat="41.77578" lon="9.26708">
        <ele>612.8</ele>
        <time>2021-05-07T12:41:44Z</time>
      </trkpt>
      <trkpt lat="41.77578" lon="9.26708">
        <ele>611.97</ele>
        <time>2021-05-07T12:42:02Z</time>
      </trkpt>
      <trkpt lat="41.77569" lon="9.26705">
        <ele>608.73</ele>
        <time>2021-05-07T12:42:08Z</time>
      </trkpt>
      <trkpt lat="41.77568" lon="9.26705">
        <ele>608.73</ele>
        <time>2021-05-07T12:42:09Z</time>
      </trkpt>
      <trkpt lat="41.77557" lon="9.26698">
        <ele>608.72</ele>
        <time>2021-05-07T12:42:18Z</time>
      </trkpt>
      <trkpt lat="41.77549" lon="9.26696">
        <ele>608.74</ele>
        <time>2021-05-07T12:42:24Z</time>
      </trkpt>
      <trkpt lat="41.77545" lon="9.26694">
        <ele>607.81</ele>
        <time>2021-05-07T12:42:28Z</time>
      </trkpt>
      <trkpt lat="41.77535" lon="9.26699">
        <ele>604.84</ele>
        <time>2021-05-07T12:42:35Z</time>
      </trkpt>
      <trkpt lat="41.7752" lon="9.26693">
        <ele>600.44</ele>
        <time>2021-05-07T12:42:44Z</time>
      </trkpt>
      <trkpt lat="41.77506" lon="9.26689">
        <ele>599.65</ele>
        <time>2021-05-07T12:42:56Z</time>
      </trkpt>
      <trkpt lat="41.77494" lon="9.26687">
        <ele>598.02</ele>
        <time>2021-05-07T12:43:04Z</time>
      </trkpt>
      <trkpt lat="41.77492" lon="9.26688">
        <ele>596.64</ele>
        <time>2021-05-07T12:43:06Z</time>
      </trkpt>
      <trkpt lat="41.77488" lon="9.26689">
        <ele>596.64</ele>
        <time>2021-05-07T12:43:09Z</time>
      </trkpt>
      <trkpt lat="41.77469" lon="9.26681">
        <ele>593.97</ele>
        <time>2021-05-07T12:43:22Z</time>
      </trkpt>
      <trkpt lat="41.77467" lon="9.2668">
        <ele>593.05</ele>
        <time>2021-05-07T12:43:24Z</time>
      </trkpt>
      <trkpt lat="41.77457" lon="9.26683">
        <ele>591.23</ele>
        <time>2021-05-07T12:43:33Z</time>
      </trkpt>
      <trkpt lat="41.77446" lon="9.26672">
        <ele>591.21</ele>
        <time>2021-05-07T12:43:41Z</time>
      </trkpt>
      <trkpt lat="41.77439" lon="9.26664">
        <ele>590.31</ele>
        <time>2021-05-07T12:43:46Z</time>
      </trkpt>
      <trkpt lat="41.77423" lon="9.26664">
        <ele>588.35</ele>
        <time>2021-05-07T12:43:56Z</time>
      </trkpt>
      <trkpt lat="41.77415" lon="9.26668">
        <ele>587.43</ele>
        <time>2021-05-07T12:44:05Z</time>
      </trkpt>
      <trkpt lat="41.77412" lon="9.26672">
        <ele>587.43</ele>
        <time>2021-05-07T12:44:09Z</time>
      </trkpt>
      <trkpt lat="41.77405" lon="9.26687">
        <ele>587.41</ele>
        <time>2021-05-07T12:44:21Z</time>
      </trkpt>
      <trkpt lat="41.77401" lon="9.26688">
        <ele>587.35</ele>
        <time>2021-05-07T12:44:35Z</time>
      </trkpt>
      <trkpt lat="41.774" lon="9.26686">
        <ele>586.51</ele>
        <time>2021-05-07T12:44:56Z</time>
      </trkpt>
      <trkpt lat="41.77395" lon="9.26684">
        <ele>586.49</ele>
        <time>2021-05-07T12:45:00Z</time>
      </trkpt>
      <trkpt lat="41.77385" lon="9.26683">
        <ele>583.82</ele>
        <time>2021-05-07T12:45:07Z</time>
      </trkpt>
      <trkpt lat="41.77381" lon="9.26682">
        <ele>582.54</ele>
        <time>2021-05-07T12:45:10Z</time>
      </trkpt>
      <trkpt lat="41.77374" lon="9.26679">
        <ele>579.39</ele>
        <time>2021-05-07T12:45:16Z</time>
      </trkpt>
      <trkpt lat="41.77373" lon="9.26678">
        <ele>579.34</ele>
        <time>2021-05-07T12:45:17Z</time>
      </trkpt>
      <trkpt lat="41.77368" lon="9.26678">
        <ele>578.33</ele>
        <time>2021-05-07T12:45:20Z</time>
      </trkpt>
      <trkpt lat="41.77361" lon="9.26672">
        <ele>576.41</ele>
        <time>2021-05-07T12:45:29Z</time>
      </trkpt>
      <trkpt lat="41.77358" lon="9.26672">
        <ele>576.41</ele>
        <time>2021-05-07T12:45:33Z</time>
      </trkpt>
      <trkpt lat="41.77354" lon="9.26674">
        <ele>576.38</ele>
        <time>2021-05-07T12:45:50Z</time>
      </trkpt>
      <trkpt lat="41.77354" lon="9.26674">
        <ele>576.36</ele>
        <time>2021-05-07T12:45:58Z</time>
      </trkpt>
      <trkpt lat="41.77354" lon="9.26647">
        <ele>573.47</ele>
        <time>2021-05-07T12:46:11Z</time>
      </trkpt>
      <trkpt lat="41.77356" lon="9.26642">
        <ele>573.46</ele>
        <time>2021-05-07T12:46:14Z</time>
      </trkpt>
      <trkpt lat="41.77357" lon="9.26636">
        <ele>572.41</ele>
        <time>2021-05-07T12:46:17Z</time>
      </trkpt>
      <trkpt lat="41.77358" lon="9.26628">
        <ele>570.48</ele>
        <time>2021-05-07T12:46:21Z</time>
      </trkpt>
      <trkpt lat="41.77358" lon="9.26625">
        <ele>570.49</ele>
        <time>2021-05-07T12:46:23Z</time>
      </trkpt>
      <trkpt lat="41.77358" lon="9.26623">
        <ele>569.3</ele>
        <time>2021-05-07T12:46:25Z</time>
      </trkpt>
      <trkpt lat="41.77349" lon="9.26624">
        <ele>566.36</ele>
        <time>2021-05-07T12:46:33Z</time>
      </trkpt>
      <trkpt lat="41.77345" lon="9.26626">
        <ele>564.39</ele>
        <time>2021-05-07T12:46:36Z</time>
      </trkpt>
      <trkpt lat="41.77339" lon="9.26629">
        <ele>562.78</ele>
        <time>2021-05-07T12:46:40Z</time>
      </trkpt>
      <trkpt lat="41.77332" lon="9.26633">
        <ele>560.65</ele>
        <time>2021-05-07T12:46:44Z</time>
      </trkpt>
      <trkpt lat="41.7733" lon="9.26636">
        <ele>559.6</ele>
        <time>2021-05-07T12:46:46Z</time>
      </trkpt>
      <trkpt lat="41.77319" lon="9.26646">
        <ele>556.49</ele>
        <time>2021-05-07T12:46:55Z</time>
      </trkpt>
      <trkpt lat="41.77313" lon="9.26642">
        <ele>555.33</ele>
        <time>2021-05-07T12:47:00Z</time>
      </trkpt>
      <trkpt lat="41.77311" lon="9.26645">
        <ele>554.59</ele>
        <time>2021-05-07T12:47:02Z</time>
      </trkpt>
      <trkpt lat="41.7731" lon="9.26653">
        <ele>553.63</ele>
        <time>2021-05-07T12:47:06Z</time>
      </trkpt>
      <trkpt lat="41.77303" lon="9.26669">
        <ele>550.87</ele>
        <time>2021-05-07T12:47:15Z</time>
      </trkpt>
      <trkpt lat="41.77292" lon="9.26688">
        <ele>547.62</ele>
        <time>2021-05-07T12:47:28Z</time>
      </trkpt>
      <trkpt lat="41.77292" lon="9.26688">
        <ele>547.62</ele>
        <time>2021-05-07T12:47:29Z</time>
      </trkpt>
      <trkpt lat="41.77286" lon="9.26702">
        <ele>544.74</ele>
        <time>2021-05-07T12:47:38Z</time>
      </trkpt>
      <trkpt lat="41.77278" lon="9.26715">
        <ele>542.6</ele>
        <time>2021-05-07T12:47:47Z</time>
      </trkpt>
      <trkpt lat="41.77275" lon="9.26725">
        <ele>542.58</ele>
        <time>2021-05-07T12:47:52Z</time>
      </trkpt>
      <trkpt lat="41.77266" lon="9.26736">
        <ele>540.44</ele>
        <time>2021-05-07T12:48:00Z</time>
      </trkpt>
      <trkpt lat="41.77256" lon="9.26744">
        <ele>537.67</ele>
        <time>2021-05-07T12:48:12Z</time>
      </trkpt>
      <trkpt lat="41.77255" lon="9.2674">
        <ele>537.66</ele>
        <time>2021-05-07T12:48:28Z</time>
      </trkpt>
      <trkpt lat="41.77255" lon="9.26758">
        <ele>535.11</ele>
        <time>2021-05-07T12:48:40Z</time>
      </trkpt>
      <trkpt lat="41.77258" lon="9.26774">
        <ele>532.34</ele>
        <time>2021-05-07T12:48:49Z</time>
      </trkpt>
      <trkpt lat="41.77261" lon="9.26785">
        <ele>529.57</ele>
        <time>2021-05-07T12:48:55Z</time>
      </trkpt>
      <trkpt lat="41.77261" lon="9.26789">
        <ele>528.56</ele>
        <time>2021-05-07T12:48:57Z</time>
      </trkpt>
      <trkpt lat="41.77256" lon="9.26793">
        <ele>527.63</ele>
        <time>2021-05-07T12:49:01Z</time>
      </trkpt>
      <trkpt lat="41.77254" lon="9.26795">
        <ele>526.38</ele>
        <time>2021-05-07T12:49:03Z</time>
      </trkpt>
      <trkpt lat="41.77254" lon="9.26799">
        <ele>525.62</ele>
        <time>2021-05-07T12:49:05Z</time>
      </trkpt>
      <trkpt lat="41.77247" lon="9.26808">
        <ele>522.91</ele>
        <time>2021-05-07T12:49:13Z</time>
      </trkpt>
      <trkpt lat="41.77241" lon="9.26806">
        <ele>521.83</ele>
        <time>2021-05-07T12:49:17Z</time>
      </trkpt>
      <trkpt lat="41.77225" lon="9.26796">
        <ele>517.61</ele>
        <time>2021-05-07T12:49:29Z</time>
      </trkpt>
      <trkpt lat="41.77223" lon="9.26796">
        <ele>517.65</ele>
        <time>2021-05-07T12:49:30Z</time>
      </trkpt>
      <trkpt lat="41.77212" lon="9.26798">
        <ele>516.84</ele>
        <time>2021-05-07T12:49:37Z</time>
      </trkpt>
      <trkpt lat="41.77202" lon="9.26797">
        <ele>516.02</ele>
        <time>2021-05-07T12:49:43Z</time>
      </trkpt>
      <trkpt lat="41.77179" lon="9.26806">
        <ele>513.33</ele>
        <time>2021-05-07T12:49:58Z</time>
      </trkpt>
      <trkpt lat="41.77176" lon="9.26807">
        <ele>513.33</ele>
        <time>2021-05-07T12:50:00Z</time>
      </trkpt>
      <trkpt lat="41.77169" lon="9.26807">
        <ele>512.28</ele>
        <time>2021-05-07T12:50:06Z</time>
      </trkpt>
      <trkpt lat="41.77164" lon="9.2681">
        <ele>510.71</ele>
        <time>2021-05-07T12:50:11Z</time>
      </trkpt>
      <trkpt lat="41.77163" lon="9.26812">
        <ele>509.69</ele>
        <time>2021-05-07T12:50:13Z</time>
      </trkpt>
      <trkpt lat="41.7716" lon="9.26814">
        <ele>508.32</ele>
        <time>2021-05-07T12:50:16Z</time>
      </trkpt>
      <trkpt lat="41.77154" lon="9.26812">
        <ele>505.53</ele>
        <time>2021-05-07T12:50:21Z</time>
      </trkpt>
      <trkpt lat="41.7714" lon="9.26824">
        <ele>502.77</ele>
        <time>2021-05-07T12:50:33Z</time>
      </trkpt>
      <trkpt lat="41.77133" lon="9.26819">
        <ele>500.96</ele>
        <time>2021-05-07T12:50:38Z</time>
      </trkpt>
      <trkpt lat="41.77129" lon="9.26813">
        <ele>498.19</ele>
        <time>2021-05-07T12:50:42Z</time>
      </trkpt>
      <trkpt lat="41.77129" lon="9.26812">
        <ele>497.35</ele>
        <time>2021-05-07T12:50:43Z</time>
      </trkpt>
      <trkpt lat="41.7712" lon="9.26813">
        <ele>494.48</ele>
        <time>2021-05-07T12:50:52Z</time>
      </trkpt>
      <trkpt lat="41.77111" lon="9.26819">
        <ele>491.38</ele>
        <time>2021-05-07T12:51:00Z</time>
      </trkpt>
      <trkpt lat="41.77106" lon="9.26814">
        <ele>488.7</ele>
        <time>2021-05-07T12:51:07Z</time>
      </trkpt>
      <trkpt lat="41.77105" lon="9.26808">
        <ele>487.25</ele>
        <time>2021-05-07T12:51:11Z</time>
      </trkpt>
      <trkpt lat="41.77099" lon="9.26811">
        <ele>485.95</ele>
        <time>2021-05-07T12:51:16Z</time>
      </trkpt>
      <trkpt lat="41.77095" lon="9.26813">
        <ele>485.08</ele>
        <time>2021-05-07T12:51:20Z</time>
      </trkpt>
      <trkpt lat="41.7709" lon="9.26812">
        <ele>484.36</ele>
        <time>2021-05-07T12:51:23Z</time>
      </trkpt>
      <trkpt lat="41.77088" lon="9.26813">
        <ele>482.87</ele>
        <time>2021-05-07T12:51:25Z</time>
      </trkpt>
      <trkpt lat="41.77083" lon="9.26814">
        <ele>481.53</ele>
        <time>2021-05-07T12:51:29Z</time>
      </trkpt>
      <trkpt lat="41.7708" lon="9.26817">
        <ele>480.13</ele>
        <time>2021-05-07T12:51:32Z</time>
      </trkpt>
      <trkpt lat="41.77073" lon="9.26825">
        <ele>478.8</ele>
        <time>2021-05-07T12:51:39Z</time>
      </trkpt>
      <trkpt lat="41.77076" lon="9.2684">
        <ele>475.15</ele>
        <time>2021-05-07T12:51:50Z</time>
      </trkpt>
      <trkpt lat="41.77066" lon="9.26844">
        <ele>473.41</ele>
        <time>2021-05-07T12:52:00Z</time>
      </trkpt>
      <trkpt lat="41.77054" lon="9.26844">
        <ele>470.12</ele>
        <time>2021-05-07T12:52:10Z</time>
      </trkpt>
      <trkpt lat="41.77054" lon="9.26845">
        <ele>469.9</ele>
        <time>2021-05-07T12:52:11Z</time>
      </trkpt>
      <trkpt lat="41.77057" lon="9.2685">
        <ele>467.92</ele>
        <time>2021-05-07T12:52:16Z</time>
      </trkpt>
      <trkpt lat="41.77061" lon="9.26855">
        <ele>467.02</ele>
        <time>2021-05-07T12:52:20Z</time>
      </trkpt>
      <trkpt lat="41.77072" lon="9.26871">
        <ele>464.35</ele>
        <time>2021-05-07T12:52:32Z</time>
      </trkpt>
      <trkpt lat="41.77076" lon="9.26878">
        <ele>463.62</ele>
        <time>2021-05-07T12:52:37Z</time>
      </trkpt>
      <trkpt lat="41.77084" lon="9.26895">
        <ele>463.67</ele>
        <time>2021-05-07T12:52:48Z</time>
      </trkpt>
      <trkpt lat="41.77086" lon="9.26897">
        <ele>462.55</ele>
        <time>2021-05-07T12:52:50Z</time>
      </trkpt>
      <trkpt lat="41.77091" lon="9.26899">
        <ele>460.69</ele>
        <time>2021-05-07T12:52:54Z</time>
      </trkpt>
      <trkpt lat="41.77091" lon="9.26902">
        <ele>460.68</ele>
        <time>2021-05-07T12:52:56Z</time>
      </trkpt>
      <trkpt lat="41.77079" lon="9.26905">
        <ele>458.7</ele>
        <time>2021-05-07T12:53:07Z</time>
      </trkpt>
      <trkpt lat="41.77075" lon="9.26907">
        <ele>455.58</ele>
        <time>2021-05-07T12:53:11Z</time>
      </trkpt>
      <trkpt lat="41.77068" lon="9.26902">
        <ele>453.97</ele>
        <time>2021-05-07T12:53:18Z</time>
      </trkpt>
      <trkpt lat="41.77053" lon="9.26902">
        <ele>451.03</ele>
        <time>2021-05-07T12:53:32Z</time>
      </trkpt>
      <trkpt lat="41.77038" lon="9.26901">
        <ele>448.03</ele>
        <time>2021-05-07T12:53:46Z</time>
      </trkpt>
      <trkpt lat="41.77027" lon="9.26898">
        <ele>445.22</ele>
        <time>2021-05-07T12:54:00Z</time>
      </trkpt>
      <trkpt lat="41.77021" lon="9.26895">
        <ele>443.48</ele>
        <time>2021-05-07T12:54:05Z</time>
      </trkpt>
      <trkpt lat="41.77007" lon="9.26897">
        <ele>440.84</ele>
        <time>2021-05-07T12:54:18Z</time>
      </trkpt>
      <trkpt lat="41.77005" lon="9.269">
        <ele>440.06</ele>
        <time>2021-05-07T12:54:22Z</time>
      </trkpt>
      <trkpt lat="41.77001" lon="9.26907">
        <ele>439.14</ele>
        <time>2021-05-07T12:54:27Z</time>
      </trkpt>
      <trkpt lat="41.76998" lon="9.2691">
        <ele>438.1</ele>
        <time>2021-05-07T12:54:30Z</time>
      </trkpt>
      <trkpt lat="41.76997" lon="9.26924">
        <ele>435</ele>
        <time>2021-05-07T12:54:40Z</time>
      </trkpt>
      <trkpt lat="41.76996" lon="9.26926">
        <ele>435.02</ele>
        <time>2021-05-07T12:54:43Z</time>
      </trkpt>
      <trkpt lat="41.76991" lon="9.26928">
        <ele>434.3</ele>
        <time>2021-05-07T12:54:48Z</time>
      </trkpt>
      <trkpt lat="41.76989" lon="9.26925">
        <ele>434.5</ele>
        <time>2021-05-07T12:54:51Z</time>
      </trkpt>
      <trkpt lat="41.76981" lon="9.26925">
        <ele>432.57</ele>
        <time>2021-05-07T12:54:57Z</time>
      </trkpt>
      <trkpt lat="41.76973" lon="9.26926">
        <ele>431.87</ele>
        <time>2021-05-07T12:55:05Z</time>
      </trkpt>
      <trkpt lat="41.76968" lon="9.26924">
        <ele>431.01</ele>
        <time>2021-05-07T12:55:10Z</time>
      </trkpt>
      <trkpt lat="41.76958" lon="9.26919">
        <ele>428.31</ele>
        <time>2021-05-07T12:55:22Z</time>
      </trkpt>
      <trkpt lat="41.76952" lon="9.2692">
        <ele>424.85</ele>
        <time>2021-05-07T12:55:34Z</time>
      </trkpt>
      <trkpt lat="41.76952" lon="9.26923">
        <ele>424</ele>
        <time>2021-05-07T12:55:55Z</time>
      </trkpt>
      <trkpt lat="41.76949" lon="9.2692">
        <ele>427.43</ele>
        <time>2021-05-07T12:56:19Z</time>
      </trkpt>
      <trkpt lat="41.76949" lon="9.2692">
        <ele>427.41</ele>
        <time>2021-05-07T12:56:20Z</time>
      </trkpt>
      <trkpt lat="41.76948" lon="9.2692">
        <ele>425.01</ele>
        <time>2021-05-07T12:56:33Z</time>
      </trkpt>
      <trkpt lat="41.76945" lon="9.26919">
        <ele>427.24</ele>
        <time>2021-05-07T12:57:06Z</time>
      </trkpt>
      <trkpt lat="41.76945" lon="9.26918">
        <ele>424.19</ele>
        <time>2021-05-07T12:57:12Z</time>
      </trkpt>
      <trkpt lat="41.76945" lon="9.26918">
        <ele>424.19</ele>
        <time>2021-05-07T12:57:13Z</time>
      </trkpt>
      <trkpt lat="41.76946" lon="9.26919">
        <ele>427.27</ele>
        <time>2021-05-07T12:57:15Z</time>
      </trkpt>
      <trkpt lat="41.76946" lon="9.26918">
        <ele>427.27</ele>
        <time>2021-05-07T12:57:16Z</time>
      </trkpt>
      <trkpt lat="41.76946" lon="9.26917">
        <ele>430.56</ele>
        <time>2021-05-07T12:57:18Z</time>
      </trkpt>
      <trkpt lat="41.76946" lon="9.26917">
        <ele>426.92</ele>
        <time>2021-05-07T12:57:19Z</time>
      </trkpt>
      <trkpt lat="41.76946" lon="9.26918">
        <ele>429.95</ele>
        <time>2021-05-07T12:57:21Z</time>
      </trkpt>
      <trkpt lat="41.76947" lon="9.26917">
        <ele>427.53</ele>
        <time>2021-05-07T12:57:26Z</time>
      </trkpt>
      <trkpt lat="41.76947" lon="9.26919">
        <ele>427.45</ele>
        <time>2021-05-07T12:57:34Z</time>
      </trkpt>
      <trkpt lat="41.76942" lon="9.26909">
        <ele>426.39</ele>
        <time>2021-05-07T12:58:04Z</time>
      </trkpt>
      <trkpt lat="41.76947" lon="9.26911">
        <ele>422.93</ele>
        <time>2021-05-07T12:58:25Z</time>
      </trkpt>
      <trkpt lat="41.76949" lon="9.26912">
        <ele>425.37</ele>
        <time>2021-05-07T12:58:34Z</time>
      </trkpt>
      <trkpt lat="41.76951" lon="9.26911">
        <ele>425.37</ele>
        <time>2021-05-07T12:59:00Z</time>
      </trkpt>
      <trkpt lat="41.76951" lon="9.26912">
        <ele>425.39</ele>
        <time>2021-05-07T12:59:39Z</time>
      </trkpt>
      <trkpt lat="41.76955" lon="9.26909">
        <ele>425.49</ele>
        <time>2021-05-07T13:00:05Z</time>
      </trkpt>
      <trkpt lat="41.76955" lon="9.26909">
        <ele>427.09</ele>
        <time>2021-05-07T13:00:34Z</time>
      </trkpt>
      <trkpt lat="41.76954" lon="9.26905">
        <ele>429.57</ele>
        <time>2021-05-07T13:01:04Z</time>
      </trkpt>
      <trkpt lat="41.76953" lon="9.26904">
        <ele>427.26</ele>
        <time>2021-05-07T13:01:22Z</time>
      </trkpt>
      <trkpt lat="41.76955" lon="9.26895">
        <ele>425.75</ele>
        <time>2021-05-07T13:01:57Z</time>
      </trkpt>
      <trkpt lat="41.76952" lon="9.26904">
        <ele>425.93</ele>
        <time>2021-05-07T13:02:35Z</time>
      </trkpt>
      <trkpt lat="41.76953" lon="9.26909">
        <ele>425.95</ele>
        <time>2021-05-07T13:03:01Z</time>
      </trkpt>
      <trkpt lat="41.76961" lon="9.26919">
        <ele>426.02</ele>
        <time>2021-05-07T13:03:28Z</time>
      </trkpt>
      <trkpt lat="41.7696" lon="9.26919">
        <ele>419.25</ele>
        <time>2021-05-07T13:03:33Z</time>
      </trkpt>
      <trkpt lat="41.7696" lon="9.2692">
        <ele>419.25</ele>
        <time>2021-05-07T13:03:34Z</time>
      </trkpt>
      <trkpt lat="41.7696" lon="9.2692">
        <ele>427.1</ele>
        <time>2021-05-07T13:03:35Z</time>
      </trkpt>
      <trkpt lat="41.76961" lon="9.26921">
        <ele>427.11</ele>
        <time>2021-05-07T13:03:36Z</time>
      </trkpt>
      <trkpt lat="41.76959" lon="9.2692">
        <ele>424.35</ele>
        <time>2021-05-07T13:03:40Z</time>
      </trkpt>
      <trkpt lat="41.76957" lon="9.2692">
        <ele>427.14</ele>
        <time>2021-05-07T13:03:48Z</time>
      </trkpt>
      <trkpt lat="41.76956" lon="9.26919">
        <ele>428.72</ele>
        <time>2021-05-07T13:03:50Z</time>
      </trkpt>
      <trkpt lat="41.76956" lon="9.26919">
        <ele>426.35</ele>
        <time>2021-05-07T13:03:53Z</time>
      </trkpt>
      <trkpt lat="41.76954" lon="9.26919">
        <ele>424</ele>
        <time>2021-05-07T13:04:02Z</time>
      </trkpt>
      <trkpt lat="41.76951" lon="9.26919">
        <ele>422.64</ele>
        <time>2021-05-07T13:04:31Z</time>
      </trkpt>
      <trkpt lat="41.76952" lon="9.26918">
        <ele>425.89</ele>
        <time>2021-05-07T13:04:51Z</time>
      </trkpt>
      <trkpt lat="41.76952" lon="9.26918">
        <ele>425.89</ele>
        <time>2021-05-07T13:04:52Z</time>
      </trkpt>
      <trkpt lat="41.76954" lon="9.2692">
        <ele>423.45</ele>
        <time>2021-05-07T13:04:59Z</time>
      </trkpt>
      <trkpt lat="41.76954" lon="9.2692">
        <ele>422.17</ele>
        <time>2021-05-07T13:05:01Z</time>
      </trkpt>
      <trkpt lat="41.76953" lon="9.2692">
        <ele>423.23</ele>
        <time>2021-05-07T13:05:17Z</time>
      </trkpt>
      <trkpt lat="41.76954" lon="9.26921">
        <ele>426.94</ele>
        <time>2021-05-07T13:05:24Z</time>
      </trkpt>
      <trkpt lat="41.76954" lon="9.26921">
        <ele>427.09</ele>
        <time>2021-05-07T13:05:25Z</time>
      </trkpt>
      <trkpt lat="41.76955" lon="9.26921">
        <ele>424.77</ele>
        <time>2021-05-07T13:05:28Z</time>
      </trkpt>
      <trkpt lat="41.76955" lon="9.26921">
        <ele>424.77</ele>
        <time>2021-05-07T13:05:29Z</time>
      </trkpt>
      <trkpt lat="41.76949" lon="9.2692">
        <ele>423.95</ele>
        <time>2021-05-07T13:05:58Z</time>
      </trkpt>
      <trkpt lat="41.76947" lon="9.26921">
        <ele>421.53</ele>
        <time>2021-05-07T13:06:22Z</time>
      </trkpt>
      <trkpt lat="41.76947" lon="9.26925">
        <ele>423.98</ele>
        <time>2021-05-07T13:06:30Z</time>
      </trkpt>
      <trkpt lat="41.76942" lon="9.26931">
        <ele>424.93</ele>
        <time>2021-05-07T13:06:47Z</time>
      </trkpt>
      <trkpt lat="41.76941" lon="9.26931">
        <ele>422.42</ele>
        <time>2021-05-07T13:06:52Z</time>
      </trkpt>
      <trkpt lat="41.76932" lon="9.26929">
        <ele>420.91</ele>
        <time>2021-05-07T13:07:08Z</time>
      </trkpt>
      <trkpt lat="41.76919" lon="9.26922">
        <ele>420.92</ele>
        <time>2021-05-07T13:07:25Z</time>
      </trkpt>
      <trkpt lat="41.76916" lon="9.26922">
        <ele>423.36</ele>
        <time>2021-05-07T13:07:41Z</time>
      </trkpt>
      <trkpt lat="41.76906" lon="9.26925">
        <ele>425.83</ele>
        <time>2021-05-07T13:07:58Z</time>
      </trkpt>
      <trkpt lat="41.76897" lon="9.2693">
        <ele>425.75</ele>
        <time>2021-05-07T13:08:15Z</time>
      </trkpt>
      <trkpt lat="41.76891" lon="9.26933">
        <ele>429.43</ele>
        <time>2021-05-07T13:08:28Z</time>
      </trkpt>
      <trkpt lat="41.76878" lon="9.26935">
        <ele>431.71</ele>
        <time>2021-05-07T13:08:47Z</time>
      </trkpt>
      <trkpt lat="41.76876" lon="9.26936">
        <ele>432.71</ele>
        <time>2021-05-07T13:08:52Z</time>
      </trkpt>
      <trkpt lat="41.76875" lon="9.26935">
        <ele>433.51</ele>
        <time>2021-05-07T13:08:55Z</time>
      </trkpt>
      <trkpt lat="41.76854" lon="9.26931">
        <ele>431.04</ele>
        <time>2021-05-07T13:09:10Z</time>
      </trkpt>
      <trkpt lat="41.76845" lon="9.26928">
        <ele>430.09</ele>
        <time>2021-05-07T13:09:15Z</time>
      </trkpt>
      <trkpt lat="41.76837" lon="9.2693">
        <ele>428.3</ele>
        <time>2021-05-07T13:09:21Z</time>
      </trkpt>
      <trkpt lat="41.76826" lon="9.26926">
        <ele>428.33</ele>
        <time>2021-05-07T13:09:28Z</time>
      </trkpt>
      <trkpt lat="41.76824" lon="9.26925">
        <ele>430.96</ele>
        <time>2021-05-07T13:09:30Z</time>
      </trkpt>
      <trkpt lat="41.76813" lon="9.26924">
        <ele>427.91</ele>
        <time>2021-05-07T13:09:38Z</time>
      </trkpt>
      <trkpt lat="41.76811" lon="9.26923">
        <ele>426.84</ele>
        <time>2021-05-07T13:09:40Z</time>
      </trkpt>
      <trkpt lat="41.76808" lon="9.26921">
        <ele>425.46</ele>
        <time>2021-05-07T13:09:42Z</time>
      </trkpt>
      <trkpt lat="41.76805" lon="9.2692">
        <ele>423.49</ele>
        <time>2021-05-07T13:09:45Z</time>
      </trkpt>
      <trkpt lat="41.76794" lon="9.26917">
        <ele>417.65</ele>
        <time>2021-05-07T13:09:53Z</time>
      </trkpt>
      <trkpt lat="41.76792" lon="9.26917">
        <ele>422.09</ele>
        <time>2021-05-07T13:09:54Z</time>
      </trkpt>
      <trkpt lat="41.76774" lon="9.26912">
        <ele>423.16</ele>
        <time>2021-05-07T13:10:05Z</time>
      </trkpt>
      <trkpt lat="41.76769" lon="9.26914">
        <ele>423.16</ele>
        <time>2021-05-07T13:10:09Z</time>
      </trkpt>
      <trkpt lat="41.76763" lon="9.26913">
        <ele>423.14</ele>
        <time>2021-05-07T13:10:14Z</time>
      </trkpt>
      <trkpt lat="41.7674" lon="9.2691">
        <ele>420.6</ele>
        <time>2021-05-07T13:10:29Z</time>
      </trkpt>
      <trkpt lat="41.76718" lon="9.26907">
        <ele>419.49</ele>
        <time>2021-05-07T13:10:43Z</time>
      </trkpt>
      <trkpt lat="41.76704" lon="9.26906">
        <ele>417.58</ele>
        <time>2021-05-07T13:10:52Z</time>
      </trkpt>
      <trkpt lat="41.76682" lon="9.26902">
        <ele>414.87</ele>
        <time>2021-05-07T13:11:08Z</time>
      </trkpt>
      <trkpt lat="41.7668" lon="9.26901">
        <ele>414.91</ele>
        <time>2021-05-07T13:11:10Z</time>
      </trkpt>
      <trkpt lat="41.76672" lon="9.26899">
        <ele>414.93</ele>
        <time>2021-05-07T13:11:18Z</time>
      </trkpt>
      <trkpt lat="41.76665" lon="9.26895">
        <ele>412.82</ele>
        <time>2021-05-07T13:11:24Z</time>
      </trkpt>
      <trkpt lat="41.76663" lon="9.26895">
        <ele>411.77</ele>
        <time>2021-05-07T13:11:25Z</time>
      </trkpt>
      <trkpt lat="41.76652" lon="9.26898">
        <ele>409.38</ele>
        <time>2021-05-07T13:11:33Z</time>
      </trkpt>
      <trkpt lat="41.76651" lon="9.26899">
        <ele>408.48</ele>
        <time>2021-05-07T13:11:34Z</time>
      </trkpt>
      <trkpt lat="41.76641" lon="9.26909">
        <ele>405.69</ele>
        <time>2021-05-07T13:11:44Z</time>
      </trkpt>
      <trkpt lat="41.76632" lon="9.26905">
        <ele>403.1</ele>
        <time>2021-05-07T13:11:53Z</time>
      </trkpt>
      <trkpt lat="41.76622" lon="9.26913">
        <ele>401</ele>
        <time>2021-05-07T13:12:06Z</time>
      </trkpt>
      <trkpt lat="41.76612" lon="9.26918">
        <ele>400.11</ele>
        <time>2021-05-07T13:12:19Z</time>
      </trkpt>
      <trkpt lat="41.76598" lon="9.26925">
        <ele>398.21</ele>
        <time>2021-05-07T13:12:32Z</time>
      </trkpt>
      <trkpt lat="41.76587" lon="9.26944">
        <ele>398.23</ele>
        <time>2021-05-07T13:12:45Z</time>
      </trkpt>
      <trkpt lat="41.76581" lon="9.26956">
        <ele>398.25</ele>
        <time>2021-05-07T13:12:54Z</time>
      </trkpt>
      <trkpt lat="41.76571" lon="9.26966">
        <ele>398.27</ele>
        <time>2021-05-07T13:13:03Z</time>
      </trkpt>
      <trkpt lat="41.76558" lon="9.26981">
        <ele>398.31</ele>
        <time>2021-05-07T13:13:14Z</time>
      </trkpt>
      <trkpt lat="41.7655" lon="9.26989">
        <ele>398.31</ele>
        <time>2021-05-07T13:13:22Z</time>
      </trkpt>
      <trkpt lat="41.7654" lon="9.26999">
        <ele>398.33</ele>
        <time>2021-05-07T13:13:30Z</time>
      </trkpt>
      <trkpt lat="41.76531" lon="9.27005">
        <ele>396.95</ele>
        <time>2021-05-07T13:13:34Z</time>
      </trkpt>
      <trkpt lat="41.76523" lon="9.27009">
        <ele>395.72</ele>
        <time>2021-05-07T13:13:39Z</time>
      </trkpt>
      <trkpt lat="41.76517" lon="9.27013">
        <ele>395.78</ele>
        <time>2021-05-07T13:13:44Z</time>
      </trkpt>
      <trkpt lat="41.76511" lon="9.27024">
        <ele>394.72</ele>
        <time>2021-05-07T13:13:49Z</time>
      </trkpt>
      <trkpt lat="41.76506" lon="9.27031">
        <ele>394.77</ele>
        <time>2021-05-07T13:13:54Z</time>
      </trkpt>
      <trkpt lat="41.76505" lon="9.27034">
        <ele>394.8</ele>
        <time>2021-05-07T13:13:56Z</time>
      </trkpt>
      <trkpt lat="41.76496" lon="9.27042">
        <ele>394.89</ele>
        <time>2021-05-07T13:14:04Z</time>
      </trkpt>
      <trkpt lat="41.76494" lon="9.27046">
        <ele>394.9</ele>
        <time>2021-05-07T13:14:07Z</time>
      </trkpt>
      <trkpt lat="41.76478" lon="9.27056">
        <ele>394.97</ele>
        <time>2021-05-07T13:14:19Z</time>
      </trkpt>
      <trkpt lat="41.76473" lon="9.27064">
        <ele>394.15</ele>
        <time>2021-05-07T13:14:26Z</time>
      </trkpt>
      <trkpt lat="41.7647" lon="9.27066">
        <ele>394.14</ele>
        <time>2021-05-07T13:14:28Z</time>
      </trkpt>
      <trkpt lat="41.76454" lon="9.27069">
        <ele>393.42</ele>
        <time>2021-05-07T13:14:40Z</time>
      </trkpt>
      <trkpt lat="41.76451" lon="9.27071">
        <ele>393.42</ele>
        <time>2021-05-07T13:14:42Z</time>
      </trkpt>
      <trkpt lat="41.76445" lon="9.27075">
        <ele>393.48</ele>
        <time>2021-05-07T13:14:46Z</time>
      </trkpt>
      <trkpt lat="41.7644" lon="9.27081">
        <ele>393.51</ele>
        <time>2021-05-07T13:14:50Z</time>
      </trkpt>
      <trkpt lat="41.76432" lon="9.27085">
        <ele>393.51</ele>
        <time>2021-05-07T13:14:56Z</time>
      </trkpt>
      <trkpt lat="41.76427" lon="9.27087">
        <ele>393.53</ele>
        <time>2021-05-07T13:15:01Z</time>
      </trkpt>
      <trkpt lat="41.76414" lon="9.27097">
        <ele>392.02</ele>
        <time>2021-05-07T13:15:11Z</time>
      </trkpt>
      <trkpt lat="41.76409" lon="9.27102">
        <ele>390.05</ele>
        <time>2021-05-07T13:15:15Z</time>
      </trkpt>
      <trkpt lat="41.76405" lon="9.27108">
        <ele>390.08</ele>
        <time>2021-05-07T13:15:19Z</time>
      </trkpt>
      <trkpt lat="41.76395" lon="9.27115">
        <ele>390.17</ele>
        <time>2021-05-07T13:15:25Z</time>
      </trkpt>
      <trkpt lat="41.76387" lon="9.2712">
        <ele>390.23</ele>
        <time>2021-05-07T13:15:29Z</time>
      </trkpt>
      <trkpt lat="41.76381" lon="9.27124">
        <ele>390.29</ele>
        <time>2021-05-07T13:15:34Z</time>
      </trkpt>
      <trkpt lat="41.76367" lon="9.27131">
        <ele>388.67</ele>
        <time>2021-05-07T13:15:46Z</time>
      </trkpt>
      <trkpt lat="41.76358" lon="9.27135">
        <ele>387.9</ele>
        <time>2021-05-07T13:15:53Z</time>
      </trkpt>
      <trkpt lat="41.76348" lon="9.27149">
        <ele>387.94</ele>
        <time>2021-05-07T13:16:05Z</time>
      </trkpt>
      <trkpt lat="41.76347" lon="9.2715">
        <ele>387.16</ele>
        <time>2021-05-07T13:16:06Z</time>
      </trkpt>
      <trkpt lat="41.76342" lon="9.27152">
        <ele>387.16</ele>
        <time>2021-05-07T13:16:11Z</time>
      </trkpt>
      <trkpt lat="41.76335" lon="9.27152">
        <ele>387.17</ele>
        <time>2021-05-07T13:16:16Z</time>
      </trkpt>
      <trkpt lat="41.76331" lon="9.27153">
        <ele>387.17</ele>
        <time>2021-05-07T13:16:19Z</time>
      </trkpt>
      <trkpt lat="41.76309" lon="9.27153">
        <ele>385.6</ele>
        <time>2021-05-07T13:16:31Z</time>
      </trkpt>
      <trkpt lat="41.76297" lon="9.27154">
        <ele>384.64</ele>
        <time>2021-05-07T13:16:40Z</time>
      </trkpt>
      <trkpt lat="41.76287" lon="9.27154">
        <ele>383.82</ele>
        <time>2021-05-07T13:16:47Z</time>
      </trkpt>
      <trkpt lat="41.76272" lon="9.27161">
        <ele>380.25</ele>
        <time>2021-05-07T13:16:58Z</time>
      </trkpt>
      <trkpt lat="41.7627" lon="9.27162">
        <ele>380.22</ele>
        <time>2021-05-07T13:16:59Z</time>
      </trkpt>
      <trkpt lat="41.7626" lon="9.27164">
        <ele>379.16</ele>
        <time>2021-05-07T13:17:05Z</time>
      </trkpt>
      <trkpt lat="41.76245" lon="9.27169">
        <ele>379.34</ele>
        <time>2021-05-07T13:17:16Z</time>
      </trkpt>
      <trkpt lat="41.7623" lon="9.27171">
        <ele>379.42</ele>
        <time>2021-05-07T13:17:24Z</time>
      </trkpt>
      <trkpt lat="41.76208" lon="9.2716">
        <ele>379.47</ele>
        <time>2021-05-07T13:17:33Z</time>
      </trkpt>
      <trkpt lat="41.76196" lon="9.27153">
        <ele>376.24</ele>
        <time>2021-05-07T13:17:41Z</time>
      </trkpt>
      <trkpt lat="41.76195" lon="9.27153">
        <ele>376.21</ele>
        <time>2021-05-07T13:17:42Z</time>
      </trkpt>
      <trkpt lat="41.76192" lon="9.27155">
        <ele>374.29</ele>
        <time>2021-05-07T13:17:46Z</time>
      </trkpt>
      <trkpt lat="41.76189" lon="9.27156">
        <ele>373.46</ele>
        <time>2021-05-07T13:17:49Z</time>
      </trkpt>
      <trkpt lat="41.76181" lon="9.27155">
        <ele>372.15</ele>
        <time>2021-05-07T13:17:54Z</time>
      </trkpt>
      <trkpt lat="41.76179" lon="9.27156">
        <ele>370.83</ele>
        <time>2021-05-07T13:17:56Z</time>
      </trkpt>
      <trkpt lat="41.76163" lon="9.27156">
        <ele>371.08</ele>
        <time>2021-05-07T13:18:08Z</time>
      </trkpt>
      <trkpt lat="41.76146" lon="9.27151">
        <ele>371.23</ele>
        <time>2021-05-07T13:18:19Z</time>
      </trkpt>
      <trkpt lat="41.76132" lon="9.27147">
        <ele>371.21</ele>
        <time>2021-05-07T13:18:27Z</time>
      </trkpt>
      <trkpt lat="41.7612" lon="9.2715">
        <ele>371.29</ele>
        <time>2021-05-07T13:18:36Z</time>
      </trkpt>
      <trkpt lat="41.76117" lon="9.27151">
        <ele>370.23</ele>
        <time>2021-05-07T13:18:39Z</time>
      </trkpt>
      <trkpt lat="41.76115" lon="9.27152">
        <ele>369.47</ele>
        <time>2021-05-07T13:18:41Z</time>
      </trkpt>
      <trkpt lat="41.7611" lon="9.27161">
        <ele>369.61</ele>
        <time>2021-05-07T13:18:49Z</time>
      </trkpt>
      <trkpt lat="41.76106" lon="9.27167">
        <ele>368.21</ele>
        <time>2021-05-07T13:18:53Z</time>
      </trkpt>
      <trkpt lat="41.76093" lon="9.27167">
        <ele>367.55</ele>
        <time>2021-05-07T13:19:07Z</time>
      </trkpt>
      <trkpt lat="41.76089" lon="9.27167">
        <ele>369.92</ele>
        <time>2021-05-07T13:19:11Z</time>
      </trkpt>
      <trkpt lat="41.76083" lon="9.2717">
        <ele>370.85</ele>
        <time>2021-05-07T13:19:15Z</time>
      </trkpt>
      <trkpt lat="41.76066" lon="9.2717">
        <ele>370.88</ele>
        <time>2021-05-07T13:19:23Z</time>
      </trkpt>
      <trkpt lat="41.76059" lon="9.27173">
        <ele>370.81</ele>
        <time>2021-05-07T13:19:28Z</time>
      </trkpt>
      <trkpt lat="41.76053" lon="9.27179">
        <ele>370.8</ele>
        <time>2021-05-07T13:19:34Z</time>
      </trkpt>
      <trkpt lat="41.76038" lon="9.27195">
        <ele>368.03</ele>
        <time>2021-05-07T13:19:47Z</time>
      </trkpt>
      <trkpt lat="41.76038" lon="9.27196">
        <ele>368.03</ele>
        <time>2021-05-07T13:19:48Z</time>
      </trkpt>
      <trkpt lat="41.76038" lon="9.27198">
        <ele>368.06</ele>
        <time>2021-05-07T13:19:49Z</time>
      </trkpt>
      <trkpt lat="41.76033" lon="9.27213">
        <ele>364.69</ele>
        <time>2021-05-07T13:19:59Z</time>
      </trkpt>
      <trkpt lat="41.76031" lon="9.27214">
        <ele>364.68</ele>
        <time>2021-05-07T13:20:00Z</time>
      </trkpt>
      <trkpt lat="41.76028" lon="9.27215">
        <ele>363.47</ele>
        <time>2021-05-07T13:20:01Z</time>
      </trkpt>
      <trkpt lat="41.76023" lon="9.27217">
        <ele>362.67</ele>
        <time>2021-05-07T13:20:03Z</time>
      </trkpt>
      <trkpt lat="41.76016" lon="9.27221">
        <ele>362.74</ele>
        <time>2021-05-07T13:20:07Z</time>
      </trkpt>
      <trkpt lat="41.76004" lon="9.27235">
        <ele>362.77</ele>
        <time>2021-05-07T13:20:16Z</time>
      </trkpt>
      <trkpt lat="41.76001" lon="9.27237">
        <ele>362.86</ele>
        <time>2021-05-07T13:20:18Z</time>
      </trkpt>
      <trkpt lat="41.75989" lon="9.27253">
        <ele>361.9</ele>
        <time>2021-05-07T13:20:29Z</time>
      </trkpt>
      <trkpt lat="41.75972" lon="9.27267">
        <ele>360.22</ele>
        <time>2021-05-07T13:20:40Z</time>
      </trkpt>
      <trkpt lat="41.75966" lon="9.27273">
        <ele>359.35</ele>
        <time>2021-05-07T13:20:44Z</time>
      </trkpt>
      <trkpt lat="41.75954" lon="9.27283">
        <ele>357.19</ele>
        <time>2021-05-07T13:20:52Z</time>
      </trkpt>
      <trkpt lat="41.7595" lon="9.27287">
        <ele>357.23</ele>
        <time>2021-05-07T13:20:55Z</time>
      </trkpt>
      <trkpt lat="41.75943" lon="9.27292">
        <ele>356.35</ele>
        <time>2021-05-07T13:20:59Z</time>
      </trkpt>
      <trkpt lat="41.75932" lon="9.273">
        <ele>355.47</ele>
        <time>2021-05-07T13:21:07Z</time>
      </trkpt>
      <trkpt lat="41.75927" lon="9.27308">
        <ele>355.49</ele>
        <time>2021-05-07T13:21:11Z</time>
      </trkpt>
      <trkpt lat="41.75907" lon="9.27317">
        <ele>354.74</ele>
        <time>2021-05-07T13:21:21Z</time>
      </trkpt>
      <trkpt lat="41.75897" lon="9.2732">
        <ele>354.79</ele>
        <time>2021-05-07T13:21:28Z</time>
      </trkpt>
      <trkpt lat="41.75889" lon="9.27325">
        <ele>352.13</ele>
        <time>2021-05-07T13:21:34Z</time>
      </trkpt>
      <trkpt lat="41.75873" lon="9.27326">
        <ele>352.12</ele>
        <time>2021-05-07T13:21:43Z</time>
      </trkpt>
      <trkpt lat="41.75849" lon="9.27337">
        <ele>349.69</ele>
        <time>2021-05-07T13:21:57Z</time>
      </trkpt>
      <trkpt lat="41.75832" lon="9.27342">
        <ele>349.7</ele>
        <time>2021-05-07T13:22:09Z</time>
      </trkpt>
      <trkpt lat="41.75818" lon="9.2734">
        <ele>349.67</ele>
        <time>2021-05-07T13:22:18Z</time>
      </trkpt>
      <trkpt lat="41.75812" lon="9.27336">
        <ele>349.64</ele>
        <time>2021-05-07T13:22:23Z</time>
      </trkpt>
      <trkpt lat="41.75798" lon="9.27326">
        <ele>349.58</ele>
        <time>2021-05-07T13:22:32Z</time>
      </trkpt>
      <trkpt lat="41.75781" lon="9.27341">
        <ele>348.56</ele>
        <time>2021-05-07T13:22:47Z</time>
      </trkpt>
      <trkpt lat="41.7577" lon="9.27359">
        <ele>346.85</ele>
        <time>2021-05-07T13:22:59Z</time>
      </trkpt>
      <trkpt lat="41.75764" lon="9.27363">
        <ele>345.95</ele>
        <time>2021-05-07T13:23:03Z</time>
      </trkpt>
      <trkpt lat="41.75763" lon="9.27365">
        <ele>345.96</ele>
        <time>2021-05-07T13:23:05Z</time>
      </trkpt>
      <trkpt lat="41.75758" lon="9.27371">
        <ele>345.96</ele>
        <time>2021-05-07T13:23:09Z</time>
      </trkpt>
      <trkpt lat="41.75749" lon="9.2738">
        <ele>344.4</ele>
        <time>2021-05-07T13:23:22Z</time>
      </trkpt>
      <trkpt lat="41.75732" lon="9.27377">
        <ele>342.81</ele>
        <time>2021-05-07T13:23:36Z</time>
      </trkpt>
      <trkpt lat="41.75723" lon="9.2737">
        <ele>342.86</ele>
        <time>2021-05-07T13:23:44Z</time>
      </trkpt>
      <trkpt lat="41.75717" lon="9.27363">
        <ele>345.66</ele>
        <time>2021-05-07T13:23:48Z</time>
      </trkpt>
      <trkpt lat="41.757" lon="9.27338">
        <ele>346.8</ele>
        <time>2021-05-07T13:24:01Z</time>
      </trkpt>
      <trkpt lat="41.75699" lon="9.27333">
        <ele>344.31</ele>
        <time>2021-05-07T13:24:04Z</time>
      </trkpt>
      <trkpt lat="41.75698" lon="9.27329">
        <ele>344.32</ele>
        <time>2021-05-07T13:24:06Z</time>
      </trkpt>
      <trkpt lat="41.75687" lon="9.27336">
        <ele>344.38</ele>
        <time>2021-05-07T13:24:18Z</time>
      </trkpt>
      <trkpt lat="41.75675" lon="9.2735">
        <ele>344.42</ele>
        <time>2021-05-07T13:24:28Z</time>
      </trkpt>
      <trkpt lat="41.75664" lon="9.27354">
        <ele>343.59</ele>
        <time>2021-05-07T13:24:35Z</time>
      </trkpt>
      <trkpt lat="41.75637" lon="9.27361">
        <ele>341.97</ele>
        <time>2021-05-07T13:24:52Z</time>
      </trkpt>
      <trkpt lat="41.7563" lon="9.27371">
        <ele>341.99</ele>
        <time>2021-05-07T13:24:59Z</time>
      </trkpt>
      <trkpt lat="41.75626" lon="9.27376">
        <ele>341.98</ele>
        <time>2021-05-07T13:25:03Z</time>
      </trkpt>
      <trkpt lat="41.75612" lon="9.27393">
        <ele>339.17</ele>
        <time>2021-05-07T13:25:14Z</time>
      </trkpt>
      <trkpt lat="41.75595" lon="9.27407">
        <ele>337.29</ele>
        <time>2021-05-07T13:25:26Z</time>
      </trkpt>
      <trkpt lat="41.75592" lon="9.2741">
        <ele>339.87</ele>
        <time>2021-05-07T13:25:28Z</time>
      </trkpt>
      <trkpt lat="41.7559" lon="9.27413">
        <ele>341.08</ele>
        <time>2021-05-07T13:25:30Z</time>
      </trkpt>
      <trkpt lat="41.75586" lon="9.27419">
        <ele>341.09</ele>
        <time>2021-05-07T13:25:34Z</time>
      </trkpt>
      <trkpt lat="41.7558" lon="9.27432">
        <ele>341.79</ele>
        <time>2021-05-07T13:25:41Z</time>
      </trkpt>
      <trkpt lat="41.75576" lon="9.27439">
        <ele>339.28</ele>
        <time>2021-05-07T13:25:45Z</time>
      </trkpt>
      <trkpt lat="41.7557" lon="9.27452">
        <ele>337.6</ele>
        <time>2021-05-07T13:25:52Z</time>
      </trkpt>
      <trkpt lat="41.75548" lon="9.27476">
        <ele>337.59</ele>
        <time>2021-05-07T13:26:06Z</time>
      </trkpt>
      <trkpt lat="41.75544" lon="9.27481">
        <ele>336.27</ele>
        <time>2021-05-07T13:26:10Z</time>
      </trkpt>
      <trkpt lat="41.75539" lon="9.27489">
        <ele>335.46</ele>
        <time>2021-05-07T13:26:14Z</time>
      </trkpt>
      <trkpt lat="41.75525" lon="9.27506">
        <ele>334.63</ele>
        <time>2021-05-07T13:26:25Z</time>
      </trkpt>
      <trkpt lat="41.75511" lon="9.27525">
        <ele>332.92</ele>
        <time>2021-05-07T13:26:38Z</time>
      </trkpt>
      <trkpt lat="41.75487" lon="9.27538">
        <ele>330.39</ele>
        <time>2021-05-07T13:26:52Z</time>
      </trkpt>
      <trkpt lat="41.75468" lon="9.27549">
        <ele>327.48</ele>
        <time>2021-05-07T13:27:05Z</time>
      </trkpt>
      <trkpt lat="41.75451" lon="9.27547">
        <ele>323.89</ele>
        <time>2021-05-07T13:27:17Z</time>
      </trkpt>
      <trkpt lat="41.75449" lon="9.27547">
        <ele>323.91</ele>
        <time>2021-05-07T13:27:18Z</time>
      </trkpt>
      <trkpt lat="41.75446" lon="9.27549">
        <ele>326.59</ele>
        <time>2021-05-07T13:27:21Z</time>
      </trkpt>
      <trkpt lat="41.75444" lon="9.27553">
        <ele>326.57</ele>
        <time>2021-05-07T13:27:23Z</time>
      </trkpt>
      <trkpt lat="41.75445" lon="9.27561">
        <ele>326.4</ele>
        <time>2021-05-07T13:27:28Z</time>
      </trkpt>
      <trkpt lat="41.75443" lon="9.27574">
        <ele>326.49</ele>
        <time>2021-05-07T13:27:35Z</time>
      </trkpt>
      <trkpt lat="41.75445" lon="9.27594">
        <ele>326.4</ele>
        <time>2021-05-07T13:27:46Z</time>
      </trkpt>
      <trkpt lat="41.75446" lon="9.27606">
        <ele>326.35</ele>
        <time>2021-05-07T13:27:51Z</time>
      </trkpt>
      <trkpt lat="41.75445" lon="9.27612">
        <ele>324.07</ele>
        <time>2021-05-07T13:27:54Z</time>
      </trkpt>
      <trkpt lat="41.75443" lon="9.27632">
        <ele>323.16</ele>
        <time>2021-05-07T13:28:03Z</time>
      </trkpt>
      <trkpt lat="41.75438" lon="9.27653">
        <ele>321.33</ele>
        <time>2021-05-07T13:28:12Z</time>
      </trkpt>
      <trkpt lat="41.75416" lon="9.27647">
        <ele>321.29</ele>
        <time>2021-05-07T13:28:25Z</time>
      </trkpt>
      <trkpt lat="41.75407" lon="9.27626">
        <ele>320.39</ele>
        <time>2021-05-07T13:28:38Z</time>
      </trkpt>
      <trkpt lat="41.75405" lon="9.27624">
        <ele>320.38</ele>
        <time>2021-05-07T13:28:40Z</time>
      </trkpt>
      <trkpt lat="41.75398" lon="9.2762">
        <ele>319.49</ele>
        <time>2021-05-07T13:28:46Z</time>
      </trkpt>
      <trkpt lat="41.75378" lon="9.27613">
        <ele>319.39</ele>
        <time>2021-05-07T13:28:58Z</time>
      </trkpt>
      <trkpt lat="41.7536" lon="9.27614">
        <ele>317.57</ele>
        <time>2021-05-07T13:29:12Z</time>
      </trkpt>
      <trkpt lat="41.75345" lon="9.27613">
        <ele>314.19</ele>
        <time>2021-05-07T13:29:22Z</time>
      </trkpt>
      <trkpt lat="41.75344" lon="9.27613">
        <ele>314.19</ele>
        <time>2021-05-07T13:29:23Z</time>
      </trkpt>
      <trkpt lat="41.75343" lon="9.27613">
        <ele>314.16</ele>
        <time>2021-05-07T13:29:24Z</time>
      </trkpt>
      <trkpt lat="41.75327" lon="9.2761">
        <ele>311.83</ele>
        <time>2021-05-07T13:29:39Z</time>
      </trkpt>
      <trkpt lat="41.75312" lon="9.27599">
        <ele>309.04</ele>
        <time>2021-05-07T13:29:58Z</time>
      </trkpt>
      <trkpt lat="41.75311" lon="9.27597">
        <ele>307.75</ele>
        <time>2021-05-07T13:30:00Z</time>
      </trkpt>
      <trkpt lat="41.75306" lon="9.27584">
        <ele>306.16</ele>
        <time>2021-05-07T13:30:09Z</time>
      </trkpt>
      <trkpt lat="41.75296" lon="9.27573">
        <ele>303.21</ele>
        <time>2021-05-07T13:30:20Z</time>
      </trkpt>
      <trkpt lat="41.75289" lon="9.27576">
        <ele>302.93</ele>
        <time>2021-05-07T13:30:31Z</time>
      </trkpt>
      <trkpt lat="41.75292" lon="9.2758">
        <ele>305.19</ele>
        <time>2021-05-07T13:30:36Z</time>
      </trkpt>
      <trkpt lat="41.75294" lon="9.27586">
        <ele>305.04</ele>
        <time>2021-05-07T13:30:41Z</time>
      </trkpt>
      <trkpt lat="41.753" lon="9.27608">
        <ele>304.64</ele>
        <time>2021-05-07T13:30:54Z</time>
      </trkpt>
      <trkpt lat="41.75302" lon="9.27618">
        <ele>304.5</ele>
        <time>2021-05-07T13:30:59Z</time>
      </trkpt>
      <trkpt lat="41.75304" lon="9.27628">
        <ele>301.96</ele>
        <time>2021-05-07T13:31:04Z</time>
      </trkpt>
      <trkpt lat="41.7531" lon="9.27647">
        <ele>298.95</ele>
        <time>2021-05-07T13:31:15Z</time>
      </trkpt>
      <trkpt lat="41.75313" lon="9.27658">
        <ele>297.92</ele>
        <time>2021-05-07T13:31:20Z</time>
      </trkpt>
      <trkpt lat="41.75318" lon="9.2767">
        <ele>297.15</ele>
        <time>2021-05-07T13:31:26Z</time>
      </trkpt>
      <trkpt lat="41.75329" lon="9.2769">
        <ele>296.2</ele>
        <time>2021-05-07T13:31:39Z</time>
      </trkpt>
      <trkpt lat="41.75329" lon="9.27691">
        <ele>296.19</ele>
        <time>2021-05-07T13:31:40Z</time>
      </trkpt>
      <trkpt lat="41.7534" lon="9.27701">
        <ele>293.97</ele>
        <time>2021-05-07T13:31:53Z</time>
      </trkpt>
      <trkpt lat="41.75335" lon="9.27735">
        <ele>293.06</ele>
        <time>2021-05-07T13:32:06Z</time>
      </trkpt>
      <trkpt lat="41.75318" lon="9.27755">
        <ele>292.24</ele>
        <time>2021-05-07T13:32:17Z</time>
      </trkpt>
      <trkpt lat="41.75315" lon="9.27765">
        <ele>292.28</ele>
        <time>2021-05-07T13:32:23Z</time>
      </trkpt>
      <trkpt lat="41.75307" lon="9.27788">
        <ele>291.61</ele>
        <time>2021-05-07T13:32:36Z</time>
      </trkpt>
      <trkpt lat="41.75312" lon="9.27819">
        <ele>290.98</ele>
        <time>2021-05-07T13:32:50Z</time>
      </trkpt>
      <trkpt lat="41.75315" lon="9.27828">
        <ele>290.88</ele>
        <time>2021-05-07T13:32:54Z</time>
      </trkpt>
      <trkpt lat="41.75321" lon="9.27835">
        <ele>290.1</ele>
        <time>2021-05-07T13:32:58Z</time>
      </trkpt>
      <trkpt lat="41.75323" lon="9.27854">
        <ele>288.94</ele>
        <time>2021-05-07T13:33:08Z</time>
      </trkpt>
      <trkpt lat="41.75329" lon="9.27875">
        <ele>287.38</ele>
        <time>2021-05-07T13:33:17Z</time>
      </trkpt>
      <trkpt lat="41.75327" lon="9.27887">
        <ele>286.58</ele>
        <time>2021-05-07T13:33:22Z</time>
      </trkpt>
      <trkpt lat="41.75333" lon="9.27914">
        <ele>286.58</ele>
        <time>2021-05-07T13:33:36Z</time>
      </trkpt>
      <trkpt lat="41.75339" lon="9.2794">
        <ele>286.59</ele>
        <time>2021-05-07T13:33:50Z</time>
      </trkpt>
      <trkpt lat="41.75343" lon="9.27958">
        <ele>286.53</ele>
        <time>2021-05-07T13:34:01Z</time>
      </trkpt>
      <trkpt lat="41.75345" lon="9.27965">
        <ele>286.51</ele>
        <time>2021-05-07T13:34:05Z</time>
      </trkpt>
      <trkpt lat="41.75352" lon="9.27986">
        <ele>285.72</ele>
        <time>2021-05-07T13:34:15Z</time>
      </trkpt>
      <trkpt lat="41.75352" lon="9.27993">
        <ele>285.72</ele>
        <time>2021-05-07T13:34:19Z</time>
      </trkpt>
      <trkpt lat="41.75354" lon="9.28011">
        <ele>285.69</ele>
        <time>2021-05-07T13:34:29Z</time>
      </trkpt>
      <trkpt lat="41.75355" lon="9.28014">
        <ele>285.68</ele>
        <time>2021-05-07T13:34:31Z</time>
      </trkpt>
      <trkpt lat="41.75357" lon="9.28019">
        <ele>285.58</ele>
        <time>2021-05-07T13:34:36Z</time>
      </trkpt>
      <trkpt lat="41.75363" lon="9.28041">
        <ele>283.81</ele>
        <time>2021-05-07T13:34:46Z</time>
      </trkpt>
      <trkpt lat="41.75363" lon="9.28052">
        <ele>280.73</ele>
        <time>2021-05-07T13:34:51Z</time>
      </trkpt>
      <trkpt lat="41.75362" lon="9.28063">
        <ele>284.74</ele>
        <time>2021-05-07T13:34:57Z</time>
      </trkpt>
      <trkpt lat="41.75362" lon="9.28066">
        <ele>286.08</ele>
        <time>2021-05-07T13:34:59Z</time>
      </trkpt>
      <trkpt lat="41.75359" lon="9.28067">
        <ele>282.51</ele>
        <time>2021-05-07T13:35:02Z</time>
      </trkpt>
      <trkpt lat="41.75358" lon="9.28068">
        <ele>282.54</ele>
        <time>2021-05-07T13:35:03Z</time>
      </trkpt>
      <trkpt lat="41.75354" lon="9.2807">
        <ele>279.78</ele>
        <time>2021-05-07T13:35:06Z</time>
      </trkpt>
      <trkpt lat="41.75345" lon="9.28074">
        <ele>283.59</ele>
        <time>2021-05-07T13:35:11Z</time>
      </trkpt>
      <trkpt lat="41.75343" lon="9.28074">
        <ele>283.63</ele>
        <time>2021-05-07T13:35:12Z</time>
      </trkpt>
      <trkpt lat="41.75331" lon="9.28083">
        <ele>286.78</ele>
        <time>2021-05-07T13:35:27Z</time>
      </trkpt>
      <trkpt lat="41.75333" lon="9.28083">
        <ele>288.49</ele>
        <time>2021-05-07T13:35:34Z</time>
      </trkpt>
      <trkpt lat="41.75349" lon="9.28078">
        <ele>288.22</ele>
        <time>2021-05-07T13:35:50Z</time>
      </trkpt>
      <trkpt lat="41.75357" lon="9.28071">
        <ele>285.62</ele>
        <time>2021-05-07T13:36:00Z</time>
      </trkpt>
      <trkpt lat="41.75359" lon="9.2807">
        <ele>281.74</ele>
        <time>2021-05-07T13:36:07Z</time>
      </trkpt>
      <trkpt lat="41.75359" lon="9.2807">
        <ele>281.73</ele>
        <time>2021-05-07T13:36:08Z</time>
      </trkpt>
      <trkpt lat="41.7536" lon="9.28071">
        <ele>284.85</ele>
        <time>2021-05-07T13:36:31Z</time>
      </trkpt>
      <trkpt lat="41.7536" lon="9.28071">
        <ele>285.69</ele>
        <time>2021-05-07T13:36:33Z</time>
      </trkpt>
      <trkpt lat="41.7536" lon="9.28071">
        <ele>283.07</ele>
        <time>2021-05-07T13:36:42Z</time>
      </trkpt>
      <trkpt lat="41.7536" lon="9.28071">
        <ele>281.94</ele>
        <time>2021-05-07T13:36:44Z</time>
      </trkpt>
      <trkpt lat="41.7536" lon="9.28072">
        <ele>280.62</ele>
        <time>2021-05-07T13:36:46Z</time>
      </trkpt>
      <trkpt lat="41.75361" lon="9.28072">
        <ele>282.29</ele>
        <time>2021-05-07T13:37:12Z</time>
      </trkpt>
      <trkpt lat="41.75362" lon="9.28072">
        <ele>283.67</ele>
        <time>2021-05-07T13:37:40Z</time>
      </trkpt>
      <trkpt lat="41.75357" lon="9.28066">
        <ele>280.95</ele>
        <time>2021-05-07T13:38:06Z</time>
      </trkpt>
      <trkpt lat="41.75356" lon="9.28067">
        <ele>281.68</ele>
        <time>2021-05-07T13:38:21Z</time>
      </trkpt>
      <trkpt lat="41.75356" lon="9.28068">
        <ele>280.09</ele>
        <time>2021-05-07T13:38:42Z</time>
      </trkpt>
      <trkpt lat="41.75356" lon="9.28068">
        <ele>281.2</ele>
        <time>2021-05-07T13:39:07Z</time>
      </trkpt>
      <trkpt lat="41.75356" lon="9.28068">
        <ele>280.33</ele>
        <time>2021-05-07T13:39:32Z</time>
      </trkpt>
      <trkpt lat="41.75355" lon="9.28069">
        <ele>282.31</ele>
        <time>2021-05-07T13:40:11Z</time>
      </trkpt>
      <trkpt lat="41.75355" lon="9.28068">
        <ele>281.9</ele>
        <time>2021-05-07T13:40:51Z</time>
      </trkpt>
      <trkpt lat="41.75355" lon="9.28068">
        <ele>279.46</ele>
        <time>2021-05-07T13:41:01Z</time>
      </trkpt>
      <trkpt lat="41.75355" lon="9.28068">
        <ele>279.47</ele>
        <time>2021-05-07T13:41:14Z</time>
      </trkpt>
    </trkseg>
  </trk>
</gpx>